<?xml version="1.0" encoding="UTF-8" standalone="no" ?>
<gpx xmlns="http://www.topografix.com/GPX/1/1" xmlns:xsi="http://www.w3.org/2001/XMLSchema-instance" xsi:schemaLocation="http://www.topografix.com/GPX/1/1 http://www.topografix.com/GPX/1/1/gpx.xsd" version="1.1" creator="VisuGPX - https://www.visugpx.com">
  <metadata>
    <name>Course à pied dans l'après-midi</name>
  </metadata>
  <trk>
    <name><![CDATA[Course à pied dans l'après-midi_1]]></name>
    <trkseg>
      <trkpt lat="43.64761" lon="1.37625">
        <ele>148</ele>
        <time>2024-11-06T16:05:07Z</time>
      </trkpt>
      <trkpt lat="43.64761" lon="1.37625">
        <ele>148</ele>
        <time>2024-11-06T16:05:08Z</time>
      </trkpt>
      <trkpt lat="43.64764" lon="1.37622">
        <ele>148</ele>
        <time>2024-11-06T16:05:09Z</time>
      </trkpt>
      <trkpt lat="43.64766" lon="1.3762">
        <ele>148</ele>
        <time>2024-11-06T16:05:10Z</time>
      </trkpt>
      <trkpt lat="43.64768" lon="1.37618">
        <ele>148</ele>
        <time>2024-11-06T16:05:11Z</time>
      </trkpt>
      <trkpt lat="43.6477" lon="1.37616">
        <ele>148</ele>
        <time>2024-11-06T16:05:12Z</time>
      </trkpt>
      <trkpt lat="43.64772" lon="1.37614">
        <ele>148</ele>
        <time>2024-11-06T16:05:13Z</time>
      </trkpt>
      <trkpt lat="43.64774" lon="1.37613">
        <ele>148</ele>
        <time>2024-11-06T16:05:14Z</time>
      </trkpt>
      <trkpt lat="43.64776" lon="1.37612">
        <ele>148</ele>
        <time>2024-11-06T16:05:15Z</time>
      </trkpt>
      <trkpt lat="43.64776" lon="1.3761">
        <ele>148</ele>
        <time>2024-11-06T16:05:16Z</time>
      </trkpt>
      <trkpt lat="43.64778" lon="1.37608">
        <ele>148</ele>
        <time>2024-11-06T16:05:17Z</time>
      </trkpt>
      <trkpt lat="43.64778" lon="1.37608">
        <ele>148</ele>
        <time>2024-11-06T16:05:18Z</time>
      </trkpt>
      <trkpt lat="43.64781" lon="1.37606">
        <ele>148</ele>
        <time>2024-11-06T16:05:19Z</time>
      </trkpt>
      <trkpt lat="43.64782" lon="1.37604">
        <ele>148</ele>
        <time>2024-11-06T16:05:20Z</time>
      </trkpt>
      <trkpt lat="43.64784" lon="1.37602">
        <ele>148</ele>
        <time>2024-11-06T16:05:21Z</time>
      </trkpt>
      <trkpt lat="43.64786" lon="1.37601">
        <ele>148</ele>
        <time>2024-11-06T16:05:22Z</time>
      </trkpt>
      <trkpt lat="43.64788" lon="1.37599">
        <ele>148</ele>
        <time>2024-11-06T16:05:23Z</time>
      </trkpt>
      <trkpt lat="43.64791" lon="1.37598">
        <ele>148</ele>
        <time>2024-11-06T16:05:24Z</time>
      </trkpt>
      <trkpt lat="43.64795" lon="1.37597">
        <ele>148</ele>
        <time>2024-11-06T16:05:25Z</time>
      </trkpt>
      <trkpt lat="43.64796" lon="1.37597">
        <ele>148</ele>
        <time>2024-11-06T16:05:26Z</time>
      </trkpt>
      <trkpt lat="43.64799" lon="1.37597">
        <ele>148</ele>
        <time>2024-11-06T16:05:27Z</time>
      </trkpt>
      <trkpt lat="43.64801" lon="1.37598">
        <ele>148</ele>
        <time>2024-11-06T16:05:28Z</time>
      </trkpt>
      <trkpt lat="43.64804" lon="1.37599">
        <ele>148</ele>
        <time>2024-11-06T16:05:29Z</time>
      </trkpt>
      <trkpt lat="43.64806" lon="1.376">
        <ele>148</ele>
        <time>2024-11-06T16:05:30Z</time>
      </trkpt>
      <trkpt lat="43.64808" lon="1.37602">
        <ele>148</ele>
        <time>2024-11-06T16:05:31Z</time>
      </trkpt>
      <trkpt lat="43.64811" lon="1.37603">
        <ele>148</ele>
        <time>2024-11-06T16:05:32Z</time>
      </trkpt>
      <trkpt lat="43.64814" lon="1.37605">
        <ele>148</ele>
        <time>2024-11-06T16:05:33Z</time>
      </trkpt>
      <trkpt lat="43.64817" lon="1.37607">
        <ele>148</ele>
        <time>2024-11-06T16:05:34Z</time>
      </trkpt>
      <trkpt lat="43.6482" lon="1.37608">
        <ele>148</ele>
        <time>2024-11-06T16:05:35Z</time>
      </trkpt>
      <trkpt lat="43.64822" lon="1.3761">
        <ele>148</ele>
        <time>2024-11-06T16:05:36Z</time>
      </trkpt>
      <trkpt lat="43.64824" lon="1.37612">
        <ele>148</ele>
        <time>2024-11-06T16:05:37Z</time>
      </trkpt>
      <trkpt lat="43.64827" lon="1.37614">
        <ele>148</ele>
        <time>2024-11-06T16:05:38Z</time>
      </trkpt>
      <trkpt lat="43.6483" lon="1.37616">
        <ele>148</ele>
        <time>2024-11-06T16:05:39Z</time>
      </trkpt>
      <trkpt lat="43.64833" lon="1.37618">
        <ele>148</ele>
        <time>2024-11-06T16:05:40Z</time>
      </trkpt>
      <trkpt lat="43.64836" lon="1.3762">
        <ele>148</ele>
        <time>2024-11-06T16:05:41Z</time>
      </trkpt>
      <trkpt lat="43.64839" lon="1.37621">
        <ele>148</ele>
        <time>2024-11-06T16:05:42Z</time>
      </trkpt>
      <trkpt lat="43.64841" lon="1.37622">
        <ele>148</ele>
        <time>2024-11-06T16:05:43Z</time>
      </trkpt>
      <trkpt lat="43.64845" lon="1.37624">
        <ele>148</ele>
        <time>2024-11-06T16:05:44Z</time>
      </trkpt>
      <trkpt lat="43.64846" lon="1.37625">
        <ele>148</ele>
        <time>2024-11-06T16:05:45Z</time>
      </trkpt>
      <trkpt lat="43.6485" lon="1.37627">
        <ele>148</ele>
        <time>2024-11-06T16:05:46Z</time>
      </trkpt>
      <trkpt lat="43.64851" lon="1.37628">
        <ele>148</ele>
        <time>2024-11-06T16:05:47Z</time>
      </trkpt>
      <trkpt lat="43.64854" lon="1.3763">
        <ele>148</ele>
        <time>2024-11-06T16:05:48Z</time>
      </trkpt>
      <trkpt lat="43.64856" lon="1.37632">
        <ele>148</ele>
        <time>2024-11-06T16:05:49Z</time>
      </trkpt>
      <trkpt lat="43.64858" lon="1.37634">
        <ele>148</ele>
        <time>2024-11-06T16:05:50Z</time>
      </trkpt>
      <trkpt lat="43.64861" lon="1.37636">
        <ele>148</ele>
        <time>2024-11-06T16:05:51Z</time>
      </trkpt>
      <trkpt lat="43.64863" lon="1.37637">
        <ele>148</ele>
        <time>2024-11-06T16:05:52Z</time>
      </trkpt>
      <trkpt lat="43.64865" lon="1.37639">
        <ele>148</ele>
        <time>2024-11-06T16:05:53Z</time>
      </trkpt>
      <trkpt lat="43.64867" lon="1.37641">
        <ele>148</ele>
        <time>2024-11-06T16:05:54Z</time>
      </trkpt>
      <trkpt lat="43.6487" lon="1.37643">
        <ele>148</ele>
        <time>2024-11-06T16:05:55Z</time>
      </trkpt>
      <trkpt lat="43.64872" lon="1.37645">
        <ele>148</ele>
        <time>2024-11-06T16:05:56Z</time>
      </trkpt>
      <trkpt lat="43.64874" lon="1.37647">
        <ele>148</ele>
        <time>2024-11-06T16:05:57Z</time>
      </trkpt>
      <trkpt lat="43.64876" lon="1.37648">
        <ele>148</ele>
        <time>2024-11-06T16:05:58Z</time>
      </trkpt>
      <trkpt lat="43.64878" lon="1.37648">
        <ele>148</ele>
        <time>2024-11-06T16:05:59Z</time>
      </trkpt>
      <trkpt lat="43.6488" lon="1.37649">
        <ele>148</ele>
        <time>2024-11-06T16:06:00Z</time>
      </trkpt>
      <trkpt lat="43.64882" lon="1.37649">
        <ele>148</ele>
        <time>2024-11-06T16:06:01Z</time>
      </trkpt>
      <trkpt lat="43.64884" lon="1.37649">
        <ele>148</ele>
        <time>2024-11-06T16:06:02Z</time>
      </trkpt>
      <trkpt lat="43.64887" lon="1.3765">
        <ele>148</ele>
        <time>2024-11-06T16:06:03Z</time>
      </trkpt>
      <trkpt lat="43.64888" lon="1.37651">
        <ele>148</ele>
        <time>2024-11-06T16:06:04Z</time>
      </trkpt>
      <trkpt lat="43.64889" lon="1.37654">
        <ele>148</ele>
        <time>2024-11-06T16:06:05Z</time>
      </trkpt>
      <trkpt lat="43.64891" lon="1.37659">
        <ele>148</ele>
        <time>2024-11-06T16:06:06Z</time>
      </trkpt>
      <trkpt lat="43.64891" lon="1.37661">
        <ele>148</ele>
        <time>2024-11-06T16:06:07Z</time>
      </trkpt>
      <trkpt lat="43.64892" lon="1.37665">
        <ele>148</ele>
        <time>2024-11-06T16:06:08Z</time>
      </trkpt>
      <trkpt lat="43.64892" lon="1.37668">
        <ele>148</ele>
        <time>2024-11-06T16:06:09Z</time>
      </trkpt>
      <trkpt lat="43.64893" lon="1.37672">
        <ele>148</ele>
        <time>2024-11-06T16:06:10Z</time>
      </trkpt>
      <trkpt lat="43.64893" lon="1.37675">
        <ele>148</ele>
        <time>2024-11-06T16:06:11Z</time>
      </trkpt>
      <trkpt lat="43.64894" lon="1.37678">
        <ele>148</ele>
        <time>2024-11-06T16:06:12Z</time>
      </trkpt>
      <trkpt lat="43.64894" lon="1.37682">
        <ele>148</ele>
        <time>2024-11-06T16:06:13Z</time>
      </trkpt>
      <trkpt lat="43.64895" lon="1.37685">
        <ele>148</ele>
        <time>2024-11-06T16:06:14Z</time>
      </trkpt>
      <trkpt lat="43.64895" lon="1.37688">
        <ele>148</ele>
        <time>2024-11-06T16:06:15Z</time>
      </trkpt>
      <trkpt lat="43.64897" lon="1.37692">
        <ele>148</ele>
        <time>2024-11-06T16:06:16Z</time>
      </trkpt>
      <trkpt lat="43.64897" lon="1.37695">
        <ele>148</ele>
        <time>2024-11-06T16:06:17Z</time>
      </trkpt>
      <trkpt lat="43.64898" lon="1.37698">
        <ele>148</ele>
        <time>2024-11-06T16:06:18Z</time>
      </trkpt>
      <trkpt lat="43.64899" lon="1.37702">
        <ele>148</ele>
        <time>2024-11-06T16:06:19Z</time>
      </trkpt>
      <trkpt lat="43.64899" lon="1.37706">
        <ele>148</ele>
        <time>2024-11-06T16:06:20Z</time>
      </trkpt>
      <trkpt lat="43.649" lon="1.37709">
        <ele>148</ele>
        <time>2024-11-06T16:06:21Z</time>
      </trkpt>
      <trkpt lat="43.64901" lon="1.37714">
        <ele>148</ele>
        <time>2024-11-06T16:06:22Z</time>
      </trkpt>
      <trkpt lat="43.64901" lon="1.37716">
        <ele>148</ele>
        <time>2024-11-06T16:06:23Z</time>
      </trkpt>
      <trkpt lat="43.64902" lon="1.37719">
        <ele>148</ele>
        <time>2024-11-06T16:06:24Z</time>
      </trkpt>
      <trkpt lat="43.64903" lon="1.37722">
        <ele>148</ele>
        <time>2024-11-06T16:06:25Z</time>
      </trkpt>
      <trkpt lat="43.64904" lon="1.37727">
        <ele>148</ele>
        <time>2024-11-06T16:06:26Z</time>
      </trkpt>
      <trkpt lat="43.64904" lon="1.37729">
        <ele>148</ele>
        <time>2024-11-06T16:06:27Z</time>
      </trkpt>
      <trkpt lat="43.64905" lon="1.37733">
        <ele>148</ele>
        <time>2024-11-06T16:06:28Z</time>
      </trkpt>
      <trkpt lat="43.64905" lon="1.37735">
        <ele>148</ele>
        <time>2024-11-06T16:06:29Z</time>
      </trkpt>
      <trkpt lat="43.64906" lon="1.37738">
        <ele>148</ele>
        <time>2024-11-06T16:06:30Z</time>
      </trkpt>
      <trkpt lat="43.64906" lon="1.37741">
        <ele>148</ele>
        <time>2024-11-06T16:06:31Z</time>
      </trkpt>
      <trkpt lat="43.64907" lon="1.37744">
        <ele>148</ele>
        <time>2024-11-06T16:06:32Z</time>
      </trkpt>
      <trkpt lat="43.64908" lon="1.37747">
        <ele>148</ele>
        <time>2024-11-06T16:06:33Z</time>
      </trkpt>
      <trkpt lat="43.64908" lon="1.3775">
        <ele>148</ele>
        <time>2024-11-06T16:06:34Z</time>
      </trkpt>
      <trkpt lat="43.64908" lon="1.37753">
        <ele>148</ele>
        <time>2024-11-06T16:06:35Z</time>
      </trkpt>
      <trkpt lat="43.64909" lon="1.37756">
        <ele>148</ele>
        <time>2024-11-06T16:06:36Z</time>
      </trkpt>
      <trkpt lat="43.6491" lon="1.37759">
        <ele>148</ele>
        <time>2024-11-06T16:06:37Z</time>
      </trkpt>
      <trkpt lat="43.6491" lon="1.37763">
        <ele>148</ele>
        <time>2024-11-06T16:06:38Z</time>
      </trkpt>
      <trkpt lat="43.6491" lon="1.37766">
        <ele>147</ele>
        <time>2024-11-06T16:06:39Z</time>
      </trkpt>
      <trkpt lat="43.64911" lon="1.3777">
        <ele>148</ele>
        <time>2024-11-06T16:06:40Z</time>
      </trkpt>
      <trkpt lat="43.64912" lon="1.37775">
        <ele>148</ele>
        <time>2024-11-06T16:06:41Z</time>
      </trkpt>
      <trkpt lat="43.64912" lon="1.37776">
        <ele>148</ele>
        <time>2024-11-06T16:06:42Z</time>
      </trkpt>
      <trkpt lat="43.64913" lon="1.37779">
        <ele>148</ele>
        <time>2024-11-06T16:06:43Z</time>
      </trkpt>
      <trkpt lat="43.64914" lon="1.37782">
        <ele>148</ele>
        <time>2024-11-06T16:06:44Z</time>
      </trkpt>
      <trkpt lat="43.64915" lon="1.37785">
        <ele>148</ele>
        <time>2024-11-06T16:06:45Z</time>
      </trkpt>
      <trkpt lat="43.64915" lon="1.37788">
        <ele>148</ele>
        <time>2024-11-06T16:06:46Z</time>
      </trkpt>
      <trkpt lat="43.64916" lon="1.37791">
        <ele>148</ele>
        <time>2024-11-06T16:06:47Z</time>
      </trkpt>
      <trkpt lat="43.64916" lon="1.37793">
        <ele>148</ele>
        <time>2024-11-06T16:06:48Z</time>
      </trkpt>
      <trkpt lat="43.64917" lon="1.37796">
        <ele>148</ele>
        <time>2024-11-06T16:06:49Z</time>
      </trkpt>
      <trkpt lat="43.64918" lon="1.37799">
        <ele>147</ele>
        <time>2024-11-06T16:06:50Z</time>
      </trkpt>
      <trkpt lat="43.64918" lon="1.37802">
        <ele>147</ele>
        <time>2024-11-06T16:06:51Z</time>
      </trkpt>
      <trkpt lat="43.64919" lon="1.37806">
        <ele>147</ele>
        <time>2024-11-06T16:06:52Z</time>
      </trkpt>
      <trkpt lat="43.64919" lon="1.37809">
        <ele>148</ele>
        <time>2024-11-06T16:06:53Z</time>
      </trkpt>
      <trkpt lat="43.6492" lon="1.37812">
        <ele>148</ele>
        <time>2024-11-06T16:06:54Z</time>
      </trkpt>
      <trkpt lat="43.64921" lon="1.37815">
        <ele>148</ele>
        <time>2024-11-06T16:06:55Z</time>
      </trkpt>
      <trkpt lat="43.64922" lon="1.37818">
        <ele>147</ele>
        <time>2024-11-06T16:06:56Z</time>
      </trkpt>
      <trkpt lat="43.64922" lon="1.37821">
        <ele>147</ele>
        <time>2024-11-06T16:06:57Z</time>
      </trkpt>
      <trkpt lat="43.64923" lon="1.37825">
        <ele>147</ele>
        <time>2024-11-06T16:06:58Z</time>
      </trkpt>
      <trkpt lat="43.64924" lon="1.37828">
        <ele>147</ele>
        <time>2024-11-06T16:06:59Z</time>
      </trkpt>
      <trkpt lat="43.64925" lon="1.37833">
        <ele>147</ele>
        <time>2024-11-06T16:07:00Z</time>
      </trkpt>
      <trkpt lat="43.64925" lon="1.37835">
        <ele>147</ele>
        <time>2024-11-06T16:07:01Z</time>
      </trkpt>
      <trkpt lat="43.64926" lon="1.37838">
        <ele>147</ele>
        <time>2024-11-06T16:07:02Z</time>
      </trkpt>
      <trkpt lat="43.64928" lon="1.37841">
        <ele>147</ele>
        <time>2024-11-06T16:07:03Z</time>
      </trkpt>
      <trkpt lat="43.6493" lon="1.37844">
        <ele>147</ele>
        <time>2024-11-06T16:07:04Z</time>
      </trkpt>
      <trkpt lat="43.64931" lon="1.37847">
        <ele>147</ele>
        <time>2024-11-06T16:07:05Z</time>
      </trkpt>
      <trkpt lat="43.64932" lon="1.37851">
        <ele>147</ele>
        <time>2024-11-06T16:07:06Z</time>
      </trkpt>
      <trkpt lat="43.64934" lon="1.37856">
        <ele>147</ele>
        <time>2024-11-06T16:07:07Z</time>
      </trkpt>
      <trkpt lat="43.64935" lon="1.37858">
        <ele>147</ele>
        <time>2024-11-06T16:07:08Z</time>
      </trkpt>
      <trkpt lat="43.64936" lon="1.37861">
        <ele>147</ele>
        <time>2024-11-06T16:07:09Z</time>
      </trkpt>
      <trkpt lat="43.64937" lon="1.37865">
        <ele>147</ele>
        <time>2024-11-06T16:07:10Z</time>
      </trkpt>
      <trkpt lat="43.64939" lon="1.37868">
        <ele>147</ele>
        <time>2024-11-06T16:07:11Z</time>
      </trkpt>
      <trkpt lat="43.64941" lon="1.37871">
        <ele>147</ele>
        <time>2024-11-06T16:07:12Z</time>
      </trkpt>
      <trkpt lat="43.64944" lon="1.37873">
        <ele>147</ele>
        <time>2024-11-06T16:07:13Z</time>
      </trkpt>
      <trkpt lat="43.64947" lon="1.37875">
        <ele>147</ele>
        <time>2024-11-06T16:07:14Z</time>
      </trkpt>
      <trkpt lat="43.64949" lon="1.37878">
        <ele>147</ele>
        <time>2024-11-06T16:07:15Z</time>
      </trkpt>
      <trkpt lat="43.6495" lon="1.37882">
        <ele>147</ele>
        <time>2024-11-06T16:07:16Z</time>
      </trkpt>
      <trkpt lat="43.64951" lon="1.37885">
        <ele>147</ele>
        <time>2024-11-06T16:07:17Z</time>
      </trkpt>
      <trkpt lat="43.64953" lon="1.37889">
        <ele>146</ele>
        <time>2024-11-06T16:07:18Z</time>
      </trkpt>
      <trkpt lat="43.64953" lon="1.37894">
        <ele>146</ele>
        <time>2024-11-06T16:07:19Z</time>
      </trkpt>
      <trkpt lat="43.64954" lon="1.37896">
        <ele>146</ele>
        <time>2024-11-06T16:07:20Z</time>
      </trkpt>
      <trkpt lat="43.64954" lon="1.379">
        <ele>146</ele>
        <time>2024-11-06T16:07:21Z</time>
      </trkpt>
      <trkpt lat="43.64954" lon="1.37903">
        <ele>146</ele>
        <time>2024-11-06T16:07:22Z</time>
      </trkpt>
      <trkpt lat="43.64953" lon="1.37907">
        <ele>147</ele>
        <time>2024-11-06T16:07:23Z</time>
      </trkpt>
      <trkpt lat="43.64953" lon="1.37911">
        <ele>147</ele>
        <time>2024-11-06T16:07:24Z</time>
      </trkpt>
      <trkpt lat="43.64954" lon="1.37916">
        <ele>147</ele>
        <time>2024-11-06T16:07:25Z</time>
      </trkpt>
      <trkpt lat="43.64954" lon="1.37918">
        <ele>147</ele>
        <time>2024-11-06T16:07:26Z</time>
      </trkpt>
      <trkpt lat="43.64955" lon="1.37921">
        <ele>147</ele>
        <time>2024-11-06T16:07:27Z</time>
      </trkpt>
      <trkpt lat="43.64956" lon="1.37925">
        <ele>147</ele>
        <time>2024-11-06T16:07:28Z</time>
      </trkpt>
      <trkpt lat="43.64957" lon="1.37929">
        <ele>147</ele>
        <time>2024-11-06T16:07:29Z</time>
      </trkpt>
      <trkpt lat="43.64957" lon="1.37932">
        <ele>147</ele>
        <time>2024-11-06T16:07:30Z</time>
      </trkpt>
      <trkpt lat="43.64958" lon="1.37935">
        <ele>147</ele>
        <time>2024-11-06T16:07:31Z</time>
      </trkpt>
      <trkpt lat="43.64959" lon="1.37938">
        <ele>146</ele>
        <time>2024-11-06T16:07:32Z</time>
      </trkpt>
      <trkpt lat="43.6496" lon="1.37941">
        <ele>147</ele>
        <time>2024-11-06T16:07:33Z</time>
      </trkpt>
      <trkpt lat="43.6496" lon="1.37945">
        <ele>147</ele>
        <time>2024-11-06T16:07:34Z</time>
      </trkpt>
      <trkpt lat="43.64961" lon="1.37948">
        <ele>147</ele>
        <time>2024-11-06T16:07:35Z</time>
      </trkpt>
      <trkpt lat="43.64962" lon="1.37951">
        <ele>147</ele>
        <time>2024-11-06T16:07:36Z</time>
      </trkpt>
      <trkpt lat="43.64962" lon="1.37954">
        <ele>147</ele>
        <time>2024-11-06T16:07:37Z</time>
      </trkpt>
      <trkpt lat="43.64964" lon="1.37959">
        <ele>147</ele>
        <time>2024-11-06T16:07:38Z</time>
      </trkpt>
      <trkpt lat="43.64964" lon="1.37961">
        <ele>147</ele>
        <time>2024-11-06T16:07:39Z</time>
      </trkpt>
      <trkpt lat="43.64964" lon="1.37964">
        <ele>146</ele>
        <time>2024-11-06T16:07:40Z</time>
      </trkpt>
      <trkpt lat="43.64965" lon="1.37967">
        <ele>146</ele>
        <time>2024-11-06T16:07:41Z</time>
      </trkpt>
      <trkpt lat="43.64965" lon="1.3797">
        <ele>146</ele>
        <time>2024-11-06T16:07:42Z</time>
      </trkpt>
      <trkpt lat="43.64966" lon="1.37973">
        <ele>146</ele>
        <time>2024-11-06T16:07:43Z</time>
      </trkpt>
      <trkpt lat="43.64967" lon="1.37976">
        <ele>146</ele>
        <time>2024-11-06T16:07:44Z</time>
      </trkpt>
      <trkpt lat="43.64968" lon="1.37981">
        <ele>146</ele>
        <time>2024-11-06T16:07:45Z</time>
      </trkpt>
      <trkpt lat="43.64969" lon="1.37983">
        <ele>146</ele>
        <time>2024-11-06T16:07:46Z</time>
      </trkpt>
      <trkpt lat="43.6497" lon="1.37986">
        <ele>146</ele>
        <time>2024-11-06T16:07:47Z</time>
      </trkpt>
      <trkpt lat="43.64971" lon="1.37989">
        <ele>146</ele>
        <time>2024-11-06T16:07:48Z</time>
      </trkpt>
      <trkpt lat="43.64972" lon="1.37992">
        <ele>146</ele>
        <time>2024-11-06T16:07:49Z</time>
      </trkpt>
      <trkpt lat="43.64973" lon="1.37996">
        <ele>146</ele>
        <time>2024-11-06T16:07:50Z</time>
      </trkpt>
      <trkpt lat="43.64975" lon="1.37999">
        <ele>146</ele>
        <time>2024-11-06T16:07:51Z</time>
      </trkpt>
      <trkpt lat="43.64976" lon="1.38002">
        <ele>146</ele>
        <time>2024-11-06T16:07:52Z</time>
      </trkpt>
      <trkpt lat="43.64977" lon="1.38005">
        <ele>146</ele>
        <time>2024-11-06T16:07:53Z</time>
      </trkpt>
      <trkpt lat="43.64977" lon="1.38007">
        <ele>146</ele>
        <time>2024-11-06T16:07:54Z</time>
      </trkpt>
      <trkpt lat="43.64978" lon="1.3801">
        <ele>146</ele>
        <time>2024-11-06T16:07:55Z</time>
      </trkpt>
      <trkpt lat="43.64979" lon="1.38013">
        <ele>146</ele>
        <time>2024-11-06T16:07:56Z</time>
      </trkpt>
      <trkpt lat="43.6498" lon="1.38018">
        <ele>146</ele>
        <time>2024-11-06T16:07:57Z</time>
      </trkpt>
      <trkpt lat="43.6498" lon="1.3802">
        <ele>146</ele>
        <time>2024-11-06T16:07:58Z</time>
      </trkpt>
      <trkpt lat="43.64981" lon="1.38023">
        <ele>146</ele>
        <time>2024-11-06T16:07:59Z</time>
      </trkpt>
      <trkpt lat="43.64981" lon="1.38026">
        <ele>146</ele>
        <time>2024-11-06T16:08:00Z</time>
      </trkpt>
      <trkpt lat="43.64982" lon="1.3803">
        <ele>146</ele>
        <time>2024-11-06T16:08:01Z</time>
      </trkpt>
      <trkpt lat="43.64983" lon="1.38033">
        <ele>146</ele>
        <time>2024-11-06T16:08:02Z</time>
      </trkpt>
      <trkpt lat="43.64983" lon="1.38036">
        <ele>146</ele>
        <time>2024-11-06T16:08:03Z</time>
      </trkpt>
      <trkpt lat="43.64984" lon="1.3804">
        <ele>147</ele>
        <time>2024-11-06T16:08:04Z</time>
      </trkpt>
      <trkpt lat="43.64985" lon="1.38045">
        <ele>147</ele>
        <time>2024-11-06T16:08:05Z</time>
      </trkpt>
      <trkpt lat="43.64985" lon="1.38046">
        <ele>146</ele>
        <time>2024-11-06T16:08:06Z</time>
      </trkpt>
      <trkpt lat="43.64986" lon="1.3805">
        <ele>146</ele>
        <time>2024-11-06T16:08:07Z</time>
      </trkpt>
      <trkpt lat="43.64987" lon="1.38053">
        <ele>146</ele>
        <time>2024-11-06T16:08:08Z</time>
      </trkpt>
      <trkpt lat="43.64988" lon="1.38057">
        <ele>146</ele>
        <time>2024-11-06T16:08:09Z</time>
      </trkpt>
      <trkpt lat="43.64989" lon="1.3806">
        <ele>146</ele>
        <time>2024-11-06T16:08:10Z</time>
      </trkpt>
      <trkpt lat="43.6499" lon="1.38063">
        <ele>146</ele>
        <time>2024-11-06T16:08:11Z</time>
      </trkpt>
      <trkpt lat="43.64991" lon="1.38066">
        <ele>146</ele>
        <time>2024-11-06T16:08:12Z</time>
      </trkpt>
      <trkpt lat="43.64992" lon="1.3807">
        <ele>146</ele>
        <time>2024-11-06T16:08:13Z</time>
      </trkpt>
      <trkpt lat="43.64993" lon="1.38072">
        <ele>146</ele>
        <time>2024-11-06T16:08:14Z</time>
      </trkpt>
      <trkpt lat="43.64994" lon="1.38076">
        <ele>146</ele>
        <time>2024-11-06T16:08:15Z</time>
      </trkpt>
      <trkpt lat="43.64996" lon="1.38081">
        <ele>146</ele>
        <time>2024-11-06T16:08:16Z</time>
      </trkpt>
      <trkpt lat="43.64998" lon="1.38083">
        <ele>146</ele>
        <time>2024-11-06T16:08:17Z</time>
      </trkpt>
      <trkpt lat="43.64999" lon="1.38086">
        <ele>146</ele>
        <time>2024-11-06T16:08:18Z</time>
      </trkpt>
      <trkpt lat="43.65001" lon="1.38089">
        <ele>147</ele>
        <time>2024-11-06T16:08:19Z</time>
      </trkpt>
      <trkpt lat="43.65002" lon="1.38092">
        <ele>147</ele>
        <time>2024-11-06T16:08:20Z</time>
      </trkpt>
      <trkpt lat="43.65003" lon="1.38094">
        <ele>147</ele>
        <time>2024-11-06T16:08:21Z</time>
      </trkpt>
      <trkpt lat="43.65003" lon="1.38097">
        <ele>147</ele>
        <time>2024-11-06T16:08:22Z</time>
      </trkpt>
      <trkpt lat="43.65004" lon="1.381">
        <ele>147</ele>
        <time>2024-11-06T16:08:23Z</time>
      </trkpt>
      <trkpt lat="43.65007" lon="1.38106">
        <ele>147</ele>
        <time>2024-11-06T16:08:24Z</time>
      </trkpt>
      <trkpt lat="43.65008" lon="1.38108">
        <ele>147</ele>
        <time>2024-11-06T16:08:25Z</time>
      </trkpt>
      <trkpt lat="43.65009" lon="1.38111">
        <ele>147</ele>
        <time>2024-11-06T16:08:26Z</time>
      </trkpt>
      <trkpt lat="43.6501" lon="1.38115">
        <ele>146</ele>
        <time>2024-11-06T16:08:27Z</time>
      </trkpt>
      <trkpt lat="43.65012" lon="1.38118">
        <ele>147</ele>
        <time>2024-11-06T16:08:28Z</time>
      </trkpt>
      <trkpt lat="43.65013" lon="1.38121">
        <ele>147</ele>
        <time>2024-11-06T16:08:29Z</time>
      </trkpt>
      <trkpt lat="43.65014" lon="1.38124">
        <ele>147</ele>
        <time>2024-11-06T16:08:30Z</time>
      </trkpt>
      <trkpt lat="43.65016" lon="1.38127">
        <ele>147</ele>
        <time>2024-11-06T16:08:31Z</time>
      </trkpt>
      <trkpt lat="43.65018" lon="1.38128">
        <ele>147</ele>
        <time>2024-11-06T16:08:32Z</time>
      </trkpt>
      <trkpt lat="43.65019" lon="1.38131">
        <ele>147</ele>
        <time>2024-11-06T16:08:33Z</time>
      </trkpt>
      <trkpt lat="43.6502" lon="1.38134">
        <ele>147</ele>
        <time>2024-11-06T16:08:34Z</time>
      </trkpt>
      <trkpt lat="43.65021" lon="1.38136">
        <ele>147</ele>
        <time>2024-11-06T16:08:35Z</time>
      </trkpt>
      <trkpt lat="43.65022" lon="1.38139">
        <ele>147</ele>
        <time>2024-11-06T16:08:36Z</time>
      </trkpt>
      <trkpt lat="43.65024" lon="1.38139">
        <ele>147</ele>
        <time>2024-11-06T16:08:37Z</time>
      </trkpt>
      <trkpt lat="43.65026" lon="1.3814">
        <ele>147</ele>
        <time>2024-11-06T16:08:38Z</time>
      </trkpt>
      <trkpt lat="43.65029" lon="1.38139">
        <ele>147</ele>
        <time>2024-11-06T16:08:39Z</time>
      </trkpt>
      <trkpt lat="43.65031" lon="1.3814">
        <ele>147</ele>
        <time>2024-11-06T16:08:40Z</time>
      </trkpt>
      <trkpt lat="43.65034" lon="1.38139">
        <ele>147</ele>
        <time>2024-11-06T16:08:41Z</time>
      </trkpt>
      <trkpt lat="43.65036" lon="1.38139">
        <ele>147</ele>
        <time>2024-11-06T16:08:42Z</time>
      </trkpt>
      <trkpt lat="43.65038" lon="1.38138">
        <ele>147</ele>
        <time>2024-11-06T16:08:43Z</time>
      </trkpt>
      <trkpt lat="43.65041" lon="1.38137">
        <ele>147</ele>
        <time>2024-11-06T16:08:44Z</time>
      </trkpt>
      <trkpt lat="43.65043" lon="1.38138">
        <ele>147</ele>
        <time>2024-11-06T16:08:45Z</time>
      </trkpt>
      <trkpt lat="43.65045" lon="1.38138">
        <ele>147</ele>
        <time>2024-11-06T16:08:46Z</time>
      </trkpt>
      <trkpt lat="43.65047" lon="1.38139">
        <ele>147</ele>
        <time>2024-11-06T16:08:47Z</time>
      </trkpt>
      <trkpt lat="43.6505" lon="1.38139">
        <ele>147</ele>
        <time>2024-11-06T16:08:48Z</time>
      </trkpt>
      <trkpt lat="43.65052" lon="1.38138">
        <ele>147</ele>
        <time>2024-11-06T16:08:49Z</time>
      </trkpt>
      <trkpt lat="43.65055" lon="1.38137">
        <ele>147</ele>
        <time>2024-11-06T16:08:50Z</time>
      </trkpt>
      <trkpt lat="43.65059" lon="1.38136">
        <ele>147</ele>
        <time>2024-11-06T16:08:51Z</time>
      </trkpt>
      <trkpt lat="43.65062" lon="1.38134">
        <ele>147</ele>
        <time>2024-11-06T16:08:52Z</time>
      </trkpt>
      <trkpt lat="43.65064" lon="1.38133">
        <ele>147</ele>
        <time>2024-11-06T16:08:53Z</time>
      </trkpt>
      <trkpt lat="43.65068" lon="1.3813">
        <ele>147</ele>
        <time>2024-11-06T16:08:54Z</time>
      </trkpt>
      <trkpt lat="43.65069" lon="1.38129">
        <ele>147</ele>
        <time>2024-11-06T16:08:55Z</time>
      </trkpt>
      <trkpt lat="43.65071" lon="1.38127">
        <ele>147</ele>
        <time>2024-11-06T16:08:56Z</time>
      </trkpt>
      <trkpt lat="43.65074" lon="1.38126">
        <ele>147</ele>
        <time>2024-11-06T16:08:57Z</time>
      </trkpt>
      <trkpt lat="43.65076" lon="1.38124">
        <ele>147</ele>
        <time>2024-11-06T16:08:58Z</time>
      </trkpt>
      <trkpt lat="43.65079" lon="1.38122">
        <ele>147</ele>
        <time>2024-11-06T16:08:59Z</time>
      </trkpt>
      <trkpt lat="43.65081" lon="1.38121">
        <ele>146</ele>
        <time>2024-11-06T16:09:00Z</time>
      </trkpt>
      <trkpt lat="43.65083" lon="1.38119">
        <ele>146</ele>
        <time>2024-11-06T16:09:01Z</time>
      </trkpt>
      <trkpt lat="43.65086" lon="1.38118">
        <ele>146</ele>
        <time>2024-11-06T16:09:02Z</time>
      </trkpt>
      <trkpt lat="43.6509" lon="1.38116">
        <ele>146</ele>
        <time>2024-11-06T16:09:03Z</time>
      </trkpt>
      <trkpt lat="43.65091" lon="1.38115">
        <ele>146</ele>
        <time>2024-11-06T16:09:04Z</time>
      </trkpt>
      <trkpt lat="43.65093" lon="1.38114">
        <ele>147</ele>
        <time>2024-11-06T16:09:05Z</time>
      </trkpt>
      <trkpt lat="43.65096" lon="1.38112">
        <ele>147</ele>
        <time>2024-11-06T16:09:06Z</time>
      </trkpt>
      <trkpt lat="43.65098" lon="1.38111">
        <ele>146</ele>
        <time>2024-11-06T16:09:07Z</time>
      </trkpt>
      <trkpt lat="43.65101" lon="1.38109">
        <ele>146</ele>
        <time>2024-11-06T16:09:08Z</time>
      </trkpt>
      <trkpt lat="43.65103" lon="1.38107">
        <ele>146</ele>
        <time>2024-11-06T16:09:09Z</time>
      </trkpt>
      <trkpt lat="43.65106" lon="1.38106">
        <ele>147</ele>
        <time>2024-11-06T16:09:10Z</time>
      </trkpt>
      <trkpt lat="43.65108" lon="1.38104">
        <ele>147</ele>
        <time>2024-11-06T16:09:11Z</time>
      </trkpt>
      <trkpt lat="43.65111" lon="1.38103">
        <ele>147</ele>
        <time>2024-11-06T16:09:12Z</time>
      </trkpt>
      <trkpt lat="43.65115" lon="1.38101">
        <ele>147</ele>
        <time>2024-11-06T16:09:13Z</time>
      </trkpt>
      <trkpt lat="43.65116" lon="1.381">
        <ele>147</ele>
        <time>2024-11-06T16:09:14Z</time>
      </trkpt>
      <trkpt lat="43.65118" lon="1.38099">
        <ele>147</ele>
        <time>2024-11-06T16:09:15Z</time>
      </trkpt>
      <trkpt lat="43.6512" lon="1.38097">
        <ele>147</ele>
        <time>2024-11-06T16:09:16Z</time>
      </trkpt>
      <trkpt lat="43.65123" lon="1.38097">
        <ele>147</ele>
        <time>2024-11-06T16:09:17Z</time>
      </trkpt>
      <trkpt lat="43.65126" lon="1.38095">
        <ele>147</ele>
        <time>2024-11-06T16:09:18Z</time>
      </trkpt>
      <trkpt lat="43.65128" lon="1.38094">
        <ele>147</ele>
        <time>2024-11-06T16:09:19Z</time>
      </trkpt>
      <trkpt lat="43.6513" lon="1.38092">
        <ele>147</ele>
        <time>2024-11-06T16:09:20Z</time>
      </trkpt>
      <trkpt lat="43.65132" lon="1.38091">
        <ele>147</ele>
        <time>2024-11-06T16:09:21Z</time>
      </trkpt>
      <trkpt lat="43.65136" lon="1.3809">
        <ele>147</ele>
        <time>2024-11-06T16:09:22Z</time>
      </trkpt>
      <trkpt lat="43.65137" lon="1.38089">
        <ele>147</ele>
        <time>2024-11-06T16:09:23Z</time>
      </trkpt>
      <trkpt lat="43.6514" lon="1.38088">
        <ele>147</ele>
        <time>2024-11-06T16:09:24Z</time>
      </trkpt>
      <trkpt lat="43.65142" lon="1.38087">
        <ele>147</ele>
        <time>2024-11-06T16:09:25Z</time>
      </trkpt>
      <trkpt lat="43.65145" lon="1.38085">
        <ele>147</ele>
        <time>2024-11-06T16:09:26Z</time>
      </trkpt>
      <trkpt lat="43.65146" lon="1.38085">
        <ele>147</ele>
        <time>2024-11-06T16:09:27Z</time>
      </trkpt>
      <trkpt lat="43.65149" lon="1.38083">
        <ele>147</ele>
        <time>2024-11-06T16:09:28Z</time>
      </trkpt>
      <trkpt lat="43.65151" lon="1.38082">
        <ele>147</ele>
        <time>2024-11-06T16:09:29Z</time>
      </trkpt>
      <trkpt lat="43.65153" lon="1.38081">
        <ele>147</ele>
        <time>2024-11-06T16:09:30Z</time>
      </trkpt>
      <trkpt lat="43.65156" lon="1.38079">
        <ele>147</ele>
        <time>2024-11-06T16:09:31Z</time>
      </trkpt>
      <trkpt lat="43.65159" lon="1.38077">
        <ele>147</ele>
        <time>2024-11-06T16:09:32Z</time>
      </trkpt>
      <trkpt lat="43.6516" lon="1.38077">
        <ele>147</ele>
        <time>2024-11-06T16:09:33Z</time>
      </trkpt>
      <trkpt lat="43.65162" lon="1.38075">
        <ele>147</ele>
        <time>2024-11-06T16:09:34Z</time>
      </trkpt>
      <trkpt lat="43.65164" lon="1.38074">
        <ele>147</ele>
        <time>2024-11-06T16:09:35Z</time>
      </trkpt>
      <trkpt lat="43.65166" lon="1.38073">
        <ele>147</ele>
        <time>2024-11-06T16:09:36Z</time>
      </trkpt>
      <trkpt lat="43.65168" lon="1.38071">
        <ele>147</ele>
        <time>2024-11-06T16:09:37Z</time>
      </trkpt>
      <trkpt lat="43.6517" lon="1.38069">
        <ele>147</ele>
        <time>2024-11-06T16:09:38Z</time>
      </trkpt>
      <trkpt lat="43.65173" lon="1.38067">
        <ele>146</ele>
        <time>2024-11-06T16:09:39Z</time>
      </trkpt>
      <trkpt lat="43.65175" lon="1.38065">
        <ele>146</ele>
        <time>2024-11-06T16:09:40Z</time>
      </trkpt>
      <trkpt lat="43.65178" lon="1.38064">
        <ele>146</ele>
        <time>2024-11-06T16:09:41Z</time>
      </trkpt>
      <trkpt lat="43.65181" lon="1.38062">
        <ele>146</ele>
        <time>2024-11-06T16:09:42Z</time>
      </trkpt>
      <trkpt lat="43.65183" lon="1.38061">
        <ele>147</ele>
        <time>2024-11-06T16:09:43Z</time>
      </trkpt>
      <trkpt lat="43.65186" lon="1.38059">
        <ele>147</ele>
        <time>2024-11-06T16:09:44Z</time>
      </trkpt>
      <trkpt lat="43.65188" lon="1.38058">
        <ele>147</ele>
        <time>2024-11-06T16:09:45Z</time>
      </trkpt>
      <trkpt lat="43.65191" lon="1.38056">
        <ele>147</ele>
        <time>2024-11-06T16:09:46Z</time>
      </trkpt>
      <trkpt lat="43.65194" lon="1.38055">
        <ele>147</ele>
        <time>2024-11-06T16:09:47Z</time>
      </trkpt>
      <trkpt lat="43.65196" lon="1.38053">
        <ele>147</ele>
        <time>2024-11-06T16:09:48Z</time>
      </trkpt>
      <trkpt lat="43.65198" lon="1.38052">
        <ele>147</ele>
        <time>2024-11-06T16:09:49Z</time>
      </trkpt>
      <trkpt lat="43.652" lon="1.3805">
        <ele>147</ele>
        <time>2024-11-06T16:09:50Z</time>
      </trkpt>
      <trkpt lat="43.65203" lon="1.38048">
        <ele>147</ele>
        <time>2024-11-06T16:09:51Z</time>
      </trkpt>
      <trkpt lat="43.65204" lon="1.38047">
        <ele>147</ele>
        <time>2024-11-06T16:09:52Z</time>
      </trkpt>
      <trkpt lat="43.65206" lon="1.38046">
        <ele>147</ele>
        <time>2024-11-06T16:09:53Z</time>
      </trkpt>
      <trkpt lat="43.65208" lon="1.38044">
        <ele>147</ele>
        <time>2024-11-06T16:09:54Z</time>
      </trkpt>
      <trkpt lat="43.65211" lon="1.38043">
        <ele>147</ele>
        <time>2024-11-06T16:09:55Z</time>
      </trkpt>
      <trkpt lat="43.65213" lon="1.38041">
        <ele>147</ele>
        <time>2024-11-06T16:09:56Z</time>
      </trkpt>
      <trkpt lat="43.65215" lon="1.38039">
        <ele>147</ele>
        <time>2024-11-06T16:09:57Z</time>
      </trkpt>
      <trkpt lat="43.65218" lon="1.38037">
        <ele>148</ele>
        <time>2024-11-06T16:09:58Z</time>
      </trkpt>
      <trkpt lat="43.6522" lon="1.38035">
        <ele>148</ele>
        <time>2024-11-06T16:09:59Z</time>
      </trkpt>
      <trkpt lat="43.65223" lon="1.38034">
        <ele>148</ele>
        <time>2024-11-06T16:10:00Z</time>
      </trkpt>
      <trkpt lat="43.65226" lon="1.38035">
        <ele>148</ele>
        <time>2024-11-06T16:10:01Z</time>
      </trkpt>
      <trkpt lat="43.65227" lon="1.38036">
        <ele>147</ele>
        <time>2024-11-06T16:10:02Z</time>
      </trkpt>
      <trkpt lat="43.65228" lon="1.3804">
        <ele>147</ele>
        <time>2024-11-06T16:10:03Z</time>
      </trkpt>
      <trkpt lat="43.65229" lon="1.38044">
        <ele>147</ele>
        <time>2024-11-06T16:10:04Z</time>
      </trkpt>
      <trkpt lat="43.6523" lon="1.38048">
        <ele>148</ele>
        <time>2024-11-06T16:10:05Z</time>
      </trkpt>
      <trkpt lat="43.65231" lon="1.38052">
        <ele>148</ele>
        <time>2024-11-06T16:10:06Z</time>
      </trkpt>
      <trkpt lat="43.65232" lon="1.38055">
        <ele>148</ele>
        <time>2024-11-06T16:10:07Z</time>
      </trkpt>
      <trkpt lat="43.65233" lon="1.38058">
        <ele>148</ele>
        <time>2024-11-06T16:10:08Z</time>
      </trkpt>
      <trkpt lat="43.65235" lon="1.38062">
        <ele>148</ele>
        <time>2024-11-06T16:10:09Z</time>
      </trkpt>
      <trkpt lat="43.65236" lon="1.38067">
        <ele>148</ele>
        <time>2024-11-06T16:10:10Z</time>
      </trkpt>
      <trkpt lat="43.65237" lon="1.38069">
        <ele>147</ele>
        <time>2024-11-06T16:10:11Z</time>
      </trkpt>
      <trkpt lat="43.65238" lon="1.38072">
        <ele>147</ele>
        <time>2024-11-06T16:10:12Z</time>
      </trkpt>
      <trkpt lat="43.65239" lon="1.38075">
        <ele>147</ele>
        <time>2024-11-06T16:10:13Z</time>
      </trkpt>
      <trkpt lat="43.6524" lon="1.38079">
        <ele>147</ele>
        <time>2024-11-06T16:10:14Z</time>
      </trkpt>
      <trkpt lat="43.65241" lon="1.38082">
        <ele>147</ele>
        <time>2024-11-06T16:10:15Z</time>
      </trkpt>
      <trkpt lat="43.65241" lon="1.38086">
        <ele>147</ele>
        <time>2024-11-06T16:10:16Z</time>
      </trkpt>
      <trkpt lat="43.65242" lon="1.38089">
        <ele>147</ele>
        <time>2024-11-06T16:10:17Z</time>
      </trkpt>
      <trkpt lat="43.65243" lon="1.38093">
        <ele>147</ele>
        <time>2024-11-06T16:10:18Z</time>
      </trkpt>
      <trkpt lat="43.65245" lon="1.38098">
        <ele>147</ele>
        <time>2024-11-06T16:10:19Z</time>
      </trkpt>
      <trkpt lat="43.65245" lon="1.381">
        <ele>147</ele>
        <time>2024-11-06T16:10:20Z</time>
      </trkpt>
      <trkpt lat="43.65246" lon="1.38103">
        <ele>147</ele>
        <time>2024-11-06T16:10:21Z</time>
      </trkpt>
      <trkpt lat="43.65247" lon="1.38107">
        <ele>147</ele>
        <time>2024-11-06T16:10:22Z</time>
      </trkpt>
      <trkpt lat="43.65248" lon="1.3811">
        <ele>147</ele>
        <time>2024-11-06T16:10:23Z</time>
      </trkpt>
      <trkpt lat="43.65249" lon="1.38113">
        <ele>147</ele>
        <time>2024-11-06T16:10:24Z</time>
      </trkpt>
      <trkpt lat="43.6525" lon="1.38116">
        <ele>147</ele>
        <time>2024-11-06T16:10:25Z</time>
      </trkpt>
      <trkpt lat="43.65251" lon="1.3812">
        <ele>147</ele>
        <time>2024-11-06T16:10:26Z</time>
      </trkpt>
      <trkpt lat="43.65252" lon="1.38124">
        <ele>147</ele>
        <time>2024-11-06T16:10:27Z</time>
      </trkpt>
      <trkpt lat="43.65252" lon="1.38128">
        <ele>147</ele>
        <time>2024-11-06T16:10:28Z</time>
      </trkpt>
      <trkpt lat="43.65251" lon="1.38133">
        <ele>147</ele>
        <time>2024-11-06T16:10:29Z</time>
      </trkpt>
      <trkpt lat="43.65249" lon="1.38135">
        <ele>146</ele>
        <time>2024-11-06T16:10:30Z</time>
      </trkpt>
      <trkpt lat="43.65247" lon="1.38136">
        <ele>146</ele>
        <time>2024-11-06T16:10:31Z</time>
      </trkpt>
      <trkpt lat="43.65244" lon="1.38138">
        <ele>146</ele>
        <time>2024-11-06T16:10:32Z</time>
      </trkpt>
      <trkpt lat="43.65241" lon="1.38139">
        <ele>146</ele>
        <time>2024-11-06T16:10:33Z</time>
      </trkpt>
      <trkpt lat="43.65239" lon="1.3814">
        <ele>146</ele>
        <time>2024-11-06T16:10:34Z</time>
      </trkpt>
      <trkpt lat="43.65237" lon="1.38142">
        <ele>146</ele>
        <time>2024-11-06T16:10:35Z</time>
      </trkpt>
      <trkpt lat="43.65235" lon="1.38143">
        <ele>146</ele>
        <time>2024-11-06T16:10:36Z</time>
      </trkpt>
      <trkpt lat="43.65233" lon="1.38144">
        <ele>146</ele>
        <time>2024-11-06T16:10:37Z</time>
      </trkpt>
      <trkpt lat="43.65229" lon="1.38147">
        <ele>146</ele>
        <time>2024-11-06T16:10:38Z</time>
      </trkpt>
      <trkpt lat="43.65228" lon="1.38148">
        <ele>146</ele>
        <time>2024-11-06T16:10:39Z</time>
      </trkpt>
      <trkpt lat="43.65226" lon="1.3815">
        <ele>146</ele>
        <time>2024-11-06T16:10:40Z</time>
      </trkpt>
      <trkpt lat="43.65224" lon="1.38151">
        <ele>146</ele>
        <time>2024-11-06T16:10:41Z</time>
      </trkpt>
      <trkpt lat="43.65222" lon="1.38153">
        <ele>146</ele>
        <time>2024-11-06T16:10:42Z</time>
      </trkpt>
      <trkpt lat="43.6522" lon="1.38154">
        <ele>146</ele>
        <time>2024-11-06T16:10:43Z</time>
      </trkpt>
      <trkpt lat="43.65218" lon="1.38156">
        <ele>146</ele>
        <time>2024-11-06T16:10:44Z</time>
      </trkpt>
      <trkpt lat="43.65216" lon="1.38157">
        <ele>146</ele>
        <time>2024-11-06T16:10:45Z</time>
      </trkpt>
      <trkpt lat="43.65213" lon="1.3816">
        <ele>146</ele>
        <time>2024-11-06T16:10:46Z</time>
      </trkpt>
      <trkpt lat="43.65211" lon="1.38162">
        <ele>146</ele>
        <time>2024-11-06T16:10:47Z</time>
      </trkpt>
      <trkpt lat="43.65208" lon="1.38166">
        <ele>146</ele>
        <time>2024-11-06T16:10:48Z</time>
      </trkpt>
      <trkpt lat="43.65207" lon="1.38167">
        <ele>146</ele>
        <time>2024-11-06T16:10:49Z</time>
      </trkpt>
      <trkpt lat="43.65205" lon="1.38169">
        <ele>146</ele>
        <time>2024-11-06T16:10:50Z</time>
      </trkpt>
      <trkpt lat="43.65202" lon="1.38171">
        <ele>146</ele>
        <time>2024-11-06T16:10:51Z</time>
      </trkpt>
      <trkpt lat="43.652" lon="1.38174">
        <ele>145</ele>
        <time>2024-11-06T16:10:52Z</time>
      </trkpt>
      <trkpt lat="43.65198" lon="1.38176">
        <ele>145</ele>
        <time>2024-11-06T16:10:53Z</time>
      </trkpt>
      <trkpt lat="43.65196" lon="1.38178">
        <ele>145</ele>
        <time>2024-11-06T16:10:54Z</time>
      </trkpt>
      <trkpt lat="43.65194" lon="1.3818">
        <ele>145</ele>
        <time>2024-11-06T16:10:55Z</time>
      </trkpt>
      <trkpt lat="43.65191" lon="1.38183">
        <ele>145</ele>
        <time>2024-11-06T16:10:56Z</time>
      </trkpt>
      <trkpt lat="43.65189" lon="1.38187">
        <ele>145</ele>
        <time>2024-11-06T16:10:57Z</time>
      </trkpt>
      <trkpt lat="43.65188" lon="1.38188">
        <ele>145</ele>
        <time>2024-11-06T16:10:58Z</time>
      </trkpt>
      <trkpt lat="43.65186" lon="1.3819">
        <ele>145</ele>
        <time>2024-11-06T16:10:59Z</time>
      </trkpt>
      <trkpt lat="43.65183" lon="1.38191">
        <ele>145</ele>
        <time>2024-11-06T16:11:00Z</time>
      </trkpt>
      <trkpt lat="43.65181" lon="1.38194">
        <ele>145</ele>
        <time>2024-11-06T16:11:01Z</time>
      </trkpt>
      <trkpt lat="43.65179" lon="1.38196">
        <ele>145</ele>
        <time>2024-11-06T16:11:02Z</time>
      </trkpt>
      <trkpt lat="43.65177" lon="1.38198">
        <ele>145</ele>
        <time>2024-11-06T16:11:03Z</time>
      </trkpt>
      <trkpt lat="43.65176" lon="1.38201">
        <ele>145</ele>
        <time>2024-11-06T16:11:04Z</time>
      </trkpt>
      <trkpt lat="43.65175" lon="1.38204">
        <ele>145</ele>
        <time>2024-11-06T16:11:05Z</time>
      </trkpt>
      <trkpt lat="43.65174" lon="1.38208">
        <ele>145</ele>
        <time>2024-11-06T16:11:06Z</time>
      </trkpt>
      <trkpt lat="43.65174" lon="1.38214">
        <ele>145</ele>
        <time>2024-11-06T16:11:07Z</time>
      </trkpt>
      <trkpt lat="43.65174" lon="1.38216">
        <ele>145</ele>
        <time>2024-11-06T16:11:08Z</time>
      </trkpt>
      <trkpt lat="43.65174" lon="1.38219">
        <ele>145</ele>
        <time>2024-11-06T16:11:09Z</time>
      </trkpt>
      <trkpt lat="43.65174" lon="1.38223">
        <ele>145</ele>
        <time>2024-11-06T16:11:10Z</time>
      </trkpt>
      <trkpt lat="43.65175" lon="1.38227">
        <ele>145</ele>
        <time>2024-11-06T16:11:11Z</time>
      </trkpt>
      <trkpt lat="43.65175" lon="1.3823">
        <ele>145</ele>
        <time>2024-11-06T16:11:12Z</time>
      </trkpt>
      <trkpt lat="43.65176" lon="1.38233">
        <ele>145</ele>
        <time>2024-11-06T16:11:13Z</time>
      </trkpt>
      <trkpt lat="43.65176" lon="1.38237">
        <ele>145</ele>
        <time>2024-11-06T16:11:14Z</time>
      </trkpt>
      <trkpt lat="43.65176" lon="1.38241">
        <ele>145</ele>
        <time>2024-11-06T16:11:15Z</time>
      </trkpt>
      <trkpt lat="43.65177" lon="1.38246">
        <ele>145</ele>
        <time>2024-11-06T16:11:16Z</time>
      </trkpt>
      <trkpt lat="43.65177" lon="1.38247">
        <ele>145</ele>
        <time>2024-11-06T16:11:17Z</time>
      </trkpt>
      <trkpt lat="43.65177" lon="1.38251">
        <ele>145</ele>
        <time>2024-11-06T16:11:18Z</time>
      </trkpt>
      <trkpt lat="43.65178" lon="1.38255">
        <ele>145</ele>
        <time>2024-11-06T16:11:19Z</time>
      </trkpt>
      <trkpt lat="43.65179" lon="1.38258">
        <ele>145</ele>
        <time>2024-11-06T16:11:20Z</time>
      </trkpt>
      <trkpt lat="43.6518" lon="1.38262">
        <ele>145</ele>
        <time>2024-11-06T16:11:21Z</time>
      </trkpt>
      <trkpt lat="43.65181" lon="1.38265">
        <ele>145</ele>
        <time>2024-11-06T16:11:22Z</time>
      </trkpt>
      <trkpt lat="43.65182" lon="1.38269">
        <ele>145</ele>
        <time>2024-11-06T16:11:23Z</time>
      </trkpt>
      <trkpt lat="43.65182" lon="1.38272">
        <ele>145</ele>
        <time>2024-11-06T16:11:24Z</time>
      </trkpt>
      <trkpt lat="43.65183" lon="1.38276">
        <ele>145</ele>
        <time>2024-11-06T16:11:25Z</time>
      </trkpt>
      <trkpt lat="43.65184" lon="1.38281">
        <ele>145</ele>
        <time>2024-11-06T16:11:26Z</time>
      </trkpt>
      <trkpt lat="43.65184" lon="1.38283">
        <ele>145</ele>
        <time>2024-11-06T16:11:27Z</time>
      </trkpt>
      <trkpt lat="43.65185" lon="1.38286">
        <ele>145</ele>
        <time>2024-11-06T16:11:28Z</time>
      </trkpt>
      <trkpt lat="43.65185" lon="1.3829">
        <ele>145</ele>
        <time>2024-11-06T16:11:29Z</time>
      </trkpt>
      <trkpt lat="43.65186" lon="1.38293">
        <ele>145</ele>
        <time>2024-11-06T16:11:30Z</time>
      </trkpt>
      <trkpt lat="43.65186" lon="1.38297">
        <ele>145</ele>
        <time>2024-11-06T16:11:31Z</time>
      </trkpt>
      <trkpt lat="43.65187" lon="1.383">
        <ele>145</ele>
        <time>2024-11-06T16:11:32Z</time>
      </trkpt>
      <trkpt lat="43.65187" lon="1.38304">
        <ele>145</ele>
        <time>2024-11-06T16:11:33Z</time>
      </trkpt>
      <trkpt lat="43.65187" lon="1.38308">
        <ele>145</ele>
        <time>2024-11-06T16:11:34Z</time>
      </trkpt>
      <trkpt lat="43.65189" lon="1.38313">
        <ele>145</ele>
        <time>2024-11-06T16:11:35Z</time>
      </trkpt>
      <trkpt lat="43.65189" lon="1.38314">
        <ele>145</ele>
        <time>2024-11-06T16:11:36Z</time>
      </trkpt>
      <trkpt lat="43.65189" lon="1.38318">
        <ele>145</ele>
        <time>2024-11-06T16:11:37Z</time>
      </trkpt>
      <trkpt lat="43.6519" lon="1.38321">
        <ele>145</ele>
        <time>2024-11-06T16:11:38Z</time>
      </trkpt>
      <trkpt lat="43.65191" lon="1.38324">
        <ele>145</ele>
        <time>2024-11-06T16:11:39Z</time>
      </trkpt>
      <trkpt lat="43.65192" lon="1.38328">
        <ele>145</ele>
        <time>2024-11-06T16:11:40Z</time>
      </trkpt>
      <trkpt lat="43.65193" lon="1.38331">
        <ele>145</ele>
        <time>2024-11-06T16:11:41Z</time>
      </trkpt>
      <trkpt lat="43.65193" lon="1.38335">
        <ele>145</ele>
        <time>2024-11-06T16:11:42Z</time>
      </trkpt>
      <trkpt lat="43.65194" lon="1.38338">
        <ele>145</ele>
        <time>2024-11-06T16:11:43Z</time>
      </trkpt>
      <trkpt lat="43.65194" lon="1.38341">
        <ele>145</ele>
        <time>2024-11-06T16:11:44Z</time>
      </trkpt>
      <trkpt lat="43.65195" lon="1.38346">
        <ele>145</ele>
        <time>2024-11-06T16:11:45Z</time>
      </trkpt>
      <trkpt lat="43.65195" lon="1.38348">
        <ele>145</ele>
        <time>2024-11-06T16:11:46Z</time>
      </trkpt>
      <trkpt lat="43.65195" lon="1.38352">
        <ele>145</ele>
        <time>2024-11-06T16:11:47Z</time>
      </trkpt>
      <trkpt lat="43.65195" lon="1.38356">
        <ele>145</ele>
        <time>2024-11-06T16:11:48Z</time>
      </trkpt>
      <trkpt lat="43.65196" lon="1.3836">
        <ele>145</ele>
        <time>2024-11-06T16:11:49Z</time>
      </trkpt>
      <trkpt lat="43.65196" lon="1.38363">
        <ele>145</ele>
        <time>2024-11-06T16:11:50Z</time>
      </trkpt>
      <trkpt lat="43.65196" lon="1.38367">
        <ele>145</ele>
        <time>2024-11-06T16:11:51Z</time>
      </trkpt>
      <trkpt lat="43.65197" lon="1.38371">
        <ele>145</ele>
        <time>2024-11-06T16:11:52Z</time>
      </trkpt>
      <trkpt lat="43.65197" lon="1.38375">
        <ele>145</ele>
        <time>2024-11-06T16:11:53Z</time>
      </trkpt>
      <trkpt lat="43.65198" lon="1.38381">
        <ele>145</ele>
        <time>2024-11-06T16:11:54Z</time>
      </trkpt>
      <trkpt lat="43.65199" lon="1.38382">
        <ele>145</ele>
        <time>2024-11-06T16:11:55Z</time>
      </trkpt>
      <trkpt lat="43.65199" lon="1.38386">
        <ele>145</ele>
        <time>2024-11-06T16:11:56Z</time>
      </trkpt>
      <trkpt lat="43.652" lon="1.3839">
        <ele>145</ele>
        <time>2024-11-06T16:11:57Z</time>
      </trkpt>
      <trkpt lat="43.65202" lon="1.38393">
        <ele>145</ele>
        <time>2024-11-06T16:11:58Z</time>
      </trkpt>
      <trkpt lat="43.65203" lon="1.38396">
        <ele>145</ele>
        <time>2024-11-06T16:11:59Z</time>
      </trkpt>
      <trkpt lat="43.65205" lon="1.38399">
        <ele>145</ele>
        <time>2024-11-06T16:12:00Z</time>
      </trkpt>
      <trkpt lat="43.65207" lon="1.38402">
        <ele>145</ele>
        <time>2024-11-06T16:12:01Z</time>
      </trkpt>
      <trkpt lat="43.65209" lon="1.38405">
        <ele>145</ele>
        <time>2024-11-06T16:12:02Z</time>
      </trkpt>
      <trkpt lat="43.65211" lon="1.38407">
        <ele>144</ele>
        <time>2024-11-06T16:12:03Z</time>
      </trkpt>
      <trkpt lat="43.65214" lon="1.38411">
        <ele>144</ele>
        <time>2024-11-06T16:12:04Z</time>
      </trkpt>
      <trkpt lat="43.65215" lon="1.38413">
        <ele>144</ele>
        <time>2024-11-06T16:12:05Z</time>
      </trkpt>
      <trkpt lat="43.65217" lon="1.38416">
        <ele>144</ele>
        <time>2024-11-06T16:12:06Z</time>
      </trkpt>
      <trkpt lat="43.65218" lon="1.38418">
        <ele>144</ele>
        <time>2024-11-06T16:12:07Z</time>
      </trkpt>
      <trkpt lat="43.6522" lon="1.38422">
        <ele>144</ele>
        <time>2024-11-06T16:12:08Z</time>
      </trkpt>
      <trkpt lat="43.65221" lon="1.38425">
        <ele>144</ele>
        <time>2024-11-06T16:12:09Z</time>
      </trkpt>
      <trkpt lat="43.65222" lon="1.38428">
        <ele>143</ele>
        <time>2024-11-06T16:12:10Z</time>
      </trkpt>
      <trkpt lat="43.65224" lon="1.38432">
        <ele>142</ele>
        <time>2024-11-06T16:12:11Z</time>
      </trkpt>
      <trkpt lat="43.65225" lon="1.38437">
        <ele>142</ele>
        <time>2024-11-06T16:12:12Z</time>
      </trkpt>
      <trkpt lat="43.65225" lon="1.38438">
        <ele>142</ele>
        <time>2024-11-06T16:12:13Z</time>
      </trkpt>
      <trkpt lat="43.65226" lon="1.38442">
        <ele>142</ele>
        <time>2024-11-06T16:12:14Z</time>
      </trkpt>
      <trkpt lat="43.65227" lon="1.38445">
        <ele>142</ele>
        <time>2024-11-06T16:12:15Z</time>
      </trkpt>
      <trkpt lat="43.65228" lon="1.38448">
        <ele>142</ele>
        <time>2024-11-06T16:12:16Z</time>
      </trkpt>
      <trkpt lat="43.65228" lon="1.38451">
        <ele>142</ele>
        <time>2024-11-06T16:12:17Z</time>
      </trkpt>
      <trkpt lat="43.65229" lon="1.38454">
        <ele>142</ele>
        <time>2024-11-06T16:12:18Z</time>
      </trkpt>
      <trkpt lat="43.6523" lon="1.38457">
        <ele>142</ele>
        <time>2024-11-06T16:12:19Z</time>
      </trkpt>
      <trkpt lat="43.6523" lon="1.3846">
        <ele>141</ele>
        <time>2024-11-06T16:12:20Z</time>
      </trkpt>
      <trkpt lat="43.65231" lon="1.38463">
        <ele>141</ele>
        <time>2024-11-06T16:12:21Z</time>
      </trkpt>
      <trkpt lat="43.65231" lon="1.38465">
        <ele>142</ele>
        <time>2024-11-06T16:12:22Z</time>
      </trkpt>
      <trkpt lat="43.65233" lon="1.3847">
        <ele>142</ele>
        <time>2024-11-06T16:12:23Z</time>
      </trkpt>
      <trkpt lat="43.65234" lon="1.38472">
        <ele>141</ele>
        <time>2024-11-06T16:12:24Z</time>
      </trkpt>
      <trkpt lat="43.65235" lon="1.38475">
        <ele>141</ele>
        <time>2024-11-06T16:12:25Z</time>
      </trkpt>
      <trkpt lat="43.65235" lon="1.38479">
        <ele>141</ele>
        <time>2024-11-06T16:12:26Z</time>
      </trkpt>
      <trkpt lat="43.65236" lon="1.38482">
        <ele>141</ele>
        <time>2024-11-06T16:12:27Z</time>
      </trkpt>
      <trkpt lat="43.65237" lon="1.38485">
        <ele>141</ele>
        <time>2024-11-06T16:12:28Z</time>
      </trkpt>
      <trkpt lat="43.65237" lon="1.38488">
        <ele>142</ele>
        <time>2024-11-06T16:12:29Z</time>
      </trkpt>
      <trkpt lat="43.65238" lon="1.38492">
        <ele>142</ele>
        <time>2024-11-06T16:12:30Z</time>
      </trkpt>
      <trkpt lat="43.65239" lon="1.38496">
        <ele>142</ele>
        <time>2024-11-06T16:12:31Z</time>
      </trkpt>
      <trkpt lat="43.65241" lon="1.38501">
        <ele>142</ele>
        <time>2024-11-06T16:12:32Z</time>
      </trkpt>
      <trkpt lat="43.65241" lon="1.38503">
        <ele>142</ele>
        <time>2024-11-06T16:12:33Z</time>
      </trkpt>
      <trkpt lat="43.65242" lon="1.38506">
        <ele>142</ele>
        <time>2024-11-06T16:12:34Z</time>
      </trkpt>
      <trkpt lat="43.65243" lon="1.3851">
        <ele>142</ele>
        <time>2024-11-06T16:12:35Z</time>
      </trkpt>
      <trkpt lat="43.65244" lon="1.38514">
        <ele>141</ele>
        <time>2024-11-06T16:12:36Z</time>
      </trkpt>
      <trkpt lat="43.65245" lon="1.38518">
        <ele>141</ele>
        <time>2024-11-06T16:12:37Z</time>
      </trkpt>
      <trkpt lat="43.65246" lon="1.38521">
        <ele>141</ele>
        <time>2024-11-06T16:12:38Z</time>
      </trkpt>
      <trkpt lat="43.65247" lon="1.38525">
        <ele>141</ele>
        <time>2024-11-06T16:12:39Z</time>
      </trkpt>
      <trkpt lat="43.65248" lon="1.38528">
        <ele>141</ele>
        <time>2024-11-06T16:12:40Z</time>
      </trkpt>
      <trkpt lat="43.6525" lon="1.38532">
        <ele>141</ele>
        <time>2024-11-06T16:12:41Z</time>
      </trkpt>
      <trkpt lat="43.65252" lon="1.38537">
        <ele>141</ele>
        <time>2024-11-06T16:12:42Z</time>
      </trkpt>
      <trkpt lat="43.65253" lon="1.38539">
        <ele>141</ele>
        <time>2024-11-06T16:12:43Z</time>
      </trkpt>
      <trkpt lat="43.65254" lon="1.38543">
        <ele>141</ele>
        <time>2024-11-06T16:12:44Z</time>
      </trkpt>
      <trkpt lat="43.65255" lon="1.38547">
        <ele>141</ele>
        <time>2024-11-06T16:12:45Z</time>
      </trkpt>
      <trkpt lat="43.65256" lon="1.38551">
        <ele>141</ele>
        <time>2024-11-06T16:12:46Z</time>
      </trkpt>
      <trkpt lat="43.65257" lon="1.38554">
        <ele>141</ele>
        <time>2024-11-06T16:12:47Z</time>
      </trkpt>
      <trkpt lat="43.65258" lon="1.38557">
        <ele>142</ele>
        <time>2024-11-06T16:12:48Z</time>
      </trkpt>
      <trkpt lat="43.65259" lon="1.3856">
        <ele>142</ele>
        <time>2024-11-06T16:12:49Z</time>
      </trkpt>
      <trkpt lat="43.65261" lon="1.38565">
        <ele>142</ele>
        <time>2024-11-06T16:12:50Z</time>
      </trkpt>
      <trkpt lat="43.65261" lon="1.38567">
        <ele>141</ele>
        <time>2024-11-06T16:12:51Z</time>
      </trkpt>
      <trkpt lat="43.65262" lon="1.38571">
        <ele>141</ele>
        <time>2024-11-06T16:12:52Z</time>
      </trkpt>
      <trkpt lat="43.65263" lon="1.38573">
        <ele>141</ele>
        <time>2024-11-06T16:12:53Z</time>
      </trkpt>
      <trkpt lat="43.65263" lon="1.38576">
        <ele>141</ele>
        <time>2024-11-06T16:12:54Z</time>
      </trkpt>
      <trkpt lat="43.65264" lon="1.3858">
        <ele>141</ele>
        <time>2024-11-06T16:12:55Z</time>
      </trkpt>
      <trkpt lat="43.65264" lon="1.38584">
        <ele>141</ele>
        <time>2024-11-06T16:12:56Z</time>
      </trkpt>
      <trkpt lat="43.65265" lon="1.38587">
        <ele>141</ele>
        <time>2024-11-06T16:12:57Z</time>
      </trkpt>
      <trkpt lat="43.65267" lon="1.38591">
        <ele>141</ele>
        <time>2024-11-06T16:12:58Z</time>
      </trkpt>
      <trkpt lat="43.65268" lon="1.38594">
        <ele>141</ele>
        <time>2024-11-06T16:12:59Z</time>
      </trkpt>
      <trkpt lat="43.65269" lon="1.38599">
        <ele>141</ele>
        <time>2024-11-06T16:13:00Z</time>
      </trkpt>
      <trkpt lat="43.6527" lon="1.38603">
        <ele>141</ele>
        <time>2024-11-06T16:13:01Z</time>
      </trkpt>
      <trkpt lat="43.65271" lon="1.38605">
        <ele>141</ele>
        <time>2024-11-06T16:13:02Z</time>
      </trkpt>
      <trkpt lat="43.65272" lon="1.38607">
        <ele>141</ele>
        <time>2024-11-06T16:13:03Z</time>
      </trkpt>
      <trkpt lat="43.65274" lon="1.3861">
        <ele>141</ele>
        <time>2024-11-06T16:13:04Z</time>
      </trkpt>
      <trkpt lat="43.65275" lon="1.38613">
        <ele>141</ele>
        <time>2024-11-06T16:13:05Z</time>
      </trkpt>
      <trkpt lat="43.65278" lon="1.38615">
        <ele>141</ele>
        <time>2024-11-06T16:13:06Z</time>
      </trkpt>
      <trkpt lat="43.6528" lon="1.38618">
        <ele>141</ele>
        <time>2024-11-06T16:13:07Z</time>
      </trkpt>
      <trkpt lat="43.65282" lon="1.3862">
        <ele>141</ele>
        <time>2024-11-06T16:13:08Z</time>
      </trkpt>
      <trkpt lat="43.65286" lon="1.38623">
        <ele>141</ele>
        <time>2024-11-06T16:13:09Z</time>
      </trkpt>
      <trkpt lat="43.65287" lon="1.38625">
        <ele>142</ele>
        <time>2024-11-06T16:13:10Z</time>
      </trkpt>
      <trkpt lat="43.65289" lon="1.38628">
        <ele>142</ele>
        <time>2024-11-06T16:13:11Z</time>
      </trkpt>
      <trkpt lat="43.6529" lon="1.38631">
        <ele>142</ele>
        <time>2024-11-06T16:13:12Z</time>
      </trkpt>
      <trkpt lat="43.65292" lon="1.38634">
        <ele>142</ele>
        <time>2024-11-06T16:13:13Z</time>
      </trkpt>
      <trkpt lat="43.65293" lon="1.38638">
        <ele>142</ele>
        <time>2024-11-06T16:13:14Z</time>
      </trkpt>
      <trkpt lat="43.65294" lon="1.38643">
        <ele>142</ele>
        <time>2024-11-06T16:13:15Z</time>
      </trkpt>
      <trkpt lat="43.65294" lon="1.38646">
        <ele>142</ele>
        <time>2024-11-06T16:13:16Z</time>
      </trkpt>
      <trkpt lat="43.65296" lon="1.38649">
        <ele>142</ele>
        <time>2024-11-06T16:13:17Z</time>
      </trkpt>
      <trkpt lat="43.65297" lon="1.38653">
        <ele>143</ele>
        <time>2024-11-06T16:13:18Z</time>
      </trkpt>
      <trkpt lat="43.65298" lon="1.38656">
        <ele>143</ele>
        <time>2024-11-06T16:13:19Z</time>
      </trkpt>
      <trkpt lat="43.65299" lon="1.38661">
        <ele>143</ele>
        <time>2024-11-06T16:13:20Z</time>
      </trkpt>
      <trkpt lat="43.653" lon="1.38663">
        <ele>142</ele>
        <time>2024-11-06T16:13:21Z</time>
      </trkpt>
      <trkpt lat="43.65301" lon="1.38666">
        <ele>142</ele>
        <time>2024-11-06T16:13:22Z</time>
      </trkpt>
      <trkpt lat="43.65302" lon="1.38669">
        <ele>142</ele>
        <time>2024-11-06T16:13:23Z</time>
      </trkpt>
      <trkpt lat="43.65302" lon="1.38672">
        <ele>141</ele>
        <time>2024-11-06T16:13:24Z</time>
      </trkpt>
      <trkpt lat="43.65304" lon="1.38675">
        <ele>141</ele>
        <time>2024-11-06T16:13:25Z</time>
      </trkpt>
      <trkpt lat="43.65305" lon="1.38678">
        <ele>141</ele>
        <time>2024-11-06T16:13:26Z</time>
      </trkpt>
      <trkpt lat="43.65307" lon="1.38683">
        <ele>141</ele>
        <time>2024-11-06T16:13:27Z</time>
      </trkpt>
      <trkpt lat="43.65308" lon="1.38685">
        <ele>141</ele>
        <time>2024-11-06T16:13:28Z</time>
      </trkpt>
      <trkpt lat="43.65309" lon="1.38688">
        <ele>141</ele>
        <time>2024-11-06T16:13:29Z</time>
      </trkpt>
      <trkpt lat="43.6531" lon="1.38691">
        <ele>141</ele>
        <time>2024-11-06T16:13:30Z</time>
      </trkpt>
      <trkpt lat="43.6531" lon="1.38694">
        <ele>141</ele>
        <time>2024-11-06T16:13:31Z</time>
      </trkpt>
      <trkpt lat="43.65311" lon="1.38697">
        <ele>141</ele>
        <time>2024-11-06T16:13:32Z</time>
      </trkpt>
      <trkpt lat="43.65312" lon="1.387">
        <ele>141</ele>
        <time>2024-11-06T16:13:33Z</time>
      </trkpt>
      <trkpt lat="43.65312" lon="1.38703">
        <ele>141</ele>
        <time>2024-11-06T16:13:34Z</time>
      </trkpt>
      <trkpt lat="43.65313" lon="1.38707">
        <ele>141</ele>
        <time>2024-11-06T16:13:35Z</time>
      </trkpt>
      <trkpt lat="43.65314" lon="1.3871">
        <ele>141</ele>
        <time>2024-11-06T16:13:36Z</time>
      </trkpt>
      <trkpt lat="43.65316" lon="1.38714">
        <ele>141</ele>
        <time>2024-11-06T16:13:37Z</time>
      </trkpt>
      <trkpt lat="43.65317" lon="1.38717">
        <ele>141</ele>
        <time>2024-11-06T16:13:38Z</time>
      </trkpt>
      <trkpt lat="43.65318" lon="1.38722">
        <ele>141</ele>
        <time>2024-11-06T16:13:39Z</time>
      </trkpt>
      <trkpt lat="43.65318" lon="1.38724">
        <ele>142</ele>
        <time>2024-11-06T16:13:40Z</time>
      </trkpt>
      <trkpt lat="43.65319" lon="1.38728">
        <ele>142</ele>
        <time>2024-11-06T16:13:41Z</time>
      </trkpt>
      <trkpt lat="43.6532" lon="1.38731">
        <ele>142</ele>
        <time>2024-11-06T16:13:42Z</time>
      </trkpt>
      <trkpt lat="43.65321" lon="1.38734">
        <ele>142</ele>
        <time>2024-11-06T16:13:43Z</time>
      </trkpt>
      <trkpt lat="43.65323" lon="1.38738">
        <ele>142</ele>
        <time>2024-11-06T16:13:44Z</time>
      </trkpt>
      <trkpt lat="43.65324" lon="1.38742">
        <ele>142</ele>
        <time>2024-11-06T16:13:45Z</time>
      </trkpt>
      <trkpt lat="43.65325" lon="1.38747">
        <ele>142</ele>
        <time>2024-11-06T16:13:46Z</time>
      </trkpt>
      <trkpt lat="43.65325" lon="1.38749">
        <ele>143</ele>
        <time>2024-11-06T16:13:47Z</time>
      </trkpt>
      <trkpt lat="43.65326" lon="1.38753">
        <ele>143</ele>
        <time>2024-11-06T16:13:48Z</time>
      </trkpt>
      <trkpt lat="43.65327" lon="1.38756">
        <ele>143</ele>
        <time>2024-11-06T16:13:49Z</time>
      </trkpt>
      <trkpt lat="43.65328" lon="1.3876">
        <ele>143</ele>
        <time>2024-11-06T16:13:50Z</time>
      </trkpt>
      <trkpt lat="43.65328" lon="1.38763">
        <ele>143</ele>
        <time>2024-11-06T16:13:51Z</time>
      </trkpt>
      <trkpt lat="43.65329" lon="1.38766">
        <ele>143</ele>
        <time>2024-11-06T16:13:52Z</time>
      </trkpt>
      <trkpt lat="43.65329" lon="1.3877">
        <ele>143</ele>
        <time>2024-11-06T16:13:53Z</time>
      </trkpt>
      <trkpt lat="43.65331" lon="1.38772">
        <ele>143</ele>
        <time>2024-11-06T16:13:54Z</time>
      </trkpt>
      <trkpt lat="43.65332" lon="1.38775">
        <ele>143</ele>
        <time>2024-11-06T16:13:55Z</time>
      </trkpt>
      <trkpt lat="43.65333" lon="1.38778">
        <ele>143</ele>
        <time>2024-11-06T16:13:56Z</time>
      </trkpt>
      <trkpt lat="43.65334" lon="1.38782">
        <ele>143</ele>
        <time>2024-11-06T16:13:57Z</time>
      </trkpt>
      <trkpt lat="43.65337" lon="1.38787">
        <ele>143</ele>
        <time>2024-11-06T16:13:58Z</time>
      </trkpt>
      <trkpt lat="43.65337" lon="1.38789">
        <ele>143</ele>
        <time>2024-11-06T16:13:59Z</time>
      </trkpt>
      <trkpt lat="43.65339" lon="1.38793">
        <ele>143</ele>
        <time>2024-11-06T16:14:00Z</time>
      </trkpt>
      <trkpt lat="43.6534" lon="1.38796">
        <ele>143</ele>
        <time>2024-11-06T16:14:01Z</time>
      </trkpt>
      <trkpt lat="43.65341" lon="1.388">
        <ele>143</ele>
        <time>2024-11-06T16:14:02Z</time>
      </trkpt>
      <trkpt lat="43.65341" lon="1.38803">
        <ele>143</ele>
        <time>2024-11-06T16:14:03Z</time>
      </trkpt>
      <trkpt lat="43.65343" lon="1.38807">
        <ele>143</ele>
        <time>2024-11-06T16:14:04Z</time>
      </trkpt>
      <trkpt lat="43.65345" lon="1.38811">
        <ele>143</ele>
        <time>2024-11-06T16:14:05Z</time>
      </trkpt>
      <trkpt lat="43.65346" lon="1.38813">
        <ele>143</ele>
        <time>2024-11-06T16:14:06Z</time>
      </trkpt>
      <trkpt lat="43.65348" lon="1.38816">
        <ele>143</ele>
        <time>2024-11-06T16:14:07Z</time>
      </trkpt>
      <trkpt lat="43.65349" lon="1.38819">
        <ele>143</ele>
        <time>2024-11-06T16:14:08Z</time>
      </trkpt>
      <trkpt lat="43.65351" lon="1.38822">
        <ele>143</ele>
        <time>2024-11-06T16:14:09Z</time>
      </trkpt>
      <trkpt lat="43.65353" lon="1.38825">
        <ele>143</ele>
        <time>2024-11-06T16:14:10Z</time>
      </trkpt>
      <trkpt lat="43.65354" lon="1.38828">
        <ele>143</ele>
        <time>2024-11-06T16:14:11Z</time>
      </trkpt>
      <trkpt lat="43.65355" lon="1.3883">
        <ele>143</ele>
        <time>2024-11-06T16:14:12Z</time>
      </trkpt>
      <trkpt lat="43.65357" lon="1.38832">
        <ele>143</ele>
        <time>2024-11-06T16:14:13Z</time>
      </trkpt>
      <trkpt lat="43.65359" lon="1.38834">
        <ele>143</ele>
        <time>2024-11-06T16:14:14Z</time>
      </trkpt>
      <trkpt lat="43.65361" lon="1.38836">
        <ele>143</ele>
        <time>2024-11-06T16:14:15Z</time>
      </trkpt>
      <trkpt lat="43.65364" lon="1.38839">
        <ele>143</ele>
        <time>2024-11-06T16:14:16Z</time>
      </trkpt>
      <trkpt lat="43.65366" lon="1.38842">
        <ele>143</ele>
        <time>2024-11-06T16:14:17Z</time>
      </trkpt>
      <trkpt lat="43.65367" lon="1.38843">
        <ele>143</ele>
        <time>2024-11-06T16:14:18Z</time>
      </trkpt>
      <trkpt lat="43.65369" lon="1.38845">
        <ele>143</ele>
        <time>2024-11-06T16:14:19Z</time>
      </trkpt>
      <trkpt lat="43.65371" lon="1.38846">
        <ele>143</ele>
        <time>2024-11-06T16:14:20Z</time>
      </trkpt>
      <trkpt lat="43.65374" lon="1.38847">
        <ele>142</ele>
        <time>2024-11-06T16:14:21Z</time>
      </trkpt>
      <trkpt lat="43.65376" lon="1.38848">
        <ele>141</ele>
        <time>2024-11-06T16:14:22Z</time>
      </trkpt>
      <trkpt lat="43.65378" lon="1.38848">
        <ele>141</ele>
        <time>2024-11-06T16:14:23Z</time>
      </trkpt>
      <trkpt lat="43.6538" lon="1.38848">
        <ele>141</ele>
        <time>2024-11-06T16:14:24Z</time>
      </trkpt>
      <trkpt lat="43.65382" lon="1.38849">
        <ele>141</ele>
        <time>2024-11-06T16:14:25Z</time>
      </trkpt>
      <trkpt lat="43.65384" lon="1.38849">
        <ele>141</ele>
        <time>2024-11-06T16:14:26Z</time>
      </trkpt>
      <trkpt lat="43.65386" lon="1.38849">
        <ele>141</ele>
        <time>2024-11-06T16:14:27Z</time>
      </trkpt>
      <trkpt lat="43.65388" lon="1.38849">
        <ele>141</ele>
        <time>2024-11-06T16:14:28Z</time>
      </trkpt>
      <trkpt lat="43.6539" lon="1.38848">
        <ele>141</ele>
        <time>2024-11-06T16:14:29Z</time>
      </trkpt>
      <trkpt lat="43.6539" lon="1.38848">
        <ele>141</ele>
        <time>2024-11-06T16:14:30Z</time>
      </trkpt>
      <trkpt lat="43.65392" lon="1.38847">
        <ele>141</ele>
        <time>2024-11-06T16:14:31Z</time>
      </trkpt>
      <trkpt lat="43.65396" lon="1.38848">
        <ele>141</ele>
        <time>2024-11-06T16:14:32Z</time>
      </trkpt>
      <trkpt lat="43.65399" lon="1.38849">
        <ele>141</ele>
        <time>2024-11-06T16:14:33Z</time>
      </trkpt>
      <trkpt lat="43.65403" lon="1.38852">
        <ele>141</ele>
        <time>2024-11-06T16:14:34Z</time>
      </trkpt>
      <trkpt lat="43.65406" lon="1.38854">
        <ele>141</ele>
        <time>2024-11-06T16:14:35Z</time>
      </trkpt>
      <trkpt lat="43.6541" lon="1.3886">
        <ele>141</ele>
        <time>2024-11-06T16:14:36Z</time>
      </trkpt>
      <trkpt lat="43.65411" lon="1.38862">
        <ele>141</ele>
        <time>2024-11-06T16:14:37Z</time>
      </trkpt>
      <trkpt lat="43.65413" lon="1.38865">
        <ele>141</ele>
        <time>2024-11-06T16:14:38Z</time>
      </trkpt>
      <trkpt lat="43.65413" lon="1.3887">
        <ele>141</ele>
        <time>2024-11-06T16:14:39Z</time>
      </trkpt>
      <trkpt lat="43.65414" lon="1.38874">
        <ele>140</ele>
        <time>2024-11-06T16:14:40Z</time>
      </trkpt>
      <trkpt lat="43.65416" lon="1.38878">
        <ele>140</ele>
        <time>2024-11-06T16:14:41Z</time>
      </trkpt>
      <trkpt lat="43.65417" lon="1.38882">
        <ele>139</ele>
        <time>2024-11-06T16:14:42Z</time>
      </trkpt>
      <trkpt lat="43.65418" lon="1.38888">
        <ele>139</ele>
        <time>2024-11-06T16:14:43Z</time>
      </trkpt>
      <trkpt lat="43.65419" lon="1.38889">
        <ele>139</ele>
        <time>2024-11-06T16:14:44Z</time>
      </trkpt>
      <trkpt lat="43.6542" lon="1.38893">
        <ele>139</ele>
        <time>2024-11-06T16:14:45Z</time>
      </trkpt>
      <trkpt lat="43.65421" lon="1.38896">
        <ele>139</ele>
        <time>2024-11-06T16:14:46Z</time>
      </trkpt>
      <trkpt lat="43.65423" lon="1.38899">
        <ele>139</ele>
        <time>2024-11-06T16:14:47Z</time>
      </trkpt>
      <trkpt lat="43.65425" lon="1.38901">
        <ele>139</ele>
        <time>2024-11-06T16:14:48Z</time>
      </trkpt>
      <trkpt lat="43.65427" lon="1.38903">
        <ele>139</ele>
        <time>2024-11-06T16:14:49Z</time>
      </trkpt>
      <trkpt lat="43.65429" lon="1.38906">
        <ele>139</ele>
        <time>2024-11-06T16:14:50Z</time>
      </trkpt>
      <trkpt lat="43.65431" lon="1.38909">
        <ele>139</ele>
        <time>2024-11-06T16:14:51Z</time>
      </trkpt>
      <trkpt lat="43.65433" lon="1.38913">
        <ele>138</ele>
        <time>2024-11-06T16:14:52Z</time>
      </trkpt>
      <trkpt lat="43.65436" lon="1.38916">
        <ele>137</ele>
        <time>2024-11-06T16:14:53Z</time>
      </trkpt>
      <trkpt lat="43.65438" lon="1.3892">
        <ele>137</ele>
        <time>2024-11-06T16:14:54Z</time>
      </trkpt>
      <trkpt lat="43.65441" lon="1.38924">
        <ele>137</ele>
        <time>2024-11-06T16:14:55Z</time>
      </trkpt>
      <trkpt lat="43.65442" lon="1.38926">
        <ele>136</ele>
        <time>2024-11-06T16:14:56Z</time>
      </trkpt>
      <trkpt lat="43.65444" lon="1.38929">
        <ele>136</ele>
        <time>2024-11-06T16:14:57Z</time>
      </trkpt>
      <trkpt lat="43.65447" lon="1.38932">
        <ele>135</ele>
        <time>2024-11-06T16:14:58Z</time>
      </trkpt>
      <trkpt lat="43.65452" lon="1.38937">
        <ele>135</ele>
        <time>2024-11-06T16:14:59Z</time>
      </trkpt>
      <trkpt lat="43.65453" lon="1.38939">
        <ele>132</ele>
        <time>2024-11-06T16:15:00Z</time>
      </trkpt>
      <trkpt lat="43.65455" lon="1.38943">
        <ele>132</ele>
        <time>2024-11-06T16:15:01Z</time>
      </trkpt>
      <trkpt lat="43.65458" lon="1.38947">
        <ele>132</ele>
        <time>2024-11-06T16:15:02Z</time>
      </trkpt>
      <trkpt lat="43.6546" lon="1.38952">
        <ele>132</ele>
        <time>2024-11-06T16:15:03Z</time>
      </trkpt>
      <trkpt lat="43.65462" lon="1.38957">
        <ele>131</ele>
        <time>2024-11-06T16:15:04Z</time>
      </trkpt>
      <trkpt lat="43.65465" lon="1.38962">
        <ele>130</ele>
        <time>2024-11-06T16:15:05Z</time>
      </trkpt>
      <trkpt lat="43.65466" lon="1.38967">
        <ele>130</ele>
        <time>2024-11-06T16:15:06Z</time>
      </trkpt>
      <trkpt lat="43.65468" lon="1.38971">
        <ele>130</ele>
        <time>2024-11-06T16:15:07Z</time>
      </trkpt>
      <trkpt lat="43.6547" lon="1.38976">
        <ele>130</ele>
        <time>2024-11-06T16:15:08Z</time>
      </trkpt>
      <trkpt lat="43.65471" lon="1.3898">
        <ele>130</ele>
        <time>2024-11-06T16:15:09Z</time>
      </trkpt>
      <trkpt lat="43.65472" lon="1.38984">
        <ele>130</ele>
        <time>2024-11-06T16:15:10Z</time>
      </trkpt>
      <trkpt lat="43.65473" lon="1.38989">
        <ele>130</ele>
        <time>2024-11-06T16:15:11Z</time>
      </trkpt>
      <trkpt lat="43.65473" lon="1.38992">
        <ele>130</ele>
        <time>2024-11-06T16:15:12Z</time>
      </trkpt>
      <trkpt lat="43.65473" lon="1.38995">
        <ele>130</ele>
        <time>2024-11-06T16:15:13Z</time>
      </trkpt>
      <trkpt lat="43.65472" lon="1.38998">
        <ele>130</ele>
        <time>2024-11-06T16:15:14Z</time>
      </trkpt>
      <trkpt lat="43.65472" lon="1.38998">
        <ele>130</ele>
        <time>2024-11-06T16:15:15Z</time>
      </trkpt>
      <trkpt lat="43.6547" lon="1.39002">
        <ele>130</ele>
        <time>2024-11-06T16:15:16Z</time>
      </trkpt>
      <trkpt lat="43.65468" lon="1.39003">
        <ele>130</ele>
        <time>2024-11-06T16:15:17Z</time>
      </trkpt>
      <trkpt lat="43.65466" lon="1.39004">
        <ele>129</ele>
        <time>2024-11-06T16:15:18Z</time>
      </trkpt>
      <trkpt lat="43.65466" lon="1.39004">
        <ele>129</ele>
        <time>2024-11-06T16:15:19Z</time>
      </trkpt>
      <trkpt lat="43.65463" lon="1.39005">
        <ele>128</ele>
        <time>2024-11-06T16:15:20Z</time>
      </trkpt>
      <trkpt lat="43.65461" lon="1.39003">
        <ele>129</ele>
        <time>2024-11-06T16:15:21Z</time>
      </trkpt>
      <trkpt lat="43.65461" lon="1.39003">
        <ele>129</ele>
        <time>2024-11-06T16:15:22Z</time>
      </trkpt>
      <trkpt lat="43.65459" lon="1.39">
        <ele>129</ele>
        <time>2024-11-06T16:15:23Z</time>
      </trkpt>
      <trkpt lat="43.65458" lon="1.38999">
        <ele>129</ele>
        <time>2024-11-06T16:15:24Z</time>
      </trkpt>
      <trkpt lat="43.65456" lon="1.38998">
        <ele>129</ele>
        <time>2024-11-06T16:15:25Z</time>
      </trkpt>
      <trkpt lat="43.65453" lon="1.38999">
        <ele>129</ele>
        <time>2024-11-06T16:15:26Z</time>
      </trkpt>
      <trkpt lat="43.65451" lon="1.38999">
        <ele>129</ele>
        <time>2024-11-06T16:15:27Z</time>
      </trkpt>
      <trkpt lat="43.65448" lon="1.38999">
        <ele>129</ele>
        <time>2024-11-06T16:15:28Z</time>
      </trkpt>
      <trkpt lat="43.65446" lon="1.39">
        <ele>129</ele>
        <time>2024-11-06T16:15:29Z</time>
      </trkpt>
      <trkpt lat="43.65442" lon="1.39001">
        <ele>129</ele>
        <time>2024-11-06T16:15:30Z</time>
      </trkpt>
      <trkpt lat="43.65439" lon="1.39001">
        <ele>129</ele>
        <time>2024-11-06T16:15:31Z</time>
      </trkpt>
      <trkpt lat="43.65435" lon="1.39002">
        <ele>129</ele>
        <time>2024-11-06T16:15:32Z</time>
      </trkpt>
      <trkpt lat="43.65429" lon="1.39004">
        <ele>129</ele>
        <time>2024-11-06T16:15:33Z</time>
      </trkpt>
      <trkpt lat="43.65427" lon="1.39004">
        <ele>129</ele>
        <time>2024-11-06T16:15:34Z</time>
      </trkpt>
      <trkpt lat="43.65423" lon="1.39006">
        <ele>129</ele>
        <time>2024-11-06T16:15:35Z</time>
      </trkpt>
      <trkpt lat="43.65419" lon="1.39006">
        <ele>128</ele>
        <time>2024-11-06T16:15:36Z</time>
      </trkpt>
      <trkpt lat="43.65416" lon="1.39006">
        <ele>127</ele>
        <time>2024-11-06T16:15:37Z</time>
      </trkpt>
      <trkpt lat="43.65413" lon="1.39005">
        <ele>127</ele>
        <time>2024-11-06T16:15:38Z</time>
      </trkpt>
      <trkpt lat="43.6541" lon="1.39004">
        <ele>127</ele>
        <time>2024-11-06T16:15:39Z</time>
      </trkpt>
      <trkpt lat="43.65407" lon="1.39004">
        <ele>127</ele>
        <time>2024-11-06T16:15:40Z</time>
      </trkpt>
      <trkpt lat="43.65404" lon="1.39003">
        <ele>127</ele>
        <time>2024-11-06T16:15:41Z</time>
      </trkpt>
      <trkpt lat="43.65401" lon="1.39001">
        <ele>128</ele>
        <time>2024-11-06T16:15:42Z</time>
      </trkpt>
      <trkpt lat="43.65399" lon="1.39">
        <ele>128</ele>
        <time>2024-11-06T16:15:43Z</time>
      </trkpt>
      <trkpt lat="43.65396" lon="1.39">
        <ele>128</ele>
        <time>2024-11-06T16:15:44Z</time>
      </trkpt>
      <trkpt lat="43.65393" lon="1.39">
        <ele>128</ele>
        <time>2024-11-06T16:15:45Z</time>
      </trkpt>
      <trkpt lat="43.6539" lon="1.39">
        <ele>128</ele>
        <time>2024-11-06T16:15:46Z</time>
      </trkpt>
      <trkpt lat="43.65388" lon="1.39">
        <ele>128</ele>
        <time>2024-11-06T16:15:47Z</time>
      </trkpt>
      <trkpt lat="43.65385" lon="1.39001">
        <ele>128</ele>
        <time>2024-11-06T16:15:48Z</time>
      </trkpt>
      <trkpt lat="43.65383" lon="1.39001">
        <ele>128</ele>
        <time>2024-11-06T16:15:49Z</time>
      </trkpt>
      <trkpt lat="43.65378" lon="1.39003">
        <ele>128</ele>
        <time>2024-11-06T16:15:50Z</time>
      </trkpt>
      <trkpt lat="43.65377" lon="1.39003">
        <ele>128</ele>
        <time>2024-11-06T16:15:51Z</time>
      </trkpt>
      <trkpt lat="43.65373" lon="1.39002">
        <ele>128</ele>
        <time>2024-11-06T16:15:52Z</time>
      </trkpt>
      <trkpt lat="43.65371" lon="1.39002">
        <ele>128</ele>
        <time>2024-11-06T16:15:53Z</time>
      </trkpt>
      <trkpt lat="43.65368" lon="1.39001">
        <ele>128</ele>
        <time>2024-11-06T16:15:54Z</time>
      </trkpt>
      <trkpt lat="43.65366" lon="1.38999">
        <ele>128</ele>
        <time>2024-11-06T16:15:55Z</time>
      </trkpt>
      <trkpt lat="43.65364" lon="1.38997">
        <ele>128</ele>
        <time>2024-11-06T16:15:56Z</time>
      </trkpt>
      <trkpt lat="43.65362" lon="1.38995">
        <ele>128</ele>
        <time>2024-11-06T16:15:57Z</time>
      </trkpt>
      <trkpt lat="43.65359" lon="1.38994">
        <ele>129</ele>
        <time>2024-11-06T16:15:58Z</time>
      </trkpt>
      <trkpt lat="43.65357" lon="1.38993">
        <ele>128</ele>
        <time>2024-11-06T16:15:59Z</time>
      </trkpt>
      <trkpt lat="43.65355" lon="1.38992">
        <ele>128</ele>
        <time>2024-11-06T16:16:00Z</time>
      </trkpt>
      <trkpt lat="43.65352" lon="1.38992">
        <ele>128</ele>
        <time>2024-11-06T16:16:01Z</time>
      </trkpt>
      <trkpt lat="43.6535" lon="1.38992">
        <ele>128</ele>
        <time>2024-11-06T16:16:02Z</time>
      </trkpt>
      <trkpt lat="43.65348" lon="1.38992">
        <ele>129</ele>
        <time>2024-11-06T16:16:03Z</time>
      </trkpt>
      <trkpt lat="43.65346" lon="1.38991">
        <ele>129</ele>
        <time>2024-11-06T16:16:04Z</time>
      </trkpt>
      <trkpt lat="43.65344" lon="1.3899">
        <ele>129</ele>
        <time>2024-11-06T16:16:05Z</time>
      </trkpt>
      <trkpt lat="43.65342" lon="1.3899">
        <ele>129</ele>
        <time>2024-11-06T16:16:06Z</time>
      </trkpt>
      <trkpt lat="43.65341" lon="1.38992">
        <ele>129</ele>
        <time>2024-11-06T16:16:07Z</time>
      </trkpt>
      <trkpt lat="43.65339" lon="1.38995">
        <ele>129</ele>
        <time>2024-11-06T16:16:08Z</time>
      </trkpt>
      <trkpt lat="43.65336" lon="1.38998">
        <ele>129</ele>
        <time>2024-11-06T16:16:09Z</time>
      </trkpt>
      <trkpt lat="43.65334" lon="1.39001">
        <ele>129</ele>
        <time>2024-11-06T16:16:10Z</time>
      </trkpt>
      <trkpt lat="43.65331" lon="1.39004">
        <ele>129</ele>
        <time>2024-11-06T16:16:11Z</time>
      </trkpt>
      <trkpt lat="43.65329" lon="1.39008">
        <ele>129</ele>
        <time>2024-11-06T16:16:12Z</time>
      </trkpt>
      <trkpt lat="43.65328" lon="1.39012">
        <ele>129</ele>
        <time>2024-11-06T16:16:13Z</time>
      </trkpt>
      <trkpt lat="43.65327" lon="1.39016">
        <ele>129</ele>
        <time>2024-11-06T16:16:14Z</time>
      </trkpt>
      <trkpt lat="43.65325" lon="1.3902">
        <ele>129</ele>
        <time>2024-11-06T16:16:15Z</time>
      </trkpt>
      <trkpt lat="43.65324" lon="1.39024">
        <ele>128</ele>
        <time>2024-11-06T16:16:16Z</time>
      </trkpt>
      <trkpt lat="43.65322" lon="1.39028">
        <ele>128</ele>
        <time>2024-11-06T16:16:17Z</time>
      </trkpt>
      <trkpt lat="43.65321" lon="1.39031">
        <ele>128</ele>
        <time>2024-11-06T16:16:18Z</time>
      </trkpt>
      <trkpt lat="43.65319" lon="1.39035">
        <ele>128</ele>
        <time>2024-11-06T16:16:19Z</time>
      </trkpt>
      <trkpt lat="43.65318" lon="1.39038">
        <ele>128</ele>
        <time>2024-11-06T16:16:20Z</time>
      </trkpt>
      <trkpt lat="43.65317" lon="1.39042">
        <ele>128</ele>
        <time>2024-11-06T16:16:21Z</time>
      </trkpt>
      <trkpt lat="43.65315" lon="1.39045">
        <ele>128</ele>
        <time>2024-11-06T16:16:22Z</time>
      </trkpt>
      <trkpt lat="43.65313" lon="1.39047">
        <ele>127</ele>
        <time>2024-11-06T16:16:23Z</time>
      </trkpt>
      <trkpt lat="43.6531" lon="1.39049">
        <ele>127</ele>
        <time>2024-11-06T16:16:24Z</time>
      </trkpt>
      <trkpt lat="43.65307" lon="1.39051">
        <ele>127</ele>
        <time>2024-11-06T16:16:25Z</time>
      </trkpt>
      <trkpt lat="43.65303" lon="1.3905">
        <ele>127</ele>
        <time>2024-11-06T16:16:26Z</time>
      </trkpt>
      <trkpt lat="43.65301" lon="1.3905">
        <ele>127</ele>
        <time>2024-11-06T16:16:27Z</time>
      </trkpt>
      <trkpt lat="43.65299" lon="1.39049">
        <ele>128</ele>
        <time>2024-11-06T16:16:28Z</time>
      </trkpt>
      <trkpt lat="43.65296" lon="1.39048">
        <ele>128</ele>
        <time>2024-11-06T16:16:29Z</time>
      </trkpt>
      <trkpt lat="43.65293" lon="1.39047">
        <ele>128</ele>
        <time>2024-11-06T16:16:30Z</time>
      </trkpt>
      <trkpt lat="43.65291" lon="1.39046">
        <ele>128</ele>
        <time>2024-11-06T16:16:31Z</time>
      </trkpt>
      <trkpt lat="43.65288" lon="1.39045">
        <ele>128</ele>
        <time>2024-11-06T16:16:32Z</time>
      </trkpt>
      <trkpt lat="43.65286" lon="1.39044">
        <ele>128</ele>
        <time>2024-11-06T16:16:33Z</time>
      </trkpt>
      <trkpt lat="43.65283" lon="1.39044">
        <ele>128</ele>
        <time>2024-11-06T16:16:34Z</time>
      </trkpt>
      <trkpt lat="43.65281" lon="1.39043">
        <ele>127</ele>
        <time>2024-11-06T16:16:35Z</time>
      </trkpt>
      <trkpt lat="43.65278" lon="1.39043">
        <ele>127</ele>
        <time>2024-11-06T16:16:36Z</time>
      </trkpt>
      <trkpt lat="43.65275" lon="1.39042">
        <ele>128</ele>
        <time>2024-11-06T16:16:37Z</time>
      </trkpt>
      <trkpt lat="43.65273" lon="1.39042">
        <ele>128</ele>
        <time>2024-11-06T16:16:38Z</time>
      </trkpt>
      <trkpt lat="43.6527" lon="1.39041">
        <ele>128</ele>
        <time>2024-11-06T16:16:39Z</time>
      </trkpt>
      <trkpt lat="43.65267" lon="1.39042">
        <ele>128</ele>
        <time>2024-11-06T16:16:40Z</time>
      </trkpt>
      <trkpt lat="43.65265" lon="1.39042">
        <ele>128</ele>
        <time>2024-11-06T16:16:41Z</time>
      </trkpt>
      <trkpt lat="43.65262" lon="1.39042">
        <ele>128</ele>
        <time>2024-11-06T16:16:42Z</time>
      </trkpt>
      <trkpt lat="43.65259" lon="1.39042">
        <ele>128</ele>
        <time>2024-11-06T16:16:43Z</time>
      </trkpt>
      <trkpt lat="43.65257" lon="1.39042">
        <ele>128</ele>
        <time>2024-11-06T16:16:44Z</time>
      </trkpt>
      <trkpt lat="43.65253" lon="1.39041">
        <ele>128</ele>
        <time>2024-11-06T16:16:45Z</time>
      </trkpt>
      <trkpt lat="43.65251" lon="1.3904">
        <ele>128</ele>
        <time>2024-11-06T16:16:46Z</time>
      </trkpt>
      <trkpt lat="43.65249" lon="1.39039">
        <ele>128</ele>
        <time>2024-11-06T16:16:47Z</time>
      </trkpt>
      <trkpt lat="43.65246" lon="1.39037">
        <ele>128</ele>
        <time>2024-11-06T16:16:48Z</time>
      </trkpt>
      <trkpt lat="43.65243" lon="1.39035">
        <ele>128</ele>
        <time>2024-11-06T16:16:49Z</time>
      </trkpt>
      <trkpt lat="43.65242" lon="1.39033">
        <ele>128</ele>
        <time>2024-11-06T16:16:50Z</time>
      </trkpt>
      <trkpt lat="43.65239" lon="1.39031">
        <ele>128</ele>
        <time>2024-11-06T16:16:51Z</time>
      </trkpt>
      <trkpt lat="43.65237" lon="1.39029">
        <ele>128</ele>
        <time>2024-11-06T16:16:52Z</time>
      </trkpt>
      <trkpt lat="43.65235" lon="1.39026">
        <ele>128</ele>
        <time>2024-11-06T16:16:53Z</time>
      </trkpt>
      <trkpt lat="43.65233" lon="1.39025">
        <ele>128</ele>
        <time>2024-11-06T16:16:54Z</time>
      </trkpt>
      <trkpt lat="43.65231" lon="1.39023">
        <ele>128</ele>
        <time>2024-11-06T16:16:55Z</time>
      </trkpt>
      <trkpt lat="43.65227" lon="1.3902">
        <ele>128</ele>
        <time>2024-11-06T16:16:56Z</time>
      </trkpt>
      <trkpt lat="43.65226" lon="1.39019">
        <ele>128</ele>
        <time>2024-11-06T16:16:57Z</time>
      </trkpt>
      <trkpt lat="43.65223" lon="1.39019">
        <ele>128</ele>
        <time>2024-11-06T16:16:58Z</time>
      </trkpt>
      <trkpt lat="43.6522" lon="1.39019">
        <ele>128</ele>
        <time>2024-11-06T16:16:59Z</time>
      </trkpt>
      <trkpt lat="43.65218" lon="1.39019">
        <ele>128</ele>
        <time>2024-11-06T16:17:00Z</time>
      </trkpt>
      <trkpt lat="43.65215" lon="1.39019">
        <ele>128</ele>
        <time>2024-11-06T16:17:01Z</time>
      </trkpt>
      <trkpt lat="43.65212" lon="1.39019">
        <ele>128</ele>
        <time>2024-11-06T16:17:02Z</time>
      </trkpt>
      <trkpt lat="43.6521" lon="1.39019">
        <ele>128</ele>
        <time>2024-11-06T16:17:03Z</time>
      </trkpt>
      <trkpt lat="43.65206" lon="1.3902">
        <ele>128</ele>
        <time>2024-11-06T16:17:04Z</time>
      </trkpt>
      <trkpt lat="43.65205" lon="1.3902">
        <ele>128</ele>
        <time>2024-11-06T16:17:05Z</time>
      </trkpt>
      <trkpt lat="43.65202" lon="1.3902">
        <ele>128</ele>
        <time>2024-11-06T16:17:06Z</time>
      </trkpt>
      <trkpt lat="43.65199" lon="1.3902">
        <ele>128</ele>
        <time>2024-11-06T16:17:07Z</time>
      </trkpt>
      <trkpt lat="43.65195" lon="1.39021">
        <ele>128</ele>
        <time>2024-11-06T16:17:08Z</time>
      </trkpt>
      <trkpt lat="43.65194" lon="1.39021">
        <ele>128</ele>
        <time>2024-11-06T16:17:09Z</time>
      </trkpt>
      <trkpt lat="43.65191" lon="1.39021">
        <ele>128</ele>
        <time>2024-11-06T16:17:10Z</time>
      </trkpt>
      <trkpt lat="43.65189" lon="1.39021">
        <ele>128</ele>
        <time>2024-11-06T16:17:11Z</time>
      </trkpt>
      <trkpt lat="43.65186" lon="1.39021">
        <ele>128</ele>
        <time>2024-11-06T16:17:12Z</time>
      </trkpt>
      <trkpt lat="43.65184" lon="1.3902">
        <ele>128</ele>
        <time>2024-11-06T16:17:13Z</time>
      </trkpt>
      <trkpt lat="43.65181" lon="1.3902">
        <ele>128</ele>
        <time>2024-11-06T16:17:14Z</time>
      </trkpt>
      <trkpt lat="43.65178" lon="1.3902">
        <ele>128</ele>
        <time>2024-11-06T16:17:15Z</time>
      </trkpt>
      <trkpt lat="43.65176" lon="1.3902">
        <ele>128</ele>
        <time>2024-11-06T16:17:16Z</time>
      </trkpt>
      <trkpt lat="43.65173" lon="1.39021">
        <ele>128</ele>
        <time>2024-11-06T16:17:17Z</time>
      </trkpt>
      <trkpt lat="43.65171" lon="1.39021">
        <ele>128</ele>
        <time>2024-11-06T16:17:18Z</time>
      </trkpt>
      <trkpt lat="43.65168" lon="1.39021">
        <ele>128</ele>
        <time>2024-11-06T16:17:19Z</time>
      </trkpt>
      <trkpt lat="43.65165" lon="1.39021">
        <ele>128</ele>
        <time>2024-11-06T16:17:20Z</time>
      </trkpt>
      <trkpt lat="43.65163" lon="1.39021">
        <ele>128</ele>
        <time>2024-11-06T16:17:21Z</time>
      </trkpt>
      <trkpt lat="43.65159" lon="1.39022">
        <ele>128</ele>
        <time>2024-11-06T16:17:22Z</time>
      </trkpt>
      <trkpt lat="43.65158" lon="1.39022">
        <ele>127</ele>
        <time>2024-11-06T16:17:23Z</time>
      </trkpt>
      <trkpt lat="43.65155" lon="1.39022">
        <ele>127</ele>
        <time>2024-11-06T16:17:24Z</time>
      </trkpt>
      <trkpt lat="43.65153" lon="1.39022">
        <ele>127</ele>
        <time>2024-11-06T16:17:25Z</time>
      </trkpt>
      <trkpt lat="43.6515" lon="1.39023">
        <ele>127</ele>
        <time>2024-11-06T16:17:26Z</time>
      </trkpt>
      <trkpt lat="43.65147" lon="1.39023">
        <ele>127</ele>
        <time>2024-11-06T16:17:27Z</time>
      </trkpt>
      <trkpt lat="43.65145" lon="1.39024">
        <ele>127</ele>
        <time>2024-11-06T16:17:28Z</time>
      </trkpt>
      <trkpt lat="43.65142" lon="1.39024">
        <ele>127</ele>
        <time>2024-11-06T16:17:29Z</time>
      </trkpt>
      <trkpt lat="43.6514" lon="1.39024">
        <ele>127</ele>
        <time>2024-11-06T16:17:30Z</time>
      </trkpt>
      <trkpt lat="43.65138" lon="1.39024">
        <ele>127</ele>
        <time>2024-11-06T16:17:31Z</time>
      </trkpt>
      <trkpt lat="43.65135" lon="1.39024">
        <ele>127</ele>
        <time>2024-11-06T16:17:32Z</time>
      </trkpt>
      <trkpt lat="43.65132" lon="1.39024">
        <ele>127</ele>
        <time>2024-11-06T16:17:33Z</time>
      </trkpt>
      <trkpt lat="43.6513" lon="1.39024">
        <ele>127</ele>
        <time>2024-11-06T16:17:34Z</time>
      </trkpt>
      <trkpt lat="43.65127" lon="1.39023">
        <ele>127</ele>
        <time>2024-11-06T16:17:35Z</time>
      </trkpt>
      <trkpt lat="43.65124" lon="1.39023">
        <ele>127</ele>
        <time>2024-11-06T16:17:36Z</time>
      </trkpt>
      <trkpt lat="43.65121" lon="1.39022">
        <ele>127</ele>
        <time>2024-11-06T16:17:37Z</time>
      </trkpt>
      <trkpt lat="43.65119" lon="1.39022">
        <ele>127</ele>
        <time>2024-11-06T16:17:38Z</time>
      </trkpt>
      <trkpt lat="43.65116" lon="1.39021">
        <ele>127</ele>
        <time>2024-11-06T16:17:39Z</time>
      </trkpt>
      <trkpt lat="43.65114" lon="1.39021">
        <ele>127</ele>
        <time>2024-11-06T16:17:40Z</time>
      </trkpt>
      <trkpt lat="43.65111" lon="1.39021">
        <ele>127</ele>
        <time>2024-11-06T16:17:41Z</time>
      </trkpt>
      <trkpt lat="43.65107" lon="1.39021">
        <ele>127</ele>
        <time>2024-11-06T16:17:42Z</time>
      </trkpt>
      <trkpt lat="43.65106" lon="1.39022">
        <ele>127</ele>
        <time>2024-11-06T16:17:43Z</time>
      </trkpt>
      <trkpt lat="43.65103" lon="1.39022">
        <ele>127</ele>
        <time>2024-11-06T16:17:44Z</time>
      </trkpt>
      <trkpt lat="43.65101" lon="1.39022">
        <ele>127</ele>
        <time>2024-11-06T16:17:45Z</time>
      </trkpt>
      <trkpt lat="43.65097" lon="1.39024">
        <ele>127</ele>
        <time>2024-11-06T16:17:46Z</time>
      </trkpt>
      <trkpt lat="43.65096" lon="1.39024">
        <ele>128</ele>
        <time>2024-11-06T16:17:47Z</time>
      </trkpt>
      <trkpt lat="43.65093" lon="1.39026">
        <ele>128</ele>
        <time>2024-11-06T16:17:48Z</time>
      </trkpt>
      <trkpt lat="43.65091" lon="1.39027">
        <ele>128</ele>
        <time>2024-11-06T16:17:49Z</time>
      </trkpt>
      <trkpt lat="43.65089" lon="1.39028">
        <ele>128</ele>
        <time>2024-11-06T16:17:50Z</time>
      </trkpt>
      <trkpt lat="43.65087" lon="1.3903">
        <ele>128</ele>
        <time>2024-11-06T16:17:51Z</time>
      </trkpt>
      <trkpt lat="43.65084" lon="1.39031">
        <ele>128</ele>
        <time>2024-11-06T16:17:52Z</time>
      </trkpt>
      <trkpt lat="43.65082" lon="1.39033">
        <ele>128</ele>
        <time>2024-11-06T16:17:53Z</time>
      </trkpt>
      <trkpt lat="43.65081" lon="1.39034">
        <ele>128</ele>
        <time>2024-11-06T16:17:54Z</time>
      </trkpt>
      <trkpt lat="43.65079" lon="1.39036">
        <ele>128</ele>
        <time>2024-11-06T16:17:55Z</time>
      </trkpt>
      <trkpt lat="43.65077" lon="1.39039">
        <ele>128</ele>
        <time>2024-11-06T16:17:56Z</time>
      </trkpt>
      <trkpt lat="43.65076" lon="1.39041">
        <ele>128</ele>
        <time>2024-11-06T16:17:57Z</time>
      </trkpt>
      <trkpt lat="43.65075" lon="1.39045">
        <ele>128</ele>
        <time>2024-11-06T16:17:58Z</time>
      </trkpt>
      <trkpt lat="43.65075" lon="1.39048">
        <ele>128</ele>
        <time>2024-11-06T16:17:59Z</time>
      </trkpt>
      <trkpt lat="43.65075" lon="1.39052">
        <ele>128</ele>
        <time>2024-11-06T16:18:00Z</time>
      </trkpt>
      <trkpt lat="43.65075" lon="1.39055">
        <ele>128</ele>
        <time>2024-11-06T16:18:01Z</time>
      </trkpt>
      <trkpt lat="43.65075" lon="1.39061">
        <ele>128</ele>
        <time>2024-11-06T16:18:02Z</time>
      </trkpt>
      <trkpt lat="43.65075" lon="1.39062">
        <ele>128</ele>
        <time>2024-11-06T16:18:03Z</time>
      </trkpt>
      <trkpt lat="43.65075" lon="1.39066">
        <ele>128</ele>
        <time>2024-11-06T16:18:04Z</time>
      </trkpt>
      <trkpt lat="43.65075" lon="1.39072">
        <ele>128</ele>
        <time>2024-11-06T16:18:05Z</time>
      </trkpt>
      <trkpt lat="43.65075" lon="1.39073">
        <ele>129</ele>
        <time>2024-11-06T16:18:06Z</time>
      </trkpt>
      <trkpt lat="43.65075" lon="1.39077">
        <ele>129</ele>
        <time>2024-11-06T16:18:07Z</time>
      </trkpt>
      <trkpt lat="43.65075" lon="1.39081">
        <ele>129</ele>
        <time>2024-11-06T16:18:08Z</time>
      </trkpt>
      <trkpt lat="43.65075" lon="1.39084">
        <ele>129</ele>
        <time>2024-11-06T16:18:09Z</time>
      </trkpt>
      <trkpt lat="43.65075" lon="1.39088">
        <ele>129</ele>
        <time>2024-11-06T16:18:10Z</time>
      </trkpt>
      <trkpt lat="43.65075" lon="1.39092">
        <ele>129</ele>
        <time>2024-11-06T16:18:11Z</time>
      </trkpt>
      <trkpt lat="43.65075" lon="1.39095">
        <ele>129</ele>
        <time>2024-11-06T16:18:12Z</time>
      </trkpt>
      <trkpt lat="43.65075" lon="1.39099">
        <ele>128</ele>
        <time>2024-11-06T16:18:13Z</time>
      </trkpt>
      <trkpt lat="43.65075" lon="1.39102">
        <ele>128</ele>
        <time>2024-11-06T16:18:14Z</time>
      </trkpt>
      <trkpt lat="43.65075" lon="1.39106">
        <ele>128</ele>
        <time>2024-11-06T16:18:15Z</time>
      </trkpt>
      <trkpt lat="43.65076" lon="1.39109">
        <ele>128</ele>
        <time>2024-11-06T16:18:16Z</time>
      </trkpt>
      <trkpt lat="43.65076" lon="1.39113">
        <ele>128</ele>
        <time>2024-11-06T16:18:17Z</time>
      </trkpt>
      <trkpt lat="43.65076" lon="1.39116">
        <ele>128</ele>
        <time>2024-11-06T16:18:18Z</time>
      </trkpt>
      <trkpt lat="43.65076" lon="1.39119">
        <ele>128</ele>
        <time>2024-11-06T16:18:19Z</time>
      </trkpt>
      <trkpt lat="43.65076" lon="1.39123">
        <ele>128</ele>
        <time>2024-11-06T16:18:20Z</time>
      </trkpt>
      <trkpt lat="43.65076" lon="1.39128">
        <ele>128</ele>
        <time>2024-11-06T16:18:21Z</time>
      </trkpt>
      <trkpt lat="43.65076" lon="1.3913">
        <ele>128</ele>
        <time>2024-11-06T16:18:22Z</time>
      </trkpt>
      <trkpt lat="43.65075" lon="1.39133">
        <ele>128</ele>
        <time>2024-11-06T16:18:23Z</time>
      </trkpt>
      <trkpt lat="43.65072" lon="1.39137">
        <ele>128</ele>
        <time>2024-11-06T16:18:24Z</time>
      </trkpt>
      <trkpt lat="43.65071" lon="1.39139">
        <ele>128</ele>
        <time>2024-11-06T16:18:25Z</time>
      </trkpt>
      <trkpt lat="43.65069" lon="1.39141">
        <ele>128</ele>
        <time>2024-11-06T16:18:26Z</time>
      </trkpt>
      <trkpt lat="43.65066" lon="1.39142">
        <ele>129</ele>
        <time>2024-11-06T16:18:27Z</time>
      </trkpt>
      <trkpt lat="43.65064" lon="1.39144">
        <ele>129</ele>
        <time>2024-11-06T16:18:28Z</time>
      </trkpt>
      <trkpt lat="43.65062" lon="1.39145">
        <ele>129</ele>
        <time>2024-11-06T16:18:29Z</time>
      </trkpt>
      <trkpt lat="43.65059" lon="1.39146">
        <ele>129</ele>
        <time>2024-11-06T16:18:30Z</time>
      </trkpt>
      <trkpt lat="43.65057" lon="1.39148">
        <ele>129</ele>
        <time>2024-11-06T16:18:31Z</time>
      </trkpt>
      <trkpt lat="43.65055" lon="1.39149">
        <ele>129</ele>
        <time>2024-11-06T16:18:32Z</time>
      </trkpt>
      <trkpt lat="43.65052" lon="1.3915">
        <ele>129</ele>
        <time>2024-11-06T16:18:33Z</time>
      </trkpt>
      <trkpt lat="43.6505" lon="1.39151">
        <ele>129</ele>
        <time>2024-11-06T16:18:34Z</time>
      </trkpt>
      <trkpt lat="43.65048" lon="1.39151">
        <ele>129</ele>
        <time>2024-11-06T16:18:35Z</time>
      </trkpt>
      <trkpt lat="43.65045" lon="1.39152">
        <ele>129</ele>
        <time>2024-11-06T16:18:36Z</time>
      </trkpt>
      <trkpt lat="43.65043" lon="1.39152">
        <ele>129</ele>
        <time>2024-11-06T16:18:37Z</time>
      </trkpt>
      <trkpt lat="43.6504" lon="1.39153">
        <ele>129</ele>
        <time>2024-11-06T16:18:38Z</time>
      </trkpt>
      <trkpt lat="43.65037" lon="1.39154">
        <ele>129</ele>
        <time>2024-11-06T16:18:39Z</time>
      </trkpt>
      <trkpt lat="43.65035" lon="1.39154">
        <ele>129</ele>
        <time>2024-11-06T16:18:40Z</time>
      </trkpt>
      <trkpt lat="43.65032" lon="1.39154">
        <ele>129</ele>
        <time>2024-11-06T16:18:41Z</time>
      </trkpt>
      <trkpt lat="43.65031" lon="1.39154">
        <ele>129</ele>
        <time>2024-11-06T16:18:42Z</time>
      </trkpt>
      <trkpt lat="43.65027" lon="1.39155">
        <ele>129</ele>
        <time>2024-11-06T16:18:43Z</time>
      </trkpt>
      <trkpt lat="43.65026" lon="1.39155">
        <ele>129</ele>
        <time>2024-11-06T16:18:44Z</time>
      </trkpt>
      <trkpt lat="43.65023" lon="1.39155">
        <ele>129</ele>
        <time>2024-11-06T16:18:45Z</time>
      </trkpt>
      <trkpt lat="43.65021" lon="1.39156">
        <ele>129</ele>
        <time>2024-11-06T16:18:46Z</time>
      </trkpt>
      <trkpt lat="43.65018" lon="1.39156">
        <ele>129</ele>
        <time>2024-11-06T16:18:47Z</time>
      </trkpt>
      <trkpt lat="43.65016" lon="1.39157">
        <ele>129</ele>
        <time>2024-11-06T16:18:48Z</time>
      </trkpt>
      <trkpt lat="43.65013" lon="1.39157">
        <ele>129</ele>
        <time>2024-11-06T16:18:49Z</time>
      </trkpt>
      <trkpt lat="43.65011" lon="1.39158">
        <ele>129</ele>
        <time>2024-11-06T16:18:50Z</time>
      </trkpt>
      <trkpt lat="43.65009" lon="1.39158">
        <ele>129</ele>
        <time>2024-11-06T16:18:51Z</time>
      </trkpt>
      <trkpt lat="43.65006" lon="1.39159">
        <ele>129</ele>
        <time>2024-11-06T16:18:52Z</time>
      </trkpt>
      <trkpt lat="43.65004" lon="1.39159">
        <ele>129</ele>
        <time>2024-11-06T16:18:53Z</time>
      </trkpt>
      <trkpt lat="43.65001" lon="1.39159">
        <ele>129</ele>
        <time>2024-11-06T16:18:54Z</time>
      </trkpt>
      <trkpt lat="43.64999" lon="1.39159">
        <ele>129</ele>
        <time>2024-11-06T16:18:55Z</time>
      </trkpt>
      <trkpt lat="43.64996" lon="1.3916">
        <ele>129</ele>
        <time>2024-11-06T16:18:56Z</time>
      </trkpt>
      <trkpt lat="43.64993" lon="1.39161">
        <ele>129</ele>
        <time>2024-11-06T16:18:57Z</time>
      </trkpt>
      <trkpt lat="43.64991" lon="1.39162">
        <ele>129</ele>
        <time>2024-11-06T16:18:58Z</time>
      </trkpt>
      <trkpt lat="43.64989" lon="1.39162">
        <ele>129</ele>
        <time>2024-11-06T16:18:59Z</time>
      </trkpt>
      <trkpt lat="43.64986" lon="1.39162">
        <ele>129</ele>
        <time>2024-11-06T16:19:00Z</time>
      </trkpt>
      <trkpt lat="43.64983" lon="1.39163">
        <ele>129</ele>
        <time>2024-11-06T16:19:01Z</time>
      </trkpt>
      <trkpt lat="43.64981" lon="1.39163">
        <ele>129</ele>
        <time>2024-11-06T16:19:02Z</time>
      </trkpt>
      <trkpt lat="43.64978" lon="1.39164">
        <ele>129</ele>
        <time>2024-11-06T16:19:03Z</time>
      </trkpt>
      <trkpt lat="43.64975" lon="1.39164">
        <ele>129</ele>
        <time>2024-11-06T16:19:04Z</time>
      </trkpt>
      <trkpt lat="43.64973" lon="1.39164">
        <ele>128</ele>
        <time>2024-11-06T16:19:05Z</time>
      </trkpt>
      <trkpt lat="43.6497" lon="1.39163">
        <ele>128</ele>
        <time>2024-11-06T16:19:06Z</time>
      </trkpt>
      <trkpt lat="43.64967" lon="1.39162">
        <ele>129</ele>
        <time>2024-11-06T16:19:07Z</time>
      </trkpt>
      <trkpt lat="43.64965" lon="1.39159">
        <ele>129</ele>
        <time>2024-11-06T16:19:08Z</time>
      </trkpt>
      <trkpt lat="43.64963" lon="1.39156">
        <ele>129</ele>
        <time>2024-11-06T16:19:09Z</time>
      </trkpt>
      <trkpt lat="43.64962" lon="1.39153">
        <ele>129</ele>
        <time>2024-11-06T16:19:10Z</time>
      </trkpt>
      <trkpt lat="43.64961" lon="1.39149">
        <ele>129</ele>
        <time>2024-11-06T16:19:11Z</time>
      </trkpt>
      <trkpt lat="43.6496" lon="1.39146">
        <ele>129</ele>
        <time>2024-11-06T16:19:12Z</time>
      </trkpt>
      <trkpt lat="43.64959" lon="1.39142">
        <ele>129</ele>
        <time>2024-11-06T16:19:13Z</time>
      </trkpt>
      <trkpt lat="43.64959" lon="1.39138">
        <ele>129</ele>
        <time>2024-11-06T16:19:14Z</time>
      </trkpt>
      <trkpt lat="43.64958" lon="1.39134">
        <ele>129</ele>
        <time>2024-11-06T16:19:15Z</time>
      </trkpt>
      <trkpt lat="43.64957" lon="1.39131">
        <ele>129</ele>
        <time>2024-11-06T16:19:16Z</time>
      </trkpt>
      <trkpt lat="43.64956" lon="1.39128">
        <ele>129</ele>
        <time>2024-11-06T16:19:17Z</time>
      </trkpt>
      <trkpt lat="43.64955" lon="1.39125">
        <ele>129</ele>
        <time>2024-11-06T16:19:18Z</time>
      </trkpt>
      <trkpt lat="43.64952" lon="1.39122">
        <ele>129</ele>
        <time>2024-11-06T16:19:19Z</time>
      </trkpt>
      <trkpt lat="43.6495" lon="1.39121">
        <ele>129</ele>
        <time>2024-11-06T16:19:20Z</time>
      </trkpt>
      <trkpt lat="43.64947" lon="1.39119">
        <ele>129</ele>
        <time>2024-11-06T16:19:21Z</time>
      </trkpt>
      <trkpt lat="43.64946" lon="1.39119">
        <ele>129</ele>
        <time>2024-11-06T16:19:22Z</time>
      </trkpt>
      <trkpt lat="43.64943" lon="1.39119">
        <ele>129</ele>
        <time>2024-11-06T16:19:23Z</time>
      </trkpt>
      <trkpt lat="43.6494" lon="1.3912">
        <ele>129</ele>
        <time>2024-11-06T16:19:24Z</time>
      </trkpt>
      <trkpt lat="43.64937" lon="1.3912">
        <ele>129</ele>
        <time>2024-11-06T16:19:25Z</time>
      </trkpt>
      <trkpt lat="43.64935" lon="1.3912">
        <ele>128</ele>
        <time>2024-11-06T16:19:26Z</time>
      </trkpt>
      <trkpt lat="43.64932" lon="1.3912">
        <ele>128</ele>
        <time>2024-11-06T16:19:27Z</time>
      </trkpt>
      <trkpt lat="43.64929" lon="1.39119">
        <ele>129</ele>
        <time>2024-11-06T16:19:28Z</time>
      </trkpt>
      <trkpt lat="43.64926" lon="1.39119">
        <ele>129</ele>
        <time>2024-11-06T16:19:29Z</time>
      </trkpt>
      <trkpt lat="43.64924" lon="1.39119">
        <ele>129</ele>
        <time>2024-11-06T16:19:30Z</time>
      </trkpt>
      <trkpt lat="43.64921" lon="1.39119">
        <ele>129</ele>
        <time>2024-11-06T16:19:31Z</time>
      </trkpt>
      <trkpt lat="43.64918" lon="1.39119">
        <ele>129</ele>
        <time>2024-11-06T16:19:32Z</time>
      </trkpt>
      <trkpt lat="43.64915" lon="1.3912">
        <ele>129</ele>
        <time>2024-11-06T16:19:33Z</time>
      </trkpt>
      <trkpt lat="43.64913" lon="1.3912">
        <ele>129</ele>
        <time>2024-11-06T16:19:34Z</time>
      </trkpt>
      <trkpt lat="43.6491" lon="1.3912">
        <ele>129</ele>
        <time>2024-11-06T16:19:35Z</time>
      </trkpt>
      <trkpt lat="43.64907" lon="1.39121">
        <ele>129</ele>
        <time>2024-11-06T16:19:36Z</time>
      </trkpt>
      <trkpt lat="43.64903" lon="1.39122">
        <ele>129</ele>
        <time>2024-11-06T16:19:37Z</time>
      </trkpt>
      <trkpt lat="43.64901" lon="1.39123">
        <ele>129</ele>
        <time>2024-11-06T16:19:38Z</time>
      </trkpt>
      <trkpt lat="43.64899" lon="1.39123">
        <ele>129</ele>
        <time>2024-11-06T16:19:39Z</time>
      </trkpt>
      <trkpt lat="43.64894" lon="1.39124">
        <ele>129</ele>
        <time>2024-11-06T16:19:40Z</time>
      </trkpt>
      <trkpt lat="43.64893" lon="1.39124">
        <ele>129</ele>
        <time>2024-11-06T16:19:41Z</time>
      </trkpt>
      <trkpt lat="43.6489" lon="1.39126">
        <ele>129</ele>
        <time>2024-11-06T16:19:42Z</time>
      </trkpt>
      <trkpt lat="43.64887" lon="1.39126">
        <ele>129</ele>
        <time>2024-11-06T16:19:43Z</time>
      </trkpt>
      <trkpt lat="43.64885" lon="1.39127">
        <ele>129</ele>
        <time>2024-11-06T16:19:44Z</time>
      </trkpt>
      <trkpt lat="43.64882" lon="1.39128">
        <ele>129</ele>
        <time>2024-11-06T16:19:45Z</time>
      </trkpt>
      <trkpt lat="43.64879" lon="1.39129">
        <ele>129</ele>
        <time>2024-11-06T16:19:46Z</time>
      </trkpt>
      <trkpt lat="43.64877" lon="1.3913">
        <ele>129</ele>
        <time>2024-11-06T16:19:47Z</time>
      </trkpt>
      <trkpt lat="43.64874" lon="1.39131">
        <ele>129</ele>
        <time>2024-11-06T16:19:48Z</time>
      </trkpt>
      <trkpt lat="43.64872" lon="1.39132">
        <ele>129</ele>
        <time>2024-11-06T16:19:49Z</time>
      </trkpt>
      <trkpt lat="43.64869" lon="1.39133">
        <ele>129</ele>
        <time>2024-11-06T16:19:50Z</time>
      </trkpt>
      <trkpt lat="43.64867" lon="1.39134">
        <ele>129</ele>
        <time>2024-11-06T16:19:51Z</time>
      </trkpt>
      <trkpt lat="43.64865" lon="1.39134">
        <ele>129</ele>
        <time>2024-11-06T16:19:52Z</time>
      </trkpt>
      <trkpt lat="43.64862" lon="1.39135">
        <ele>129</ele>
        <time>2024-11-06T16:19:53Z</time>
      </trkpt>
      <trkpt lat="43.6486" lon="1.39136">
        <ele>129</ele>
        <time>2024-11-06T16:19:54Z</time>
      </trkpt>
      <trkpt lat="43.64857" lon="1.39136">
        <ele>129</ele>
        <time>2024-11-06T16:19:55Z</time>
      </trkpt>
      <trkpt lat="43.64853" lon="1.39137">
        <ele>129</ele>
        <time>2024-11-06T16:19:56Z</time>
      </trkpt>
      <trkpt lat="43.64851" lon="1.39137">
        <ele>129</ele>
        <time>2024-11-06T16:19:57Z</time>
      </trkpt>
      <trkpt lat="43.64849" lon="1.39138">
        <ele>129</ele>
        <time>2024-11-06T16:19:58Z</time>
      </trkpt>
      <trkpt lat="43.64846" lon="1.39139">
        <ele>129</ele>
        <time>2024-11-06T16:19:59Z</time>
      </trkpt>
      <trkpt lat="43.64845" lon="1.39139">
        <ele>129</ele>
        <time>2024-11-06T16:20:00Z</time>
      </trkpt>
      <trkpt lat="43.64842" lon="1.39141">
        <ele>129</ele>
        <time>2024-11-06T16:20:01Z</time>
      </trkpt>
      <trkpt lat="43.6484" lon="1.39142">
        <ele>129</ele>
        <time>2024-11-06T16:20:02Z</time>
      </trkpt>
      <trkpt lat="43.64838" lon="1.39144">
        <ele>129</ele>
        <time>2024-11-06T16:20:03Z</time>
      </trkpt>
      <trkpt lat="43.64835" lon="1.39146">
        <ele>129</ele>
        <time>2024-11-06T16:20:04Z</time>
      </trkpt>
      <trkpt lat="43.64833" lon="1.39148">
        <ele>129</ele>
        <time>2024-11-06T16:20:05Z</time>
      </trkpt>
      <trkpt lat="43.6483" lon="1.3915">
        <ele>128</ele>
        <time>2024-11-06T16:20:06Z</time>
      </trkpt>
      <trkpt lat="43.64828" lon="1.39152">
        <ele>128</ele>
        <time>2024-11-06T16:20:07Z</time>
      </trkpt>
      <trkpt lat="43.64825" lon="1.39154">
        <ele>128</ele>
        <time>2024-11-06T16:20:08Z</time>
      </trkpt>
      <trkpt lat="43.64823" lon="1.39156">
        <ele>128</ele>
        <time>2024-11-06T16:20:09Z</time>
      </trkpt>
      <trkpt lat="43.64821" lon="1.39158">
        <ele>128</ele>
        <time>2024-11-06T16:20:10Z</time>
      </trkpt>
      <trkpt lat="43.64818" lon="1.3916">
        <ele>128</ele>
        <time>2024-11-06T16:20:11Z</time>
      </trkpt>
      <trkpt lat="43.64815" lon="1.39162">
        <ele>128</ele>
        <time>2024-11-06T16:20:12Z</time>
      </trkpt>
      <trkpt lat="43.64813" lon="1.39164">
        <ele>128</ele>
        <time>2024-11-06T16:20:13Z</time>
      </trkpt>
      <trkpt lat="43.64809" lon="1.39167">
        <ele>128</ele>
        <time>2024-11-06T16:20:14Z</time>
      </trkpt>
      <trkpt lat="43.64807" lon="1.39168">
        <ele>128</ele>
        <time>2024-11-06T16:20:15Z</time>
      </trkpt>
      <trkpt lat="43.64805" lon="1.39169">
        <ele>128</ele>
        <time>2024-11-06T16:20:16Z</time>
      </trkpt>
      <trkpt lat="43.64803" lon="1.39171">
        <ele>128</ele>
        <time>2024-11-06T16:20:17Z</time>
      </trkpt>
      <trkpt lat="43.64799" lon="1.39173">
        <ele>128</ele>
        <time>2024-11-06T16:20:18Z</time>
      </trkpt>
      <trkpt lat="43.64798" lon="1.39174">
        <ele>128</ele>
        <time>2024-11-06T16:20:19Z</time>
      </trkpt>
      <trkpt lat="43.64795" lon="1.39176">
        <ele>128</ele>
        <time>2024-11-06T16:20:20Z</time>
      </trkpt>
      <trkpt lat="43.64792" lon="1.39177">
        <ele>129</ele>
        <time>2024-11-06T16:20:21Z</time>
      </trkpt>
      <trkpt lat="43.6479" lon="1.39179">
        <ele>129</ele>
        <time>2024-11-06T16:20:22Z</time>
      </trkpt>
      <trkpt lat="43.64788" lon="1.3918">
        <ele>129</ele>
        <time>2024-11-06T16:20:23Z</time>
      </trkpt>
      <trkpt lat="43.64785" lon="1.39182">
        <ele>129</ele>
        <time>2024-11-06T16:20:24Z</time>
      </trkpt>
      <trkpt lat="43.64783" lon="1.39183">
        <ele>129</ele>
        <time>2024-11-06T16:20:25Z</time>
      </trkpt>
      <trkpt lat="43.64781" lon="1.39185">
        <ele>129</ele>
        <time>2024-11-06T16:20:26Z</time>
      </trkpt>
      <trkpt lat="43.64778" lon="1.39187">
        <ele>128</ele>
        <time>2024-11-06T16:20:27Z</time>
      </trkpt>
      <trkpt lat="43.64776" lon="1.39188">
        <ele>128</ele>
        <time>2024-11-06T16:20:28Z</time>
      </trkpt>
      <trkpt lat="43.64774" lon="1.39189">
        <ele>128</ele>
        <time>2024-11-06T16:20:29Z</time>
      </trkpt>
      <trkpt lat="43.64771" lon="1.39191">
        <ele>128</ele>
        <time>2024-11-06T16:20:30Z</time>
      </trkpt>
      <trkpt lat="43.64769" lon="1.39192">
        <ele>128</ele>
        <time>2024-11-06T16:20:31Z</time>
      </trkpt>
      <trkpt lat="43.64767" lon="1.39193">
        <ele>128</ele>
        <time>2024-11-06T16:20:32Z</time>
      </trkpt>
      <trkpt lat="43.64763" lon="1.39195">
        <ele>128</ele>
        <time>2024-11-06T16:20:33Z</time>
      </trkpt>
      <trkpt lat="43.64762" lon="1.39196">
        <ele>128</ele>
        <time>2024-11-06T16:20:34Z</time>
      </trkpt>
      <trkpt lat="43.6476" lon="1.39197">
        <ele>128</ele>
        <time>2024-11-06T16:20:35Z</time>
      </trkpt>
      <trkpt lat="43.64757" lon="1.39199">
        <ele>128</ele>
        <time>2024-11-06T16:20:36Z</time>
      </trkpt>
      <trkpt lat="43.64754" lon="1.39201">
        <ele>128</ele>
        <time>2024-11-06T16:20:37Z</time>
      </trkpt>
      <trkpt lat="43.64752" lon="1.39201">
        <ele>128</ele>
        <time>2024-11-06T16:20:38Z</time>
      </trkpt>
      <trkpt lat="43.6475" lon="1.39203">
        <ele>128</ele>
        <time>2024-11-06T16:20:39Z</time>
      </trkpt>
      <trkpt lat="43.64748" lon="1.39204">
        <ele>129</ele>
        <time>2024-11-06T16:20:40Z</time>
      </trkpt>
      <trkpt lat="43.64746" lon="1.39206">
        <ele>129</ele>
        <time>2024-11-06T16:20:41Z</time>
      </trkpt>
      <trkpt lat="43.64744" lon="1.39207">
        <ele>128</ele>
        <time>2024-11-06T16:20:42Z</time>
      </trkpt>
      <trkpt lat="43.64741" lon="1.39209">
        <ele>128</ele>
        <time>2024-11-06T16:20:43Z</time>
      </trkpt>
      <trkpt lat="43.64738" lon="1.39211">
        <ele>128</ele>
        <time>2024-11-06T16:20:44Z</time>
      </trkpt>
      <trkpt lat="43.64736" lon="1.39212">
        <ele>128</ele>
        <time>2024-11-06T16:20:45Z</time>
      </trkpt>
      <trkpt lat="43.64734" lon="1.39214">
        <ele>128</ele>
        <time>2024-11-06T16:20:46Z</time>
      </trkpt>
      <trkpt lat="43.64731" lon="1.39216">
        <ele>128</ele>
        <time>2024-11-06T16:20:47Z</time>
      </trkpt>
      <trkpt lat="43.64729" lon="1.39218">
        <ele>128</ele>
        <time>2024-11-06T16:20:48Z</time>
      </trkpt>
      <trkpt lat="43.64726" lon="1.3922">
        <ele>128</ele>
        <time>2024-11-06T16:20:49Z</time>
      </trkpt>
      <trkpt lat="43.64724" lon="1.39222">
        <ele>128</ele>
        <time>2024-11-06T16:20:50Z</time>
      </trkpt>
      <trkpt lat="43.64722" lon="1.39224">
        <ele>128</ele>
        <time>2024-11-06T16:20:51Z</time>
      </trkpt>
      <trkpt lat="43.64718" lon="1.39226">
        <ele>128</ele>
        <time>2024-11-06T16:20:52Z</time>
      </trkpt>
      <trkpt lat="43.64717" lon="1.39227">
        <ele>128</ele>
        <time>2024-11-06T16:20:53Z</time>
      </trkpt>
      <trkpt lat="43.64715" lon="1.39229">
        <ele>128</ele>
        <time>2024-11-06T16:20:54Z</time>
      </trkpt>
      <trkpt lat="43.64712" lon="1.3923">
        <ele>128</ele>
        <time>2024-11-06T16:20:55Z</time>
      </trkpt>
      <trkpt lat="43.64709" lon="1.39233">
        <ele>128</ele>
        <time>2024-11-06T16:20:56Z</time>
      </trkpt>
      <trkpt lat="43.64707" lon="1.39233">
        <ele>128</ele>
        <time>2024-11-06T16:20:57Z</time>
      </trkpt>
      <trkpt lat="43.64705" lon="1.39235">
        <ele>128</ele>
        <time>2024-11-06T16:20:58Z</time>
      </trkpt>
      <trkpt lat="43.64703" lon="1.39236">
        <ele>128</ele>
        <time>2024-11-06T16:20:59Z</time>
      </trkpt>
      <trkpt lat="43.647" lon="1.39237">
        <ele>128</ele>
        <time>2024-11-06T16:21:00Z</time>
      </trkpt>
      <trkpt lat="43.64698" lon="1.39239">
        <ele>128</ele>
        <time>2024-11-06T16:21:01Z</time>
      </trkpt>
      <trkpt lat="43.64695" lon="1.39241">
        <ele>128</ele>
        <time>2024-11-06T16:21:02Z</time>
      </trkpt>
      <trkpt lat="43.64693" lon="1.39242">
        <ele>128</ele>
        <time>2024-11-06T16:21:03Z</time>
      </trkpt>
      <trkpt lat="43.6469" lon="1.39244">
        <ele>128</ele>
        <time>2024-11-06T16:21:04Z</time>
      </trkpt>
      <trkpt lat="43.64688" lon="1.39245">
        <ele>128</ele>
        <time>2024-11-06T16:21:05Z</time>
      </trkpt>
      <trkpt lat="43.64686" lon="1.39246">
        <ele>128</ele>
        <time>2024-11-06T16:21:06Z</time>
      </trkpt>
      <trkpt lat="43.64683" lon="1.39248">
        <ele>128</ele>
        <time>2024-11-06T16:21:07Z</time>
      </trkpt>
      <trkpt lat="43.64681" lon="1.39249">
        <ele>129</ele>
        <time>2024-11-06T16:21:08Z</time>
      </trkpt>
      <trkpt lat="43.64679" lon="1.3925">
        <ele>129</ele>
        <time>2024-11-06T16:21:09Z</time>
      </trkpt>
      <trkpt lat="43.64676" lon="1.39252">
        <ele>129</ele>
        <time>2024-11-06T16:21:10Z</time>
      </trkpt>
      <trkpt lat="43.64673" lon="1.39254">
        <ele>129</ele>
        <time>2024-11-06T16:21:11Z</time>
      </trkpt>
      <trkpt lat="43.64672" lon="1.39254">
        <ele>129</ele>
        <time>2024-11-06T16:21:12Z</time>
      </trkpt>
      <trkpt lat="43.6467" lon="1.39256">
        <ele>129</ele>
        <time>2024-11-06T16:21:13Z</time>
      </trkpt>
      <trkpt lat="43.64668" lon="1.39257">
        <ele>129</ele>
        <time>2024-11-06T16:21:14Z</time>
      </trkpt>
      <trkpt lat="43.64664" lon="1.3926">
        <ele>129</ele>
        <time>2024-11-06T16:21:15Z</time>
      </trkpt>
      <trkpt lat="43.64663" lon="1.3926">
        <ele>129</ele>
        <time>2024-11-06T16:21:16Z</time>
      </trkpt>
      <trkpt lat="43.6466" lon="1.39262">
        <ele>129</ele>
        <time>2024-11-06T16:21:17Z</time>
      </trkpt>
      <trkpt lat="43.64658" lon="1.39263">
        <ele>129</ele>
        <time>2024-11-06T16:21:18Z</time>
      </trkpt>
      <trkpt lat="43.64656" lon="1.39264">
        <ele>129</ele>
        <time>2024-11-06T16:21:19Z</time>
      </trkpt>
      <trkpt lat="43.64653" lon="1.39265">
        <ele>128</ele>
        <time>2024-11-06T16:21:20Z</time>
      </trkpt>
      <trkpt lat="43.64651" lon="1.39266">
        <ele>128</ele>
        <time>2024-11-06T16:21:21Z</time>
      </trkpt>
      <trkpt lat="43.64649" lon="1.39267">
        <ele>128</ele>
        <time>2024-11-06T16:21:22Z</time>
      </trkpt>
      <trkpt lat="43.64646" lon="1.39268">
        <ele>128</ele>
        <time>2024-11-06T16:21:23Z</time>
      </trkpt>
      <trkpt lat="43.64644" lon="1.39269">
        <ele>128</ele>
        <time>2024-11-06T16:21:24Z</time>
      </trkpt>
      <trkpt lat="43.64642" lon="1.39271">
        <ele>128</ele>
        <time>2024-11-06T16:21:25Z</time>
      </trkpt>
      <trkpt lat="43.6464" lon="1.39272">
        <ele>128</ele>
        <time>2024-11-06T16:21:26Z</time>
      </trkpt>
      <trkpt lat="43.64637" lon="1.39273">
        <ele>129</ele>
        <time>2024-11-06T16:21:27Z</time>
      </trkpt>
      <trkpt lat="43.64635" lon="1.39274">
        <ele>129</ele>
        <time>2024-11-06T16:21:28Z</time>
      </trkpt>
      <trkpt lat="43.64632" lon="1.39275">
        <ele>129</ele>
        <time>2024-11-06T16:21:29Z</time>
      </trkpt>
      <trkpt lat="43.6463" lon="1.39276">
        <ele>129</ele>
        <time>2024-11-06T16:21:30Z</time>
      </trkpt>
      <trkpt lat="43.64626" lon="1.39278">
        <ele>129</ele>
        <time>2024-11-06T16:21:31Z</time>
      </trkpt>
      <trkpt lat="43.64625" lon="1.39278">
        <ele>129</ele>
        <time>2024-11-06T16:21:32Z</time>
      </trkpt>
      <trkpt lat="43.64622" lon="1.39279">
        <ele>129</ele>
        <time>2024-11-06T16:21:33Z</time>
      </trkpt>
      <trkpt lat="43.64619" lon="1.3928">
        <ele>129</ele>
        <time>2024-11-06T16:21:34Z</time>
      </trkpt>
      <trkpt lat="43.64618" lon="1.39281">
        <ele>129</ele>
        <time>2024-11-06T16:21:35Z</time>
      </trkpt>
      <trkpt lat="43.64615" lon="1.39282">
        <ele>129</ele>
        <time>2024-11-06T16:21:36Z</time>
      </trkpt>
      <trkpt lat="43.64613" lon="1.39283">
        <ele>129</ele>
        <time>2024-11-06T16:21:37Z</time>
      </trkpt>
      <trkpt lat="43.64611" lon="1.39284">
        <ele>129</ele>
        <time>2024-11-06T16:21:38Z</time>
      </trkpt>
      <trkpt lat="43.64608" lon="1.39285">
        <ele>128</ele>
        <time>2024-11-06T16:21:39Z</time>
      </trkpt>
      <trkpt lat="43.64606" lon="1.39286">
        <ele>128</ele>
        <time>2024-11-06T16:21:40Z</time>
      </trkpt>
      <trkpt lat="43.64603" lon="1.39287">
        <ele>128</ele>
        <time>2024-11-06T16:21:41Z</time>
      </trkpt>
      <trkpt lat="43.64601" lon="1.39288">
        <ele>129</ele>
        <time>2024-11-06T16:21:42Z</time>
      </trkpt>
      <trkpt lat="43.64598" lon="1.39289">
        <ele>129</ele>
        <time>2024-11-06T16:21:43Z</time>
      </trkpt>
      <trkpt lat="43.64595" lon="1.3929">
        <ele>129</ele>
        <time>2024-11-06T16:21:44Z</time>
      </trkpt>
      <trkpt lat="43.64593" lon="1.39291">
        <ele>129</ele>
        <time>2024-11-06T16:21:45Z</time>
      </trkpt>
      <trkpt lat="43.6459" lon="1.39292">
        <ele>129</ele>
        <time>2024-11-06T16:21:46Z</time>
      </trkpt>
      <trkpt lat="43.64588" lon="1.39292">
        <ele>129</ele>
        <time>2024-11-06T16:21:47Z</time>
      </trkpt>
      <trkpt lat="43.64585" lon="1.39293">
        <ele>129</ele>
        <time>2024-11-06T16:21:48Z</time>
      </trkpt>
      <trkpt lat="43.64582" lon="1.39294">
        <ele>129</ele>
        <time>2024-11-06T16:21:49Z</time>
      </trkpt>
      <trkpt lat="43.64578" lon="1.39296">
        <ele>129</ele>
        <time>2024-11-06T16:21:50Z</time>
      </trkpt>
      <trkpt lat="43.64577" lon="1.39296">
        <ele>129</ele>
        <time>2024-11-06T16:21:51Z</time>
      </trkpt>
      <trkpt lat="43.64574" lon="1.39297">
        <ele>129</ele>
        <time>2024-11-06T16:21:52Z</time>
      </trkpt>
      <trkpt lat="43.6457" lon="1.39298">
        <ele>129</ele>
        <time>2024-11-06T16:21:53Z</time>
      </trkpt>
      <trkpt lat="43.64569" lon="1.39299">
        <ele>129</ele>
        <time>2024-11-06T16:21:54Z</time>
      </trkpt>
      <trkpt lat="43.64567" lon="1.393">
        <ele>129</ele>
        <time>2024-11-06T16:21:55Z</time>
      </trkpt>
      <trkpt lat="43.64564" lon="1.393">
        <ele>128</ele>
        <time>2024-11-06T16:21:56Z</time>
      </trkpt>
      <trkpt lat="43.64562" lon="1.39301">
        <ele>128</ele>
        <time>2024-11-06T16:21:57Z</time>
      </trkpt>
      <trkpt lat="43.64559" lon="1.39302">
        <ele>128</ele>
        <time>2024-11-06T16:21:58Z</time>
      </trkpt>
      <trkpt lat="43.64557" lon="1.39303">
        <ele>128</ele>
        <time>2024-11-06T16:21:59Z</time>
      </trkpt>
      <trkpt lat="43.64554" lon="1.39304">
        <ele>129</ele>
        <time>2024-11-06T16:22:00Z</time>
      </trkpt>
      <trkpt lat="43.64552" lon="1.39304">
        <ele>129</ele>
        <time>2024-11-06T16:22:01Z</time>
      </trkpt>
      <trkpt lat="43.64549" lon="1.39305">
        <ele>129</ele>
        <time>2024-11-06T16:22:02Z</time>
      </trkpt>
      <trkpt lat="43.64546" lon="1.39306">
        <ele>129</ele>
        <time>2024-11-06T16:22:03Z</time>
      </trkpt>
      <trkpt lat="43.64544" lon="1.39307">
        <ele>129</ele>
        <time>2024-11-06T16:22:04Z</time>
      </trkpt>
      <trkpt lat="43.64541" lon="1.39308">
        <ele>129</ele>
        <time>2024-11-06T16:22:05Z</time>
      </trkpt>
      <trkpt lat="43.64539" lon="1.39309">
        <ele>129</ele>
        <time>2024-11-06T16:22:06Z</time>
      </trkpt>
      <trkpt lat="43.64536" lon="1.39309">
        <ele>129</ele>
        <time>2024-11-06T16:22:07Z</time>
      </trkpt>
      <trkpt lat="43.64534" lon="1.3931">
        <ele>129</ele>
        <time>2024-11-06T16:22:08Z</time>
      </trkpt>
      <trkpt lat="43.6453" lon="1.39312">
        <ele>129</ele>
        <time>2024-11-06T16:22:09Z</time>
      </trkpt>
      <trkpt lat="43.64528" lon="1.39312">
        <ele>129</ele>
        <time>2024-11-06T16:22:10Z</time>
      </trkpt>
      <trkpt lat="43.64526" lon="1.39313">
        <ele>129</ele>
        <time>2024-11-06T16:22:11Z</time>
      </trkpt>
      <trkpt lat="43.64522" lon="1.39313">
        <ele>129</ele>
        <time>2024-11-06T16:22:12Z</time>
      </trkpt>
      <trkpt lat="43.6452" lon="1.39314">
        <ele>129</ele>
        <time>2024-11-06T16:22:13Z</time>
      </trkpt>
      <trkpt lat="43.64518" lon="1.39314">
        <ele>129</ele>
        <time>2024-11-06T16:22:14Z</time>
      </trkpt>
      <trkpt lat="43.64515" lon="1.39314">
        <ele>129</ele>
        <time>2024-11-06T16:22:15Z</time>
      </trkpt>
      <trkpt lat="43.64512" lon="1.39314">
        <ele>129</ele>
        <time>2024-11-06T16:22:16Z</time>
      </trkpt>
      <trkpt lat="43.6451" lon="1.39314">
        <ele>130</ele>
        <time>2024-11-06T16:22:17Z</time>
      </trkpt>
      <trkpt lat="43.64508" lon="1.39314">
        <ele>130</ele>
        <time>2024-11-06T16:22:18Z</time>
      </trkpt>
      <trkpt lat="43.64505" lon="1.39314">
        <ele>130</ele>
        <time>2024-11-06T16:22:19Z</time>
      </trkpt>
      <trkpt lat="43.64503" lon="1.39314">
        <ele>130</ele>
        <time>2024-11-06T16:22:20Z</time>
      </trkpt>
      <trkpt lat="43.645" lon="1.39314">
        <ele>130</ele>
        <time>2024-11-06T16:22:21Z</time>
      </trkpt>
      <trkpt lat="43.64498" lon="1.39313">
        <ele>131</ele>
        <time>2024-11-06T16:22:22Z</time>
      </trkpt>
      <trkpt lat="43.64496" lon="1.39313">
        <ele>131</ele>
        <time>2024-11-06T16:22:23Z</time>
      </trkpt>
      <trkpt lat="43.64494" lon="1.39313">
        <ele>131</ele>
        <time>2024-11-06T16:22:24Z</time>
      </trkpt>
      <trkpt lat="43.64491" lon="1.39313">
        <ele>131</ele>
        <time>2024-11-06T16:22:25Z</time>
      </trkpt>
      <trkpt lat="43.64489" lon="1.39314">
        <ele>131</ele>
        <time>2024-11-06T16:22:26Z</time>
      </trkpt>
      <trkpt lat="43.64486" lon="1.39314">
        <ele>132</ele>
        <time>2024-11-06T16:22:27Z</time>
      </trkpt>
      <trkpt lat="43.64484" lon="1.39315">
        <ele>132</ele>
        <time>2024-11-06T16:22:28Z</time>
      </trkpt>
      <trkpt lat="43.6448" lon="1.39316">
        <ele>132</ele>
        <time>2024-11-06T16:22:29Z</time>
      </trkpt>
      <trkpt lat="43.64479" lon="1.39316">
        <ele>132</ele>
        <time>2024-11-06T16:22:30Z</time>
      </trkpt>
      <trkpt lat="43.64476" lon="1.39317">
        <ele>132</ele>
        <time>2024-11-06T16:22:31Z</time>
      </trkpt>
      <trkpt lat="43.64475" lon="1.39318">
        <ele>132</ele>
        <time>2024-11-06T16:22:32Z</time>
      </trkpt>
      <trkpt lat="43.64473" lon="1.3932">
        <ele>132</ele>
        <time>2024-11-06T16:22:33Z</time>
      </trkpt>
      <trkpt lat="43.64472" lon="1.39323">
        <ele>132</ele>
        <time>2024-11-06T16:22:34Z</time>
      </trkpt>
      <trkpt lat="43.64472" lon="1.39326">
        <ele>132</ele>
        <time>2024-11-06T16:22:35Z</time>
      </trkpt>
      <trkpt lat="43.64472" lon="1.3933">
        <ele>132</ele>
        <time>2024-11-06T16:22:36Z</time>
      </trkpt>
      <trkpt lat="43.64473" lon="1.39333">
        <ele>132</ele>
        <time>2024-11-06T16:22:37Z</time>
      </trkpt>
      <trkpt lat="43.64473" lon="1.39336">
        <ele>132</ele>
        <time>2024-11-06T16:22:38Z</time>
      </trkpt>
      <trkpt lat="43.64474" lon="1.3934">
        <ele>132</ele>
        <time>2024-11-06T16:22:39Z</time>
      </trkpt>
      <trkpt lat="43.64475" lon="1.39343">
        <ele>132</ele>
        <time>2024-11-06T16:22:40Z</time>
      </trkpt>
      <trkpt lat="43.64475" lon="1.39346">
        <ele>132</ele>
        <time>2024-11-06T16:22:41Z</time>
      </trkpt>
      <trkpt lat="43.64475" lon="1.3935">
        <ele>132</ele>
        <time>2024-11-06T16:22:42Z</time>
      </trkpt>
      <trkpt lat="43.64476" lon="1.39353">
        <ele>132</ele>
        <time>2024-11-06T16:22:43Z</time>
      </trkpt>
      <trkpt lat="43.64477" lon="1.39356">
        <ele>132</ele>
        <time>2024-11-06T16:22:44Z</time>
      </trkpt>
      <trkpt lat="43.64477" lon="1.3936">
        <ele>132</ele>
        <time>2024-11-06T16:22:45Z</time>
      </trkpt>
      <trkpt lat="43.64477" lon="1.39363">
        <ele>132</ele>
        <time>2024-11-06T16:22:46Z</time>
      </trkpt>
      <trkpt lat="43.64478" lon="1.39366">
        <ele>132</ele>
        <time>2024-11-06T16:22:47Z</time>
      </trkpt>
      <trkpt lat="43.64478" lon="1.39369">
        <ele>132</ele>
        <time>2024-11-06T16:22:48Z</time>
      </trkpt>
      <trkpt lat="43.64478" lon="1.39372">
        <ele>132</ele>
        <time>2024-11-06T16:22:49Z</time>
      </trkpt>
      <trkpt lat="43.64479" lon="1.39377">
        <ele>132</ele>
        <time>2024-11-06T16:22:50Z</time>
      </trkpt>
      <trkpt lat="43.6448" lon="1.39379">
        <ele>132</ele>
        <time>2024-11-06T16:22:51Z</time>
      </trkpt>
      <trkpt lat="43.6448" lon="1.39382">
        <ele>132</ele>
        <time>2024-11-06T16:22:52Z</time>
      </trkpt>
      <trkpt lat="43.6448" lon="1.39386">
        <ele>132</ele>
        <time>2024-11-06T16:22:53Z</time>
      </trkpt>
      <trkpt lat="43.64481" lon="1.3939">
        <ele>132</ele>
        <time>2024-11-06T16:22:54Z</time>
      </trkpt>
      <trkpt lat="43.64481" lon="1.39393">
        <ele>132</ele>
        <time>2024-11-06T16:22:55Z</time>
      </trkpt>
      <trkpt lat="43.64482" lon="1.39396">
        <ele>132</ele>
        <time>2024-11-06T16:22:56Z</time>
      </trkpt>
      <trkpt lat="43.64482" lon="1.394">
        <ele>132</ele>
        <time>2024-11-06T16:22:57Z</time>
      </trkpt>
      <trkpt lat="43.64483" lon="1.39403">
        <ele>132</ele>
        <time>2024-11-06T16:22:58Z</time>
      </trkpt>
      <trkpt lat="43.64483" lon="1.39407">
        <ele>132</ele>
        <time>2024-11-06T16:22:59Z</time>
      </trkpt>
      <trkpt lat="43.64484" lon="1.3941">
        <ele>132</ele>
        <time>2024-11-06T16:23:00Z</time>
      </trkpt>
      <trkpt lat="43.64485" lon="1.39413">
        <ele>132</ele>
        <time>2024-11-06T16:23:01Z</time>
      </trkpt>
      <trkpt lat="43.64485" lon="1.39417">
        <ele>132</ele>
        <time>2024-11-06T16:23:02Z</time>
      </trkpt>
      <trkpt lat="43.64486" lon="1.3942">
        <ele>132</ele>
        <time>2024-11-06T16:23:03Z</time>
      </trkpt>
      <trkpt lat="43.64486" lon="1.39424">
        <ele>132</ele>
        <time>2024-11-06T16:23:04Z</time>
      </trkpt>
      <trkpt lat="43.64487" lon="1.39427">
        <ele>132</ele>
        <time>2024-11-06T16:23:05Z</time>
      </trkpt>
      <trkpt lat="43.64487" lon="1.3943">
        <ele>132</ele>
        <time>2024-11-06T16:23:06Z</time>
      </trkpt>
      <trkpt lat="43.64488" lon="1.39434">
        <ele>132</ele>
        <time>2024-11-06T16:23:07Z</time>
      </trkpt>
      <trkpt lat="43.64488" lon="1.39437">
        <ele>132</ele>
        <time>2024-11-06T16:23:08Z</time>
      </trkpt>
      <trkpt lat="43.64489" lon="1.39441">
        <ele>132</ele>
        <time>2024-11-06T16:23:09Z</time>
      </trkpt>
      <trkpt lat="43.64489" lon="1.39444">
        <ele>132</ele>
        <time>2024-11-06T16:23:10Z</time>
      </trkpt>
      <trkpt lat="43.6449" lon="1.39447">
        <ele>132</ele>
        <time>2024-11-06T16:23:11Z</time>
      </trkpt>
      <trkpt lat="43.64491" lon="1.3945">
        <ele>132</ele>
        <time>2024-11-06T16:23:12Z</time>
      </trkpt>
      <trkpt lat="43.64491" lon="1.39454">
        <ele>131</ele>
        <time>2024-11-06T16:23:13Z</time>
      </trkpt>
      <trkpt lat="43.64492" lon="1.39457">
        <ele>132</ele>
        <time>2024-11-06T16:23:14Z</time>
      </trkpt>
      <trkpt lat="43.64492" lon="1.3946">
        <ele>132</ele>
        <time>2024-11-06T16:23:15Z</time>
      </trkpt>
      <trkpt lat="43.64493" lon="1.39464">
        <ele>132</ele>
        <time>2024-11-06T16:23:16Z</time>
      </trkpt>
      <trkpt lat="43.64493" lon="1.39467">
        <ele>132</ele>
        <time>2024-11-06T16:23:17Z</time>
      </trkpt>
      <trkpt lat="43.64493" lon="1.39471">
        <ele>132</ele>
        <time>2024-11-06T16:23:18Z</time>
      </trkpt>
      <trkpt lat="43.64494" lon="1.39474">
        <ele>132</ele>
        <time>2024-11-06T16:23:19Z</time>
      </trkpt>
      <trkpt lat="43.64494" lon="1.39477">
        <ele>132</ele>
        <time>2024-11-06T16:23:20Z</time>
      </trkpt>
      <trkpt lat="43.64495" lon="1.39481">
        <ele>132</ele>
        <time>2024-11-06T16:23:21Z</time>
      </trkpt>
      <trkpt lat="43.64495" lon="1.39485">
        <ele>132</ele>
        <time>2024-11-06T16:23:22Z</time>
      </trkpt>
      <trkpt lat="43.64496" lon="1.39488">
        <ele>132</ele>
        <time>2024-11-06T16:23:23Z</time>
      </trkpt>
      <trkpt lat="43.64496" lon="1.39492">
        <ele>132</ele>
        <time>2024-11-06T16:23:24Z</time>
      </trkpt>
      <trkpt lat="43.64497" lon="1.39495">
        <ele>132</ele>
        <time>2024-11-06T16:23:25Z</time>
      </trkpt>
      <trkpt lat="43.64497" lon="1.39499">
        <ele>132</ele>
        <time>2024-11-06T16:23:26Z</time>
      </trkpt>
      <trkpt lat="43.64497" lon="1.39502">
        <ele>132</ele>
        <time>2024-11-06T16:23:27Z</time>
      </trkpt>
      <trkpt lat="43.64498" lon="1.39507">
        <ele>132</ele>
        <time>2024-11-06T16:23:28Z</time>
      </trkpt>
      <trkpt lat="43.64498" lon="1.39509">
        <ele>132</ele>
        <time>2024-11-06T16:23:29Z</time>
      </trkpt>
      <trkpt lat="43.64498" lon="1.39514">
        <ele>132</ele>
        <time>2024-11-06T16:23:30Z</time>
      </trkpt>
      <trkpt lat="43.64498" lon="1.39516">
        <ele>132</ele>
        <time>2024-11-06T16:23:31Z</time>
      </trkpt>
      <trkpt lat="43.64498" lon="1.3952">
        <ele>132</ele>
        <time>2024-11-06T16:23:32Z</time>
      </trkpt>
      <trkpt lat="43.64499" lon="1.39523">
        <ele>132</ele>
        <time>2024-11-06T16:23:33Z</time>
      </trkpt>
      <trkpt lat="43.64499" lon="1.39527">
        <ele>132</ele>
        <time>2024-11-06T16:23:34Z</time>
      </trkpt>
      <trkpt lat="43.64499" lon="1.3953">
        <ele>132</ele>
        <time>2024-11-06T16:23:35Z</time>
      </trkpt>
      <trkpt lat="43.64499" lon="1.39534">
        <ele>132</ele>
        <time>2024-11-06T16:23:36Z</time>
      </trkpt>
      <trkpt lat="43.645" lon="1.39537">
        <ele>132</ele>
        <time>2024-11-06T16:23:37Z</time>
      </trkpt>
      <trkpt lat="43.645" lon="1.3954">
        <ele>132</ele>
        <time>2024-11-06T16:23:38Z</time>
      </trkpt>
      <trkpt lat="43.64501" lon="1.39544">
        <ele>132</ele>
        <time>2024-11-06T16:23:39Z</time>
      </trkpt>
      <trkpt lat="43.64501" lon="1.39547">
        <ele>132</ele>
        <time>2024-11-06T16:23:40Z</time>
      </trkpt>
      <trkpt lat="43.64502" lon="1.39551">
        <ele>132</ele>
        <time>2024-11-06T16:23:41Z</time>
      </trkpt>
      <trkpt lat="43.64502" lon="1.39555">
        <ele>132</ele>
        <time>2024-11-06T16:23:42Z</time>
      </trkpt>
      <trkpt lat="43.64502" lon="1.39558">
        <ele>132</ele>
        <time>2024-11-06T16:23:43Z</time>
      </trkpt>
      <trkpt lat="43.64503" lon="1.39562">
        <ele>132</ele>
        <time>2024-11-06T16:23:44Z</time>
      </trkpt>
      <trkpt lat="43.64503" lon="1.39565">
        <ele>132</ele>
        <time>2024-11-06T16:23:45Z</time>
      </trkpt>
      <trkpt lat="43.64503" lon="1.39569">
        <ele>132</ele>
        <time>2024-11-06T16:23:46Z</time>
      </trkpt>
      <trkpt lat="43.64503" lon="1.39574">
        <ele>132</ele>
        <time>2024-11-06T16:23:47Z</time>
      </trkpt>
      <trkpt lat="43.64503" lon="1.39576">
        <ele>132</ele>
        <time>2024-11-06T16:23:48Z</time>
      </trkpt>
      <trkpt lat="43.64504" lon="1.39581">
        <ele>132</ele>
        <time>2024-11-06T16:23:49Z</time>
      </trkpt>
      <trkpt lat="43.64504" lon="1.39583">
        <ele>132</ele>
        <time>2024-11-06T16:23:50Z</time>
      </trkpt>
      <trkpt lat="43.64505" lon="1.39586">
        <ele>132</ele>
        <time>2024-11-06T16:23:51Z</time>
      </trkpt>
      <trkpt lat="43.64505" lon="1.3959">
        <ele>132</ele>
        <time>2024-11-06T16:23:52Z</time>
      </trkpt>
      <trkpt lat="43.64506" lon="1.39594">
        <ele>132</ele>
        <time>2024-11-06T16:23:53Z</time>
      </trkpt>
      <trkpt lat="43.64506" lon="1.39597">
        <ele>132</ele>
        <time>2024-11-06T16:23:54Z</time>
      </trkpt>
      <trkpt lat="43.64506" lon="1.39601">
        <ele>132</ele>
        <time>2024-11-06T16:23:55Z</time>
      </trkpt>
      <trkpt lat="43.64506" lon="1.39605">
        <ele>132</ele>
        <time>2024-11-06T16:23:56Z</time>
      </trkpt>
      <trkpt lat="43.64506" lon="1.39608">
        <ele>132</ele>
        <time>2024-11-06T16:23:57Z</time>
      </trkpt>
      <trkpt lat="43.64506" lon="1.39612">
        <ele>132</ele>
        <time>2024-11-06T16:23:58Z</time>
      </trkpt>
      <trkpt lat="43.64506" lon="1.39616">
        <ele>132</ele>
        <time>2024-11-06T16:23:59Z</time>
      </trkpt>
      <trkpt lat="43.64506" lon="1.3962">
        <ele>132</ele>
        <time>2024-11-06T16:24:00Z</time>
      </trkpt>
      <trkpt lat="43.64506" lon="1.39623">
        <ele>132</ele>
        <time>2024-11-06T16:24:01Z</time>
      </trkpt>
      <trkpt lat="43.64506" lon="1.39627">
        <ele>132</ele>
        <time>2024-11-06T16:24:02Z</time>
      </trkpt>
      <trkpt lat="43.64506" lon="1.39631">
        <ele>132</ele>
        <time>2024-11-06T16:24:03Z</time>
      </trkpt>
      <trkpt lat="43.64506" lon="1.39634">
        <ele>132</ele>
        <time>2024-11-06T16:24:04Z</time>
      </trkpt>
      <trkpt lat="43.64506" lon="1.39638">
        <ele>132</ele>
        <time>2024-11-06T16:24:05Z</time>
      </trkpt>
      <trkpt lat="43.64506" lon="1.39643">
        <ele>132</ele>
        <time>2024-11-06T16:24:06Z</time>
      </trkpt>
      <trkpt lat="43.64506" lon="1.39645">
        <ele>131</ele>
        <time>2024-11-06T16:24:07Z</time>
      </trkpt>
      <trkpt lat="43.64506" lon="1.3965">
        <ele>131</ele>
        <time>2024-11-06T16:24:08Z</time>
      </trkpt>
      <trkpt lat="43.64506" lon="1.39652">
        <ele>131</ele>
        <time>2024-11-06T16:24:09Z</time>
      </trkpt>
      <trkpt lat="43.64506" lon="1.39656">
        <ele>131</ele>
        <time>2024-11-06T16:24:10Z</time>
      </trkpt>
      <trkpt lat="43.64506" lon="1.39659">
        <ele>131</ele>
        <time>2024-11-06T16:24:11Z</time>
      </trkpt>
      <trkpt lat="43.64506" lon="1.39663">
        <ele>131</ele>
        <time>2024-11-06T16:24:12Z</time>
      </trkpt>
      <trkpt lat="43.64505" lon="1.39666">
        <ele>131</ele>
        <time>2024-11-06T16:24:13Z</time>
      </trkpt>
      <trkpt lat="43.64506" lon="1.3967">
        <ele>131</ele>
        <time>2024-11-06T16:24:14Z</time>
      </trkpt>
      <trkpt lat="43.64506" lon="1.39673">
        <ele>131</ele>
        <time>2024-11-06T16:24:15Z</time>
      </trkpt>
      <trkpt lat="43.64506" lon="1.39676">
        <ele>131</ele>
        <time>2024-11-06T16:24:16Z</time>
      </trkpt>
      <trkpt lat="43.64506" lon="1.3968">
        <ele>131</ele>
        <time>2024-11-06T16:24:17Z</time>
      </trkpt>
      <trkpt lat="43.64505" lon="1.39684">
        <ele>131</ele>
        <time>2024-11-06T16:24:18Z</time>
      </trkpt>
      <trkpt lat="43.64505" lon="1.39688">
        <ele>131</ele>
        <time>2024-11-06T16:24:19Z</time>
      </trkpt>
      <trkpt lat="43.64505" lon="1.39691">
        <ele>131</ele>
        <time>2024-11-06T16:24:20Z</time>
      </trkpt>
      <trkpt lat="43.64505" lon="1.39695">
        <ele>131</ele>
        <time>2024-11-06T16:24:21Z</time>
      </trkpt>
      <trkpt lat="43.64505" lon="1.39698">
        <ele>131</ele>
        <time>2024-11-06T16:24:22Z</time>
      </trkpt>
      <trkpt lat="43.64505" lon="1.39702">
        <ele>131</ele>
        <time>2024-11-06T16:24:23Z</time>
      </trkpt>
      <trkpt lat="43.64505" lon="1.39705">
        <ele>131</ele>
        <time>2024-11-06T16:24:24Z</time>
      </trkpt>
      <trkpt lat="43.64505" lon="1.39709">
        <ele>131</ele>
        <time>2024-11-06T16:24:25Z</time>
      </trkpt>
      <trkpt lat="43.64505" lon="1.39712">
        <ele>130</ele>
        <time>2024-11-06T16:24:26Z</time>
      </trkpt>
      <trkpt lat="43.64505" lon="1.39716">
        <ele>131</ele>
        <time>2024-11-06T16:24:27Z</time>
      </trkpt>
      <trkpt lat="43.64505" lon="1.3972">
        <ele>131</ele>
        <time>2024-11-06T16:24:28Z</time>
      </trkpt>
      <trkpt lat="43.64505" lon="1.39723">
        <ele>131</ele>
        <time>2024-11-06T16:24:29Z</time>
      </trkpt>
      <trkpt lat="43.64505" lon="1.39727">
        <ele>131</ele>
        <time>2024-11-06T16:24:30Z</time>
      </trkpt>
      <trkpt lat="43.64505" lon="1.3973">
        <ele>131</ele>
        <time>2024-11-06T16:24:31Z</time>
      </trkpt>
      <trkpt lat="43.64505" lon="1.39733">
        <ele>131</ele>
        <time>2024-11-06T16:24:32Z</time>
      </trkpt>
      <trkpt lat="43.64505" lon="1.39737">
        <ele>131</ele>
        <time>2024-11-06T16:24:33Z</time>
      </trkpt>
      <trkpt lat="43.64505" lon="1.3974">
        <ele>131</ele>
        <time>2024-11-06T16:24:34Z</time>
      </trkpt>
      <trkpt lat="43.64505" lon="1.39744">
        <ele>131</ele>
        <time>2024-11-06T16:24:35Z</time>
      </trkpt>
      <trkpt lat="43.64505" lon="1.39748">
        <ele>131</ele>
        <time>2024-11-06T16:24:36Z</time>
      </trkpt>
      <trkpt lat="43.64505" lon="1.39751">
        <ele>131</ele>
        <time>2024-11-06T16:24:37Z</time>
      </trkpt>
      <trkpt lat="43.64505" lon="1.39755">
        <ele>131</ele>
        <time>2024-11-06T16:24:38Z</time>
      </trkpt>
      <trkpt lat="43.64505" lon="1.39759">
        <ele>131</ele>
        <time>2024-11-06T16:24:39Z</time>
      </trkpt>
      <trkpt lat="43.64505" lon="1.39762">
        <ele>131</ele>
        <time>2024-11-06T16:24:40Z</time>
      </trkpt>
      <trkpt lat="43.64504" lon="1.39766">
        <ele>131</ele>
        <time>2024-11-06T16:24:41Z</time>
      </trkpt>
      <trkpt lat="43.64504" lon="1.3977">
        <ele>131</ele>
        <time>2024-11-06T16:24:42Z</time>
      </trkpt>
      <trkpt lat="43.64504" lon="1.39773">
        <ele>131</ele>
        <time>2024-11-06T16:24:43Z</time>
      </trkpt>
      <trkpt lat="43.64504" lon="1.39779">
        <ele>131</ele>
        <time>2024-11-06T16:24:44Z</time>
      </trkpt>
      <trkpt lat="43.64504" lon="1.39781">
        <ele>131</ele>
        <time>2024-11-06T16:24:45Z</time>
      </trkpt>
      <trkpt lat="43.64504" lon="1.39784">
        <ele>131</ele>
        <time>2024-11-06T16:24:46Z</time>
      </trkpt>
      <trkpt lat="43.64504" lon="1.3979">
        <ele>131</ele>
        <time>2024-11-06T16:24:47Z</time>
      </trkpt>
      <trkpt lat="43.64504" lon="1.39792">
        <ele>131</ele>
        <time>2024-11-06T16:24:48Z</time>
      </trkpt>
      <trkpt lat="43.64504" lon="1.39796">
        <ele>131</ele>
        <time>2024-11-06T16:24:49Z</time>
      </trkpt>
      <trkpt lat="43.64503" lon="1.39799">
        <ele>131</ele>
        <time>2024-11-06T16:24:50Z</time>
      </trkpt>
      <trkpt lat="43.64503" lon="1.39803">
        <ele>131</ele>
        <time>2024-11-06T16:24:51Z</time>
      </trkpt>
      <trkpt lat="43.64503" lon="1.39807">
        <ele>131</ele>
        <time>2024-11-06T16:24:52Z</time>
      </trkpt>
      <trkpt lat="43.64503" lon="1.3981">
        <ele>131</ele>
        <time>2024-11-06T16:24:53Z</time>
      </trkpt>
      <trkpt lat="43.64503" lon="1.39814">
        <ele>131</ele>
        <time>2024-11-06T16:24:54Z</time>
      </trkpt>
      <trkpt lat="43.64503" lon="1.39817">
        <ele>131</ele>
        <time>2024-11-06T16:24:55Z</time>
      </trkpt>
      <trkpt lat="43.64503" lon="1.39821">
        <ele>131</ele>
        <time>2024-11-06T16:24:56Z</time>
      </trkpt>
      <trkpt lat="43.64503" lon="1.39824">
        <ele>131</ele>
        <time>2024-11-06T16:24:57Z</time>
      </trkpt>
      <trkpt lat="43.64503" lon="1.39828">
        <ele>131</ele>
        <time>2024-11-06T16:24:58Z</time>
      </trkpt>
      <trkpt lat="43.64503" lon="1.39831">
        <ele>131</ele>
        <time>2024-11-06T16:24:59Z</time>
      </trkpt>
      <trkpt lat="43.64503" lon="1.39835">
        <ele>131</ele>
        <time>2024-11-06T16:25:00Z</time>
      </trkpt>
      <trkpt lat="43.64502" lon="1.39839">
        <ele>131</ele>
        <time>2024-11-06T16:25:01Z</time>
      </trkpt>
      <trkpt lat="43.64502" lon="1.39842">
        <ele>131</ele>
        <time>2024-11-06T16:25:02Z</time>
      </trkpt>
      <trkpt lat="43.64503" lon="1.39848">
        <ele>131</ele>
        <time>2024-11-06T16:25:03Z</time>
      </trkpt>
      <trkpt lat="43.64503" lon="1.3985">
        <ele>131</ele>
        <time>2024-11-06T16:25:04Z</time>
      </trkpt>
      <trkpt lat="43.64503" lon="1.39855">
        <ele>131</ele>
        <time>2024-11-06T16:25:05Z</time>
      </trkpt>
      <trkpt lat="43.64503" lon="1.39857">
        <ele>131</ele>
        <time>2024-11-06T16:25:06Z</time>
      </trkpt>
      <trkpt lat="43.64503" lon="1.39861">
        <ele>131</ele>
        <time>2024-11-06T16:25:07Z</time>
      </trkpt>
      <trkpt lat="43.64503" lon="1.39864">
        <ele>131</ele>
        <time>2024-11-06T16:25:08Z</time>
      </trkpt>
      <trkpt lat="43.64503" lon="1.39867">
        <ele>131</ele>
        <time>2024-11-06T16:25:09Z</time>
      </trkpt>
      <trkpt lat="43.64503" lon="1.39871">
        <ele>131</ele>
        <time>2024-11-06T16:25:10Z</time>
      </trkpt>
      <trkpt lat="43.64503" lon="1.39874">
        <ele>131</ele>
        <time>2024-11-06T16:25:11Z</time>
      </trkpt>
      <trkpt lat="43.64503" lon="1.39878">
        <ele>131</ele>
        <time>2024-11-06T16:25:12Z</time>
      </trkpt>
      <trkpt lat="43.64503" lon="1.39881">
        <ele>130</ele>
        <time>2024-11-06T16:25:13Z</time>
      </trkpt>
      <trkpt lat="43.64503" lon="1.39885">
        <ele>130</ele>
        <time>2024-11-06T16:25:14Z</time>
      </trkpt>
      <trkpt lat="43.64503" lon="1.39888">
        <ele>130</ele>
        <time>2024-11-06T16:25:15Z</time>
      </trkpt>
      <trkpt lat="43.64503" lon="1.39891">
        <ele>130</ele>
        <time>2024-11-06T16:25:16Z</time>
      </trkpt>
      <trkpt lat="43.64503" lon="1.39895">
        <ele>130</ele>
        <time>2024-11-06T16:25:17Z</time>
      </trkpt>
      <trkpt lat="43.64503" lon="1.39899">
        <ele>130</ele>
        <time>2024-11-06T16:25:18Z</time>
      </trkpt>
      <trkpt lat="43.64502" lon="1.39902">
        <ele>130</ele>
        <time>2024-11-06T16:25:19Z</time>
      </trkpt>
      <trkpt lat="43.64502" lon="1.39906">
        <ele>130</ele>
        <time>2024-11-06T16:25:20Z</time>
      </trkpt>
      <trkpt lat="43.64502" lon="1.39909">
        <ele>130</ele>
        <time>2024-11-06T16:25:21Z</time>
      </trkpt>
      <trkpt lat="43.64503" lon="1.39915">
        <ele>130</ele>
        <time>2024-11-06T16:25:22Z</time>
      </trkpt>
      <trkpt lat="43.64503" lon="1.39917">
        <ele>130</ele>
        <time>2024-11-06T16:25:23Z</time>
      </trkpt>
      <trkpt lat="43.64504" lon="1.3992">
        <ele>130</ele>
        <time>2024-11-06T16:25:24Z</time>
      </trkpt>
      <trkpt lat="43.64506" lon="1.39925">
        <ele>130</ele>
        <time>2024-11-06T16:25:25Z</time>
      </trkpt>
      <trkpt lat="43.64506" lon="1.39926">
        <ele>130</ele>
        <time>2024-11-06T16:25:26Z</time>
      </trkpt>
      <trkpt lat="43.64508" lon="1.39929">
        <ele>130</ele>
        <time>2024-11-06T16:25:27Z</time>
      </trkpt>
      <trkpt lat="43.6451" lon="1.39932">
        <ele>131</ele>
        <time>2024-11-06T16:25:28Z</time>
      </trkpt>
      <trkpt lat="43.64512" lon="1.39935">
        <ele>131</ele>
        <time>2024-11-06T16:25:29Z</time>
      </trkpt>
      <trkpt lat="43.64513" lon="1.39939">
        <ele>131</ele>
        <time>2024-11-06T16:25:30Z</time>
      </trkpt>
      <trkpt lat="43.64513" lon="1.39942">
        <ele>131</ele>
        <time>2024-11-06T16:25:31Z</time>
      </trkpt>
      <trkpt lat="43.64514" lon="1.39945">
        <ele>131</ele>
        <time>2024-11-06T16:25:32Z</time>
      </trkpt>
      <trkpt lat="43.64513" lon="1.39948">
        <ele>131</ele>
        <time>2024-11-06T16:25:33Z</time>
      </trkpt>
      <trkpt lat="43.64511" lon="1.39951">
        <ele>131</ele>
        <time>2024-11-06T16:25:34Z</time>
      </trkpt>
      <trkpt lat="43.64509" lon="1.39953">
        <ele>131</ele>
        <time>2024-11-06T16:25:35Z</time>
      </trkpt>
      <trkpt lat="43.64507" lon="1.39955">
        <ele>131</ele>
        <time>2024-11-06T16:25:36Z</time>
      </trkpt>
      <trkpt lat="43.64505" lon="1.39956">
        <ele>131</ele>
        <time>2024-11-06T16:25:37Z</time>
      </trkpt>
      <trkpt lat="43.64503" lon="1.39957">
        <ele>131</ele>
        <time>2024-11-06T16:25:38Z</time>
      </trkpt>
      <trkpt lat="43.645" lon="1.39958">
        <ele>131</ele>
        <time>2024-11-06T16:25:39Z</time>
      </trkpt>
      <trkpt lat="43.64498" lon="1.39959">
        <ele>131</ele>
        <time>2024-11-06T16:25:40Z</time>
      </trkpt>
      <trkpt lat="43.64495" lon="1.3996">
        <ele>131</ele>
        <time>2024-11-06T16:25:41Z</time>
      </trkpt>
      <trkpt lat="43.64494" lon="1.39961">
        <ele>130</ele>
        <time>2024-11-06T16:25:42Z</time>
      </trkpt>
      <trkpt lat="43.64492" lon="1.39962">
        <ele>130</ele>
        <time>2024-11-06T16:25:43Z</time>
      </trkpt>
      <trkpt lat="43.64489" lon="1.39963">
        <ele>130</ele>
        <time>2024-11-06T16:25:44Z</time>
      </trkpt>
      <trkpt lat="43.64485" lon="1.39964">
        <ele>130</ele>
        <time>2024-11-06T16:25:45Z</time>
      </trkpt>
      <trkpt lat="43.64484" lon="1.39965">
        <ele>129</ele>
        <time>2024-11-06T16:25:46Z</time>
      </trkpt>
      <trkpt lat="43.64481" lon="1.39966">
        <ele>129</ele>
        <time>2024-11-06T16:25:47Z</time>
      </trkpt>
      <trkpt lat="43.64478" lon="1.39967">
        <ele>129</ele>
        <time>2024-11-06T16:25:48Z</time>
      </trkpt>
      <trkpt lat="43.64476" lon="1.39967">
        <ele>129</ele>
        <time>2024-11-06T16:25:49Z</time>
      </trkpt>
      <trkpt lat="43.64473" lon="1.39967">
        <ele>128</ele>
        <time>2024-11-06T16:25:50Z</time>
      </trkpt>
      <trkpt lat="43.64471" lon="1.39968">
        <ele>128</ele>
        <time>2024-11-06T16:25:51Z</time>
      </trkpt>
      <trkpt lat="43.64469" lon="1.39967">
        <ele>128</ele>
        <time>2024-11-06T16:25:52Z</time>
      </trkpt>
      <trkpt lat="43.64466" lon="1.39967">
        <ele>128</ele>
        <time>2024-11-06T16:25:53Z</time>
      </trkpt>
      <trkpt lat="43.64464" lon="1.39967">
        <ele>128</ele>
        <time>2024-11-06T16:25:54Z</time>
      </trkpt>
      <trkpt lat="43.64461" lon="1.39968">
        <ele>128</ele>
        <time>2024-11-06T16:25:55Z</time>
      </trkpt>
      <trkpt lat="43.64459" lon="1.39968">
        <ele>128</ele>
        <time>2024-11-06T16:25:56Z</time>
      </trkpt>
      <trkpt lat="43.64457" lon="1.39968">
        <ele>128</ele>
        <time>2024-11-06T16:25:57Z</time>
      </trkpt>
      <trkpt lat="43.64454" lon="1.39968">
        <ele>128</ele>
        <time>2024-11-06T16:25:58Z</time>
      </trkpt>
      <trkpt lat="43.64452" lon="1.39969">
        <ele>128</ele>
        <time>2024-11-06T16:25:59Z</time>
      </trkpt>
      <trkpt lat="43.64448" lon="1.3997">
        <ele>128</ele>
        <time>2024-11-06T16:26:00Z</time>
      </trkpt>
      <trkpt lat="43.64446" lon="1.3997">
        <ele>128</ele>
        <time>2024-11-06T16:26:01Z</time>
      </trkpt>
      <trkpt lat="43.64444" lon="1.39971">
        <ele>128</ele>
        <time>2024-11-06T16:26:02Z</time>
      </trkpt>
      <trkpt lat="43.64441" lon="1.39971">
        <ele>128</ele>
        <time>2024-11-06T16:26:03Z</time>
      </trkpt>
      <trkpt lat="43.64436" lon="1.3997">
        <ele>128</ele>
        <time>2024-11-06T16:26:04Z</time>
      </trkpt>
      <trkpt lat="43.64435" lon="1.3997">
        <ele>128</ele>
        <time>2024-11-06T16:26:05Z</time>
      </trkpt>
      <trkpt lat="43.64432" lon="1.3997">
        <ele>128</ele>
        <time>2024-11-06T16:26:06Z</time>
      </trkpt>
      <trkpt lat="43.6443" lon="1.3997">
        <ele>128</ele>
        <time>2024-11-06T16:26:07Z</time>
      </trkpt>
      <trkpt lat="43.64427" lon="1.39971">
        <ele>128</ele>
        <time>2024-11-06T16:26:08Z</time>
      </trkpt>
      <trkpt lat="43.64423" lon="1.3997">
        <ele>128</ele>
        <time>2024-11-06T16:26:09Z</time>
      </trkpt>
      <trkpt lat="43.64422" lon="1.3997">
        <ele>128</ele>
        <time>2024-11-06T16:26:10Z</time>
      </trkpt>
      <trkpt lat="43.64419" lon="1.3997">
        <ele>128</ele>
        <time>2024-11-06T16:26:11Z</time>
      </trkpt>
      <trkpt lat="43.64417" lon="1.39969">
        <ele>128</ele>
        <time>2024-11-06T16:26:12Z</time>
      </trkpt>
      <trkpt lat="43.64414" lon="1.39968">
        <ele>128</ele>
        <time>2024-11-06T16:26:13Z</time>
      </trkpt>
      <trkpt lat="43.64411" lon="1.39968">
        <ele>128</ele>
        <time>2024-11-06T16:26:14Z</time>
      </trkpt>
      <trkpt lat="43.64409" lon="1.39968">
        <ele>128</ele>
        <time>2024-11-06T16:26:15Z</time>
      </trkpt>
      <trkpt lat="43.64407" lon="1.39968">
        <ele>128</ele>
        <time>2024-11-06T16:26:16Z</time>
      </trkpt>
      <trkpt lat="43.64404" lon="1.39967">
        <ele>128</ele>
        <time>2024-11-06T16:26:17Z</time>
      </trkpt>
      <trkpt lat="43.64402" lon="1.39967">
        <ele>128</ele>
        <time>2024-11-06T16:26:18Z</time>
      </trkpt>
      <trkpt lat="43.64398" lon="1.39966">
        <ele>128</ele>
        <time>2024-11-06T16:26:19Z</time>
      </trkpt>
      <trkpt lat="43.64397" lon="1.39966">
        <ele>128</ele>
        <time>2024-11-06T16:26:20Z</time>
      </trkpt>
      <trkpt lat="43.64395" lon="1.39966">
        <ele>128</ele>
        <time>2024-11-06T16:26:21Z</time>
      </trkpt>
      <trkpt lat="43.64392" lon="1.39965">
        <ele>128</ele>
        <time>2024-11-06T16:26:22Z</time>
      </trkpt>
      <trkpt lat="43.6439" lon="1.39965">
        <ele>128</ele>
        <time>2024-11-06T16:26:23Z</time>
      </trkpt>
      <trkpt lat="43.64386" lon="1.39964">
        <ele>128</ele>
        <time>2024-11-06T16:26:24Z</time>
      </trkpt>
      <trkpt lat="43.64385" lon="1.39964">
        <ele>128</ele>
        <time>2024-11-06T16:26:25Z</time>
      </trkpt>
      <trkpt lat="43.64382" lon="1.39964">
        <ele>128</ele>
        <time>2024-11-06T16:26:26Z</time>
      </trkpt>
      <trkpt lat="43.64379" lon="1.39964">
        <ele>128</ele>
        <time>2024-11-06T16:26:27Z</time>
      </trkpt>
      <trkpt lat="43.64376" lon="1.39964">
        <ele>128</ele>
        <time>2024-11-06T16:26:28Z</time>
      </trkpt>
      <trkpt lat="43.64374" lon="1.39964">
        <ele>128</ele>
        <time>2024-11-06T16:26:29Z</time>
      </trkpt>
      <trkpt lat="43.64371" lon="1.39963">
        <ele>128</ele>
        <time>2024-11-06T16:26:30Z</time>
      </trkpt>
      <trkpt lat="43.64368" lon="1.39962">
        <ele>128</ele>
        <time>2024-11-06T16:26:31Z</time>
      </trkpt>
      <trkpt lat="43.64365" lon="1.3996">
        <ele>128</ele>
        <time>2024-11-06T16:26:32Z</time>
      </trkpt>
      <trkpt lat="43.64362" lon="1.39959">
        <ele>128</ele>
        <time>2024-11-06T16:26:33Z</time>
      </trkpt>
      <trkpt lat="43.64359" lon="1.39957">
        <ele>128</ele>
        <time>2024-11-06T16:26:34Z</time>
      </trkpt>
      <trkpt lat="43.64357" lon="1.39956">
        <ele>128</ele>
        <time>2024-11-06T16:26:35Z</time>
      </trkpt>
      <trkpt lat="43.64354" lon="1.39955">
        <ele>128</ele>
        <time>2024-11-06T16:26:36Z</time>
      </trkpt>
      <trkpt lat="43.64351" lon="1.39954">
        <ele>128</ele>
        <time>2024-11-06T16:26:37Z</time>
      </trkpt>
      <trkpt lat="43.64347" lon="1.39952">
        <ele>128</ele>
        <time>2024-11-06T16:26:38Z</time>
      </trkpt>
      <trkpt lat="43.64346" lon="1.39952">
        <ele>128</ele>
        <time>2024-11-06T16:26:39Z</time>
      </trkpt>
      <trkpt lat="43.64343" lon="1.39951">
        <ele>128</ele>
        <time>2024-11-06T16:26:40Z</time>
      </trkpt>
      <trkpt lat="43.64341" lon="1.3995">
        <ele>128</ele>
        <time>2024-11-06T16:26:41Z</time>
      </trkpt>
      <trkpt lat="43.64337" lon="1.39949">
        <ele>128</ele>
        <time>2024-11-06T16:26:42Z</time>
      </trkpt>
      <trkpt lat="43.64336" lon="1.39949">
        <ele>128</ele>
        <time>2024-11-06T16:26:43Z</time>
      </trkpt>
      <trkpt lat="43.64333" lon="1.39948">
        <ele>128</ele>
        <time>2024-11-06T16:26:44Z</time>
      </trkpt>
      <trkpt lat="43.64331" lon="1.39947">
        <ele>128</ele>
        <time>2024-11-06T16:26:45Z</time>
      </trkpt>
      <trkpt lat="43.64329" lon="1.39946">
        <ele>128</ele>
        <time>2024-11-06T16:26:46Z</time>
      </trkpt>
      <trkpt lat="43.64326" lon="1.39945">
        <ele>128</ele>
        <time>2024-11-06T16:26:47Z</time>
      </trkpt>
      <trkpt lat="43.64323" lon="1.39944">
        <ele>128</ele>
        <time>2024-11-06T16:26:48Z</time>
      </trkpt>
      <trkpt lat="43.6432" lon="1.39944">
        <ele>128</ele>
        <time>2024-11-06T16:26:49Z</time>
      </trkpt>
      <trkpt lat="43.64317" lon="1.39943">
        <ele>128</ele>
        <time>2024-11-06T16:26:50Z</time>
      </trkpt>
      <trkpt lat="43.64314" lon="1.39942">
        <ele>128</ele>
        <time>2024-11-06T16:26:51Z</time>
      </trkpt>
      <trkpt lat="43.64312" lon="1.39941">
        <ele>128</ele>
        <time>2024-11-06T16:26:52Z</time>
      </trkpt>
      <trkpt lat="43.64309" lon="1.3994">
        <ele>128</ele>
        <time>2024-11-06T16:26:53Z</time>
      </trkpt>
      <trkpt lat="43.64307" lon="1.3994">
        <ele>128</ele>
        <time>2024-11-06T16:26:54Z</time>
      </trkpt>
      <trkpt lat="43.64304" lon="1.39939">
        <ele>128</ele>
        <time>2024-11-06T16:26:55Z</time>
      </trkpt>
      <trkpt lat="43.64302" lon="1.39937">
        <ele>128</ele>
        <time>2024-11-06T16:26:56Z</time>
      </trkpt>
      <trkpt lat="43.64299" lon="1.39935">
        <ele>128</ele>
        <time>2024-11-06T16:26:57Z</time>
      </trkpt>
      <trkpt lat="43.64298" lon="1.39935">
        <ele>128</ele>
        <time>2024-11-06T16:26:58Z</time>
      </trkpt>
      <trkpt lat="43.64295" lon="1.39934">
        <ele>128</ele>
        <time>2024-11-06T16:26:59Z</time>
      </trkpt>
      <trkpt lat="43.64292" lon="1.39934">
        <ele>128</ele>
        <time>2024-11-06T16:27:00Z</time>
      </trkpt>
      <trkpt lat="43.64288" lon="1.39933">
        <ele>128</ele>
        <time>2024-11-06T16:27:01Z</time>
      </trkpt>
      <trkpt lat="43.64287" lon="1.39933">
        <ele>128</ele>
        <time>2024-11-06T16:27:02Z</time>
      </trkpt>
      <trkpt lat="43.64284" lon="1.39932">
        <ele>128</ele>
        <time>2024-11-06T16:27:03Z</time>
      </trkpt>
      <trkpt lat="43.64282" lon="1.39932">
        <ele>128</ele>
        <time>2024-11-06T16:27:04Z</time>
      </trkpt>
      <trkpt lat="43.64279" lon="1.39932">
        <ele>128</ele>
        <time>2024-11-06T16:27:05Z</time>
      </trkpt>
      <trkpt lat="43.64276" lon="1.39932">
        <ele>128</ele>
        <time>2024-11-06T16:27:06Z</time>
      </trkpt>
      <trkpt lat="43.64273" lon="1.39932">
        <ele>128</ele>
        <time>2024-11-06T16:27:07Z</time>
      </trkpt>
      <trkpt lat="43.6427" lon="1.39932">
        <ele>128</ele>
        <time>2024-11-06T16:27:08Z</time>
      </trkpt>
      <trkpt lat="43.64268" lon="1.39932">
        <ele>128</ele>
        <time>2024-11-06T16:27:09Z</time>
      </trkpt>
      <trkpt lat="43.64265" lon="1.39932">
        <ele>128</ele>
        <time>2024-11-06T16:27:10Z</time>
      </trkpt>
      <trkpt lat="43.64262" lon="1.39932">
        <ele>128</ele>
        <time>2024-11-06T16:27:11Z</time>
      </trkpt>
      <trkpt lat="43.64259" lon="1.39932">
        <ele>129</ele>
        <time>2024-11-06T16:27:12Z</time>
      </trkpt>
      <trkpt lat="43.64257" lon="1.39933">
        <ele>129</ele>
        <time>2024-11-06T16:27:13Z</time>
      </trkpt>
      <trkpt lat="43.64255" lon="1.39933">
        <ele>129</ele>
        <time>2024-11-06T16:27:14Z</time>
      </trkpt>
      <trkpt lat="43.64252" lon="1.39934">
        <ele>129</ele>
        <time>2024-11-06T16:27:15Z</time>
      </trkpt>
      <trkpt lat="43.64249" lon="1.39935">
        <ele>129</ele>
        <time>2024-11-06T16:27:16Z</time>
      </trkpt>
      <trkpt lat="43.64248" lon="1.39936">
        <ele>129</ele>
        <time>2024-11-06T16:27:17Z</time>
      </trkpt>
      <trkpt lat="43.64245" lon="1.39937">
        <ele>129</ele>
        <time>2024-11-06T16:27:18Z</time>
      </trkpt>
      <trkpt lat="43.64243" lon="1.39939">
        <ele>129</ele>
        <time>2024-11-06T16:27:19Z</time>
      </trkpt>
      <trkpt lat="43.6424" lon="1.39941">
        <ele>129</ele>
        <time>2024-11-06T16:27:20Z</time>
      </trkpt>
      <trkpt lat="43.64239" lon="1.39942">
        <ele>129</ele>
        <time>2024-11-06T16:27:21Z</time>
      </trkpt>
      <trkpt lat="43.64236" lon="1.39944">
        <ele>129</ele>
        <time>2024-11-06T16:27:22Z</time>
      </trkpt>
      <trkpt lat="43.64234" lon="1.39947">
        <ele>129</ele>
        <time>2024-11-06T16:27:23Z</time>
      </trkpt>
      <trkpt lat="43.64232" lon="1.39949">
        <ele>129</ele>
        <time>2024-11-06T16:27:24Z</time>
      </trkpt>
      <trkpt lat="43.6423" lon="1.39951">
        <ele>129</ele>
        <time>2024-11-06T16:27:25Z</time>
      </trkpt>
      <trkpt lat="43.64228" lon="1.39953">
        <ele>129</ele>
        <time>2024-11-06T16:27:26Z</time>
      </trkpt>
      <trkpt lat="43.64226" lon="1.39955">
        <ele>129</ele>
        <time>2024-11-06T16:27:27Z</time>
      </trkpt>
      <trkpt lat="43.64224" lon="1.39957">
        <ele>129</ele>
        <time>2024-11-06T16:27:28Z</time>
      </trkpt>
      <trkpt lat="43.64221" lon="1.3996">
        <ele>129</ele>
        <time>2024-11-06T16:27:29Z</time>
      </trkpt>
      <trkpt lat="43.64218" lon="1.39962">
        <ele>129</ele>
        <time>2024-11-06T16:27:30Z</time>
      </trkpt>
      <trkpt lat="43.64216" lon="1.39964">
        <ele>129</ele>
        <time>2024-11-06T16:27:31Z</time>
      </trkpt>
      <trkpt lat="43.64213" lon="1.39966">
        <ele>129</ele>
        <time>2024-11-06T16:27:32Z</time>
      </trkpt>
      <trkpt lat="43.64211" lon="1.39968">
        <ele>129</ele>
        <time>2024-11-06T16:27:33Z</time>
      </trkpt>
      <trkpt lat="43.64209" lon="1.3997">
        <ele>129</ele>
        <time>2024-11-06T16:27:34Z</time>
      </trkpt>
      <trkpt lat="43.64206" lon="1.39972">
        <ele>129</ele>
        <time>2024-11-06T16:27:35Z</time>
      </trkpt>
      <trkpt lat="43.64205" lon="1.39973">
        <ele>129</ele>
        <time>2024-11-06T16:27:36Z</time>
      </trkpt>
      <trkpt lat="43.64202" lon="1.39974">
        <ele>129</ele>
        <time>2024-11-06T16:27:37Z</time>
      </trkpt>
      <trkpt lat="43.64199" lon="1.39975">
        <ele>129</ele>
        <time>2024-11-06T16:27:38Z</time>
      </trkpt>
      <trkpt lat="43.64197" lon="1.39976">
        <ele>129</ele>
        <time>2024-11-06T16:27:39Z</time>
      </trkpt>
      <trkpt lat="43.64194" lon="1.39977">
        <ele>129</ele>
        <time>2024-11-06T16:27:40Z</time>
      </trkpt>
      <trkpt lat="43.64191" lon="1.39977">
        <ele>129</ele>
        <time>2024-11-06T16:27:41Z</time>
      </trkpt>
      <trkpt lat="43.64189" lon="1.39978">
        <ele>129</ele>
        <time>2024-11-06T16:27:42Z</time>
      </trkpt>
      <trkpt lat="43.64186" lon="1.39978">
        <ele>129</ele>
        <time>2024-11-06T16:27:43Z</time>
      </trkpt>
      <trkpt lat="43.64184" lon="1.39979">
        <ele>129</ele>
        <time>2024-11-06T16:27:44Z</time>
      </trkpt>
      <trkpt lat="43.64181" lon="1.39979">
        <ele>129</ele>
        <time>2024-11-06T16:27:45Z</time>
      </trkpt>
      <trkpt lat="43.64179" lon="1.39979">
        <ele>129</ele>
        <time>2024-11-06T16:27:46Z</time>
      </trkpt>
      <trkpt lat="43.64176" lon="1.3998">
        <ele>129</ele>
        <time>2024-11-06T16:27:47Z</time>
      </trkpt>
      <trkpt lat="43.64173" lon="1.39981">
        <ele>129</ele>
        <time>2024-11-06T16:27:48Z</time>
      </trkpt>
      <trkpt lat="43.6417" lon="1.39982">
        <ele>129</ele>
        <time>2024-11-06T16:27:49Z</time>
      </trkpt>
      <trkpt lat="43.64168" lon="1.39984">
        <ele>129</ele>
        <time>2024-11-06T16:27:50Z</time>
      </trkpt>
      <trkpt lat="43.64165" lon="1.39985">
        <ele>129</ele>
        <time>2024-11-06T16:27:51Z</time>
      </trkpt>
      <trkpt lat="43.64163" lon="1.39986">
        <ele>129</ele>
        <time>2024-11-06T16:27:52Z</time>
      </trkpt>
      <trkpt lat="43.64161" lon="1.39986">
        <ele>130</ele>
        <time>2024-11-06T16:27:53Z</time>
      </trkpt>
      <trkpt lat="43.64157" lon="1.39986">
        <ele>130</ele>
        <time>2024-11-06T16:27:54Z</time>
      </trkpt>
      <trkpt lat="43.64156" lon="1.39987">
        <ele>129</ele>
        <time>2024-11-06T16:27:55Z</time>
      </trkpt>
      <trkpt lat="43.64154" lon="1.39987">
        <ele>129</ele>
        <time>2024-11-06T16:27:56Z</time>
      </trkpt>
      <trkpt lat="43.6415" lon="1.39988">
        <ele>129</ele>
        <time>2024-11-06T16:27:57Z</time>
      </trkpt>
      <trkpt lat="43.64149" lon="1.39988">
        <ele>130</ele>
        <time>2024-11-06T16:27:58Z</time>
      </trkpt>
      <trkpt lat="43.64147" lon="1.39989">
        <ele>130</ele>
        <time>2024-11-06T16:27:59Z</time>
      </trkpt>
      <trkpt lat="43.64145" lon="1.3999">
        <ele>130</ele>
        <time>2024-11-06T16:28:00Z</time>
      </trkpt>
      <trkpt lat="43.64142" lon="1.3999">
        <ele>130</ele>
        <time>2024-11-06T16:28:01Z</time>
      </trkpt>
      <trkpt lat="43.6414" lon="1.39991">
        <ele>130</ele>
        <time>2024-11-06T16:28:02Z</time>
      </trkpt>
      <trkpt lat="43.64138" lon="1.39991">
        <ele>131</ele>
        <time>2024-11-06T16:28:03Z</time>
      </trkpt>
      <trkpt lat="43.64136" lon="1.39993">
        <ele>131</ele>
        <time>2024-11-06T16:28:04Z</time>
      </trkpt>
      <trkpt lat="43.64133" lon="1.39995">
        <ele>131</ele>
        <time>2024-11-06T16:28:05Z</time>
      </trkpt>
      <trkpt lat="43.64131" lon="1.39997">
        <ele>131</ele>
        <time>2024-11-06T16:28:06Z</time>
      </trkpt>
      <trkpt lat="43.64129" lon="1.40001">
        <ele>131</ele>
        <time>2024-11-06T16:28:07Z</time>
      </trkpt>
      <trkpt lat="43.64126" lon="1.40005">
        <ele>131</ele>
        <time>2024-11-06T16:28:08Z</time>
      </trkpt>
      <trkpt lat="43.64125" lon="1.40008">
        <ele>131</ele>
        <time>2024-11-06T16:28:09Z</time>
      </trkpt>
      <trkpt lat="43.64123" lon="1.40012">
        <ele>131</ele>
        <time>2024-11-06T16:28:10Z</time>
      </trkpt>
      <trkpt lat="43.64122" lon="1.40015">
        <ele>131</ele>
        <time>2024-11-06T16:28:11Z</time>
      </trkpt>
      <trkpt lat="43.64121" lon="1.40018">
        <ele>131</ele>
        <time>2024-11-06T16:28:12Z</time>
      </trkpt>
      <trkpt lat="43.64119" lon="1.40024">
        <ele>131</ele>
        <time>2024-11-06T16:28:13Z</time>
      </trkpt>
      <trkpt lat="43.64118" lon="1.40026">
        <ele>131</ele>
        <time>2024-11-06T16:28:14Z</time>
      </trkpt>
      <trkpt lat="43.64116" lon="1.40029">
        <ele>131</ele>
        <time>2024-11-06T16:28:15Z</time>
      </trkpt>
      <trkpt lat="43.64114" lon="1.40034">
        <ele>131</ele>
        <time>2024-11-06T16:28:16Z</time>
      </trkpt>
      <trkpt lat="43.64113" lon="1.40036">
        <ele>132</ele>
        <time>2024-11-06T16:28:17Z</time>
      </trkpt>
      <trkpt lat="43.64112" lon="1.40039">
        <ele>132</ele>
        <time>2024-11-06T16:28:18Z</time>
      </trkpt>
      <trkpt lat="43.6411" lon="1.40043">
        <ele>132</ele>
        <time>2024-11-06T16:28:19Z</time>
      </trkpt>
      <trkpt lat="43.64108" lon="1.40046">
        <ele>132</ele>
        <time>2024-11-06T16:28:20Z</time>
      </trkpt>
      <trkpt lat="43.64107" lon="1.40049">
        <ele>132</ele>
        <time>2024-11-06T16:28:21Z</time>
      </trkpt>
      <trkpt lat="43.64105" lon="1.40053">
        <ele>132</ele>
        <time>2024-11-06T16:28:22Z</time>
      </trkpt>
      <trkpt lat="43.64103" lon="1.40056">
        <ele>132</ele>
        <time>2024-11-06T16:28:23Z</time>
      </trkpt>
      <trkpt lat="43.64102" lon="1.40059">
        <ele>132</ele>
        <time>2024-11-06T16:28:24Z</time>
      </trkpt>
      <trkpt lat="43.641" lon="1.40062">
        <ele>132</ele>
        <time>2024-11-06T16:28:25Z</time>
      </trkpt>
      <trkpt lat="43.64098" lon="1.40065">
        <ele>132</ele>
        <time>2024-11-06T16:28:26Z</time>
      </trkpt>
      <trkpt lat="43.64097" lon="1.40068">
        <ele>132</ele>
        <time>2024-11-06T16:28:27Z</time>
      </trkpt>
      <trkpt lat="43.64095" lon="1.40071">
        <ele>132</ele>
        <time>2024-11-06T16:28:28Z</time>
      </trkpt>
      <trkpt lat="43.64093" lon="1.40074">
        <ele>132</ele>
        <time>2024-11-06T16:28:29Z</time>
      </trkpt>
      <trkpt lat="43.64092" lon="1.40076">
        <ele>132</ele>
        <time>2024-11-06T16:28:30Z</time>
      </trkpt>
      <trkpt lat="43.6409" lon="1.40079">
        <ele>132</ele>
        <time>2024-11-06T16:28:31Z</time>
      </trkpt>
      <trkpt lat="43.64087" lon="1.40083">
        <ele>132</ele>
        <time>2024-11-06T16:28:32Z</time>
      </trkpt>
      <trkpt lat="43.64086" lon="1.40084">
        <ele>132</ele>
        <time>2024-11-06T16:28:33Z</time>
      </trkpt>
      <trkpt lat="43.64083" lon="1.40087">
        <ele>132</ele>
        <time>2024-11-06T16:28:34Z</time>
      </trkpt>
      <trkpt lat="43.64082" lon="1.40088">
        <ele>131</ele>
        <time>2024-11-06T16:28:35Z</time>
      </trkpt>
      <trkpt lat="43.6408" lon="1.4009">
        <ele>131</ele>
        <time>2024-11-06T16:28:36Z</time>
      </trkpt>
      <trkpt lat="43.64077" lon="1.40092">
        <ele>132</ele>
        <time>2024-11-06T16:28:37Z</time>
      </trkpt>
      <trkpt lat="43.64075" lon="1.40094">
        <ele>132</ele>
        <time>2024-11-06T16:28:38Z</time>
      </trkpt>
      <trkpt lat="43.64073" lon="1.40097">
        <ele>132</ele>
        <time>2024-11-06T16:28:39Z</time>
      </trkpt>
      <trkpt lat="43.6407" lon="1.40099">
        <ele>132</ele>
        <time>2024-11-06T16:28:40Z</time>
      </trkpt>
      <trkpt lat="43.64068" lon="1.40101">
        <ele>132</ele>
        <time>2024-11-06T16:28:41Z</time>
      </trkpt>
      <trkpt lat="43.64066" lon="1.40103">
        <ele>132</ele>
        <time>2024-11-06T16:28:42Z</time>
      </trkpt>
      <trkpt lat="43.64063" lon="1.40105">
        <ele>132</ele>
        <time>2024-11-06T16:28:43Z</time>
      </trkpt>
      <trkpt lat="43.64061" lon="1.40108">
        <ele>132</ele>
        <time>2024-11-06T16:28:44Z</time>
      </trkpt>
      <trkpt lat="43.64059" lon="1.4011">
        <ele>132</ele>
        <time>2024-11-06T16:28:45Z</time>
      </trkpt>
      <trkpt lat="43.64057" lon="1.40112">
        <ele>132</ele>
        <time>2024-11-06T16:28:46Z</time>
      </trkpt>
      <trkpt lat="43.64055" lon="1.40114">
        <ele>132</ele>
        <time>2024-11-06T16:28:47Z</time>
      </trkpt>
      <trkpt lat="43.64053" lon="1.40116">
        <ele>132</ele>
        <time>2024-11-06T16:28:48Z</time>
      </trkpt>
      <trkpt lat="43.64051" lon="1.40118">
        <ele>132</ele>
        <time>2024-11-06T16:28:49Z</time>
      </trkpt>
      <trkpt lat="43.64049" lon="1.4012">
        <ele>132</ele>
        <time>2024-11-06T16:28:50Z</time>
      </trkpt>
      <trkpt lat="43.64046" lon="1.40123">
        <ele>132</ele>
        <time>2024-11-06T16:28:51Z</time>
      </trkpt>
      <trkpt lat="43.64045" lon="1.40124">
        <ele>132</ele>
        <time>2024-11-06T16:28:52Z</time>
      </trkpt>
      <trkpt lat="43.64043" lon="1.40127">
        <ele>132</ele>
        <time>2024-11-06T16:28:53Z</time>
      </trkpt>
      <trkpt lat="43.64042" lon="1.40128">
        <ele>132</ele>
        <time>2024-11-06T16:28:54Z</time>
      </trkpt>
      <trkpt lat="43.6404" lon="1.4013">
        <ele>132</ele>
        <time>2024-11-06T16:28:55Z</time>
      </trkpt>
      <trkpt lat="43.64039" lon="1.40132">
        <ele>132</ele>
        <time>2024-11-06T16:28:56Z</time>
      </trkpt>
      <trkpt lat="43.64037" lon="1.40134">
        <ele>132</ele>
        <time>2024-11-06T16:28:57Z</time>
      </trkpt>
      <trkpt lat="43.64035" lon="1.40136">
        <ele>132</ele>
        <time>2024-11-06T16:28:58Z</time>
      </trkpt>
      <trkpt lat="43.64034" lon="1.40139">
        <ele>132</ele>
        <time>2024-11-06T16:28:59Z</time>
      </trkpt>
      <trkpt lat="43.64032" lon="1.40141">
        <ele>132</ele>
        <time>2024-11-06T16:29:00Z</time>
      </trkpt>
      <trkpt lat="43.6403" lon="1.40144">
        <ele>132</ele>
        <time>2024-11-06T16:29:01Z</time>
      </trkpt>
      <trkpt lat="43.64028" lon="1.40146">
        <ele>132</ele>
        <time>2024-11-06T16:29:02Z</time>
      </trkpt>
      <trkpt lat="43.64026" lon="1.40148">
        <ele>132</ele>
        <time>2024-11-06T16:29:03Z</time>
      </trkpt>
      <trkpt lat="43.64024" lon="1.4015">
        <ele>132</ele>
        <time>2024-11-06T16:29:04Z</time>
      </trkpt>
      <trkpt lat="43.64022" lon="1.40152">
        <ele>132</ele>
        <time>2024-11-06T16:29:05Z</time>
      </trkpt>
      <trkpt lat="43.6402" lon="1.40154">
        <ele>132</ele>
        <time>2024-11-06T16:29:06Z</time>
      </trkpt>
      <trkpt lat="43.64018" lon="1.40156">
        <ele>132</ele>
        <time>2024-11-06T16:29:07Z</time>
      </trkpt>
      <trkpt lat="43.64016" lon="1.40157">
        <ele>132</ele>
        <time>2024-11-06T16:29:08Z</time>
      </trkpt>
      <trkpt lat="43.64014" lon="1.40159">
        <ele>132</ele>
        <time>2024-11-06T16:29:09Z</time>
      </trkpt>
      <trkpt lat="43.64011" lon="1.40162">
        <ele>132</ele>
        <time>2024-11-06T16:29:10Z</time>
      </trkpt>
      <trkpt lat="43.6401" lon="1.40163">
        <ele>132</ele>
        <time>2024-11-06T16:29:11Z</time>
      </trkpt>
      <trkpt lat="43.64008" lon="1.40165">
        <ele>132</ele>
        <time>2024-11-06T16:29:12Z</time>
      </trkpt>
      <trkpt lat="43.64006" lon="1.40167">
        <ele>132</ele>
        <time>2024-11-06T16:29:13Z</time>
      </trkpt>
      <trkpt lat="43.64003" lon="1.40171">
        <ele>132</ele>
        <time>2024-11-06T16:29:14Z</time>
      </trkpt>
      <trkpt lat="43.64002" lon="1.40172">
        <ele>132</ele>
        <time>2024-11-06T16:29:15Z</time>
      </trkpt>
      <trkpt lat="43.63999" lon="1.40175">
        <ele>132</ele>
        <time>2024-11-06T16:29:16Z</time>
      </trkpt>
      <trkpt lat="43.63997" lon="1.40177">
        <ele>132</ele>
        <time>2024-11-06T16:29:17Z</time>
      </trkpt>
      <trkpt lat="43.63995" lon="1.40179">
        <ele>132</ele>
        <time>2024-11-06T16:29:18Z</time>
      </trkpt>
      <trkpt lat="43.63992" lon="1.40181">
        <ele>132</ele>
        <time>2024-11-06T16:29:19Z</time>
      </trkpt>
      <trkpt lat="43.6399" lon="1.40183">
        <ele>132</ele>
        <time>2024-11-06T16:29:20Z</time>
      </trkpt>
      <trkpt lat="43.63988" lon="1.40185">
        <ele>132</ele>
        <time>2024-11-06T16:29:21Z</time>
      </trkpt>
      <trkpt lat="43.63986" lon="1.40187">
        <ele>132</ele>
        <time>2024-11-06T16:29:22Z</time>
      </trkpt>
      <trkpt lat="43.63983" lon="1.40189">
        <ele>132</ele>
        <time>2024-11-06T16:29:23Z</time>
      </trkpt>
      <trkpt lat="43.63981" lon="1.40191">
        <ele>132</ele>
        <time>2024-11-06T16:29:24Z</time>
      </trkpt>
      <trkpt lat="43.63979" lon="1.40193">
        <ele>132</ele>
        <time>2024-11-06T16:29:25Z</time>
      </trkpt>
      <trkpt lat="43.63977" lon="1.40195">
        <ele>132</ele>
        <time>2024-11-06T16:29:26Z</time>
      </trkpt>
      <trkpt lat="43.63975" lon="1.40197">
        <ele>132</ele>
        <time>2024-11-06T16:29:27Z</time>
      </trkpt>
      <trkpt lat="43.63973" lon="1.402">
        <ele>132</ele>
        <time>2024-11-06T16:29:28Z</time>
      </trkpt>
      <trkpt lat="43.63969" lon="1.40203">
        <ele>132</ele>
        <time>2024-11-06T16:29:29Z</time>
      </trkpt>
      <trkpt lat="43.63968" lon="1.40204">
        <ele>132</ele>
        <time>2024-11-06T16:29:30Z</time>
      </trkpt>
      <trkpt lat="43.63966" lon="1.40206">
        <ele>132</ele>
        <time>2024-11-06T16:29:31Z</time>
      </trkpt>
      <trkpt lat="43.63963" lon="1.40208">
        <ele>132</ele>
        <time>2024-11-06T16:29:32Z</time>
      </trkpt>
      <trkpt lat="43.63962" lon="1.40209">
        <ele>132</ele>
        <time>2024-11-06T16:29:33Z</time>
      </trkpt>
      <trkpt lat="43.6396" lon="1.4021">
        <ele>132</ele>
        <time>2024-11-06T16:29:34Z</time>
      </trkpt>
      <trkpt lat="43.63958" lon="1.40212">
        <ele>132</ele>
        <time>2024-11-06T16:29:35Z</time>
      </trkpt>
      <trkpt lat="43.63956" lon="1.40214">
        <ele>132</ele>
        <time>2024-11-06T16:29:36Z</time>
      </trkpt>
      <trkpt lat="43.63953" lon="1.40215">
        <ele>132</ele>
        <time>2024-11-06T16:29:37Z</time>
      </trkpt>
      <trkpt lat="43.63952" lon="1.40217">
        <ele>132</ele>
        <time>2024-11-06T16:29:38Z</time>
      </trkpt>
      <trkpt lat="43.6395" lon="1.40218">
        <ele>132</ele>
        <time>2024-11-06T16:29:39Z</time>
      </trkpt>
      <trkpt lat="43.63947" lon="1.4022">
        <ele>132</ele>
        <time>2024-11-06T16:29:40Z</time>
      </trkpt>
      <trkpt lat="43.63945" lon="1.40221">
        <ele>132</ele>
        <time>2024-11-06T16:29:41Z</time>
      </trkpt>
      <trkpt lat="43.63943" lon="1.40223">
        <ele>132</ele>
        <time>2024-11-06T16:29:42Z</time>
      </trkpt>
      <trkpt lat="43.63941" lon="1.40224">
        <ele>132</ele>
        <time>2024-11-06T16:29:43Z</time>
      </trkpt>
      <trkpt lat="43.63939" lon="1.40225">
        <ele>132</ele>
        <time>2024-11-06T16:29:44Z</time>
      </trkpt>
      <trkpt lat="43.63936" lon="1.40227">
        <ele>132</ele>
        <time>2024-11-06T16:29:45Z</time>
      </trkpt>
      <trkpt lat="43.63934" lon="1.40228">
        <ele>132</ele>
        <time>2024-11-06T16:29:46Z</time>
      </trkpt>
      <trkpt lat="43.63932" lon="1.4023">
        <ele>132</ele>
        <time>2024-11-06T16:29:47Z</time>
      </trkpt>
      <trkpt lat="43.63928" lon="1.40232">
        <ele>132</ele>
        <time>2024-11-06T16:29:48Z</time>
      </trkpt>
      <trkpt lat="43.63927" lon="1.40233">
        <ele>132</ele>
        <time>2024-11-06T16:29:49Z</time>
      </trkpt>
      <trkpt lat="43.63924" lon="1.40234">
        <ele>132</ele>
        <time>2024-11-06T16:29:50Z</time>
      </trkpt>
      <trkpt lat="43.63922" lon="1.40236">
        <ele>132</ele>
        <time>2024-11-06T16:29:51Z</time>
      </trkpt>
      <trkpt lat="43.63918" lon="1.40237">
        <ele>132</ele>
        <time>2024-11-06T16:29:52Z</time>
      </trkpt>
      <trkpt lat="43.63916" lon="1.40238">
        <ele>132</ele>
        <time>2024-11-06T16:29:53Z</time>
      </trkpt>
      <trkpt lat="43.63914" lon="1.40239">
        <ele>132</ele>
        <time>2024-11-06T16:29:54Z</time>
      </trkpt>
      <trkpt lat="43.63911" lon="1.4024">
        <ele>132</ele>
        <time>2024-11-06T16:29:55Z</time>
      </trkpt>
      <trkpt lat="43.63909" lon="1.40241">
        <ele>132</ele>
        <time>2024-11-06T16:29:56Z</time>
      </trkpt>
      <trkpt lat="43.63906" lon="1.40243">
        <ele>132</ele>
        <time>2024-11-06T16:29:57Z</time>
      </trkpt>
      <trkpt lat="43.63903" lon="1.40244">
        <ele>132</ele>
        <time>2024-11-06T16:29:58Z</time>
      </trkpt>
      <trkpt lat="43.639" lon="1.40244">
        <ele>132</ele>
        <time>2024-11-06T16:29:59Z</time>
      </trkpt>
      <trkpt lat="43.63898" lon="1.40245">
        <ele>132</ele>
        <time>2024-11-06T16:30:00Z</time>
      </trkpt>
      <trkpt lat="43.63895" lon="1.40246">
        <ele>132</ele>
        <time>2024-11-06T16:30:01Z</time>
      </trkpt>
      <trkpt lat="43.63892" lon="1.40246">
        <ele>132</ele>
        <time>2024-11-06T16:30:02Z</time>
      </trkpt>
      <trkpt lat="43.6389" lon="1.40247">
        <ele>132</ele>
        <time>2024-11-06T16:30:03Z</time>
      </trkpt>
      <trkpt lat="43.63887" lon="1.40247">
        <ele>132</ele>
        <time>2024-11-06T16:30:04Z</time>
      </trkpt>
      <trkpt lat="43.63885" lon="1.40248">
        <ele>132</ele>
        <time>2024-11-06T16:30:05Z</time>
      </trkpt>
      <trkpt lat="43.63882" lon="1.40249">
        <ele>132</ele>
        <time>2024-11-06T16:30:06Z</time>
      </trkpt>
      <trkpt lat="43.63879" lon="1.4025">
        <ele>132</ele>
        <time>2024-11-06T16:30:07Z</time>
      </trkpt>
      <trkpt lat="43.63877" lon="1.4025">
        <ele>132</ele>
        <time>2024-11-06T16:30:08Z</time>
      </trkpt>
      <trkpt lat="43.63874" lon="1.40251">
        <ele>132</ele>
        <time>2024-11-06T16:30:09Z</time>
      </trkpt>
      <trkpt lat="43.6387" lon="1.40253">
        <ele>132</ele>
        <time>2024-11-06T16:30:10Z</time>
      </trkpt>
      <trkpt lat="43.63869" lon="1.40254">
        <ele>132</ele>
        <time>2024-11-06T16:30:11Z</time>
      </trkpt>
      <trkpt lat="43.63866" lon="1.40255">
        <ele>132</ele>
        <time>2024-11-06T16:30:12Z</time>
      </trkpt>
      <trkpt lat="43.63864" lon="1.40256">
        <ele>132</ele>
        <time>2024-11-06T16:30:13Z</time>
      </trkpt>
      <trkpt lat="43.63861" lon="1.40256">
        <ele>132</ele>
        <time>2024-11-06T16:30:14Z</time>
      </trkpt>
      <trkpt lat="43.63859" lon="1.40257">
        <ele>132</ele>
        <time>2024-11-06T16:30:15Z</time>
      </trkpt>
      <trkpt lat="43.63856" lon="1.40258">
        <ele>132</ele>
        <time>2024-11-06T16:30:16Z</time>
      </trkpt>
      <trkpt lat="43.63853" lon="1.40259">
        <ele>132</ele>
        <time>2024-11-06T16:30:17Z</time>
      </trkpt>
      <trkpt lat="43.6385" lon="1.4026">
        <ele>132</ele>
        <time>2024-11-06T16:30:18Z</time>
      </trkpt>
      <trkpt lat="43.63848" lon="1.40261">
        <ele>132</ele>
        <time>2024-11-06T16:30:19Z</time>
      </trkpt>
      <trkpt lat="43.63845" lon="1.40262">
        <ele>132</ele>
        <time>2024-11-06T16:30:20Z</time>
      </trkpt>
      <trkpt lat="43.63842" lon="1.40263">
        <ele>131</ele>
        <time>2024-11-06T16:30:21Z</time>
      </trkpt>
      <trkpt lat="43.63839" lon="1.40264">
        <ele>131</ele>
        <time>2024-11-06T16:30:22Z</time>
      </trkpt>
      <trkpt lat="43.63836" lon="1.40264">
        <ele>130</ele>
        <time>2024-11-06T16:30:23Z</time>
      </trkpt>
      <trkpt lat="43.63834" lon="1.40265">
        <ele>130</ele>
        <time>2024-11-06T16:30:24Z</time>
      </trkpt>
      <trkpt lat="43.63831" lon="1.40266">
        <ele>130</ele>
        <time>2024-11-06T16:30:25Z</time>
      </trkpt>
      <trkpt lat="43.63827" lon="1.40267">
        <ele>130</ele>
        <time>2024-11-06T16:30:26Z</time>
      </trkpt>
      <trkpt lat="43.63825" lon="1.40267">
        <ele>130</ele>
        <time>2024-11-06T16:30:27Z</time>
      </trkpt>
      <trkpt lat="43.63821" lon="1.40268">
        <ele>130</ele>
        <time>2024-11-06T16:30:28Z</time>
      </trkpt>
      <trkpt lat="43.6382" lon="1.40269">
        <ele>130</ele>
        <time>2024-11-06T16:30:29Z</time>
      </trkpt>
      <trkpt lat="43.63817" lon="1.4027">
        <ele>130</ele>
        <time>2024-11-06T16:30:30Z</time>
      </trkpt>
      <trkpt lat="43.63815" lon="1.4027">
        <ele>130</ele>
        <time>2024-11-06T16:30:31Z</time>
      </trkpt>
      <trkpt lat="43.63812" lon="1.4027">
        <ele>130</ele>
        <time>2024-11-06T16:30:32Z</time>
      </trkpt>
      <trkpt lat="43.63809" lon="1.40271">
        <ele>130</ele>
        <time>2024-11-06T16:30:33Z</time>
      </trkpt>
      <trkpt lat="43.63806" lon="1.40272">
        <ele>130</ele>
        <time>2024-11-06T16:30:34Z</time>
      </trkpt>
      <trkpt lat="43.63803" lon="1.40272">
        <ele>130</ele>
        <time>2024-11-06T16:30:35Z</time>
      </trkpt>
      <trkpt lat="43.638" lon="1.40272">
        <ele>130</ele>
        <time>2024-11-06T16:30:36Z</time>
      </trkpt>
      <trkpt lat="43.63797" lon="1.40273">
        <ele>130</ele>
        <time>2024-11-06T16:30:37Z</time>
      </trkpt>
      <trkpt lat="43.63795" lon="1.40273">
        <ele>130</ele>
        <time>2024-11-06T16:30:38Z</time>
      </trkpt>
      <trkpt lat="43.63792" lon="1.40274">
        <ele>130</ele>
        <time>2024-11-06T16:30:39Z</time>
      </trkpt>
      <trkpt lat="43.63789" lon="1.40274">
        <ele>130</ele>
        <time>2024-11-06T16:30:40Z</time>
      </trkpt>
      <trkpt lat="43.63787" lon="1.40275">
        <ele>130</ele>
        <time>2024-11-06T16:30:41Z</time>
      </trkpt>
      <trkpt lat="43.63784" lon="1.40275">
        <ele>130</ele>
        <time>2024-11-06T16:30:42Z</time>
      </trkpt>
      <trkpt lat="43.63781" lon="1.40276">
        <ele>130</ele>
        <time>2024-11-06T16:30:43Z</time>
      </trkpt>
      <trkpt lat="43.63778" lon="1.40276">
        <ele>130</ele>
        <time>2024-11-06T16:30:44Z</time>
      </trkpt>
      <trkpt lat="43.63776" lon="1.40277">
        <ele>130</ele>
        <time>2024-11-06T16:30:45Z</time>
      </trkpt>
      <trkpt lat="43.63774" lon="1.40277">
        <ele>130</ele>
        <time>2024-11-06T16:30:46Z</time>
      </trkpt>
      <trkpt lat="43.63771" lon="1.40277">
        <ele>130</ele>
        <time>2024-11-06T16:30:47Z</time>
      </trkpt>
      <trkpt lat="43.63769" lon="1.40278">
        <ele>130</ele>
        <time>2024-11-06T16:30:48Z</time>
      </trkpt>
      <trkpt lat="43.63766" lon="1.40278">
        <ele>130</ele>
        <time>2024-11-06T16:30:49Z</time>
      </trkpt>
      <trkpt lat="43.63764" lon="1.40278">
        <ele>130</ele>
        <time>2024-11-06T16:30:50Z</time>
      </trkpt>
      <trkpt lat="43.63762" lon="1.40278">
        <ele>130</ele>
        <time>2024-11-06T16:30:51Z</time>
      </trkpt>
      <trkpt lat="43.63759" lon="1.40279">
        <ele>131</ele>
        <time>2024-11-06T16:30:52Z</time>
      </trkpt>
      <trkpt lat="43.63757" lon="1.40279">
        <ele>131</ele>
        <time>2024-11-06T16:30:53Z</time>
      </trkpt>
      <trkpt lat="43.63754" lon="1.4028">
        <ele>131</ele>
        <time>2024-11-06T16:30:54Z</time>
      </trkpt>
      <trkpt lat="43.63752" lon="1.4028">
        <ele>131</ele>
        <time>2024-11-06T16:30:55Z</time>
      </trkpt>
      <trkpt lat="43.63749" lon="1.4028">
        <ele>131</ele>
        <time>2024-11-06T16:30:56Z</time>
      </trkpt>
      <trkpt lat="43.63747" lon="1.4028">
        <ele>131</ele>
        <time>2024-11-06T16:30:57Z</time>
      </trkpt>
      <trkpt lat="43.63744" lon="1.4028">
        <ele>131</ele>
        <time>2024-11-06T16:30:58Z</time>
      </trkpt>
      <trkpt lat="43.63742" lon="1.4028">
        <ele>131</ele>
        <time>2024-11-06T16:30:59Z</time>
      </trkpt>
      <trkpt lat="43.6374" lon="1.4028">
        <ele>131</ele>
        <time>2024-11-06T16:31:00Z</time>
      </trkpt>
      <trkpt lat="43.63737" lon="1.4028">
        <ele>131</ele>
        <time>2024-11-06T16:31:01Z</time>
      </trkpt>
      <trkpt lat="43.63735" lon="1.40281">
        <ele>131</ele>
        <time>2024-11-06T16:31:02Z</time>
      </trkpt>
      <trkpt lat="43.63733" lon="1.40281">
        <ele>131</ele>
        <time>2024-11-06T16:31:03Z</time>
      </trkpt>
      <trkpt lat="43.63729" lon="1.40283">
        <ele>131</ele>
        <time>2024-11-06T16:31:04Z</time>
      </trkpt>
      <trkpt lat="43.63728" lon="1.40283">
        <ele>131</ele>
        <time>2024-11-06T16:31:05Z</time>
      </trkpt>
      <trkpt lat="43.63725" lon="1.40284">
        <ele>131</ele>
        <time>2024-11-06T16:31:06Z</time>
      </trkpt>
      <trkpt lat="43.63721" lon="1.40285">
        <ele>131</ele>
        <time>2024-11-06T16:31:07Z</time>
      </trkpt>
      <trkpt lat="43.63719" lon="1.40285">
        <ele>132</ele>
        <time>2024-11-06T16:31:08Z</time>
      </trkpt>
      <trkpt lat="43.63717" lon="1.40285">
        <ele>132</ele>
        <time>2024-11-06T16:31:09Z</time>
      </trkpt>
      <trkpt lat="43.63714" lon="1.40286">
        <ele>132</ele>
        <time>2024-11-06T16:31:10Z</time>
      </trkpt>
      <trkpt lat="43.63711" lon="1.40286">
        <ele>132</ele>
        <time>2024-11-06T16:31:11Z</time>
      </trkpt>
      <trkpt lat="43.63709" lon="1.40286">
        <ele>132</ele>
        <time>2024-11-06T16:31:12Z</time>
      </trkpt>
      <trkpt lat="43.63706" lon="1.40287">
        <ele>131</ele>
        <time>2024-11-06T16:31:13Z</time>
      </trkpt>
      <trkpt lat="43.63703" lon="1.40287">
        <ele>131</ele>
        <time>2024-11-06T16:31:14Z</time>
      </trkpt>
      <trkpt lat="43.637" lon="1.40288">
        <ele>131</ele>
        <time>2024-11-06T16:31:15Z</time>
      </trkpt>
      <trkpt lat="43.63698" lon="1.40289">
        <ele>131</ele>
        <time>2024-11-06T16:31:16Z</time>
      </trkpt>
      <trkpt lat="43.63695" lon="1.40289">
        <ele>131</ele>
        <time>2024-11-06T16:31:17Z</time>
      </trkpt>
      <trkpt lat="43.63692" lon="1.4029">
        <ele>132</ele>
        <time>2024-11-06T16:31:18Z</time>
      </trkpt>
      <trkpt lat="43.63689" lon="1.4029">
        <ele>132</ele>
        <time>2024-11-06T16:31:19Z</time>
      </trkpt>
      <trkpt lat="43.63687" lon="1.4029">
        <ele>132</ele>
        <time>2024-11-06T16:31:20Z</time>
      </trkpt>
      <trkpt lat="43.63684" lon="1.4029">
        <ele>132</ele>
        <time>2024-11-06T16:31:21Z</time>
      </trkpt>
      <trkpt lat="43.63682" lon="1.4029">
        <ele>132</ele>
        <time>2024-11-06T16:31:22Z</time>
      </trkpt>
      <trkpt lat="43.63678" lon="1.4029">
        <ele>132</ele>
        <time>2024-11-06T16:31:23Z</time>
      </trkpt>
      <trkpt lat="43.63677" lon="1.4029">
        <ele>132</ele>
        <time>2024-11-06T16:31:24Z</time>
      </trkpt>
      <trkpt lat="43.63672" lon="1.4029">
        <ele>132</ele>
        <time>2024-11-06T16:31:25Z</time>
      </trkpt>
      <trkpt lat="43.63671" lon="1.4029">
        <ele>132</ele>
        <time>2024-11-06T16:31:26Z</time>
      </trkpt>
      <trkpt lat="43.63668" lon="1.4029">
        <ele>132</ele>
        <time>2024-11-06T16:31:27Z</time>
      </trkpt>
      <trkpt lat="43.63665" lon="1.40291">
        <ele>132</ele>
        <time>2024-11-06T16:31:28Z</time>
      </trkpt>
      <trkpt lat="43.63663" lon="1.40291">
        <ele>132</ele>
        <time>2024-11-06T16:31:29Z</time>
      </trkpt>
      <trkpt lat="43.6366" lon="1.40291">
        <ele>132</ele>
        <time>2024-11-06T16:31:30Z</time>
      </trkpt>
      <trkpt lat="43.63657" lon="1.40291">
        <ele>132</ele>
        <time>2024-11-06T16:31:31Z</time>
      </trkpt>
      <trkpt lat="43.63654" lon="1.40291">
        <ele>132</ele>
        <time>2024-11-06T16:31:32Z</time>
      </trkpt>
      <trkpt lat="43.63651" lon="1.40291">
        <ele>132</ele>
        <time>2024-11-06T16:31:33Z</time>
      </trkpt>
      <trkpt lat="43.63648" lon="1.40291">
        <ele>132</ele>
        <time>2024-11-06T16:31:34Z</time>
      </trkpt>
      <trkpt lat="43.63645" lon="1.40291">
        <ele>132</ele>
        <time>2024-11-06T16:31:35Z</time>
      </trkpt>
      <trkpt lat="43.63643" lon="1.40292">
        <ele>132</ele>
        <time>2024-11-06T16:31:36Z</time>
      </trkpt>
      <trkpt lat="43.6364" lon="1.40292">
        <ele>132</ele>
        <time>2024-11-06T16:31:37Z</time>
      </trkpt>
      <trkpt lat="43.63637" lon="1.40292">
        <ele>132</ele>
        <time>2024-11-06T16:31:38Z</time>
      </trkpt>
      <trkpt lat="43.63635" lon="1.40292">
        <ele>131</ele>
        <time>2024-11-06T16:31:39Z</time>
      </trkpt>
      <trkpt lat="43.63632" lon="1.40291">
        <ele>131</ele>
        <time>2024-11-06T16:31:40Z</time>
      </trkpt>
      <trkpt lat="43.63629" lon="1.40292">
        <ele>132</ele>
        <time>2024-11-06T16:31:41Z</time>
      </trkpt>
      <trkpt lat="43.63626" lon="1.40292">
        <ele>132</ele>
        <time>2024-11-06T16:31:42Z</time>
      </trkpt>
      <trkpt lat="43.63623" lon="1.40291">
        <ele>132</ele>
        <time>2024-11-06T16:31:43Z</time>
      </trkpt>
      <trkpt lat="43.6362" lon="1.40291">
        <ele>132</ele>
        <time>2024-11-06T16:31:44Z</time>
      </trkpt>
      <trkpt lat="43.63618" lon="1.40291">
        <ele>132</ele>
        <time>2024-11-06T16:31:45Z</time>
      </trkpt>
      <trkpt lat="43.63615" lon="1.40291">
        <ele>132</ele>
        <time>2024-11-06T16:31:46Z</time>
      </trkpt>
      <trkpt lat="43.63612" lon="1.4029">
        <ele>132</ele>
        <time>2024-11-06T16:31:47Z</time>
      </trkpt>
      <trkpt lat="43.6361" lon="1.40289">
        <ele>132</ele>
        <time>2024-11-06T16:31:48Z</time>
      </trkpt>
      <trkpt lat="43.63607" lon="1.40288">
        <ele>132</ele>
        <time>2024-11-06T16:31:49Z</time>
      </trkpt>
      <trkpt lat="43.63604" lon="1.40287">
        <ele>132</ele>
        <time>2024-11-06T16:31:50Z</time>
      </trkpt>
      <trkpt lat="43.63602" lon="1.40287">
        <ele>132</ele>
        <time>2024-11-06T16:31:51Z</time>
      </trkpt>
      <trkpt lat="43.636" lon="1.40286">
        <ele>132</ele>
        <time>2024-11-06T16:31:52Z</time>
      </trkpt>
      <trkpt lat="43.63598" lon="1.40285">
        <ele>132</ele>
        <time>2024-11-06T16:31:53Z</time>
      </trkpt>
      <trkpt lat="43.63595" lon="1.40285">
        <ele>132</ele>
        <time>2024-11-06T16:31:54Z</time>
      </trkpt>
      <trkpt lat="43.63593" lon="1.40284">
        <ele>132</ele>
        <time>2024-11-06T16:31:55Z</time>
      </trkpt>
      <trkpt lat="43.6359" lon="1.40284">
        <ele>132</ele>
        <time>2024-11-06T16:31:56Z</time>
      </trkpt>
      <trkpt lat="43.63589" lon="1.40284">
        <ele>132</ele>
        <time>2024-11-06T16:31:57Z</time>
      </trkpt>
      <trkpt lat="43.63586" lon="1.40283">
        <ele>132</ele>
        <time>2024-11-06T16:31:58Z</time>
      </trkpt>
      <trkpt lat="43.63584" lon="1.40282">
        <ele>131</ele>
        <time>2024-11-06T16:31:59Z</time>
      </trkpt>
      <trkpt lat="43.63582" lon="1.40282">
        <ele>131</ele>
        <time>2024-11-06T16:32:00Z</time>
      </trkpt>
      <trkpt lat="43.63578" lon="1.4028">
        <ele>131</ele>
        <time>2024-11-06T16:32:01Z</time>
      </trkpt>
      <trkpt lat="43.63577" lon="1.4028">
        <ele>131</ele>
        <time>2024-11-06T16:32:02Z</time>
      </trkpt>
      <trkpt lat="43.63573" lon="1.40279">
        <ele>131</ele>
        <time>2024-11-06T16:32:03Z</time>
      </trkpt>
      <trkpt lat="43.63572" lon="1.40279">
        <ele>131</ele>
        <time>2024-11-06T16:32:04Z</time>
      </trkpt>
      <trkpt lat="43.63569" lon="1.40278">
        <ele>131</ele>
        <time>2024-11-06T16:32:05Z</time>
      </trkpt>
      <trkpt lat="43.63566" lon="1.40278">
        <ele>131</ele>
        <time>2024-11-06T16:32:06Z</time>
      </trkpt>
      <trkpt lat="43.63563" lon="1.40278">
        <ele>131</ele>
        <time>2024-11-06T16:32:07Z</time>
      </trkpt>
      <trkpt lat="43.63561" lon="1.40278">
        <ele>131</ele>
        <time>2024-11-06T16:32:08Z</time>
      </trkpt>
      <trkpt lat="43.63558" lon="1.40277">
        <ele>131</ele>
        <time>2024-11-06T16:32:09Z</time>
      </trkpt>
      <trkpt lat="43.63556" lon="1.40277">
        <ele>132</ele>
        <time>2024-11-06T16:32:10Z</time>
      </trkpt>
      <trkpt lat="43.63553" lon="1.40277">
        <ele>132</ele>
        <time>2024-11-06T16:32:11Z</time>
      </trkpt>
      <trkpt lat="43.6355" lon="1.40276">
        <ele>132</ele>
        <time>2024-11-06T16:32:12Z</time>
      </trkpt>
      <trkpt lat="43.63547" lon="1.40276">
        <ele>132</ele>
        <time>2024-11-06T16:32:13Z</time>
      </trkpt>
      <trkpt lat="43.63545" lon="1.40275">
        <ele>132</ele>
        <time>2024-11-06T16:32:14Z</time>
      </trkpt>
      <trkpt lat="43.63543" lon="1.40275">
        <ele>132</ele>
        <time>2024-11-06T16:32:15Z</time>
      </trkpt>
      <trkpt lat="43.63541" lon="1.40275">
        <ele>132</ele>
        <time>2024-11-06T16:32:16Z</time>
      </trkpt>
      <trkpt lat="43.63538" lon="1.40274">
        <ele>132</ele>
        <time>2024-11-06T16:32:17Z</time>
      </trkpt>
      <trkpt lat="43.63536" lon="1.40275">
        <ele>132</ele>
        <time>2024-11-06T16:32:18Z</time>
      </trkpt>
      <trkpt lat="43.63533" lon="1.40274">
        <ele>132</ele>
        <time>2024-11-06T16:32:19Z</time>
      </trkpt>
      <trkpt lat="43.63529" lon="1.40274">
        <ele>132</ele>
        <time>2024-11-06T16:32:20Z</time>
      </trkpt>
      <trkpt lat="43.63528" lon="1.40273">
        <ele>132</ele>
        <time>2024-11-06T16:32:21Z</time>
      </trkpt>
      <trkpt lat="43.63524" lon="1.40272">
        <ele>132</ele>
        <time>2024-11-06T16:32:22Z</time>
      </trkpt>
      <trkpt lat="43.63523" lon="1.40272">
        <ele>132</ele>
        <time>2024-11-06T16:32:23Z</time>
      </trkpt>
      <trkpt lat="43.6352" lon="1.40271">
        <ele>132</ele>
        <time>2024-11-06T16:32:24Z</time>
      </trkpt>
      <trkpt lat="43.63518" lon="1.40271">
        <ele>132</ele>
        <time>2024-11-06T16:32:25Z</time>
      </trkpt>
      <trkpt lat="43.63515" lon="1.4027">
        <ele>132</ele>
        <time>2024-11-06T16:32:26Z</time>
      </trkpt>
      <trkpt lat="43.63513" lon="1.4027">
        <ele>132</ele>
        <time>2024-11-06T16:32:27Z</time>
      </trkpt>
      <trkpt lat="43.6351" lon="1.40269">
        <ele>132</ele>
        <time>2024-11-06T16:32:28Z</time>
      </trkpt>
      <trkpt lat="43.63507" lon="1.40268">
        <ele>132</ele>
        <time>2024-11-06T16:32:29Z</time>
      </trkpt>
      <trkpt lat="43.63504" lon="1.40268">
        <ele>132</ele>
        <time>2024-11-06T16:32:30Z</time>
      </trkpt>
      <trkpt lat="43.63502" lon="1.40267">
        <ele>132</ele>
        <time>2024-11-06T16:32:31Z</time>
      </trkpt>
      <trkpt lat="43.63499" lon="1.40266">
        <ele>132</ele>
        <time>2024-11-06T16:32:32Z</time>
      </trkpt>
      <trkpt lat="43.63497" lon="1.40266">
        <ele>132</ele>
        <time>2024-11-06T16:32:33Z</time>
      </trkpt>
      <trkpt lat="43.63494" lon="1.40265">
        <ele>132</ele>
        <time>2024-11-06T16:32:34Z</time>
      </trkpt>
      <trkpt lat="43.63491" lon="1.40264">
        <ele>132</ele>
        <time>2024-11-06T16:32:35Z</time>
      </trkpt>
      <trkpt lat="43.63489" lon="1.40263">
        <ele>132</ele>
        <time>2024-11-06T16:32:36Z</time>
      </trkpt>
      <trkpt lat="43.63486" lon="1.40262">
        <ele>132</ele>
        <time>2024-11-06T16:32:37Z</time>
      </trkpt>
      <trkpt lat="43.63483" lon="1.40261">
        <ele>132</ele>
        <time>2024-11-06T16:32:38Z</time>
      </trkpt>
      <trkpt lat="43.63479" lon="1.40259">
        <ele>132</ele>
        <time>2024-11-06T16:32:39Z</time>
      </trkpt>
      <trkpt lat="43.63478" lon="1.40259">
        <ele>132</ele>
        <time>2024-11-06T16:32:40Z</time>
      </trkpt>
      <trkpt lat="43.63474" lon="1.40258">
        <ele>132</ele>
        <time>2024-11-06T16:32:41Z</time>
      </trkpt>
      <trkpt lat="43.63473" lon="1.40257">
        <ele>132</ele>
        <time>2024-11-06T16:32:42Z</time>
      </trkpt>
      <trkpt lat="43.6347" lon="1.40256">
        <ele>132</ele>
        <time>2024-11-06T16:32:43Z</time>
      </trkpt>
      <trkpt lat="43.63467" lon="1.40256">
        <ele>132</ele>
        <time>2024-11-06T16:32:44Z</time>
      </trkpt>
      <trkpt lat="43.63465" lon="1.40255">
        <ele>132</ele>
        <time>2024-11-06T16:32:45Z</time>
      </trkpt>
      <trkpt lat="43.63462" lon="1.40254">
        <ele>132</ele>
        <time>2024-11-06T16:32:46Z</time>
      </trkpt>
      <trkpt lat="43.63459" lon="1.40252">
        <ele>132</ele>
        <time>2024-11-06T16:32:47Z</time>
      </trkpt>
      <trkpt lat="43.63456" lon="1.40251">
        <ele>132</ele>
        <time>2024-11-06T16:32:48Z</time>
      </trkpt>
      <trkpt lat="43.63454" lon="1.4025">
        <ele>132</ele>
        <time>2024-11-06T16:32:49Z</time>
      </trkpt>
      <trkpt lat="43.63451" lon="1.40249">
        <ele>132</ele>
        <time>2024-11-06T16:32:50Z</time>
      </trkpt>
      <trkpt lat="43.63448" lon="1.40249">
        <ele>132</ele>
        <time>2024-11-06T16:32:51Z</time>
      </trkpt>
      <trkpt lat="43.63446" lon="1.40249">
        <ele>132</ele>
        <time>2024-11-06T16:32:52Z</time>
      </trkpt>
      <trkpt lat="43.63443" lon="1.40248">
        <ele>132</ele>
        <time>2024-11-06T16:32:53Z</time>
      </trkpt>
      <trkpt lat="43.63441" lon="1.40247">
        <ele>132</ele>
        <time>2024-11-06T16:32:54Z</time>
      </trkpt>
      <trkpt lat="43.63438" lon="1.40247">
        <ele>132</ele>
        <time>2024-11-06T16:32:55Z</time>
      </trkpt>
      <trkpt lat="43.63436" lon="1.40246">
        <ele>132</ele>
        <time>2024-11-06T16:32:56Z</time>
      </trkpt>
      <trkpt lat="43.63433" lon="1.40245">
        <ele>132</ele>
        <time>2024-11-06T16:32:57Z</time>
      </trkpt>
      <trkpt lat="43.63431" lon="1.40244">
        <ele>132</ele>
        <time>2024-11-06T16:32:58Z</time>
      </trkpt>
      <trkpt lat="43.63428" lon="1.40242">
        <ele>132</ele>
        <time>2024-11-06T16:32:59Z</time>
      </trkpt>
      <trkpt lat="43.63425" lon="1.40241">
        <ele>132</ele>
        <time>2024-11-06T16:33:00Z</time>
      </trkpt>
      <trkpt lat="43.63422" lon="1.4024">
        <ele>132</ele>
        <time>2024-11-06T16:33:01Z</time>
      </trkpt>
      <trkpt lat="43.63419" lon="1.40239">
        <ele>132</ele>
        <time>2024-11-06T16:33:02Z</time>
      </trkpt>
      <trkpt lat="43.63416" lon="1.40238">
        <ele>132</ele>
        <time>2024-11-06T16:33:03Z</time>
      </trkpt>
      <trkpt lat="43.63413" lon="1.40237">
        <ele>132</ele>
        <time>2024-11-06T16:33:04Z</time>
      </trkpt>
      <trkpt lat="43.63411" lon="1.40236">
        <ele>132</ele>
        <time>2024-11-06T16:33:05Z</time>
      </trkpt>
      <trkpt lat="43.63408" lon="1.40234">
        <ele>132</ele>
        <time>2024-11-06T16:33:06Z</time>
      </trkpt>
      <trkpt lat="43.63405" lon="1.40233">
        <ele>132</ele>
        <time>2024-11-06T16:33:07Z</time>
      </trkpt>
      <trkpt lat="43.63403" lon="1.40232">
        <ele>132</ele>
        <time>2024-11-06T16:33:08Z</time>
      </trkpt>
      <trkpt lat="43.634" lon="1.40231">
        <ele>132</ele>
        <time>2024-11-06T16:33:09Z</time>
      </trkpt>
      <trkpt lat="43.63397" lon="1.4023">
        <ele>132</ele>
        <time>2024-11-06T16:33:10Z</time>
      </trkpt>
      <trkpt lat="43.63395" lon="1.40229">
        <ele>132</ele>
        <time>2024-11-06T16:33:11Z</time>
      </trkpt>
      <trkpt lat="43.63392" lon="1.40227">
        <ele>132</ele>
        <time>2024-11-06T16:33:12Z</time>
      </trkpt>
      <trkpt lat="43.6339" lon="1.40226">
        <ele>132</ele>
        <time>2024-11-06T16:33:13Z</time>
      </trkpt>
      <trkpt lat="43.63387" lon="1.40225">
        <ele>132</ele>
        <time>2024-11-06T16:33:14Z</time>
      </trkpt>
      <trkpt lat="43.63384" lon="1.40223">
        <ele>132</ele>
        <time>2024-11-06T16:33:15Z</time>
      </trkpt>
      <trkpt lat="43.63382" lon="1.40222">
        <ele>132</ele>
        <time>2024-11-06T16:33:16Z</time>
      </trkpt>
      <trkpt lat="43.63378" lon="1.4022">
        <ele>132</ele>
        <time>2024-11-06T16:33:17Z</time>
      </trkpt>
      <trkpt lat="43.63377" lon="1.40219">
        <ele>132</ele>
        <time>2024-11-06T16:33:18Z</time>
      </trkpt>
      <trkpt lat="43.63374" lon="1.40218">
        <ele>132</ele>
        <time>2024-11-06T16:33:19Z</time>
      </trkpt>
      <trkpt lat="43.63371" lon="1.40216">
        <ele>132</ele>
        <time>2024-11-06T16:33:20Z</time>
      </trkpt>
      <trkpt lat="43.63369" lon="1.40215">
        <ele>132</ele>
        <time>2024-11-06T16:33:21Z</time>
      </trkpt>
      <trkpt lat="43.63366" lon="1.40214">
        <ele>132</ele>
        <time>2024-11-06T16:33:22Z</time>
      </trkpt>
      <trkpt lat="43.63364" lon="1.40213">
        <ele>132</ele>
        <time>2024-11-06T16:33:23Z</time>
      </trkpt>
      <trkpt lat="43.63361" lon="1.40211">
        <ele>132</ele>
        <time>2024-11-06T16:33:24Z</time>
      </trkpt>
      <trkpt lat="43.63358" lon="1.4021">
        <ele>132</ele>
        <time>2024-11-06T16:33:25Z</time>
      </trkpt>
      <trkpt lat="43.63356" lon="1.40209">
        <ele>132</ele>
        <time>2024-11-06T16:33:26Z</time>
      </trkpt>
      <trkpt lat="43.63354" lon="1.40208">
        <ele>132</ele>
        <time>2024-11-06T16:33:27Z</time>
      </trkpt>
      <trkpt lat="43.63351" lon="1.40207">
        <ele>132</ele>
        <time>2024-11-06T16:33:28Z</time>
      </trkpt>
      <trkpt lat="43.63349" lon="1.40206">
        <ele>132</ele>
        <time>2024-11-06T16:33:29Z</time>
      </trkpt>
      <trkpt lat="43.63346" lon="1.40205">
        <ele>132</ele>
        <time>2024-11-06T16:33:30Z</time>
      </trkpt>
      <trkpt lat="43.63344" lon="1.40204">
        <ele>132</ele>
        <time>2024-11-06T16:33:31Z</time>
      </trkpt>
      <trkpt lat="43.63341" lon="1.40203">
        <ele>132</ele>
        <time>2024-11-06T16:33:32Z</time>
      </trkpt>
      <trkpt lat="43.63339" lon="1.40202">
        <ele>132</ele>
        <time>2024-11-06T16:33:33Z</time>
      </trkpt>
      <trkpt lat="43.63336" lon="1.40201">
        <ele>132</ele>
        <time>2024-11-06T16:33:34Z</time>
      </trkpt>
      <trkpt lat="43.63333" lon="1.402">
        <ele>132</ele>
        <time>2024-11-06T16:33:35Z</time>
      </trkpt>
      <trkpt lat="43.63331" lon="1.40199">
        <ele>132</ele>
        <time>2024-11-06T16:33:36Z</time>
      </trkpt>
      <trkpt lat="43.63328" lon="1.40197">
        <ele>132</ele>
        <time>2024-11-06T16:33:37Z</time>
      </trkpt>
      <trkpt lat="43.63326" lon="1.40196">
        <ele>132</ele>
        <time>2024-11-06T16:33:38Z</time>
      </trkpt>
      <trkpt lat="43.63323" lon="1.40195">
        <ele>132</ele>
        <time>2024-11-06T16:33:39Z</time>
      </trkpt>
      <trkpt lat="43.63321" lon="1.40194">
        <ele>132</ele>
        <time>2024-11-06T16:33:40Z</time>
      </trkpt>
      <trkpt lat="43.63319" lon="1.40193">
        <ele>132</ele>
        <time>2024-11-06T16:33:41Z</time>
      </trkpt>
      <trkpt lat="43.63316" lon="1.40192">
        <ele>132</ele>
        <time>2024-11-06T16:33:42Z</time>
      </trkpt>
      <trkpt lat="43.63313" lon="1.40191">
        <ele>132</ele>
        <time>2024-11-06T16:33:43Z</time>
      </trkpt>
      <trkpt lat="43.63311" lon="1.4019">
        <ele>132</ele>
        <time>2024-11-06T16:33:44Z</time>
      </trkpt>
      <trkpt lat="43.63308" lon="1.40189">
        <ele>132</ele>
        <time>2024-11-06T16:33:45Z</time>
      </trkpt>
      <trkpt lat="43.63306" lon="1.40188">
        <ele>132</ele>
        <time>2024-11-06T16:33:46Z</time>
      </trkpt>
      <trkpt lat="43.63303" lon="1.40187">
        <ele>132</ele>
        <time>2024-11-06T16:33:47Z</time>
      </trkpt>
      <trkpt lat="43.63301" lon="1.40186">
        <ele>132</ele>
        <time>2024-11-06T16:33:48Z</time>
      </trkpt>
      <trkpt lat="43.63298" lon="1.40186">
        <ele>132</ele>
        <time>2024-11-06T16:33:49Z</time>
      </trkpt>
      <trkpt lat="43.63295" lon="1.40185">
        <ele>132</ele>
        <time>2024-11-06T16:33:50Z</time>
      </trkpt>
      <trkpt lat="43.63293" lon="1.40184">
        <ele>132</ele>
        <time>2024-11-06T16:33:51Z</time>
      </trkpt>
      <trkpt lat="43.6329" lon="1.40183">
        <ele>132</ele>
        <time>2024-11-06T16:33:52Z</time>
      </trkpt>
      <trkpt lat="43.63288" lon="1.40182">
        <ele>132</ele>
        <time>2024-11-06T16:33:53Z</time>
      </trkpt>
      <trkpt lat="43.63285" lon="1.40181">
        <ele>132</ele>
        <time>2024-11-06T16:33:54Z</time>
      </trkpt>
      <trkpt lat="43.63283" lon="1.4018">
        <ele>132</ele>
        <time>2024-11-06T16:33:55Z</time>
      </trkpt>
      <trkpt lat="43.6328" lon="1.40179">
        <ele>132</ele>
        <time>2024-11-06T16:33:56Z</time>
      </trkpt>
      <trkpt lat="43.63278" lon="1.40178">
        <ele>132</ele>
        <time>2024-11-06T16:33:57Z</time>
      </trkpt>
      <trkpt lat="43.63276" lon="1.40177">
        <ele>132</ele>
        <time>2024-11-06T16:33:58Z</time>
      </trkpt>
      <trkpt lat="43.63273" lon="1.40176">
        <ele>132</ele>
        <time>2024-11-06T16:33:59Z</time>
      </trkpt>
      <trkpt lat="43.63271" lon="1.40175">
        <ele>132</ele>
        <time>2024-11-06T16:34:00Z</time>
      </trkpt>
      <trkpt lat="43.63268" lon="1.40175">
        <ele>133</ele>
        <time>2024-11-06T16:34:01Z</time>
      </trkpt>
      <trkpt lat="43.63266" lon="1.40174">
        <ele>133</ele>
        <time>2024-11-06T16:34:02Z</time>
      </trkpt>
      <trkpt lat="43.63263" lon="1.40173">
        <ele>132</ele>
        <time>2024-11-06T16:34:03Z</time>
      </trkpt>
      <trkpt lat="43.63261" lon="1.40172">
        <ele>132</ele>
        <time>2024-11-06T16:34:04Z</time>
      </trkpt>
      <trkpt lat="43.63259" lon="1.40172">
        <ele>132</ele>
        <time>2024-11-06T16:34:05Z</time>
      </trkpt>
      <trkpt lat="43.63257" lon="1.40171">
        <ele>133</ele>
        <time>2024-11-06T16:34:06Z</time>
      </trkpt>
      <trkpt lat="43.63255" lon="1.40171">
        <ele>133</ele>
        <time>2024-11-06T16:34:07Z</time>
      </trkpt>
      <trkpt lat="43.63252" lon="1.4017">
        <ele>133</ele>
        <time>2024-11-06T16:34:08Z</time>
      </trkpt>
      <trkpt lat="43.6325" lon="1.40169">
        <ele>133</ele>
        <time>2024-11-06T16:34:09Z</time>
      </trkpt>
      <trkpt lat="43.63247" lon="1.40168">
        <ele>133</ele>
        <time>2024-11-06T16:34:10Z</time>
      </trkpt>
      <trkpt lat="43.63243" lon="1.40167">
        <ele>133</ele>
        <time>2024-11-06T16:34:11Z</time>
      </trkpt>
      <trkpt lat="43.63242" lon="1.40166">
        <ele>133</ele>
        <time>2024-11-06T16:34:12Z</time>
      </trkpt>
      <trkpt lat="43.63239" lon="1.40166">
        <ele>132</ele>
        <time>2024-11-06T16:34:13Z</time>
      </trkpt>
      <trkpt lat="43.63237" lon="1.40165">
        <ele>132</ele>
        <time>2024-11-06T16:34:14Z</time>
      </trkpt>
      <trkpt lat="43.63234" lon="1.40164">
        <ele>132</ele>
        <time>2024-11-06T16:34:15Z</time>
      </trkpt>
      <trkpt lat="43.63231" lon="1.40163">
        <ele>132</ele>
        <time>2024-11-06T16:34:16Z</time>
      </trkpt>
      <trkpt lat="43.63228" lon="1.40162">
        <ele>132</ele>
        <time>2024-11-06T16:34:17Z</time>
      </trkpt>
      <trkpt lat="43.63225" lon="1.40161">
        <ele>132</ele>
        <time>2024-11-06T16:34:18Z</time>
      </trkpt>
      <trkpt lat="43.63223" lon="1.4016">
        <ele>132</ele>
        <time>2024-11-06T16:34:19Z</time>
      </trkpt>
      <trkpt lat="43.63221" lon="1.40159">
        <ele>132</ele>
        <time>2024-11-06T16:34:20Z</time>
      </trkpt>
      <trkpt lat="43.63219" lon="1.40158">
        <ele>132</ele>
        <time>2024-11-06T16:34:21Z</time>
      </trkpt>
      <trkpt lat="43.63217" lon="1.40157">
        <ele>132</ele>
        <time>2024-11-06T16:34:22Z</time>
      </trkpt>
      <trkpt lat="43.63214" lon="1.40156">
        <ele>132</ele>
        <time>2024-11-06T16:34:23Z</time>
      </trkpt>
      <trkpt lat="43.63211" lon="1.40155">
        <ele>132</ele>
        <time>2024-11-06T16:34:24Z</time>
      </trkpt>
      <trkpt lat="43.63209" lon="1.40154">
        <ele>132</ele>
        <time>2024-11-06T16:34:25Z</time>
      </trkpt>
      <trkpt lat="43.63206" lon="1.40153">
        <ele>132</ele>
        <time>2024-11-06T16:34:26Z</time>
      </trkpt>
      <trkpt lat="43.63203" lon="1.40152">
        <ele>132</ele>
        <time>2024-11-06T16:34:27Z</time>
      </trkpt>
      <trkpt lat="43.63201" lon="1.40151">
        <ele>132</ele>
        <time>2024-11-06T16:34:28Z</time>
      </trkpt>
      <trkpt lat="43.63198" lon="1.4015">
        <ele>132</ele>
        <time>2024-11-06T16:34:29Z</time>
      </trkpt>
      <trkpt lat="43.63196" lon="1.40149">
        <ele>132</ele>
        <time>2024-11-06T16:34:30Z</time>
      </trkpt>
      <trkpt lat="43.63193" lon="1.40148">
        <ele>132</ele>
        <time>2024-11-06T16:34:31Z</time>
      </trkpt>
      <trkpt lat="43.6319" lon="1.40147">
        <ele>132</ele>
        <time>2024-11-06T16:34:32Z</time>
      </trkpt>
      <trkpt lat="43.63186" lon="1.40146">
        <ele>132</ele>
        <time>2024-11-06T16:34:33Z</time>
      </trkpt>
      <trkpt lat="43.63185" lon="1.40145">
        <ele>132</ele>
        <time>2024-11-06T16:34:34Z</time>
      </trkpt>
      <trkpt lat="43.63182" lon="1.40144">
        <ele>132</ele>
        <time>2024-11-06T16:34:35Z</time>
      </trkpt>
      <trkpt lat="43.63179" lon="1.40143">
        <ele>132</ele>
        <time>2024-11-06T16:34:36Z</time>
      </trkpt>
      <trkpt lat="43.63177" lon="1.40142">
        <ele>132</ele>
        <time>2024-11-06T16:34:37Z</time>
      </trkpt>
      <trkpt lat="43.63174" lon="1.40142">
        <ele>132</ele>
        <time>2024-11-06T16:34:38Z</time>
      </trkpt>
      <trkpt lat="43.63172" lon="1.40141">
        <ele>132</ele>
        <time>2024-11-06T16:34:39Z</time>
      </trkpt>
      <trkpt lat="43.63169" lon="1.4014">
        <ele>132</ele>
        <time>2024-11-06T16:34:40Z</time>
      </trkpt>
      <trkpt lat="43.63167" lon="1.40139">
        <ele>132</ele>
        <time>2024-11-06T16:34:41Z</time>
      </trkpt>
      <trkpt lat="43.63164" lon="1.40138">
        <ele>132</ele>
        <time>2024-11-06T16:34:42Z</time>
      </trkpt>
      <trkpt lat="43.63162" lon="1.40137">
        <ele>132</ele>
        <time>2024-11-06T16:34:43Z</time>
      </trkpt>
      <trkpt lat="43.63159" lon="1.40136">
        <ele>132</ele>
        <time>2024-11-06T16:34:44Z</time>
      </trkpt>
      <trkpt lat="43.63157" lon="1.40135">
        <ele>132</ele>
        <time>2024-11-06T16:34:45Z</time>
      </trkpt>
      <trkpt lat="43.63154" lon="1.40135">
        <ele>132</ele>
        <time>2024-11-06T16:34:46Z</time>
      </trkpt>
      <trkpt lat="43.63151" lon="1.40134">
        <ele>132</ele>
        <time>2024-11-06T16:34:47Z</time>
      </trkpt>
      <trkpt lat="43.63148" lon="1.40133">
        <ele>132</ele>
        <time>2024-11-06T16:34:48Z</time>
      </trkpt>
      <trkpt lat="43.63146" lon="1.40132">
        <ele>132</ele>
        <time>2024-11-06T16:34:49Z</time>
      </trkpt>
      <trkpt lat="43.63143" lon="1.40132">
        <ele>132</ele>
        <time>2024-11-06T16:34:50Z</time>
      </trkpt>
      <trkpt lat="43.63141" lon="1.40131">
        <ele>132</ele>
        <time>2024-11-06T16:34:51Z</time>
      </trkpt>
      <trkpt lat="43.63137" lon="1.40129">
        <ele>132</ele>
        <time>2024-11-06T16:34:52Z</time>
      </trkpt>
      <trkpt lat="43.63136" lon="1.40129">
        <ele>132</ele>
        <time>2024-11-06T16:34:53Z</time>
      </trkpt>
      <trkpt lat="43.63134" lon="1.40128">
        <ele>132</ele>
        <time>2024-11-06T16:34:54Z</time>
      </trkpt>
      <trkpt lat="43.63131" lon="1.40127">
        <ele>132</ele>
        <time>2024-11-06T16:34:55Z</time>
      </trkpt>
      <trkpt lat="43.63128" lon="1.40127">
        <ele>132</ele>
        <time>2024-11-06T16:34:56Z</time>
      </trkpt>
      <trkpt lat="43.63126" lon="1.40126">
        <ele>133</ele>
        <time>2024-11-06T16:34:57Z</time>
      </trkpt>
      <trkpt lat="43.63123" lon="1.40126">
        <ele>133</ele>
        <time>2024-11-06T16:34:58Z</time>
      </trkpt>
      <trkpt lat="43.6312" lon="1.40125">
        <ele>132</ele>
        <time>2024-11-06T16:34:59Z</time>
      </trkpt>
      <trkpt lat="43.63118" lon="1.40124">
        <ele>132</ele>
        <time>2024-11-06T16:35:00Z</time>
      </trkpt>
      <trkpt lat="43.63116" lon="1.40123">
        <ele>132</ele>
        <time>2024-11-06T16:35:01Z</time>
      </trkpt>
      <trkpt lat="43.63114" lon="1.40123">
        <ele>132</ele>
        <time>2024-11-06T16:35:02Z</time>
      </trkpt>
      <trkpt lat="43.63112" lon="1.40122">
        <ele>132</ele>
        <time>2024-11-06T16:35:03Z</time>
      </trkpt>
      <trkpt lat="43.6311" lon="1.40122">
        <ele>132</ele>
        <time>2024-11-06T16:35:04Z</time>
      </trkpt>
      <trkpt lat="43.63108" lon="1.40121">
        <ele>132</ele>
        <time>2024-11-06T16:35:05Z</time>
      </trkpt>
      <trkpt lat="43.63105" lon="1.4012">
        <ele>132</ele>
        <time>2024-11-06T16:35:06Z</time>
      </trkpt>
      <trkpt lat="43.63103" lon="1.4012">
        <ele>132</ele>
        <time>2024-11-06T16:35:07Z</time>
      </trkpt>
      <trkpt lat="43.63101" lon="1.40119">
        <ele>132</ele>
        <time>2024-11-06T16:35:08Z</time>
      </trkpt>
      <trkpt lat="43.63098" lon="1.40118">
        <ele>132</ele>
        <time>2024-11-06T16:35:09Z</time>
      </trkpt>
      <trkpt lat="43.63096" lon="1.40117">
        <ele>132</ele>
        <time>2024-11-06T16:35:10Z</time>
      </trkpt>
      <trkpt lat="43.63093" lon="1.40117">
        <ele>132</ele>
        <time>2024-11-06T16:35:11Z</time>
      </trkpt>
      <trkpt lat="43.63091" lon="1.40116">
        <ele>132</ele>
        <time>2024-11-06T16:35:12Z</time>
      </trkpt>
      <trkpt lat="43.63089" lon="1.40115">
        <ele>132</ele>
        <time>2024-11-06T16:35:13Z</time>
      </trkpt>
      <trkpt lat="43.63086" lon="1.40115">
        <ele>132</ele>
        <time>2024-11-06T16:35:14Z</time>
      </trkpt>
      <trkpt lat="43.63084" lon="1.40114">
        <ele>132</ele>
        <time>2024-11-06T16:35:15Z</time>
      </trkpt>
      <trkpt lat="43.63081" lon="1.40114">
        <ele>132</ele>
        <time>2024-11-06T16:35:16Z</time>
      </trkpt>
      <trkpt lat="43.63079" lon="1.40113">
        <ele>132</ele>
        <time>2024-11-06T16:35:17Z</time>
      </trkpt>
      <trkpt lat="43.63076" lon="1.40112">
        <ele>132</ele>
        <time>2024-11-06T16:35:18Z</time>
      </trkpt>
      <trkpt lat="43.63074" lon="1.40111">
        <ele>132</ele>
        <time>2024-11-06T16:35:19Z</time>
      </trkpt>
      <trkpt lat="43.63071" lon="1.40111">
        <ele>133</ele>
        <time>2024-11-06T16:35:20Z</time>
      </trkpt>
      <trkpt lat="43.63069" lon="1.4011">
        <ele>133</ele>
        <time>2024-11-06T16:35:21Z</time>
      </trkpt>
      <trkpt lat="43.63066" lon="1.40109">
        <ele>133</ele>
        <time>2024-11-06T16:35:22Z</time>
      </trkpt>
      <trkpt lat="43.63064" lon="1.40109">
        <ele>133</ele>
        <time>2024-11-06T16:35:23Z</time>
      </trkpt>
      <trkpt lat="43.63061" lon="1.40108">
        <ele>133</ele>
        <time>2024-11-06T16:35:24Z</time>
      </trkpt>
      <trkpt lat="43.63058" lon="1.40107">
        <ele>133</ele>
        <time>2024-11-06T16:35:25Z</time>
      </trkpt>
      <trkpt lat="43.63055" lon="1.40106">
        <ele>133</ele>
        <time>2024-11-06T16:35:26Z</time>
      </trkpt>
      <trkpt lat="43.63052" lon="1.40106">
        <ele>133</ele>
        <time>2024-11-06T16:35:27Z</time>
      </trkpt>
      <trkpt lat="43.6305" lon="1.40105">
        <ele>133</ele>
        <time>2024-11-06T16:35:28Z</time>
      </trkpt>
      <trkpt lat="43.63047" lon="1.40104">
        <ele>132</ele>
        <time>2024-11-06T16:35:29Z</time>
      </trkpt>
      <trkpt lat="43.63044" lon="1.40103">
        <ele>132</ele>
        <time>2024-11-06T16:35:30Z</time>
      </trkpt>
      <trkpt lat="43.63041" lon="1.40102">
        <ele>133</ele>
        <time>2024-11-06T16:35:31Z</time>
      </trkpt>
      <trkpt lat="43.63038" lon="1.40102">
        <ele>133</ele>
        <time>2024-11-06T16:35:32Z</time>
      </trkpt>
      <trkpt lat="43.63036" lon="1.40101">
        <ele>133</ele>
        <time>2024-11-06T16:35:33Z</time>
      </trkpt>
      <trkpt lat="43.63034" lon="1.40101">
        <ele>133</ele>
        <time>2024-11-06T16:35:34Z</time>
      </trkpt>
      <trkpt lat="43.63032" lon="1.401">
        <ele>133</ele>
        <time>2024-11-06T16:35:35Z</time>
      </trkpt>
      <trkpt lat="43.6303" lon="1.401">
        <ele>133</ele>
        <time>2024-11-06T16:35:36Z</time>
      </trkpt>
      <trkpt lat="43.63027" lon="1.401">
        <ele>133</ele>
        <time>2024-11-06T16:35:37Z</time>
      </trkpt>
      <trkpt lat="43.63025" lon="1.40099">
        <ele>133</ele>
        <time>2024-11-06T16:35:38Z</time>
      </trkpt>
      <trkpt lat="43.63023" lon="1.40099">
        <ele>133</ele>
        <time>2024-11-06T16:35:39Z</time>
      </trkpt>
      <trkpt lat="43.6302" lon="1.40098">
        <ele>133</ele>
        <time>2024-11-06T16:35:40Z</time>
      </trkpt>
      <trkpt lat="43.63019" lon="1.40098">
        <ele>133</ele>
        <time>2024-11-06T16:35:41Z</time>
      </trkpt>
      <trkpt lat="43.63017" lon="1.40097">
        <ele>133</ele>
        <time>2024-11-06T16:35:42Z</time>
      </trkpt>
      <trkpt lat="43.63015" lon="1.40095">
        <ele>133</ele>
        <time>2024-11-06T16:35:43Z</time>
      </trkpt>
      <trkpt lat="43.63013" lon="1.40095">
        <ele>133</ele>
        <time>2024-11-06T16:35:44Z</time>
      </trkpt>
      <trkpt lat="43.63011" lon="1.40094">
        <ele>133</ele>
        <time>2024-11-06T16:35:45Z</time>
      </trkpt>
      <trkpt lat="43.63009" lon="1.40093">
        <ele>133</ele>
        <time>2024-11-06T16:35:46Z</time>
      </trkpt>
      <trkpt lat="43.63007" lon="1.40093">
        <ele>133</ele>
        <time>2024-11-06T16:35:47Z</time>
      </trkpt>
      <trkpt lat="43.63005" lon="1.40093">
        <ele>133</ele>
        <time>2024-11-06T16:35:48Z</time>
      </trkpt>
      <trkpt lat="43.63002" lon="1.40092">
        <ele>133</ele>
        <time>2024-11-06T16:35:49Z</time>
      </trkpt>
      <trkpt lat="43.63001" lon="1.40092">
        <ele>133</ele>
        <time>2024-11-06T16:35:50Z</time>
      </trkpt>
      <trkpt lat="43.62999" lon="1.40091">
        <ele>133</ele>
        <time>2024-11-06T16:35:51Z</time>
      </trkpt>
      <trkpt lat="43.62996" lon="1.40091">
        <ele>133</ele>
        <time>2024-11-06T16:35:52Z</time>
      </trkpt>
      <trkpt lat="43.62994" lon="1.40091">
        <ele>133</ele>
        <time>2024-11-06T16:35:53Z</time>
      </trkpt>
      <trkpt lat="43.62991" lon="1.4009">
        <ele>133</ele>
        <time>2024-11-06T16:35:54Z</time>
      </trkpt>
      <trkpt lat="43.62989" lon="1.40089">
        <ele>133</ele>
        <time>2024-11-06T16:35:55Z</time>
      </trkpt>
      <trkpt lat="43.62985" lon="1.40088">
        <ele>133</ele>
        <time>2024-11-06T16:35:56Z</time>
      </trkpt>
      <trkpt lat="43.62983" lon="1.40087">
        <ele>133</ele>
        <time>2024-11-06T16:35:57Z</time>
      </trkpt>
      <trkpt lat="43.62981" lon="1.40086">
        <ele>133</ele>
        <time>2024-11-06T16:35:58Z</time>
      </trkpt>
      <trkpt lat="43.62979" lon="1.40086">
        <ele>133</ele>
        <time>2024-11-06T16:35:59Z</time>
      </trkpt>
      <trkpt lat="43.62977" lon="1.40085">
        <ele>133</ele>
        <time>2024-11-06T16:36:00Z</time>
      </trkpt>
      <trkpt lat="43.62975" lon="1.40084">
        <ele>133</ele>
        <time>2024-11-06T16:36:01Z</time>
      </trkpt>
      <trkpt lat="43.62972" lon="1.40084">
        <ele>134</ele>
        <time>2024-11-06T16:36:02Z</time>
      </trkpt>
      <trkpt lat="43.6297" lon="1.40084">
        <ele>134</ele>
        <time>2024-11-06T16:36:03Z</time>
      </trkpt>
      <trkpt lat="43.62967" lon="1.40083">
        <ele>134</ele>
        <time>2024-11-06T16:36:04Z</time>
      </trkpt>
      <trkpt lat="43.62964" lon="1.40082">
        <ele>134</ele>
        <time>2024-11-06T16:36:05Z</time>
      </trkpt>
      <trkpt lat="43.62961" lon="1.40082">
        <ele>134</ele>
        <time>2024-11-06T16:36:06Z</time>
      </trkpt>
      <trkpt lat="43.62958" lon="1.40082">
        <ele>134</ele>
        <time>2024-11-06T16:36:07Z</time>
      </trkpt>
      <trkpt lat="43.62953" lon="1.40082">
        <ele>134</ele>
        <time>2024-11-06T16:36:08Z</time>
      </trkpt>
      <trkpt lat="43.62951" lon="1.40082">
        <ele>133</ele>
        <time>2024-11-06T16:36:09Z</time>
      </trkpt>
      <trkpt lat="43.62948" lon="1.40082">
        <ele>133</ele>
        <time>2024-11-06T16:36:10Z</time>
      </trkpt>
      <trkpt lat="43.62945" lon="1.40083">
        <ele>132</ele>
        <time>2024-11-06T16:36:11Z</time>
      </trkpt>
      <trkpt lat="43.6294" lon="1.40083">
        <ele>132</ele>
        <time>2024-11-06T16:36:12Z</time>
      </trkpt>
      <trkpt lat="43.62938" lon="1.40082">
        <ele>130</ele>
        <time>2024-11-06T16:36:13Z</time>
      </trkpt>
      <trkpt lat="43.62935" lon="1.40082">
        <ele>130</ele>
        <time>2024-11-06T16:36:14Z</time>
      </trkpt>
      <trkpt lat="43.62932" lon="1.40081">
        <ele>130</ele>
        <time>2024-11-06T16:36:15Z</time>
      </trkpt>
      <trkpt lat="43.62928" lon="1.40081">
        <ele>130</ele>
        <time>2024-11-06T16:36:16Z</time>
      </trkpt>
      <trkpt lat="43.62925" lon="1.4008">
        <ele>130</ele>
        <time>2024-11-06T16:36:17Z</time>
      </trkpt>
      <trkpt lat="43.62921" lon="1.40079">
        <ele>129</ele>
        <time>2024-11-06T16:36:18Z</time>
      </trkpt>
      <trkpt lat="43.62918" lon="1.40079">
        <ele>129</ele>
        <time>2024-11-06T16:36:19Z</time>
      </trkpt>
      <trkpt lat="43.62914" lon="1.40078">
        <ele>129</ele>
        <time>2024-11-06T16:36:20Z</time>
      </trkpt>
      <trkpt lat="43.62911" lon="1.40077">
        <ele>129</ele>
        <time>2024-11-06T16:36:21Z</time>
      </trkpt>
      <trkpt lat="43.62908" lon="1.40076">
        <ele>129</ele>
        <time>2024-11-06T16:36:22Z</time>
      </trkpt>
      <trkpt lat="43.62906" lon="1.40075">
        <ele>129</ele>
        <time>2024-11-06T16:36:23Z</time>
      </trkpt>
      <trkpt lat="43.62904" lon="1.40074">
        <ele>129</ele>
        <time>2024-11-06T16:36:24Z</time>
      </trkpt>
      <trkpt lat="43.62902" lon="1.40072">
        <ele>129</ele>
        <time>2024-11-06T16:36:25Z</time>
      </trkpt>
      <trkpt lat="43.629" lon="1.40072">
        <ele>129</ele>
        <time>2024-11-06T16:36:26Z</time>
      </trkpt>
      <trkpt lat="43.62898" lon="1.40071">
        <ele>129</ele>
        <time>2024-11-06T16:36:27Z</time>
      </trkpt>
      <trkpt lat="43.62896" lon="1.40071">
        <ele>129</ele>
        <time>2024-11-06T16:36:28Z</time>
      </trkpt>
      <trkpt lat="43.62893" lon="1.40069">
        <ele>129</ele>
        <time>2024-11-06T16:36:29Z</time>
      </trkpt>
      <trkpt lat="43.62892" lon="1.40069">
        <ele>130</ele>
        <time>2024-11-06T16:36:30Z</time>
      </trkpt>
      <trkpt lat="43.62889" lon="1.40068">
        <ele>130</ele>
        <time>2024-11-06T16:36:31Z</time>
      </trkpt>
      <trkpt lat="43.62887" lon="1.40068">
        <ele>130</ele>
        <time>2024-11-06T16:36:32Z</time>
      </trkpt>
      <trkpt lat="43.62884" lon="1.40067">
        <ele>130</ele>
        <time>2024-11-06T16:36:33Z</time>
      </trkpt>
      <trkpt lat="43.62881" lon="1.40066">
        <ele>130</ele>
        <time>2024-11-06T16:36:34Z</time>
      </trkpt>
      <trkpt lat="43.62879" lon="1.40066">
        <ele>130</ele>
        <time>2024-11-06T16:36:35Z</time>
      </trkpt>
      <trkpt lat="43.62876" lon="1.40066">
        <ele>130</ele>
        <time>2024-11-06T16:36:36Z</time>
      </trkpt>
      <trkpt lat="43.62873" lon="1.40065">
        <ele>130</ele>
        <time>2024-11-06T16:36:37Z</time>
      </trkpt>
      <trkpt lat="43.62871" lon="1.40064">
        <ele>130</ele>
        <time>2024-11-06T16:36:38Z</time>
      </trkpt>
      <trkpt lat="43.62868" lon="1.40064">
        <ele>130</ele>
        <time>2024-11-06T16:36:39Z</time>
      </trkpt>
      <trkpt lat="43.62866" lon="1.40063">
        <ele>130</ele>
        <time>2024-11-06T16:36:40Z</time>
      </trkpt>
      <trkpt lat="43.62863" lon="1.40062">
        <ele>130</ele>
        <time>2024-11-06T16:36:41Z</time>
      </trkpt>
      <trkpt lat="43.62861" lon="1.40062">
        <ele>130</ele>
        <time>2024-11-06T16:36:42Z</time>
      </trkpt>
      <trkpt lat="43.62859" lon="1.40062">
        <ele>130</ele>
        <time>2024-11-06T16:36:43Z</time>
      </trkpt>
      <trkpt lat="43.62856" lon="1.40061">
        <ele>130</ele>
        <time>2024-11-06T16:36:44Z</time>
      </trkpt>
      <trkpt lat="43.62854" lon="1.40061">
        <ele>130</ele>
        <time>2024-11-06T16:36:45Z</time>
      </trkpt>
      <trkpt lat="43.6285" lon="1.4006">
        <ele>130</ele>
        <time>2024-11-06T16:36:46Z</time>
      </trkpt>
      <trkpt lat="43.62848" lon="1.4006">
        <ele>130</ele>
        <time>2024-11-06T16:36:47Z</time>
      </trkpt>
      <trkpt lat="43.62846" lon="1.4006">
        <ele>130</ele>
        <time>2024-11-06T16:36:48Z</time>
      </trkpt>
      <trkpt lat="43.62842" lon="1.4006">
        <ele>130</ele>
        <time>2024-11-06T16:36:49Z</time>
      </trkpt>
      <trkpt lat="43.62841" lon="1.4006">
        <ele>130</ele>
        <time>2024-11-06T16:36:50Z</time>
      </trkpt>
      <trkpt lat="43.62837" lon="1.4006">
        <ele>130</ele>
        <time>2024-11-06T16:36:51Z</time>
      </trkpt>
      <trkpt lat="43.62834" lon="1.40059">
        <ele>130</ele>
        <time>2024-11-06T16:36:52Z</time>
      </trkpt>
      <trkpt lat="43.6283" lon="1.40058">
        <ele>130</ele>
        <time>2024-11-06T16:36:53Z</time>
      </trkpt>
      <trkpt lat="43.62827" lon="1.40057">
        <ele>129</ele>
        <time>2024-11-06T16:36:54Z</time>
      </trkpt>
      <trkpt lat="43.62825" lon="1.40056">
        <ele>129</ele>
        <time>2024-11-06T16:36:55Z</time>
      </trkpt>
      <trkpt lat="43.62822" lon="1.40055">
        <ele>129</ele>
        <time>2024-11-06T16:36:56Z</time>
      </trkpt>
      <trkpt lat="43.62819" lon="1.40055">
        <ele>129</ele>
        <time>2024-11-06T16:36:57Z</time>
      </trkpt>
      <trkpt lat="43.62817" lon="1.40055">
        <ele>129</ele>
        <time>2024-11-06T16:36:58Z</time>
      </trkpt>
      <trkpt lat="43.62814" lon="1.40054">
        <ele>129</ele>
        <time>2024-11-06T16:36:59Z</time>
      </trkpt>
      <trkpt lat="43.62812" lon="1.40054">
        <ele>129</ele>
        <time>2024-11-06T16:37:00Z</time>
      </trkpt>
      <trkpt lat="43.62809" lon="1.40053">
        <ele>129</ele>
        <time>2024-11-06T16:37:01Z</time>
      </trkpt>
      <trkpt lat="43.62806" lon="1.40053">
        <ele>129</ele>
        <time>2024-11-06T16:37:02Z</time>
      </trkpt>
      <trkpt lat="43.62803" lon="1.40053">
        <ele>129</ele>
        <time>2024-11-06T16:37:03Z</time>
      </trkpt>
      <trkpt lat="43.628" lon="1.40053">
        <ele>129</ele>
        <time>2024-11-06T16:37:04Z</time>
      </trkpt>
      <trkpt lat="43.62798" lon="1.40053">
        <ele>129</ele>
        <time>2024-11-06T16:37:05Z</time>
      </trkpt>
      <trkpt lat="43.62795" lon="1.40053">
        <ele>129</ele>
        <time>2024-11-06T16:37:06Z</time>
      </trkpt>
      <trkpt lat="43.62791" lon="1.40053">
        <ele>129</ele>
        <time>2024-11-06T16:37:07Z</time>
      </trkpt>
      <trkpt lat="43.62788" lon="1.40052">
        <ele>129</ele>
        <time>2024-11-06T16:37:08Z</time>
      </trkpt>
      <trkpt lat="43.62785" lon="1.40052">
        <ele>129</ele>
        <time>2024-11-06T16:37:09Z</time>
      </trkpt>
      <trkpt lat="43.62782" lon="1.40052">
        <ele>129</ele>
        <time>2024-11-06T16:37:10Z</time>
      </trkpt>
      <trkpt lat="43.6278" lon="1.40051">
        <ele>129</ele>
        <time>2024-11-06T16:37:11Z</time>
      </trkpt>
      <trkpt lat="43.62778" lon="1.40051">
        <ele>129</ele>
        <time>2024-11-06T16:37:12Z</time>
      </trkpt>
      <trkpt lat="43.62775" lon="1.40051">
        <ele>129</ele>
        <time>2024-11-06T16:37:13Z</time>
      </trkpt>
      <trkpt lat="43.62773" lon="1.40051">
        <ele>130</ele>
        <time>2024-11-06T16:37:14Z</time>
      </trkpt>
      <trkpt lat="43.6277" lon="1.4005">
        <ele>130</ele>
        <time>2024-11-06T16:37:15Z</time>
      </trkpt>
      <trkpt lat="43.62767" lon="1.4005">
        <ele>130</ele>
        <time>2024-11-06T16:37:16Z</time>
      </trkpt>
      <trkpt lat="43.62764" lon="1.4005">
        <ele>130</ele>
        <time>2024-11-06T16:37:17Z</time>
      </trkpt>
      <trkpt lat="43.62761" lon="1.4005">
        <ele>130</ele>
        <time>2024-11-06T16:37:18Z</time>
      </trkpt>
      <trkpt lat="43.62759" lon="1.4005">
        <ele>130</ele>
        <time>2024-11-06T16:37:19Z</time>
      </trkpt>
      <trkpt lat="43.62756" lon="1.4005">
        <ele>130</ele>
        <time>2024-11-06T16:37:20Z</time>
      </trkpt>
      <trkpt lat="43.62753" lon="1.40049">
        <ele>130</ele>
        <time>2024-11-06T16:37:21Z</time>
      </trkpt>
      <trkpt lat="43.6275" lon="1.40049">
        <ele>130</ele>
        <time>2024-11-06T16:37:22Z</time>
      </trkpt>
      <trkpt lat="43.62747" lon="1.40049">
        <ele>130</ele>
        <time>2024-11-06T16:37:23Z</time>
      </trkpt>
      <trkpt lat="43.62744" lon="1.40048">
        <ele>130</ele>
        <time>2024-11-06T16:37:24Z</time>
      </trkpt>
      <trkpt lat="43.62744" lon="1.40048">
        <ele>130</ele>
        <time>2024-11-06T16:37:25Z</time>
      </trkpt>
      <trkpt lat="43.62739" lon="1.40048">
        <ele>130</ele>
        <time>2024-11-06T16:37:26Z</time>
      </trkpt>
      <trkpt lat="43.62736" lon="1.40047">
        <ele>130</ele>
        <time>2024-11-06T16:37:27Z</time>
      </trkpt>
      <trkpt lat="43.62733" lon="1.40047">
        <ele>130</ele>
        <time>2024-11-06T16:37:28Z</time>
      </trkpt>
      <trkpt lat="43.62731" lon="1.40046">
        <ele>130</ele>
        <time>2024-11-06T16:37:29Z</time>
      </trkpt>
      <trkpt lat="43.62728" lon="1.40046">
        <ele>130</ele>
        <time>2024-11-06T16:37:30Z</time>
      </trkpt>
      <trkpt lat="43.62726" lon="1.40045">
        <ele>130</ele>
        <time>2024-11-06T16:37:31Z</time>
      </trkpt>
      <trkpt lat="43.62723" lon="1.40045">
        <ele>130</ele>
        <time>2024-11-06T16:37:32Z</time>
      </trkpt>
      <trkpt lat="43.62721" lon="1.40044">
        <ele>130</ele>
        <time>2024-11-06T16:37:33Z</time>
      </trkpt>
      <trkpt lat="43.62718" lon="1.40044">
        <ele>130</ele>
        <time>2024-11-06T16:37:34Z</time>
      </trkpt>
      <trkpt lat="43.62716" lon="1.40044">
        <ele>130</ele>
        <time>2024-11-06T16:37:35Z</time>
      </trkpt>
      <trkpt lat="43.62716" lon="1.40044">
        <ele>130</ele>
        <time>2024-11-06T16:37:36Z</time>
      </trkpt>
      <trkpt lat="43.62712" lon="1.40044">
        <ele>130</ele>
        <time>2024-11-06T16:37:37Z</time>
      </trkpt>
      <trkpt lat="43.62709" lon="1.40043">
        <ele>130</ele>
        <time>2024-11-06T16:37:38Z</time>
      </trkpt>
      <trkpt lat="43.62707" lon="1.40043">
        <ele>130</ele>
        <time>2024-11-06T16:37:39Z</time>
      </trkpt>
      <trkpt lat="43.62705" lon="1.40043">
        <ele>130</ele>
        <time>2024-11-06T16:37:40Z</time>
      </trkpt>
      <trkpt lat="43.62703" lon="1.40043">
        <ele>130</ele>
        <time>2024-11-06T16:37:41Z</time>
      </trkpt>
      <trkpt lat="43.627" lon="1.40042">
        <ele>130</ele>
        <time>2024-11-06T16:37:42Z</time>
      </trkpt>
      <trkpt lat="43.62698" lon="1.40042">
        <ele>130</ele>
        <time>2024-11-06T16:37:43Z</time>
      </trkpt>
      <trkpt lat="43.62696" lon="1.40042">
        <ele>130</ele>
        <time>2024-11-06T16:37:44Z</time>
      </trkpt>
      <trkpt lat="43.62693" lon="1.40042">
        <ele>130</ele>
        <time>2024-11-06T16:37:45Z</time>
      </trkpt>
      <trkpt lat="43.62691" lon="1.40042">
        <ele>130</ele>
        <time>2024-11-06T16:37:46Z</time>
      </trkpt>
      <trkpt lat="43.62688" lon="1.40042">
        <ele>130</ele>
        <time>2024-11-06T16:37:47Z</time>
      </trkpt>
      <trkpt lat="43.62685" lon="1.40041">
        <ele>130</ele>
        <time>2024-11-06T16:37:48Z</time>
      </trkpt>
      <trkpt lat="43.62682" lon="1.4004">
        <ele>130</ele>
        <time>2024-11-06T16:37:49Z</time>
      </trkpt>
      <trkpt lat="43.6268" lon="1.4004">
        <ele>130</ele>
        <time>2024-11-06T16:37:50Z</time>
      </trkpt>
      <trkpt lat="43.62677" lon="1.40041">
        <ele>130</ele>
        <time>2024-11-06T16:37:51Z</time>
      </trkpt>
      <trkpt lat="43.62674" lon="1.40041">
        <ele>130</ele>
        <time>2024-11-06T16:37:52Z</time>
      </trkpt>
      <trkpt lat="43.62672" lon="1.40041">
        <ele>130</ele>
        <time>2024-11-06T16:37:53Z</time>
      </trkpt>
      <trkpt lat="43.62669" lon="1.40041">
        <ele>130</ele>
        <time>2024-11-06T16:37:54Z</time>
      </trkpt>
      <trkpt lat="43.62669" lon="1.40041">
        <ele>130</ele>
        <time>2024-11-06T16:37:55Z</time>
      </trkpt>
      <trkpt lat="43.62666" lon="1.40041">
        <ele>130</ele>
        <time>2024-11-06T16:37:56Z</time>
      </trkpt>
      <trkpt lat="43.62663" lon="1.4004">
        <ele>130</ele>
        <time>2024-11-06T16:37:57Z</time>
      </trkpt>
      <trkpt lat="43.62661" lon="1.4004">
        <ele>130</ele>
        <time>2024-11-06T16:37:58Z</time>
      </trkpt>
      <trkpt lat="43.62658" lon="1.4004">
        <ele>130</ele>
        <time>2024-11-06T16:37:59Z</time>
      </trkpt>
      <trkpt lat="43.62656" lon="1.4004">
        <ele>130</ele>
        <time>2024-11-06T16:38:00Z</time>
      </trkpt>
      <trkpt lat="43.62654" lon="1.4004">
        <ele>130</ele>
        <time>2024-11-06T16:38:01Z</time>
      </trkpt>
      <trkpt lat="43.6265" lon="1.40039">
        <ele>130</ele>
        <time>2024-11-06T16:38:02Z</time>
      </trkpt>
      <trkpt lat="43.62649" lon="1.40039">
        <ele>130</ele>
        <time>2024-11-06T16:38:03Z</time>
      </trkpt>
      <trkpt lat="43.62646" lon="1.40039">
        <ele>130</ele>
        <time>2024-11-06T16:38:04Z</time>
      </trkpt>
      <trkpt lat="43.62644" lon="1.40039">
        <ele>130</ele>
        <time>2024-11-06T16:38:05Z</time>
      </trkpt>
      <trkpt lat="43.62641" lon="1.40039">
        <ele>130</ele>
        <time>2024-11-06T16:38:06Z</time>
      </trkpt>
      <trkpt lat="43.62638" lon="1.40039">
        <ele>130</ele>
        <time>2024-11-06T16:38:07Z</time>
      </trkpt>
      <trkpt lat="43.62635" lon="1.40038">
        <ele>130</ele>
        <time>2024-11-06T16:38:08Z</time>
      </trkpt>
      <trkpt lat="43.62632" lon="1.40038">
        <ele>131</ele>
        <time>2024-11-06T16:38:09Z</time>
      </trkpt>
      <trkpt lat="43.62629" lon="1.40038">
        <ele>131</ele>
        <time>2024-11-06T16:38:10Z</time>
      </trkpt>
      <trkpt lat="43.62626" lon="1.40038">
        <ele>131</ele>
        <time>2024-11-06T16:38:11Z</time>
      </trkpt>
      <trkpt lat="43.62623" lon="1.40037">
        <ele>131</ele>
        <time>2024-11-06T16:38:12Z</time>
      </trkpt>
      <trkpt lat="43.6262" lon="1.40037">
        <ele>131</ele>
        <time>2024-11-06T16:38:13Z</time>
      </trkpt>
      <trkpt lat="43.62618" lon="1.40037">
        <ele>131</ele>
        <time>2024-11-06T16:38:14Z</time>
      </trkpt>
      <trkpt lat="43.62615" lon="1.40037">
        <ele>131</ele>
        <time>2024-11-06T16:38:15Z</time>
      </trkpt>
      <trkpt lat="43.62612" lon="1.40036">
        <ele>131</ele>
        <time>2024-11-06T16:38:16Z</time>
      </trkpt>
      <trkpt lat="43.6261" lon="1.40036">
        <ele>131</ele>
        <time>2024-11-06T16:38:17Z</time>
      </trkpt>
      <trkpt lat="43.62607" lon="1.40035">
        <ele>131</ele>
        <time>2024-11-06T16:38:18Z</time>
      </trkpt>
      <trkpt lat="43.62604" lon="1.40035">
        <ele>131</ele>
        <time>2024-11-06T16:38:19Z</time>
      </trkpt>
      <trkpt lat="43.62601" lon="1.40035">
        <ele>131</ele>
        <time>2024-11-06T16:38:20Z</time>
      </trkpt>
      <trkpt lat="43.62598" lon="1.40034">
        <ele>131</ele>
        <time>2024-11-06T16:38:21Z</time>
      </trkpt>
      <trkpt lat="43.62595" lon="1.40033">
        <ele>131</ele>
        <time>2024-11-06T16:38:22Z</time>
      </trkpt>
      <trkpt lat="43.62592" lon="1.40033">
        <ele>131</ele>
        <time>2024-11-06T16:38:23Z</time>
      </trkpt>
      <trkpt lat="43.62589" lon="1.40032">
        <ele>131</ele>
        <time>2024-11-06T16:38:24Z</time>
      </trkpt>
      <trkpt lat="43.62586" lon="1.40032">
        <ele>130</ele>
        <time>2024-11-06T16:38:25Z</time>
      </trkpt>
      <trkpt lat="43.62583" lon="1.40031">
        <ele>130</ele>
        <time>2024-11-06T16:38:26Z</time>
      </trkpt>
      <trkpt lat="43.62581" lon="1.40031">
        <ele>130</ele>
        <time>2024-11-06T16:38:27Z</time>
      </trkpt>
      <trkpt lat="43.62578" lon="1.4003">
        <ele>130</ele>
        <time>2024-11-06T16:38:28Z</time>
      </trkpt>
      <trkpt lat="43.62576" lon="1.4003">
        <ele>130</ele>
        <time>2024-11-06T16:38:29Z</time>
      </trkpt>
      <trkpt lat="43.62574" lon="1.4003">
        <ele>130</ele>
        <time>2024-11-06T16:38:30Z</time>
      </trkpt>
      <trkpt lat="43.62572" lon="1.4003">
        <ele>130</ele>
        <time>2024-11-06T16:38:31Z</time>
      </trkpt>
      <trkpt lat="43.62569" lon="1.4003">
        <ele>130</ele>
        <time>2024-11-06T16:38:32Z</time>
      </trkpt>
      <trkpt lat="43.62565" lon="1.40029">
        <ele>130</ele>
        <time>2024-11-06T16:38:33Z</time>
      </trkpt>
      <trkpt lat="43.62562" lon="1.40029">
        <ele>130</ele>
        <time>2024-11-06T16:38:34Z</time>
      </trkpt>
      <trkpt lat="43.6256" lon="1.40028">
        <ele>130</ele>
        <time>2024-11-06T16:38:35Z</time>
      </trkpt>
      <trkpt lat="43.62557" lon="1.40028">
        <ele>130</ele>
        <time>2024-11-06T16:38:36Z</time>
      </trkpt>
      <trkpt lat="43.62554" lon="1.40028">
        <ele>131</ele>
        <time>2024-11-06T16:38:37Z</time>
      </trkpt>
      <trkpt lat="43.62551" lon="1.40027">
        <ele>131</ele>
        <time>2024-11-06T16:38:38Z</time>
      </trkpt>
      <trkpt lat="43.62549" lon="1.40027">
        <ele>131</ele>
        <time>2024-11-06T16:38:39Z</time>
      </trkpt>
      <trkpt lat="43.62545" lon="1.40027">
        <ele>131</ele>
        <time>2024-11-06T16:38:40Z</time>
      </trkpt>
      <trkpt lat="43.62544" lon="1.40027">
        <ele>131</ele>
        <time>2024-11-06T16:38:41Z</time>
      </trkpt>
      <trkpt lat="43.62541" lon="1.40026">
        <ele>131</ele>
        <time>2024-11-06T16:38:42Z</time>
      </trkpt>
      <trkpt lat="43.62539" lon="1.40026">
        <ele>131</ele>
        <time>2024-11-06T16:38:43Z</time>
      </trkpt>
      <trkpt lat="43.62536" lon="1.40025">
        <ele>131</ele>
        <time>2024-11-06T16:38:44Z</time>
      </trkpt>
      <trkpt lat="43.62534" lon="1.40024">
        <ele>131</ele>
        <time>2024-11-06T16:38:45Z</time>
      </trkpt>
      <trkpt lat="43.62531" lon="1.40024">
        <ele>131</ele>
        <time>2024-11-06T16:38:46Z</time>
      </trkpt>
      <trkpt lat="43.62528" lon="1.40024">
        <ele>131</ele>
        <time>2024-11-06T16:38:47Z</time>
      </trkpt>
      <trkpt lat="43.62525" lon="1.40024">
        <ele>131</ele>
        <time>2024-11-06T16:38:48Z</time>
      </trkpt>
      <trkpt lat="43.62523" lon="1.40023">
        <ele>130</ele>
        <time>2024-11-06T16:38:49Z</time>
      </trkpt>
      <trkpt lat="43.6252" lon="1.40023">
        <ele>130</ele>
        <time>2024-11-06T16:38:50Z</time>
      </trkpt>
      <trkpt lat="43.62518" lon="1.40023">
        <ele>130</ele>
        <time>2024-11-06T16:38:51Z</time>
      </trkpt>
      <trkpt lat="43.62515" lon="1.40023">
        <ele>130</ele>
        <time>2024-11-06T16:38:52Z</time>
      </trkpt>
      <trkpt lat="43.62513" lon="1.40022">
        <ele>130</ele>
        <time>2024-11-06T16:38:53Z</time>
      </trkpt>
      <trkpt lat="43.62511" lon="1.40022">
        <ele>130</ele>
        <time>2024-11-06T16:38:54Z</time>
      </trkpt>
      <trkpt lat="43.62509" lon="1.40022">
        <ele>130</ele>
        <time>2024-11-06T16:38:55Z</time>
      </trkpt>
      <trkpt lat="43.62506" lon="1.40022">
        <ele>131</ele>
        <time>2024-11-06T16:38:56Z</time>
      </trkpt>
      <trkpt lat="43.62504" lon="1.40022">
        <ele>131</ele>
        <time>2024-11-06T16:38:57Z</time>
      </trkpt>
      <trkpt lat="43.62501" lon="1.40021">
        <ele>130</ele>
        <time>2024-11-06T16:38:58Z</time>
      </trkpt>
      <trkpt lat="43.625" lon="1.40021">
        <ele>130</ele>
        <time>2024-11-06T16:38:59Z</time>
      </trkpt>
      <trkpt lat="43.625" lon="1.40021">
        <ele>130</ele>
        <time>2024-11-06T16:39:00Z</time>
      </trkpt>
      <trkpt lat="43.62497" lon="1.40018">
        <ele>130</ele>
        <time>2024-11-06T16:39:01Z</time>
      </trkpt>
      <trkpt lat="43.62496" lon="1.40016">
        <ele>130</ele>
        <time>2024-11-06T16:39:02Z</time>
      </trkpt>
      <trkpt lat="43.62496" lon="1.40013">
        <ele>130</ele>
        <time>2024-11-06T16:39:03Z</time>
      </trkpt>
      <trkpt lat="43.62496" lon="1.4001">
        <ele>131</ele>
        <time>2024-11-06T16:39:04Z</time>
      </trkpt>
      <trkpt lat="43.62496" lon="1.40007">
        <ele>131</ele>
        <time>2024-11-06T16:39:05Z</time>
      </trkpt>
      <trkpt lat="43.62496" lon="1.40003">
        <ele>131</ele>
        <time>2024-11-06T16:39:06Z</time>
      </trkpt>
      <trkpt lat="43.62496" lon="1.4">
        <ele>132</ele>
        <time>2024-11-06T16:39:07Z</time>
      </trkpt>
      <trkpt lat="43.62496" lon="1.39997">
        <ele>133</ele>
        <time>2024-11-06T16:39:08Z</time>
      </trkpt>
      <trkpt lat="43.62495" lon="1.39993">
        <ele>133</ele>
        <time>2024-11-06T16:39:09Z</time>
      </trkpt>
      <trkpt lat="43.62494" lon="1.39991">
        <ele>133</ele>
        <time>2024-11-06T16:39:10Z</time>
      </trkpt>
      <trkpt lat="43.62489" lon="1.3998">
        <ele>134</ele>
        <time>2024-11-06T16:39:52Z</time>
      </trkpt>
      <trkpt lat="43.6249" lon="1.39978">
        <ele>134</ele>
        <time>2024-11-06T16:39:53Z</time>
      </trkpt>
      <trkpt lat="43.62491" lon="1.39976">
        <ele>134</ele>
        <time>2024-11-06T16:39:54Z</time>
      </trkpt>
      <trkpt lat="43.62491" lon="1.39973">
        <ele>134</ele>
        <time>2024-11-06T16:39:55Z</time>
      </trkpt>
      <trkpt lat="43.62492" lon="1.3997">
        <ele>134</ele>
        <time>2024-11-06T16:39:56Z</time>
      </trkpt>
      <trkpt lat="43.62492" lon="1.3997">
        <ele>134</ele>
        <time>2024-11-06T16:39:57Z</time>
      </trkpt>
      <trkpt lat="43.6249" lon="1.39966">
        <ele>134</ele>
        <time>2024-11-06T16:39:58Z</time>
      </trkpt>
      <trkpt lat="43.6249" lon="1.39966">
        <ele>134</ele>
        <time>2024-11-06T16:39:59Z</time>
      </trkpt>
      <trkpt lat="43.62489" lon="1.3997">
        <ele>134</ele>
        <time>2024-11-06T16:40:00Z</time>
      </trkpt>
      <trkpt lat="43.62489" lon="1.39974">
        <ele>134</ele>
        <time>2024-11-06T16:40:01Z</time>
      </trkpt>
      <trkpt lat="43.62488" lon="1.39977">
        <ele>134</ele>
        <time>2024-11-06T16:40:02Z</time>
      </trkpt>
      <trkpt lat="43.62487" lon="1.39981">
        <ele>134</ele>
        <time>2024-11-06T16:40:03Z</time>
      </trkpt>
      <trkpt lat="43.62486" lon="1.39985">
        <ele>134</ele>
        <time>2024-11-06T16:40:04Z</time>
      </trkpt>
      <trkpt lat="43.62485" lon="1.3999">
        <ele>134</ele>
        <time>2024-11-06T16:40:05Z</time>
      </trkpt>
      <trkpt lat="43.62485" lon="1.39991">
        <ele>135</ele>
        <time>2024-11-06T16:40:06Z</time>
      </trkpt>
      <trkpt lat="43.62485" lon="1.39995">
        <ele>135</ele>
        <time>2024-11-06T16:40:07Z</time>
      </trkpt>
      <trkpt lat="43.62484" lon="1.39998">
        <ele>135</ele>
        <time>2024-11-06T16:40:08Z</time>
      </trkpt>
      <trkpt lat="43.62483" lon="1.40001">
        <ele>135</ele>
        <time>2024-11-06T16:40:09Z</time>
      </trkpt>
      <trkpt lat="43.62483" lon="1.40004">
        <ele>135</ele>
        <time>2024-11-06T16:40:10Z</time>
      </trkpt>
      <trkpt lat="43.62482" lon="1.40009">
        <ele>135</ele>
        <time>2024-11-06T16:40:11Z</time>
      </trkpt>
      <trkpt lat="43.62481" lon="1.40011">
        <ele>136</ele>
        <time>2024-11-06T16:40:12Z</time>
      </trkpt>
      <trkpt lat="43.62481" lon="1.40014">
        <ele>135</ele>
        <time>2024-11-06T16:40:13Z</time>
      </trkpt>
      <trkpt lat="43.6248" lon="1.40017">
        <ele>135</ele>
        <time>2024-11-06T16:40:14Z</time>
      </trkpt>
      <trkpt lat="43.6248" lon="1.40021">
        <ele>135</ele>
        <time>2024-11-06T16:40:15Z</time>
      </trkpt>
      <trkpt lat="43.6248" lon="1.40025">
        <ele>135</ele>
        <time>2024-11-06T16:40:16Z</time>
      </trkpt>
      <trkpt lat="43.62479" lon="1.40028">
        <ele>136</ele>
        <time>2024-11-06T16:40:17Z</time>
      </trkpt>
      <trkpt lat="43.62479" lon="1.40032">
        <ele>136</ele>
        <time>2024-11-06T16:40:18Z</time>
      </trkpt>
      <trkpt lat="43.62479" lon="1.40035">
        <ele>136</ele>
        <time>2024-11-06T16:40:19Z</time>
      </trkpt>
      <trkpt lat="43.62479" lon="1.40038">
        <ele>136</ele>
        <time>2024-11-06T16:40:20Z</time>
      </trkpt>
      <trkpt lat="43.62479" lon="1.40042">
        <ele>136</ele>
        <time>2024-11-06T16:40:21Z</time>
      </trkpt>
      <trkpt lat="43.62479" lon="1.40046">
        <ele>136</ele>
        <time>2024-11-06T16:40:22Z</time>
      </trkpt>
      <trkpt lat="43.62479" lon="1.40049">
        <ele>136</ele>
        <time>2024-11-06T16:40:23Z</time>
      </trkpt>
      <trkpt lat="43.62479" lon="1.40053">
        <ele>136</ele>
        <time>2024-11-06T16:40:24Z</time>
      </trkpt>
      <trkpt lat="43.62479" lon="1.40058">
        <ele>136</ele>
        <time>2024-11-06T16:40:25Z</time>
      </trkpt>
      <trkpt lat="43.62479" lon="1.4006">
        <ele>137</ele>
        <time>2024-11-06T16:40:26Z</time>
      </trkpt>
      <trkpt lat="43.62479" lon="1.40064">
        <ele>137</ele>
        <time>2024-11-06T16:40:27Z</time>
      </trkpt>
      <trkpt lat="43.62479" lon="1.40067">
        <ele>137</ele>
        <time>2024-11-06T16:40:28Z</time>
      </trkpt>
      <trkpt lat="43.62479" lon="1.4007">
        <ele>137</ele>
        <time>2024-11-06T16:40:29Z</time>
      </trkpt>
      <trkpt lat="43.62479" lon="1.40076">
        <ele>137</ele>
        <time>2024-11-06T16:40:30Z</time>
      </trkpt>
      <trkpt lat="43.62479" lon="1.40078">
        <ele>138</ele>
        <time>2024-11-06T16:40:31Z</time>
      </trkpt>
      <trkpt lat="43.62479" lon="1.40081">
        <ele>138</ele>
        <time>2024-11-06T16:40:32Z</time>
      </trkpt>
      <trkpt lat="43.62479" lon="1.40085">
        <ele>138</ele>
        <time>2024-11-06T16:40:33Z</time>
      </trkpt>
      <trkpt lat="43.62479" lon="1.40088">
        <ele>138</ele>
        <time>2024-11-06T16:40:34Z</time>
      </trkpt>
      <trkpt lat="43.62479" lon="1.40092">
        <ele>138</ele>
        <time>2024-11-06T16:40:35Z</time>
      </trkpt>
      <trkpt lat="43.62478" lon="1.40095">
        <ele>138</ele>
        <time>2024-11-06T16:40:36Z</time>
      </trkpt>
      <trkpt lat="43.62478" lon="1.40099">
        <ele>138</ele>
        <time>2024-11-06T16:40:37Z</time>
      </trkpt>
      <trkpt lat="43.62478" lon="1.40102">
        <ele>138</ele>
        <time>2024-11-06T16:40:38Z</time>
      </trkpt>
      <trkpt lat="43.62478" lon="1.40106">
        <ele>138</ele>
        <time>2024-11-06T16:40:39Z</time>
      </trkpt>
      <trkpt lat="43.62478" lon="1.40109">
        <ele>138</ele>
        <time>2024-11-06T16:40:40Z</time>
      </trkpt>
      <trkpt lat="43.62478" lon="1.40112">
        <ele>138</ele>
        <time>2024-11-06T16:40:41Z</time>
      </trkpt>
      <trkpt lat="43.62478" lon="1.40116">
        <ele>138</ele>
        <time>2024-11-06T16:40:42Z</time>
      </trkpt>
      <trkpt lat="43.62478" lon="1.4012">
        <ele>138</ele>
        <time>2024-11-06T16:40:43Z</time>
      </trkpt>
      <trkpt lat="43.62477" lon="1.40123">
        <ele>138</ele>
        <time>2024-11-06T16:40:44Z</time>
      </trkpt>
      <trkpt lat="43.62477" lon="1.40129">
        <ele>138</ele>
        <time>2024-11-06T16:40:45Z</time>
      </trkpt>
      <trkpt lat="43.62477" lon="1.40131">
        <ele>138</ele>
        <time>2024-11-06T16:40:46Z</time>
      </trkpt>
      <trkpt lat="43.62477" lon="1.40134">
        <ele>138</ele>
        <time>2024-11-06T16:40:47Z</time>
      </trkpt>
      <trkpt lat="43.62477" lon="1.40138">
        <ele>138</ele>
        <time>2024-11-06T16:40:48Z</time>
      </trkpt>
      <trkpt lat="43.62476" lon="1.40143">
        <ele>138</ele>
        <time>2024-11-06T16:40:49Z</time>
      </trkpt>
      <trkpt lat="43.62476" lon="1.40145">
        <ele>137</ele>
        <time>2024-11-06T16:40:50Z</time>
      </trkpt>
      <trkpt lat="43.62476" lon="1.40149">
        <ele>137</ele>
        <time>2024-11-06T16:40:51Z</time>
      </trkpt>
      <trkpt lat="43.62476" lon="1.40153">
        <ele>137</ele>
        <time>2024-11-06T16:40:52Z</time>
      </trkpt>
      <trkpt lat="43.62475" lon="1.40157">
        <ele>137</ele>
        <time>2024-11-06T16:40:53Z</time>
      </trkpt>
      <trkpt lat="43.62475" lon="1.40161">
        <ele>137</ele>
        <time>2024-11-06T16:40:54Z</time>
      </trkpt>
      <trkpt lat="43.62475" lon="1.40164">
        <ele>137</ele>
        <time>2024-11-06T16:40:55Z</time>
      </trkpt>
      <trkpt lat="43.62474" lon="1.40168">
        <ele>137</ele>
        <time>2024-11-06T16:40:56Z</time>
      </trkpt>
      <trkpt lat="43.62474" lon="1.40171">
        <ele>137</ele>
        <time>2024-11-06T16:40:57Z</time>
      </trkpt>
      <trkpt lat="43.62474" lon="1.40175">
        <ele>137</ele>
        <time>2024-11-06T16:40:58Z</time>
      </trkpt>
      <trkpt lat="43.62473" lon="1.40179">
        <ele>137</ele>
        <time>2024-11-06T16:40:59Z</time>
      </trkpt>
      <trkpt lat="43.62473" lon="1.40182">
        <ele>137</ele>
        <time>2024-11-06T16:41:00Z</time>
      </trkpt>
      <trkpt lat="43.62473" lon="1.40186">
        <ele>137</ele>
        <time>2024-11-06T16:41:01Z</time>
      </trkpt>
      <trkpt lat="43.62472" lon="1.40189">
        <ele>136</ele>
        <time>2024-11-06T16:41:02Z</time>
      </trkpt>
      <trkpt lat="43.62472" lon="1.40194">
        <ele>136</ele>
        <time>2024-11-06T16:41:03Z</time>
      </trkpt>
      <trkpt lat="43.62471" lon="1.40196">
        <ele>136</ele>
        <time>2024-11-06T16:41:04Z</time>
      </trkpt>
      <trkpt lat="43.62471" lon="1.40199">
        <ele>136</ele>
        <time>2024-11-06T16:41:05Z</time>
      </trkpt>
      <trkpt lat="43.62471" lon="1.40202">
        <ele>136</ele>
        <time>2024-11-06T16:41:06Z</time>
      </trkpt>
      <trkpt lat="43.62471" lon="1.40206">
        <ele>136</ele>
        <time>2024-11-06T16:41:07Z</time>
      </trkpt>
      <trkpt lat="43.62471" lon="1.40212">
        <ele>136</ele>
        <time>2024-11-06T16:41:08Z</time>
      </trkpt>
      <trkpt lat="43.6247" lon="1.40213">
        <ele>136</ele>
        <time>2024-11-06T16:41:09Z</time>
      </trkpt>
      <trkpt lat="43.6247" lon="1.40217">
        <ele>136</ele>
        <time>2024-11-06T16:41:10Z</time>
      </trkpt>
      <trkpt lat="43.6247" lon="1.40221">
        <ele>135</ele>
        <time>2024-11-06T16:41:11Z</time>
      </trkpt>
      <trkpt lat="43.6247" lon="1.40224">
        <ele>135</ele>
        <time>2024-11-06T16:41:12Z</time>
      </trkpt>
      <trkpt lat="43.6247" lon="1.40228">
        <ele>135</ele>
        <time>2024-11-06T16:41:13Z</time>
      </trkpt>
      <trkpt lat="43.6247" lon="1.40232">
        <ele>135</ele>
        <time>2024-11-06T16:41:14Z</time>
      </trkpt>
      <trkpt lat="43.62469" lon="1.40235">
        <ele>135</ele>
        <time>2024-11-06T16:41:15Z</time>
      </trkpt>
      <trkpt lat="43.62469" lon="1.40239">
        <ele>134</ele>
        <time>2024-11-06T16:41:16Z</time>
      </trkpt>
      <trkpt lat="43.62469" lon="1.40243">
        <ele>134</ele>
        <time>2024-11-06T16:41:17Z</time>
      </trkpt>
      <trkpt lat="43.62469" lon="1.40246">
        <ele>134</ele>
        <time>2024-11-06T16:41:18Z</time>
      </trkpt>
      <trkpt lat="43.62469" lon="1.4025">
        <ele>134</ele>
        <time>2024-11-06T16:41:19Z</time>
      </trkpt>
      <trkpt lat="43.62469" lon="1.40254">
        <ele>134</ele>
        <time>2024-11-06T16:41:20Z</time>
      </trkpt>
      <trkpt lat="43.62469" lon="1.40257">
        <ele>134</ele>
        <time>2024-11-06T16:41:21Z</time>
      </trkpt>
      <trkpt lat="43.62469" lon="1.40263">
        <ele>134</ele>
        <time>2024-11-06T16:41:22Z</time>
      </trkpt>
      <trkpt lat="43.62469" lon="1.40265">
        <ele>133</ele>
        <time>2024-11-06T16:41:23Z</time>
      </trkpt>
      <trkpt lat="43.62469" lon="1.40268">
        <ele>133</ele>
        <time>2024-11-06T16:41:24Z</time>
      </trkpt>
      <trkpt lat="43.62469" lon="1.40272">
        <ele>133</ele>
        <time>2024-11-06T16:41:25Z</time>
      </trkpt>
      <trkpt lat="43.6247" lon="1.40275">
        <ele>133</ele>
        <time>2024-11-06T16:41:26Z</time>
      </trkpt>
      <trkpt lat="43.62469" lon="1.40277">
        <ele>133</ele>
        <time>2024-11-06T16:41:27Z</time>
      </trkpt>
      <trkpt lat="43.62469" lon="1.40277">
        <ele>133</ele>
        <time>2024-11-06T16:41:28Z</time>
      </trkpt>
      <trkpt lat="43.62469" lon="1.4028">
        <ele>133</ele>
        <time>2024-11-06T16:41:29Z</time>
      </trkpt>
      <trkpt lat="43.62469" lon="1.4028">
        <ele>133</ele>
        <time>2024-11-06T16:41:30Z</time>
      </trkpt>
      <trkpt lat="43.62467" lon="1.40281">
        <ele>133</ele>
        <time>2024-11-06T16:41:31Z</time>
      </trkpt>
      <trkpt lat="43.62465" lon="1.40281">
        <ele>133</ele>
        <time>2024-11-06T16:41:32Z</time>
      </trkpt>
      <trkpt lat="43.62462" lon="1.40281">
        <ele>132</ele>
        <time>2024-11-06T16:41:33Z</time>
      </trkpt>
      <trkpt lat="43.62459" lon="1.40279">
        <ele>132</ele>
        <time>2024-11-06T16:41:34Z</time>
      </trkpt>
      <trkpt lat="43.62457" lon="1.40275">
        <ele>132</ele>
        <time>2024-11-06T16:41:35Z</time>
      </trkpt>
      <trkpt lat="43.62457" lon="1.40271">
        <ele>132</ele>
        <time>2024-11-06T16:41:36Z</time>
      </trkpt>
      <trkpt lat="43.62456" lon="1.40268">
        <ele>132</ele>
        <time>2024-11-06T16:41:37Z</time>
      </trkpt>
      <trkpt lat="43.62455" lon="1.40264">
        <ele>132</ele>
        <time>2024-11-06T16:41:38Z</time>
      </trkpt>
      <trkpt lat="43.62454" lon="1.4026">
        <ele>133</ele>
        <time>2024-11-06T16:41:39Z</time>
      </trkpt>
      <trkpt lat="43.62454" lon="1.40257">
        <ele>133</ele>
        <time>2024-11-06T16:41:40Z</time>
      </trkpt>
      <trkpt lat="43.62453" lon="1.40253">
        <ele>133</ele>
        <time>2024-11-06T16:41:41Z</time>
      </trkpt>
      <trkpt lat="43.62452" lon="1.4025">
        <ele>134</ele>
        <time>2024-11-06T16:41:42Z</time>
      </trkpt>
      <trkpt lat="43.62451" lon="1.40247">
        <ele>134</ele>
        <time>2024-11-06T16:41:43Z</time>
      </trkpt>
      <trkpt lat="43.62448" lon="1.40242">
        <ele>134</ele>
        <time>2024-11-06T16:41:44Z</time>
      </trkpt>
      <trkpt lat="43.62447" lon="1.40241">
        <ele>134</ele>
        <time>2024-11-06T16:41:45Z</time>
      </trkpt>
      <trkpt lat="43.62444" lon="1.40238">
        <ele>134</ele>
        <time>2024-11-06T16:41:46Z</time>
      </trkpt>
      <trkpt lat="43.62443" lon="1.40238">
        <ele>133</ele>
        <time>2024-11-06T16:41:47Z</time>
      </trkpt>
      <trkpt lat="43.62441" lon="1.40236">
        <ele>133</ele>
        <time>2024-11-06T16:41:48Z</time>
      </trkpt>
      <trkpt lat="43.62439" lon="1.40235">
        <ele>132</ele>
        <time>2024-11-06T16:41:49Z</time>
      </trkpt>
      <trkpt lat="43.62436" lon="1.40233">
        <ele>132</ele>
        <time>2024-11-06T16:41:50Z</time>
      </trkpt>
      <trkpt lat="43.62434" lon="1.40233">
        <ele>132</ele>
        <time>2024-11-06T16:41:51Z</time>
      </trkpt>
      <trkpt lat="43.62431" lon="1.40232">
        <ele>132</ele>
        <time>2024-11-06T16:41:52Z</time>
      </trkpt>
      <trkpt lat="43.62428" lon="1.40232">
        <ele>132</ele>
        <time>2024-11-06T16:41:53Z</time>
      </trkpt>
      <trkpt lat="43.62425" lon="1.40231">
        <ele>132</ele>
        <time>2024-11-06T16:41:54Z</time>
      </trkpt>
      <trkpt lat="43.62423" lon="1.40231">
        <ele>132</ele>
        <time>2024-11-06T16:41:55Z</time>
      </trkpt>
      <trkpt lat="43.6242" lon="1.40231">
        <ele>132</ele>
        <time>2024-11-06T16:41:56Z</time>
      </trkpt>
      <trkpt lat="43.62417" lon="1.40231">
        <ele>132</ele>
        <time>2024-11-06T16:41:57Z</time>
      </trkpt>
      <trkpt lat="43.62415" lon="1.40231">
        <ele>132</ele>
        <time>2024-11-06T16:41:58Z</time>
      </trkpt>
      <trkpt lat="43.62412" lon="1.40231">
        <ele>132</ele>
        <time>2024-11-06T16:41:59Z</time>
      </trkpt>
      <trkpt lat="43.62409" lon="1.40231">
        <ele>132</ele>
        <time>2024-11-06T16:42:00Z</time>
      </trkpt>
      <trkpt lat="43.62407" lon="1.40231">
        <ele>132</ele>
        <time>2024-11-06T16:42:01Z</time>
      </trkpt>
      <trkpt lat="43.62404" lon="1.4023">
        <ele>132</ele>
        <time>2024-11-06T16:42:02Z</time>
      </trkpt>
      <trkpt lat="43.624" lon="1.4023">
        <ele>132</ele>
        <time>2024-11-06T16:42:03Z</time>
      </trkpt>
      <trkpt lat="43.62399" lon="1.4023">
        <ele>132</ele>
        <time>2024-11-06T16:42:04Z</time>
      </trkpt>
      <trkpt lat="43.62395" lon="1.4023">
        <ele>132</ele>
        <time>2024-11-06T16:42:05Z</time>
      </trkpt>
      <trkpt lat="43.62394" lon="1.4023">
        <ele>132</ele>
        <time>2024-11-06T16:42:06Z</time>
      </trkpt>
      <trkpt lat="43.62391" lon="1.4023">
        <ele>132</ele>
        <time>2024-11-06T16:42:07Z</time>
      </trkpt>
      <trkpt lat="43.62389" lon="1.40229">
        <ele>132</ele>
        <time>2024-11-06T16:42:08Z</time>
      </trkpt>
      <trkpt lat="43.62386" lon="1.40229">
        <ele>132</ele>
        <time>2024-11-06T16:42:09Z</time>
      </trkpt>
      <trkpt lat="43.62384" lon="1.40229">
        <ele>132</ele>
        <time>2024-11-06T16:42:10Z</time>
      </trkpt>
      <trkpt lat="43.62381" lon="1.40229">
        <ele>132</ele>
        <time>2024-11-06T16:42:11Z</time>
      </trkpt>
      <trkpt lat="43.62379" lon="1.40229">
        <ele>132</ele>
        <time>2024-11-06T16:42:12Z</time>
      </trkpt>
      <trkpt lat="43.62376" lon="1.40228">
        <ele>132</ele>
        <time>2024-11-06T16:42:13Z</time>
      </trkpt>
      <trkpt lat="43.62374" lon="1.40228">
        <ele>132</ele>
        <time>2024-11-06T16:42:14Z</time>
      </trkpt>
      <trkpt lat="43.62371" lon="1.40228">
        <ele>132</ele>
        <time>2024-11-06T16:42:15Z</time>
      </trkpt>
      <trkpt lat="43.62369" lon="1.40228">
        <ele>132</ele>
        <time>2024-11-06T16:42:16Z</time>
      </trkpt>
      <trkpt lat="43.62366" lon="1.40228">
        <ele>132</ele>
        <time>2024-11-06T16:42:17Z</time>
      </trkpt>
      <trkpt lat="43.62364" lon="1.40227">
        <ele>132</ele>
        <time>2024-11-06T16:42:18Z</time>
      </trkpt>
      <trkpt lat="43.62362" lon="1.40227">
        <ele>132</ele>
        <time>2024-11-06T16:42:19Z</time>
      </trkpt>
      <trkpt lat="43.62359" lon="1.40227">
        <ele>132</ele>
        <time>2024-11-06T16:42:20Z</time>
      </trkpt>
      <trkpt lat="43.62357" lon="1.40227">
        <ele>132</ele>
        <time>2024-11-06T16:42:21Z</time>
      </trkpt>
      <trkpt lat="43.62354" lon="1.40227">
        <ele>132</ele>
        <time>2024-11-06T16:42:22Z</time>
      </trkpt>
      <trkpt lat="43.62352" lon="1.40227">
        <ele>132</ele>
        <time>2024-11-06T16:42:23Z</time>
      </trkpt>
      <trkpt lat="43.62349" lon="1.40227">
        <ele>132</ele>
        <time>2024-11-06T16:42:24Z</time>
      </trkpt>
      <trkpt lat="43.62347" lon="1.40227">
        <ele>132</ele>
        <time>2024-11-06T16:42:25Z</time>
      </trkpt>
      <trkpt lat="43.62344" lon="1.40227">
        <ele>132</ele>
        <time>2024-11-06T16:42:26Z</time>
      </trkpt>
      <trkpt lat="43.62341" lon="1.40227">
        <ele>132</ele>
        <time>2024-11-06T16:42:27Z</time>
      </trkpt>
      <trkpt lat="43.62338" lon="1.40227">
        <ele>132</ele>
        <time>2024-11-06T16:42:28Z</time>
      </trkpt>
      <trkpt lat="43.62336" lon="1.40227">
        <ele>132</ele>
        <time>2024-11-06T16:42:29Z</time>
      </trkpt>
      <trkpt lat="43.62333" lon="1.40227">
        <ele>132</ele>
        <time>2024-11-06T16:42:30Z</time>
      </trkpt>
      <trkpt lat="43.62331" lon="1.40227">
        <ele>132</ele>
        <time>2024-11-06T16:42:31Z</time>
      </trkpt>
      <trkpt lat="43.62328" lon="1.40227">
        <ele>132</ele>
        <time>2024-11-06T16:42:32Z</time>
      </trkpt>
      <trkpt lat="43.62326" lon="1.40227">
        <ele>132</ele>
        <time>2024-11-06T16:42:33Z</time>
      </trkpt>
      <trkpt lat="43.62323" lon="1.40227">
        <ele>132</ele>
        <time>2024-11-06T16:42:34Z</time>
      </trkpt>
      <trkpt lat="43.62321" lon="1.40228">
        <ele>132</ele>
        <time>2024-11-06T16:42:35Z</time>
      </trkpt>
      <trkpt lat="43.62318" lon="1.40228">
        <ele>132</ele>
        <time>2024-11-06T16:42:36Z</time>
      </trkpt>
      <trkpt lat="43.62316" lon="1.40228">
        <ele>132</ele>
        <time>2024-11-06T16:42:37Z</time>
      </trkpt>
      <trkpt lat="43.62313" lon="1.40228">
        <ele>132</ele>
        <time>2024-11-06T16:42:38Z</time>
      </trkpt>
      <trkpt lat="43.6231" lon="1.40228">
        <ele>132</ele>
        <time>2024-11-06T16:42:39Z</time>
      </trkpt>
      <trkpt lat="43.62308" lon="1.40229">
        <ele>132</ele>
        <time>2024-11-06T16:42:40Z</time>
      </trkpt>
      <trkpt lat="43.62305" lon="1.40229">
        <ele>132</ele>
        <time>2024-11-06T16:42:41Z</time>
      </trkpt>
      <trkpt lat="43.62303" lon="1.40229">
        <ele>132</ele>
        <time>2024-11-06T16:42:42Z</time>
      </trkpt>
      <trkpt lat="43.623" lon="1.40229">
        <ele>132</ele>
        <time>2024-11-06T16:42:43Z</time>
      </trkpt>
      <trkpt lat="43.62298" lon="1.4023">
        <ele>132</ele>
        <time>2024-11-06T16:42:44Z</time>
      </trkpt>
      <trkpt lat="43.62295" lon="1.4023">
        <ele>132</ele>
        <time>2024-11-06T16:42:45Z</time>
      </trkpt>
      <trkpt lat="43.62292" lon="1.40231">
        <ele>132</ele>
        <time>2024-11-06T16:42:46Z</time>
      </trkpt>
      <trkpt lat="43.6229" lon="1.40231">
        <ele>132</ele>
        <time>2024-11-06T16:42:47Z</time>
      </trkpt>
      <trkpt lat="43.62287" lon="1.40232">
        <ele>132</ele>
        <time>2024-11-06T16:42:48Z</time>
      </trkpt>
      <trkpt lat="43.62284" lon="1.40232">
        <ele>132</ele>
        <time>2024-11-06T16:42:49Z</time>
      </trkpt>
      <trkpt lat="43.62281" lon="1.40232">
        <ele>132</ele>
        <time>2024-11-06T16:42:50Z</time>
      </trkpt>
      <trkpt lat="43.62279" lon="1.40232">
        <ele>132</ele>
        <time>2024-11-06T16:42:51Z</time>
      </trkpt>
      <trkpt lat="43.62276" lon="1.40232">
        <ele>132</ele>
        <time>2024-11-06T16:42:52Z</time>
      </trkpt>
      <trkpt lat="43.62274" lon="1.40232">
        <ele>132</ele>
        <time>2024-11-06T16:42:53Z</time>
      </trkpt>
      <trkpt lat="43.62272" lon="1.40232">
        <ele>132</ele>
        <time>2024-11-06T16:42:54Z</time>
      </trkpt>
      <trkpt lat="43.62269" lon="1.40232">
        <ele>132</ele>
        <time>2024-11-06T16:42:55Z</time>
      </trkpt>
      <trkpt lat="43.62266" lon="1.40233">
        <ele>132</ele>
        <time>2024-11-06T16:42:56Z</time>
      </trkpt>
      <trkpt lat="43.62264" lon="1.40233">
        <ele>132</ele>
        <time>2024-11-06T16:42:57Z</time>
      </trkpt>
      <trkpt lat="43.62261" lon="1.40233">
        <ele>132</ele>
        <time>2024-11-06T16:42:58Z</time>
      </trkpt>
      <trkpt lat="43.62259" lon="1.40234">
        <ele>132</ele>
        <time>2024-11-06T16:42:59Z</time>
      </trkpt>
      <trkpt lat="43.62256" lon="1.40234">
        <ele>132</ele>
        <time>2024-11-06T16:43:00Z</time>
      </trkpt>
      <trkpt lat="43.62254" lon="1.40235">
        <ele>132</ele>
        <time>2024-11-06T16:43:01Z</time>
      </trkpt>
      <trkpt lat="43.62251" lon="1.40236">
        <ele>132</ele>
        <time>2024-11-06T16:43:02Z</time>
      </trkpt>
      <trkpt lat="43.62248" lon="1.40236">
        <ele>132</ele>
        <time>2024-11-06T16:43:03Z</time>
      </trkpt>
      <trkpt lat="43.62245" lon="1.40236">
        <ele>132</ele>
        <time>2024-11-06T16:43:04Z</time>
      </trkpt>
      <trkpt lat="43.62242" lon="1.40236">
        <ele>132</ele>
        <time>2024-11-06T16:43:05Z</time>
      </trkpt>
      <trkpt lat="43.6224" lon="1.40237">
        <ele>132</ele>
        <time>2024-11-06T16:43:06Z</time>
      </trkpt>
      <trkpt lat="43.62237" lon="1.40237">
        <ele>132</ele>
        <time>2024-11-06T16:43:07Z</time>
      </trkpt>
      <trkpt lat="43.62235" lon="1.40238">
        <ele>132</ele>
        <time>2024-11-06T16:43:08Z</time>
      </trkpt>
      <trkpt lat="43.62232" lon="1.40238">
        <ele>132</ele>
        <time>2024-11-06T16:43:09Z</time>
      </trkpt>
      <trkpt lat="43.6223" lon="1.40238">
        <ele>132</ele>
        <time>2024-11-06T16:43:10Z</time>
      </trkpt>
      <trkpt lat="43.62228" lon="1.40239">
        <ele>132</ele>
        <time>2024-11-06T16:43:11Z</time>
      </trkpt>
      <trkpt lat="43.62226" lon="1.40239">
        <ele>132</ele>
        <time>2024-11-06T16:43:12Z</time>
      </trkpt>
      <trkpt lat="43.62226" lon="1.40239">
        <ele>132</ele>
        <time>2024-11-06T16:43:13Z</time>
      </trkpt>
      <trkpt lat="43.62223" lon="1.40239">
        <ele>132</ele>
        <time>2024-11-06T16:43:14Z</time>
      </trkpt>
      <trkpt lat="43.6222" lon="1.4024">
        <ele>132</ele>
        <time>2024-11-06T16:43:15Z</time>
      </trkpt>
      <trkpt lat="43.62218" lon="1.40241">
        <ele>132</ele>
        <time>2024-11-06T16:43:16Z</time>
      </trkpt>
      <trkpt lat="43.62216" lon="1.40242">
        <ele>132</ele>
        <time>2024-11-06T16:43:17Z</time>
      </trkpt>
      <trkpt lat="43.62213" lon="1.40243">
        <ele>132</ele>
        <time>2024-11-06T16:43:18Z</time>
      </trkpt>
      <trkpt lat="43.62209" lon="1.40244">
        <ele>132</ele>
        <time>2024-11-06T16:43:19Z</time>
      </trkpt>
      <trkpt lat="43.62206" lon="1.40245">
        <ele>132</ele>
        <time>2024-11-06T16:43:20Z</time>
      </trkpt>
      <trkpt lat="43.62203" lon="1.40245">
        <ele>132</ele>
        <time>2024-11-06T16:43:22Z</time>
      </trkpt>
      <trkpt lat="43.62199" lon="1.40246">
        <ele>132</ele>
        <time>2024-11-06T16:43:23Z</time>
      </trkpt>
      <trkpt lat="43.62196" lon="1.40247">
        <ele>132</ele>
        <time>2024-11-06T16:43:24Z</time>
      </trkpt>
      <trkpt lat="43.62193" lon="1.40247">
        <ele>132</ele>
        <time>2024-11-06T16:43:25Z</time>
      </trkpt>
      <trkpt lat="43.6219" lon="1.40247">
        <ele>132</ele>
        <time>2024-11-06T16:43:26Z</time>
      </trkpt>
      <trkpt lat="43.62187" lon="1.40248">
        <ele>132</ele>
        <time>2024-11-06T16:43:27Z</time>
      </trkpt>
      <trkpt lat="43.62184" lon="1.40249">
        <ele>132</ele>
        <time>2024-11-06T16:43:28Z</time>
      </trkpt>
      <trkpt lat="43.62181" lon="1.4025">
        <ele>132</ele>
        <time>2024-11-06T16:43:29Z</time>
      </trkpt>
      <trkpt lat="43.62178" lon="1.4025">
        <ele>132</ele>
        <time>2024-11-06T16:43:30Z</time>
      </trkpt>
      <trkpt lat="43.62175" lon="1.40251">
        <ele>133</ele>
        <time>2024-11-06T16:43:31Z</time>
      </trkpt>
      <trkpt lat="43.62173" lon="1.40252">
        <ele>133</ele>
        <time>2024-11-06T16:43:32Z</time>
      </trkpt>
      <trkpt lat="43.6217" lon="1.40253">
        <ele>133</ele>
        <time>2024-11-06T16:43:33Z</time>
      </trkpt>
      <trkpt lat="43.62168" lon="1.40253">
        <ele>133</ele>
        <time>2024-11-06T16:43:34Z</time>
      </trkpt>
      <trkpt lat="43.62165" lon="1.40254">
        <ele>132</ele>
        <time>2024-11-06T16:43:35Z</time>
      </trkpt>
      <trkpt lat="43.62162" lon="1.40255">
        <ele>132</ele>
        <time>2024-11-06T16:43:36Z</time>
      </trkpt>
      <trkpt lat="43.6216" lon="1.40256">
        <ele>132</ele>
        <time>2024-11-06T16:43:37Z</time>
      </trkpt>
      <trkpt lat="43.62158" lon="1.40257">
        <ele>132</ele>
        <time>2024-11-06T16:43:38Z</time>
      </trkpt>
      <trkpt lat="43.62155" lon="1.40257">
        <ele>132</ele>
        <time>2024-11-06T16:43:39Z</time>
      </trkpt>
      <trkpt lat="43.62152" lon="1.40258">
        <ele>132</ele>
        <time>2024-11-06T16:43:40Z</time>
      </trkpt>
      <trkpt lat="43.62151" lon="1.40259">
        <ele>132</ele>
        <time>2024-11-06T16:43:41Z</time>
      </trkpt>
      <trkpt lat="43.62148" lon="1.40259">
        <ele>132</ele>
        <time>2024-11-06T16:43:42Z</time>
      </trkpt>
      <trkpt lat="43.62146" lon="1.4026">
        <ele>132</ele>
        <time>2024-11-06T16:43:43Z</time>
      </trkpt>
      <trkpt lat="43.62143" lon="1.4026">
        <ele>132</ele>
        <time>2024-11-06T16:43:44Z</time>
      </trkpt>
      <trkpt lat="43.62141" lon="1.40261">
        <ele>132</ele>
        <time>2024-11-06T16:43:45Z</time>
      </trkpt>
      <trkpt lat="43.62138" lon="1.40262">
        <ele>132</ele>
        <time>2024-11-06T16:43:46Z</time>
      </trkpt>
      <trkpt lat="43.62136" lon="1.40263">
        <ele>132</ele>
        <time>2024-11-06T16:43:47Z</time>
      </trkpt>
      <trkpt lat="43.62133" lon="1.40264">
        <ele>132</ele>
        <time>2024-11-06T16:43:48Z</time>
      </trkpt>
      <trkpt lat="43.62131" lon="1.40265">
        <ele>132</ele>
        <time>2024-11-06T16:43:49Z</time>
      </trkpt>
      <trkpt lat="43.62128" lon="1.40265">
        <ele>132</ele>
        <time>2024-11-06T16:43:50Z</time>
      </trkpt>
      <trkpt lat="43.62126" lon="1.40266">
        <ele>132</ele>
        <time>2024-11-06T16:43:51Z</time>
      </trkpt>
      <trkpt lat="43.62123" lon="1.40267">
        <ele>132</ele>
        <time>2024-11-06T16:43:52Z</time>
      </trkpt>
      <trkpt lat="43.62121" lon="1.40268">
        <ele>132</ele>
        <time>2024-11-06T16:43:53Z</time>
      </trkpt>
      <trkpt lat="43.62119" lon="1.40269">
        <ele>132</ele>
        <time>2024-11-06T16:43:54Z</time>
      </trkpt>
      <trkpt lat="43.62116" lon="1.4027">
        <ele>132</ele>
        <time>2024-11-06T16:43:55Z</time>
      </trkpt>
      <trkpt lat="43.62114" lon="1.4027">
        <ele>132</ele>
        <time>2024-11-06T16:43:56Z</time>
      </trkpt>
      <trkpt lat="43.62112" lon="1.40271">
        <ele>132</ele>
        <time>2024-11-06T16:43:57Z</time>
      </trkpt>
      <trkpt lat="43.62109" lon="1.40271">
        <ele>132</ele>
        <time>2024-11-06T16:43:58Z</time>
      </trkpt>
      <trkpt lat="43.62106" lon="1.40273">
        <ele>132</ele>
        <time>2024-11-06T16:43:59Z</time>
      </trkpt>
      <trkpt lat="43.62104" lon="1.40273">
        <ele>132</ele>
        <time>2024-11-06T16:44:00Z</time>
      </trkpt>
      <trkpt lat="43.62102" lon="1.40274">
        <ele>132</ele>
        <time>2024-11-06T16:44:01Z</time>
      </trkpt>
      <trkpt lat="43.62099" lon="1.40274">
        <ele>132</ele>
        <time>2024-11-06T16:44:02Z</time>
      </trkpt>
      <trkpt lat="43.62097" lon="1.40275">
        <ele>132</ele>
        <time>2024-11-06T16:44:03Z</time>
      </trkpt>
      <trkpt lat="43.62095" lon="1.40275">
        <ele>132</ele>
        <time>2024-11-06T16:44:04Z</time>
      </trkpt>
      <trkpt lat="43.62093" lon="1.40275">
        <ele>132</ele>
        <time>2024-11-06T16:44:05Z</time>
      </trkpt>
      <trkpt lat="43.62091" lon="1.40276">
        <ele>132</ele>
        <time>2024-11-06T16:44:06Z</time>
      </trkpt>
      <trkpt lat="43.62088" lon="1.40276">
        <ele>132</ele>
        <time>2024-11-06T16:44:07Z</time>
      </trkpt>
      <trkpt lat="43.62086" lon="1.40277">
        <ele>132</ele>
        <time>2024-11-06T16:44:08Z</time>
      </trkpt>
      <trkpt lat="43.62083" lon="1.40278">
        <ele>132</ele>
        <time>2024-11-06T16:44:09Z</time>
      </trkpt>
      <trkpt lat="43.62081" lon="1.40279">
        <ele>132</ele>
        <time>2024-11-06T16:44:10Z</time>
      </trkpt>
      <trkpt lat="43.62079" lon="1.4028">
        <ele>132</ele>
        <time>2024-11-06T16:44:11Z</time>
      </trkpt>
      <trkpt lat="43.62076" lon="1.40282">
        <ele>132</ele>
        <time>2024-11-06T16:44:12Z</time>
      </trkpt>
      <trkpt lat="43.62074" lon="1.40282">
        <ele>132</ele>
        <time>2024-11-06T16:44:13Z</time>
      </trkpt>
      <trkpt lat="43.62071" lon="1.40284">
        <ele>132</ele>
        <time>2024-11-06T16:44:14Z</time>
      </trkpt>
      <trkpt lat="43.62068" lon="1.40285">
        <ele>132</ele>
        <time>2024-11-06T16:44:15Z</time>
      </trkpt>
      <trkpt lat="43.62065" lon="1.40286">
        <ele>132</ele>
        <time>2024-11-06T16:44:16Z</time>
      </trkpt>
      <trkpt lat="43.62063" lon="1.40287">
        <ele>132</ele>
        <time>2024-11-06T16:44:17Z</time>
      </trkpt>
      <trkpt lat="43.62061" lon="1.40288">
        <ele>132</ele>
        <time>2024-11-06T16:44:18Z</time>
      </trkpt>
      <trkpt lat="43.62058" lon="1.40289">
        <ele>132</ele>
        <time>2024-11-06T16:44:19Z</time>
      </trkpt>
      <trkpt lat="43.62056" lon="1.4029">
        <ele>132</ele>
        <time>2024-11-06T16:44:20Z</time>
      </trkpt>
      <trkpt lat="43.62053" lon="1.40291">
        <ele>132</ele>
        <time>2024-11-06T16:44:21Z</time>
      </trkpt>
      <trkpt lat="43.62051" lon="1.40292">
        <ele>132</ele>
        <time>2024-11-06T16:44:22Z</time>
      </trkpt>
      <trkpt lat="43.62049" lon="1.40293">
        <ele>132</ele>
        <time>2024-11-06T16:44:23Z</time>
      </trkpt>
      <trkpt lat="43.62046" lon="1.40294">
        <ele>132</ele>
        <time>2024-11-06T16:44:24Z</time>
      </trkpt>
      <trkpt lat="43.62044" lon="1.40295">
        <ele>132</ele>
        <time>2024-11-06T16:44:25Z</time>
      </trkpt>
      <trkpt lat="43.62041" lon="1.40296">
        <ele>132</ele>
        <time>2024-11-06T16:44:26Z</time>
      </trkpt>
      <trkpt lat="43.62039" lon="1.40297">
        <ele>132</ele>
        <time>2024-11-06T16:44:27Z</time>
      </trkpt>
      <trkpt lat="43.62036" lon="1.40298">
        <ele>132</ele>
        <time>2024-11-06T16:44:28Z</time>
      </trkpt>
      <trkpt lat="43.62034" lon="1.40298">
        <ele>132</ele>
        <time>2024-11-06T16:44:29Z</time>
      </trkpt>
      <trkpt lat="43.62031" lon="1.40299">
        <ele>132</ele>
        <time>2024-11-06T16:44:30Z</time>
      </trkpt>
      <trkpt lat="43.62029" lon="1.40301">
        <ele>132</ele>
        <time>2024-11-06T16:44:31Z</time>
      </trkpt>
      <trkpt lat="43.62026" lon="1.40302">
        <ele>132</ele>
        <time>2024-11-06T16:44:32Z</time>
      </trkpt>
      <trkpt lat="43.62024" lon="1.40303">
        <ele>132</ele>
        <time>2024-11-06T16:44:33Z</time>
      </trkpt>
      <trkpt lat="43.62021" lon="1.40304">
        <ele>132</ele>
        <time>2024-11-06T16:44:34Z</time>
      </trkpt>
      <trkpt lat="43.62019" lon="1.40305">
        <ele>132</ele>
        <time>2024-11-06T16:44:35Z</time>
      </trkpt>
      <trkpt lat="43.62016" lon="1.40305">
        <ele>132</ele>
        <time>2024-11-06T16:44:36Z</time>
      </trkpt>
      <trkpt lat="43.62013" lon="1.40306">
        <ele>132</ele>
        <time>2024-11-06T16:44:37Z</time>
      </trkpt>
      <trkpt lat="43.62011" lon="1.40307">
        <ele>132</ele>
        <time>2024-11-06T16:44:38Z</time>
      </trkpt>
      <trkpt lat="43.62008" lon="1.40307">
        <ele>132</ele>
        <time>2024-11-06T16:44:39Z</time>
      </trkpt>
      <trkpt lat="43.62007" lon="1.40308">
        <ele>132</ele>
        <time>2024-11-06T16:44:40Z</time>
      </trkpt>
      <trkpt lat="43.62004" lon="1.40308">
        <ele>132</ele>
        <time>2024-11-06T16:44:41Z</time>
      </trkpt>
      <trkpt lat="43.62002" lon="1.40309">
        <ele>132</ele>
        <time>2024-11-06T16:44:42Z</time>
      </trkpt>
      <trkpt lat="43.61999" lon="1.4031">
        <ele>133</ele>
        <time>2024-11-06T16:44:43Z</time>
      </trkpt>
      <trkpt lat="43.61997" lon="1.40311">
        <ele>133</ele>
        <time>2024-11-06T16:44:44Z</time>
      </trkpt>
      <trkpt lat="43.61994" lon="1.40312">
        <ele>133</ele>
        <time>2024-11-06T16:44:45Z</time>
      </trkpt>
      <trkpt lat="43.61992" lon="1.40313">
        <ele>133</ele>
        <time>2024-11-06T16:44:46Z</time>
      </trkpt>
      <trkpt lat="43.61989" lon="1.40314">
        <ele>133</ele>
        <time>2024-11-06T16:44:47Z</time>
      </trkpt>
      <trkpt lat="43.61987" lon="1.40315">
        <ele>133</ele>
        <time>2024-11-06T16:44:48Z</time>
      </trkpt>
      <trkpt lat="43.61984" lon="1.40316">
        <ele>133</ele>
        <time>2024-11-06T16:44:49Z</time>
      </trkpt>
      <trkpt lat="43.61981" lon="1.40317">
        <ele>132</ele>
        <time>2024-11-06T16:44:50Z</time>
      </trkpt>
      <trkpt lat="43.61979" lon="1.40318">
        <ele>132</ele>
        <time>2024-11-06T16:44:51Z</time>
      </trkpt>
      <trkpt lat="43.61976" lon="1.40319">
        <ele>132</ele>
        <time>2024-11-06T16:44:52Z</time>
      </trkpt>
      <trkpt lat="43.61974" lon="1.40321">
        <ele>132</ele>
        <time>2024-11-06T16:44:53Z</time>
      </trkpt>
      <trkpt lat="43.61971" lon="1.40322">
        <ele>132</ele>
        <time>2024-11-06T16:44:54Z</time>
      </trkpt>
      <trkpt lat="43.61969" lon="1.40323">
        <ele>133</ele>
        <time>2024-11-06T16:44:55Z</time>
      </trkpt>
      <trkpt lat="43.61965" lon="1.40324">
        <ele>133</ele>
        <time>2024-11-06T16:44:56Z</time>
      </trkpt>
      <trkpt lat="43.61964" lon="1.40324">
        <ele>133</ele>
        <time>2024-11-06T16:44:57Z</time>
      </trkpt>
      <trkpt lat="43.61961" lon="1.40326">
        <ele>133</ele>
        <time>2024-11-06T16:44:58Z</time>
      </trkpt>
      <trkpt lat="43.61959" lon="1.40326">
        <ele>133</ele>
        <time>2024-11-06T16:44:59Z</time>
      </trkpt>
      <trkpt lat="43.61957" lon="1.40327">
        <ele>133</ele>
        <time>2024-11-06T16:45:00Z</time>
      </trkpt>
      <trkpt lat="43.61954" lon="1.40329">
        <ele>132</ele>
        <time>2024-11-06T16:45:01Z</time>
      </trkpt>
      <trkpt lat="43.61952" lon="1.4033">
        <ele>132</ele>
        <time>2024-11-06T16:45:02Z</time>
      </trkpt>
      <trkpt lat="43.61949" lon="1.40331">
        <ele>132</ele>
        <time>2024-11-06T16:45:03Z</time>
      </trkpt>
      <trkpt lat="43.61946" lon="1.40332">
        <ele>132</ele>
        <time>2024-11-06T16:45:04Z</time>
      </trkpt>
      <trkpt lat="43.61944" lon="1.40333">
        <ele>132</ele>
        <time>2024-11-06T16:45:05Z</time>
      </trkpt>
      <trkpt lat="43.61941" lon="1.40334">
        <ele>132</ele>
        <time>2024-11-06T16:45:06Z</time>
      </trkpt>
      <trkpt lat="43.61939" lon="1.40335">
        <ele>132</ele>
        <time>2024-11-06T16:45:07Z</time>
      </trkpt>
      <trkpt lat="43.61936" lon="1.40336">
        <ele>132</ele>
        <time>2024-11-06T16:45:08Z</time>
      </trkpt>
      <trkpt lat="43.61934" lon="1.40337">
        <ele>132</ele>
        <time>2024-11-06T16:45:09Z</time>
      </trkpt>
      <trkpt lat="43.61932" lon="1.40338">
        <ele>132</ele>
        <time>2024-11-06T16:45:10Z</time>
      </trkpt>
      <trkpt lat="43.6193" lon="1.40339">
        <ele>132</ele>
        <time>2024-11-06T16:45:11Z</time>
      </trkpt>
      <trkpt lat="43.61927" lon="1.40339">
        <ele>133</ele>
        <time>2024-11-06T16:45:12Z</time>
      </trkpt>
      <trkpt lat="43.61925" lon="1.40341">
        <ele>133</ele>
        <time>2024-11-06T16:45:13Z</time>
      </trkpt>
      <trkpt lat="43.61922" lon="1.40342">
        <ele>133</ele>
        <time>2024-11-06T16:45:14Z</time>
      </trkpt>
      <trkpt lat="43.61919" lon="1.40344">
        <ele>133</ele>
        <time>2024-11-06T16:45:15Z</time>
      </trkpt>
      <trkpt lat="43.61917" lon="1.40345">
        <ele>133</ele>
        <time>2024-11-06T16:45:16Z</time>
      </trkpt>
      <trkpt lat="43.61915" lon="1.40346">
        <ele>133</ele>
        <time>2024-11-06T16:45:17Z</time>
      </trkpt>
      <trkpt lat="43.61911" lon="1.40348">
        <ele>133</ele>
        <time>2024-11-06T16:45:18Z</time>
      </trkpt>
      <trkpt lat="43.6191" lon="1.40348">
        <ele>132</ele>
        <time>2024-11-06T16:45:19Z</time>
      </trkpt>
      <trkpt lat="43.61908" lon="1.40349">
        <ele>132</ele>
        <time>2024-11-06T16:45:20Z</time>
      </trkpt>
      <trkpt lat="43.61905" lon="1.4035">
        <ele>132</ele>
        <time>2024-11-06T16:45:21Z</time>
      </trkpt>
      <trkpt lat="43.61903" lon="1.40352">
        <ele>132</ele>
        <time>2024-11-06T16:45:22Z</time>
      </trkpt>
      <trkpt lat="43.619" lon="1.40353">
        <ele>132</ele>
        <time>2024-11-06T16:45:23Z</time>
      </trkpt>
      <trkpt lat="43.61898" lon="1.40353">
        <ele>132</ele>
        <time>2024-11-06T16:45:24Z</time>
      </trkpt>
      <trkpt lat="43.61895" lon="1.40354">
        <ele>132</ele>
        <time>2024-11-06T16:45:25Z</time>
      </trkpt>
      <trkpt lat="43.61893" lon="1.40355">
        <ele>132</ele>
        <time>2024-11-06T16:45:26Z</time>
      </trkpt>
      <trkpt lat="43.61891" lon="1.40356">
        <ele>132</ele>
        <time>2024-11-06T16:45:27Z</time>
      </trkpt>
      <trkpt lat="43.61888" lon="1.40356">
        <ele>132</ele>
        <time>2024-11-06T16:45:28Z</time>
      </trkpt>
      <trkpt lat="43.61886" lon="1.40357">
        <ele>133</ele>
        <time>2024-11-06T16:45:29Z</time>
      </trkpt>
      <trkpt lat="43.61883" lon="1.40358">
        <ele>133</ele>
        <time>2024-11-06T16:45:30Z</time>
      </trkpt>
      <trkpt lat="43.61881" lon="1.40359">
        <ele>133</ele>
        <time>2024-11-06T16:45:31Z</time>
      </trkpt>
      <trkpt lat="43.61879" lon="1.4036">
        <ele>133</ele>
        <time>2024-11-06T16:45:32Z</time>
      </trkpt>
      <trkpt lat="43.61876" lon="1.40361">
        <ele>133</ele>
        <time>2024-11-06T16:45:33Z</time>
      </trkpt>
      <trkpt lat="43.61873" lon="1.40362">
        <ele>133</ele>
        <time>2024-11-06T16:45:34Z</time>
      </trkpt>
      <trkpt lat="43.61872" lon="1.40363">
        <ele>133</ele>
        <time>2024-11-06T16:45:35Z</time>
      </trkpt>
      <trkpt lat="43.61869" lon="1.40364">
        <ele>133</ele>
        <time>2024-11-06T16:45:36Z</time>
      </trkpt>
      <trkpt lat="43.61867" lon="1.40365">
        <ele>133</ele>
        <time>2024-11-06T16:45:37Z</time>
      </trkpt>
      <trkpt lat="43.61863" lon="1.40366">
        <ele>133</ele>
        <time>2024-11-06T16:45:38Z</time>
      </trkpt>
      <trkpt lat="43.61862" lon="1.40367">
        <ele>133</ele>
        <time>2024-11-06T16:45:39Z</time>
      </trkpt>
      <trkpt lat="43.6186" lon="1.40368">
        <ele>133</ele>
        <time>2024-11-06T16:45:40Z</time>
      </trkpt>
      <trkpt lat="43.61858" lon="1.40369">
        <ele>133</ele>
        <time>2024-11-06T16:45:41Z</time>
      </trkpt>
      <trkpt lat="43.61855" lon="1.40369">
        <ele>133</ele>
        <time>2024-11-06T16:45:42Z</time>
      </trkpt>
      <trkpt lat="43.61853" lon="1.4037">
        <ele>133</ele>
        <time>2024-11-06T16:45:43Z</time>
      </trkpt>
      <trkpt lat="43.6185" lon="1.40371">
        <ele>133</ele>
        <time>2024-11-06T16:45:44Z</time>
      </trkpt>
      <trkpt lat="43.61848" lon="1.40372">
        <ele>133</ele>
        <time>2024-11-06T16:45:45Z</time>
      </trkpt>
      <trkpt lat="43.61845" lon="1.40373">
        <ele>133</ele>
        <time>2024-11-06T16:45:46Z</time>
      </trkpt>
      <trkpt lat="43.61843" lon="1.40374">
        <ele>133</ele>
        <time>2024-11-06T16:45:47Z</time>
      </trkpt>
      <trkpt lat="43.6184" lon="1.40375">
        <ele>132</ele>
        <time>2024-11-06T16:45:48Z</time>
      </trkpt>
      <trkpt lat="43.61838" lon="1.40376">
        <ele>132</ele>
        <time>2024-11-06T16:45:49Z</time>
      </trkpt>
      <trkpt lat="43.61835" lon="1.40377">
        <ele>132</ele>
        <time>2024-11-06T16:45:50Z</time>
      </trkpt>
      <trkpt lat="43.61833" lon="1.40378">
        <ele>133</ele>
        <time>2024-11-06T16:45:51Z</time>
      </trkpt>
      <trkpt lat="43.6183" lon="1.40379">
        <ele>133</ele>
        <time>2024-11-06T16:45:52Z</time>
      </trkpt>
      <trkpt lat="43.61826" lon="1.4038">
        <ele>133</ele>
        <time>2024-11-06T16:45:53Z</time>
      </trkpt>
      <trkpt lat="43.61825" lon="1.40381">
        <ele>133</ele>
        <time>2024-11-06T16:45:54Z</time>
      </trkpt>
      <trkpt lat="43.61823" lon="1.40382">
        <ele>133</ele>
        <time>2024-11-06T16:45:55Z</time>
      </trkpt>
      <trkpt lat="43.6182" lon="1.40383">
        <ele>133</ele>
        <time>2024-11-06T16:45:56Z</time>
      </trkpt>
      <trkpt lat="43.61816" lon="1.40384">
        <ele>133</ele>
        <time>2024-11-06T16:45:57Z</time>
      </trkpt>
      <trkpt lat="43.61815" lon="1.40384">
        <ele>133</ele>
        <time>2024-11-06T16:45:58Z</time>
      </trkpt>
      <trkpt lat="43.61812" lon="1.40385">
        <ele>133</ele>
        <time>2024-11-06T16:45:59Z</time>
      </trkpt>
      <trkpt lat="43.6181" lon="1.40386">
        <ele>133</ele>
        <time>2024-11-06T16:46:00Z</time>
      </trkpt>
      <trkpt lat="43.61808" lon="1.40387">
        <ele>133</ele>
        <time>2024-11-06T16:46:01Z</time>
      </trkpt>
      <trkpt lat="43.61805" lon="1.40388">
        <ele>133</ele>
        <time>2024-11-06T16:46:02Z</time>
      </trkpt>
      <trkpt lat="43.61803" lon="1.40389">
        <ele>133</ele>
        <time>2024-11-06T16:46:03Z</time>
      </trkpt>
      <trkpt lat="43.618" lon="1.4039">
        <ele>133</ele>
        <time>2024-11-06T16:46:04Z</time>
      </trkpt>
      <trkpt lat="43.61797" lon="1.40391">
        <ele>134</ele>
        <time>2024-11-06T16:46:05Z</time>
      </trkpt>
      <trkpt lat="43.61795" lon="1.40392">
        <ele>134</ele>
        <time>2024-11-06T16:46:06Z</time>
      </trkpt>
      <trkpt lat="43.61792" lon="1.40393">
        <ele>134</ele>
        <time>2024-11-06T16:46:07Z</time>
      </trkpt>
      <trkpt lat="43.61789" lon="1.40394">
        <ele>134</ele>
        <time>2024-11-06T16:46:08Z</time>
      </trkpt>
      <trkpt lat="43.61787" lon="1.40395">
        <ele>134</ele>
        <time>2024-11-06T16:46:09Z</time>
      </trkpt>
      <trkpt lat="43.61785" lon="1.40396">
        <ele>133</ele>
        <time>2024-11-06T16:46:10Z</time>
      </trkpt>
      <trkpt lat="43.61782" lon="1.40397">
        <ele>133</ele>
        <time>2024-11-06T16:46:11Z</time>
      </trkpt>
      <trkpt lat="43.61779" lon="1.40399">
        <ele>133</ele>
        <time>2024-11-06T16:46:12Z</time>
      </trkpt>
      <trkpt lat="43.61778" lon="1.404">
        <ele>133</ele>
        <time>2024-11-06T16:46:13Z</time>
      </trkpt>
      <trkpt lat="43.61775" lon="1.40401">
        <ele>133</ele>
        <time>2024-11-06T16:46:14Z</time>
      </trkpt>
      <trkpt lat="43.61772" lon="1.40402">
        <ele>133</ele>
        <time>2024-11-06T16:46:15Z</time>
      </trkpt>
      <trkpt lat="43.61768" lon="1.40403">
        <ele>133</ele>
        <time>2024-11-06T16:46:16Z</time>
      </trkpt>
      <trkpt lat="43.61767" lon="1.40403">
        <ele>133</ele>
        <time>2024-11-06T16:46:17Z</time>
      </trkpt>
      <trkpt lat="43.61764" lon="1.40404">
        <ele>133</ele>
        <time>2024-11-06T16:46:18Z</time>
      </trkpt>
      <trkpt lat="43.61762" lon="1.40405">
        <ele>133</ele>
        <time>2024-11-06T16:46:19Z</time>
      </trkpt>
      <trkpt lat="43.61759" lon="1.40406">
        <ele>134</ele>
        <time>2024-11-06T16:46:20Z</time>
      </trkpt>
      <trkpt lat="43.61757" lon="1.40407">
        <ele>134</ele>
        <time>2024-11-06T16:46:21Z</time>
      </trkpt>
      <trkpt lat="43.61755" lon="1.40408">
        <ele>134</ele>
        <time>2024-11-06T16:46:22Z</time>
      </trkpt>
      <trkpt lat="43.61753" lon="1.40409">
        <ele>134</ele>
        <time>2024-11-06T16:46:23Z</time>
      </trkpt>
      <trkpt lat="43.6175" lon="1.4041">
        <ele>134</ele>
        <time>2024-11-06T16:46:24Z</time>
      </trkpt>
      <trkpt lat="43.61748" lon="1.40411">
        <ele>133</ele>
        <time>2024-11-06T16:46:25Z</time>
      </trkpt>
      <trkpt lat="43.61746" lon="1.40412">
        <ele>133</ele>
        <time>2024-11-06T16:46:26Z</time>
      </trkpt>
      <trkpt lat="43.61743" lon="1.40413">
        <ele>133</ele>
        <time>2024-11-06T16:46:27Z</time>
      </trkpt>
      <trkpt lat="43.61741" lon="1.40415">
        <ele>133</ele>
        <time>2024-11-06T16:46:28Z</time>
      </trkpt>
      <trkpt lat="43.61738" lon="1.40416">
        <ele>133</ele>
        <time>2024-11-06T16:46:29Z</time>
      </trkpt>
      <trkpt lat="43.61736" lon="1.40417">
        <ele>133</ele>
        <time>2024-11-06T16:46:30Z</time>
      </trkpt>
      <trkpt lat="43.61732" lon="1.40418">
        <ele>133</ele>
        <time>2024-11-06T16:46:31Z</time>
      </trkpt>
      <trkpt lat="43.61731" lon="1.40418">
        <ele>133</ele>
        <time>2024-11-06T16:46:32Z</time>
      </trkpt>
      <trkpt lat="43.61729" lon="1.40419">
        <ele>133</ele>
        <time>2024-11-06T16:46:33Z</time>
      </trkpt>
      <trkpt lat="43.61727" lon="1.4042">
        <ele>133</ele>
        <time>2024-11-06T16:46:34Z</time>
      </trkpt>
      <trkpt lat="43.61725" lon="1.40421">
        <ele>133</ele>
        <time>2024-11-06T16:46:35Z</time>
      </trkpt>
      <trkpt lat="43.61722" lon="1.40422">
        <ele>133</ele>
        <time>2024-11-06T16:46:36Z</time>
      </trkpt>
      <trkpt lat="43.61719" lon="1.40424">
        <ele>133</ele>
        <time>2024-11-06T16:46:37Z</time>
      </trkpt>
      <trkpt lat="43.61718" lon="1.40425">
        <ele>133</ele>
        <time>2024-11-06T16:46:38Z</time>
      </trkpt>
      <trkpt lat="43.61715" lon="1.40426">
        <ele>133</ele>
        <time>2024-11-06T16:46:39Z</time>
      </trkpt>
      <trkpt lat="43.61713" lon="1.40428">
        <ele>133</ele>
        <time>2024-11-06T16:46:40Z</time>
      </trkpt>
      <trkpt lat="43.61711" lon="1.40429">
        <ele>133</ele>
        <time>2024-11-06T16:46:41Z</time>
      </trkpt>
      <trkpt lat="43.61708" lon="1.4043">
        <ele>133</ele>
        <time>2024-11-06T16:46:42Z</time>
      </trkpt>
      <trkpt lat="43.61706" lon="1.40431">
        <ele>133</ele>
        <time>2024-11-06T16:46:43Z</time>
      </trkpt>
      <trkpt lat="43.61703" lon="1.40433">
        <ele>133</ele>
        <time>2024-11-06T16:46:44Z</time>
      </trkpt>
      <trkpt lat="43.61701" lon="1.40434">
        <ele>133</ele>
        <time>2024-11-06T16:46:45Z</time>
      </trkpt>
      <trkpt lat="43.61699" lon="1.40435">
        <ele>133</ele>
        <time>2024-11-06T16:46:46Z</time>
      </trkpt>
      <trkpt lat="43.61697" lon="1.40436">
        <ele>133</ele>
        <time>2024-11-06T16:46:47Z</time>
      </trkpt>
      <trkpt lat="43.61697" lon="1.40436">
        <ele>133</ele>
        <time>2024-11-06T16:46:48Z</time>
      </trkpt>
      <trkpt lat="43.61693" lon="1.40438">
        <ele>133</ele>
        <time>2024-11-06T16:46:49Z</time>
      </trkpt>
      <trkpt lat="43.6169" lon="1.40439">
        <ele>133</ele>
        <time>2024-11-06T16:46:50Z</time>
      </trkpt>
      <trkpt lat="43.61689" lon="1.40439">
        <ele>133</ele>
        <time>2024-11-06T16:46:51Z</time>
      </trkpt>
      <trkpt lat="43.61687" lon="1.40441">
        <ele>133</ele>
        <time>2024-11-06T16:46:52Z</time>
      </trkpt>
      <trkpt lat="43.61685" lon="1.40442">
        <ele>133</ele>
        <time>2024-11-06T16:46:53Z</time>
      </trkpt>
      <trkpt lat="43.61683" lon="1.40443">
        <ele>133</ele>
        <time>2024-11-06T16:46:54Z</time>
      </trkpt>
      <trkpt lat="43.61681" lon="1.40445">
        <ele>133</ele>
        <time>2024-11-06T16:46:55Z</time>
      </trkpt>
      <trkpt lat="43.61678" lon="1.40447">
        <ele>133</ele>
        <time>2024-11-06T16:46:56Z</time>
      </trkpt>
      <trkpt lat="43.61676" lon="1.40448">
        <ele>133</ele>
        <time>2024-11-06T16:46:57Z</time>
      </trkpt>
      <trkpt lat="43.61673" lon="1.4045">
        <ele>133</ele>
        <time>2024-11-06T16:46:58Z</time>
      </trkpt>
      <trkpt lat="43.6167" lon="1.40452">
        <ele>133</ele>
        <time>2024-11-06T16:46:59Z</time>
      </trkpt>
      <trkpt lat="43.61668" lon="1.40453">
        <ele>133</ele>
        <time>2024-11-06T16:47:00Z</time>
      </trkpt>
      <trkpt lat="43.61666" lon="1.40456">
        <ele>134</ele>
        <time>2024-11-06T16:47:01Z</time>
      </trkpt>
      <trkpt lat="43.61663" lon="1.40457">
        <ele>134</ele>
        <time>2024-11-06T16:47:02Z</time>
      </trkpt>
      <trkpt lat="43.61661" lon="1.40459">
        <ele>134</ele>
        <time>2024-11-06T16:47:03Z</time>
      </trkpt>
      <trkpt lat="43.61658" lon="1.4046">
        <ele>134</ele>
        <time>2024-11-06T16:47:04Z</time>
      </trkpt>
      <trkpt lat="43.61656" lon="1.40462">
        <ele>134</ele>
        <time>2024-11-06T16:47:05Z</time>
      </trkpt>
      <trkpt lat="43.61653" lon="1.40464">
        <ele>133</ele>
        <time>2024-11-06T16:47:06Z</time>
      </trkpt>
      <trkpt lat="43.61651" lon="1.40466">
        <ele>133</ele>
        <time>2024-11-06T16:47:07Z</time>
      </trkpt>
      <trkpt lat="43.61648" lon="1.40467">
        <ele>133</ele>
        <time>2024-11-06T16:47:08Z</time>
      </trkpt>
      <trkpt lat="43.61645" lon="1.4047">
        <ele>133</ele>
        <time>2024-11-06T16:47:09Z</time>
      </trkpt>
      <trkpt lat="43.61644" lon="1.40471">
        <ele>133</ele>
        <time>2024-11-06T16:47:10Z</time>
      </trkpt>
      <trkpt lat="43.61641" lon="1.40472">
        <ele>133</ele>
        <time>2024-11-06T16:47:11Z</time>
      </trkpt>
      <trkpt lat="43.61639" lon="1.40474">
        <ele>133</ele>
        <time>2024-11-06T16:47:12Z</time>
      </trkpt>
      <trkpt lat="43.61637" lon="1.40475">
        <ele>133</ele>
        <time>2024-11-06T16:47:13Z</time>
      </trkpt>
      <trkpt lat="43.61634" lon="1.40477">
        <ele>132</ele>
        <time>2024-11-06T16:47:14Z</time>
      </trkpt>
      <trkpt lat="43.61632" lon="1.40479">
        <ele>132</ele>
        <time>2024-11-06T16:47:15Z</time>
      </trkpt>
      <trkpt lat="43.61628" lon="1.40481">
        <ele>132</ele>
        <time>2024-11-06T16:47:16Z</time>
      </trkpt>
      <trkpt lat="43.61627" lon="1.40482">
        <ele>132</ele>
        <time>2024-11-06T16:47:17Z</time>
      </trkpt>
      <trkpt lat="43.61625" lon="1.40484">
        <ele>132</ele>
        <time>2024-11-06T16:47:18Z</time>
      </trkpt>
      <trkpt lat="43.61623" lon="1.40486">
        <ele>132</ele>
        <time>2024-11-06T16:47:19Z</time>
      </trkpt>
      <trkpt lat="43.61621" lon="1.40488">
        <ele>132</ele>
        <time>2024-11-06T16:47:20Z</time>
      </trkpt>
      <trkpt lat="43.61618" lon="1.4049">
        <ele>132</ele>
        <time>2024-11-06T16:47:21Z</time>
      </trkpt>
      <trkpt lat="43.61616" lon="1.40491">
        <ele>132</ele>
        <time>2024-11-06T16:47:22Z</time>
      </trkpt>
      <trkpt lat="43.61613" lon="1.40493">
        <ele>132</ele>
        <time>2024-11-06T16:47:23Z</time>
      </trkpt>
      <trkpt lat="43.61611" lon="1.40495">
        <ele>132</ele>
        <time>2024-11-06T16:47:24Z</time>
      </trkpt>
      <trkpt lat="43.61609" lon="1.40497">
        <ele>132</ele>
        <time>2024-11-06T16:47:25Z</time>
      </trkpt>
      <trkpt lat="43.61606" lon="1.405">
        <ele>132</ele>
        <time>2024-11-06T16:47:26Z</time>
      </trkpt>
      <trkpt lat="43.61604" lon="1.40501">
        <ele>132</ele>
        <time>2024-11-06T16:47:27Z</time>
      </trkpt>
      <trkpt lat="43.61601" lon="1.40504">
        <ele>132</ele>
        <time>2024-11-06T16:47:28Z</time>
      </trkpt>
      <trkpt lat="43.616" lon="1.40504">
        <ele>132</ele>
        <time>2024-11-06T16:47:29Z</time>
      </trkpt>
      <trkpt lat="43.61597" lon="1.40506">
        <ele>132</ele>
        <time>2024-11-06T16:47:30Z</time>
      </trkpt>
      <trkpt lat="43.61595" lon="1.40507">
        <ele>132</ele>
        <time>2024-11-06T16:47:31Z</time>
      </trkpt>
      <trkpt lat="43.61593" lon="1.40509">
        <ele>132</ele>
        <time>2024-11-06T16:47:32Z</time>
      </trkpt>
      <trkpt lat="43.61591" lon="1.40511">
        <ele>132</ele>
        <time>2024-11-06T16:47:33Z</time>
      </trkpt>
      <trkpt lat="43.61589" lon="1.40512">
        <ele>132</ele>
        <time>2024-11-06T16:47:34Z</time>
      </trkpt>
      <trkpt lat="43.61586" lon="1.40514">
        <ele>132</ele>
        <time>2024-11-06T16:47:35Z</time>
      </trkpt>
      <trkpt lat="43.61585" lon="1.40515">
        <ele>132</ele>
        <time>2024-11-06T16:47:36Z</time>
      </trkpt>
      <trkpt lat="43.61583" lon="1.40517">
        <ele>132</ele>
        <time>2024-11-06T16:47:37Z</time>
      </trkpt>
      <trkpt lat="43.61581" lon="1.40518">
        <ele>132</ele>
        <time>2024-11-06T16:47:38Z</time>
      </trkpt>
      <trkpt lat="43.61579" lon="1.40521">
        <ele>132</ele>
        <time>2024-11-06T16:47:39Z</time>
      </trkpt>
      <trkpt lat="43.61576" lon="1.40523">
        <ele>132</ele>
        <time>2024-11-06T16:47:40Z</time>
      </trkpt>
      <trkpt lat="43.61574" lon="1.40525">
        <ele>132</ele>
        <time>2024-11-06T16:47:41Z</time>
      </trkpt>
      <trkpt lat="43.61572" lon="1.40527">
        <ele>132</ele>
        <time>2024-11-06T16:47:42Z</time>
      </trkpt>
      <trkpt lat="43.6157" lon="1.40529">
        <ele>132</ele>
        <time>2024-11-06T16:47:43Z</time>
      </trkpt>
      <trkpt lat="43.61568" lon="1.40531">
        <ele>133</ele>
        <time>2024-11-06T16:47:44Z</time>
      </trkpt>
      <trkpt lat="43.61565" lon="1.40533">
        <ele>133</ele>
        <time>2024-11-06T16:47:45Z</time>
      </trkpt>
      <trkpt lat="43.61563" lon="1.40535">
        <ele>133</ele>
        <time>2024-11-06T16:47:46Z</time>
      </trkpt>
      <trkpt lat="43.61559" lon="1.40538">
        <ele>133</ele>
        <time>2024-11-06T16:47:47Z</time>
      </trkpt>
      <trkpt lat="43.61558" lon="1.40539">
        <ele>133</ele>
        <time>2024-11-06T16:47:48Z</time>
      </trkpt>
      <trkpt lat="43.61556" lon="1.40541">
        <ele>133</ele>
        <time>2024-11-06T16:47:49Z</time>
      </trkpt>
      <trkpt lat="43.61554" lon="1.40543">
        <ele>133</ele>
        <time>2024-11-06T16:47:50Z</time>
      </trkpt>
      <trkpt lat="43.61552" lon="1.40545">
        <ele>133</ele>
        <time>2024-11-06T16:47:51Z</time>
      </trkpt>
      <trkpt lat="43.6155" lon="1.40548">
        <ele>133</ele>
        <time>2024-11-06T16:47:52Z</time>
      </trkpt>
      <trkpt lat="43.61548" lon="1.4055">
        <ele>133</ele>
        <time>2024-11-06T16:47:53Z</time>
      </trkpt>
      <trkpt lat="43.61545" lon="1.40552">
        <ele>133</ele>
        <time>2024-11-06T16:47:54Z</time>
      </trkpt>
      <trkpt lat="43.61544" lon="1.40553">
        <ele>133</ele>
        <time>2024-11-06T16:47:55Z</time>
      </trkpt>
      <trkpt lat="43.61542" lon="1.40556">
        <ele>133</ele>
        <time>2024-11-06T16:47:56Z</time>
      </trkpt>
      <trkpt lat="43.6154" lon="1.40558">
        <ele>133</ele>
        <time>2024-11-06T16:47:57Z</time>
      </trkpt>
      <trkpt lat="43.61537" lon="1.4056">
        <ele>133</ele>
        <time>2024-11-06T16:47:58Z</time>
      </trkpt>
      <trkpt lat="43.61535" lon="1.40561">
        <ele>133</ele>
        <time>2024-11-06T16:47:59Z</time>
      </trkpt>
      <trkpt lat="43.61533" lon="1.40564">
        <ele>133</ele>
        <time>2024-11-06T16:48:00Z</time>
      </trkpt>
      <trkpt lat="43.61531" lon="1.40566">
        <ele>133</ele>
        <time>2024-11-06T16:48:01Z</time>
      </trkpt>
      <trkpt lat="43.61528" lon="1.40569">
        <ele>133</ele>
        <time>2024-11-06T16:48:02Z</time>
      </trkpt>
      <trkpt lat="43.61526" lon="1.40571">
        <ele>133</ele>
        <time>2024-11-06T16:48:03Z</time>
      </trkpt>
      <trkpt lat="43.61524" lon="1.40573">
        <ele>133</ele>
        <time>2024-11-06T16:48:04Z</time>
      </trkpt>
      <trkpt lat="43.61521" lon="1.40575">
        <ele>133</ele>
        <time>2024-11-06T16:48:05Z</time>
      </trkpt>
      <trkpt lat="43.61518" lon="1.40579">
        <ele>133</ele>
        <time>2024-11-06T16:48:06Z</time>
      </trkpt>
      <trkpt lat="43.61517" lon="1.4058">
        <ele>133</ele>
        <time>2024-11-06T16:48:07Z</time>
      </trkpt>
      <trkpt lat="43.61515" lon="1.40582">
        <ele>133</ele>
        <time>2024-11-06T16:48:08Z</time>
      </trkpt>
      <trkpt lat="43.61513" lon="1.40584">
        <ele>133</ele>
        <time>2024-11-06T16:48:09Z</time>
      </trkpt>
      <trkpt lat="43.6151" lon="1.40586">
        <ele>133</ele>
        <time>2024-11-06T16:48:10Z</time>
      </trkpt>
      <trkpt lat="43.61508" lon="1.40588">
        <ele>133</ele>
        <time>2024-11-06T16:48:11Z</time>
      </trkpt>
      <trkpt lat="43.61506" lon="1.4059">
        <ele>133</ele>
        <time>2024-11-06T16:48:12Z</time>
      </trkpt>
      <trkpt lat="43.61503" lon="1.40593">
        <ele>133</ele>
        <time>2024-11-06T16:48:13Z</time>
      </trkpt>
      <trkpt lat="43.61502" lon="1.40594">
        <ele>133</ele>
        <time>2024-11-06T16:48:14Z</time>
      </trkpt>
      <trkpt lat="43.61501" lon="1.40596">
        <ele>133</ele>
        <time>2024-11-06T16:48:15Z</time>
      </trkpt>
      <trkpt lat="43.61499" lon="1.40598">
        <ele>133</ele>
        <time>2024-11-06T16:48:16Z</time>
      </trkpt>
      <trkpt lat="43.61497" lon="1.406">
        <ele>133</ele>
        <time>2024-11-06T16:48:17Z</time>
      </trkpt>
      <trkpt lat="43.61495" lon="1.40603">
        <ele>133</ele>
        <time>2024-11-06T16:48:18Z</time>
      </trkpt>
      <trkpt lat="43.61493" lon="1.40605">
        <ele>133</ele>
        <time>2024-11-06T16:48:19Z</time>
      </trkpt>
      <trkpt lat="43.61491" lon="1.40607">
        <ele>133</ele>
        <time>2024-11-06T16:48:20Z</time>
      </trkpt>
      <trkpt lat="43.61489" lon="1.40609">
        <ele>133</ele>
        <time>2024-11-06T16:48:21Z</time>
      </trkpt>
      <trkpt lat="43.61488" lon="1.40612">
        <ele>133</ele>
        <time>2024-11-06T16:48:22Z</time>
      </trkpt>
      <trkpt lat="43.61485" lon="1.40614">
        <ele>133</ele>
        <time>2024-11-06T16:48:23Z</time>
      </trkpt>
      <trkpt lat="43.61483" lon="1.40616">
        <ele>133</ele>
        <time>2024-11-06T16:48:24Z</time>
      </trkpt>
      <trkpt lat="43.61481" lon="1.40619">
        <ele>133</ele>
        <time>2024-11-06T16:48:25Z</time>
      </trkpt>
      <trkpt lat="43.6148" lon="1.4062">
        <ele>133</ele>
        <time>2024-11-06T16:48:26Z</time>
      </trkpt>
      <trkpt lat="43.61478" lon="1.40622">
        <ele>133</ele>
        <time>2024-11-06T16:48:27Z</time>
      </trkpt>
      <trkpt lat="43.61476" lon="1.40625">
        <ele>133</ele>
        <time>2024-11-06T16:48:28Z</time>
      </trkpt>
      <trkpt lat="43.61474" lon="1.40627">
        <ele>133</ele>
        <time>2024-11-06T16:48:29Z</time>
      </trkpt>
      <trkpt lat="43.61471" lon="1.40629">
        <ele>133</ele>
        <time>2024-11-06T16:48:30Z</time>
      </trkpt>
      <trkpt lat="43.61469" lon="1.40631">
        <ele>133</ele>
        <time>2024-11-06T16:48:31Z</time>
      </trkpt>
      <trkpt lat="43.61467" lon="1.40634">
        <ele>133</ele>
        <time>2024-11-06T16:48:32Z</time>
      </trkpt>
      <trkpt lat="43.61464" lon="1.40637">
        <ele>133</ele>
        <time>2024-11-06T16:48:33Z</time>
      </trkpt>
      <trkpt lat="43.61463" lon="1.40638">
        <ele>133</ele>
        <time>2024-11-06T16:48:34Z</time>
      </trkpt>
      <trkpt lat="43.61461" lon="1.4064">
        <ele>133</ele>
        <time>2024-11-06T16:48:35Z</time>
      </trkpt>
      <trkpt lat="43.61459" lon="1.40643">
        <ele>133</ele>
        <time>2024-11-06T16:48:36Z</time>
      </trkpt>
      <trkpt lat="43.61457" lon="1.40645">
        <ele>134</ele>
        <time>2024-11-06T16:48:37Z</time>
      </trkpt>
      <trkpt lat="43.61455" lon="1.40647">
        <ele>134</ele>
        <time>2024-11-06T16:48:38Z</time>
      </trkpt>
      <trkpt lat="43.61454" lon="1.40649">
        <ele>134</ele>
        <time>2024-11-06T16:48:39Z</time>
      </trkpt>
      <trkpt lat="43.61452" lon="1.40652">
        <ele>134</ele>
        <time>2024-11-06T16:48:40Z</time>
      </trkpt>
      <trkpt lat="43.6145" lon="1.40654">
        <ele>134</ele>
        <time>2024-11-06T16:48:41Z</time>
      </trkpt>
      <trkpt lat="43.61448" lon="1.40656">
        <ele>134</ele>
        <time>2024-11-06T16:48:42Z</time>
      </trkpt>
      <trkpt lat="43.61446" lon="1.40658">
        <ele>134</ele>
        <time>2024-11-06T16:48:43Z</time>
      </trkpt>
      <trkpt lat="43.61443" lon="1.40661">
        <ele>134</ele>
        <time>2024-11-06T16:48:44Z</time>
      </trkpt>
      <trkpt lat="43.61442" lon="1.40662">
        <ele>134</ele>
        <time>2024-11-06T16:48:45Z</time>
      </trkpt>
      <trkpt lat="43.61441" lon="1.40664">
        <ele>134</ele>
        <time>2024-11-06T16:48:46Z</time>
      </trkpt>
      <trkpt lat="43.61439" lon="1.40666">
        <ele>134</ele>
        <time>2024-11-06T16:48:47Z</time>
      </trkpt>
      <trkpt lat="43.61437" lon="1.40668">
        <ele>134</ele>
        <time>2024-11-06T16:48:48Z</time>
      </trkpt>
      <trkpt lat="43.61435" lon="1.4067">
        <ele>134</ele>
        <time>2024-11-06T16:48:49Z</time>
      </trkpt>
      <trkpt lat="43.61433" lon="1.40672">
        <ele>134</ele>
        <time>2024-11-06T16:48:50Z</time>
      </trkpt>
      <trkpt lat="43.61431" lon="1.40674">
        <ele>134</ele>
        <time>2024-11-06T16:48:51Z</time>
      </trkpt>
      <trkpt lat="43.61429" lon="1.40676">
        <ele>134</ele>
        <time>2024-11-06T16:48:52Z</time>
      </trkpt>
      <trkpt lat="43.61426" lon="1.4068">
        <ele>134</ele>
        <time>2024-11-06T16:48:53Z</time>
      </trkpt>
      <trkpt lat="43.61425" lon="1.40681">
        <ele>134</ele>
        <time>2024-11-06T16:48:54Z</time>
      </trkpt>
      <trkpt lat="43.61423" lon="1.40683">
        <ele>134</ele>
        <time>2024-11-06T16:48:55Z</time>
      </trkpt>
      <trkpt lat="43.61421" lon="1.40685">
        <ele>134</ele>
        <time>2024-11-06T16:48:56Z</time>
      </trkpt>
      <trkpt lat="43.61419" lon="1.40687">
        <ele>134</ele>
        <time>2024-11-06T16:48:57Z</time>
      </trkpt>
      <trkpt lat="43.61417" lon="1.40689">
        <ele>134</ele>
        <time>2024-11-06T16:48:58Z</time>
      </trkpt>
      <trkpt lat="43.61415" lon="1.40691">
        <ele>134</ele>
        <time>2024-11-06T16:48:59Z</time>
      </trkpt>
      <trkpt lat="43.61413" lon="1.40693">
        <ele>134</ele>
        <time>2024-11-06T16:49:00Z</time>
      </trkpt>
      <trkpt lat="43.61411" lon="1.40696">
        <ele>134</ele>
        <time>2024-11-06T16:49:01Z</time>
      </trkpt>
      <trkpt lat="43.61409" lon="1.40698">
        <ele>134</ele>
        <time>2024-11-06T16:49:02Z</time>
      </trkpt>
      <trkpt lat="43.61406" lon="1.40702">
        <ele>134</ele>
        <time>2024-11-06T16:49:03Z</time>
      </trkpt>
      <trkpt lat="43.61405" lon="1.40703">
        <ele>134</ele>
        <time>2024-11-06T16:49:04Z</time>
      </trkpt>
      <trkpt lat="43.61403" lon="1.40705">
        <ele>134</ele>
        <time>2024-11-06T16:49:05Z</time>
      </trkpt>
      <trkpt lat="43.61401" lon="1.40708">
        <ele>134</ele>
        <time>2024-11-06T16:49:06Z</time>
      </trkpt>
      <trkpt lat="43.61399" lon="1.4071">
        <ele>134</ele>
        <time>2024-11-06T16:49:07Z</time>
      </trkpt>
      <trkpt lat="43.61397" lon="1.40711">
        <ele>134</ele>
        <time>2024-11-06T16:49:08Z</time>
      </trkpt>
      <trkpt lat="43.61395" lon="1.40713">
        <ele>134</ele>
        <time>2024-11-06T16:49:09Z</time>
      </trkpt>
      <trkpt lat="43.61393" lon="1.40716">
        <ele>134</ele>
        <time>2024-11-06T16:49:10Z</time>
      </trkpt>
      <trkpt lat="43.61391" lon="1.40718">
        <ele>134</ele>
        <time>2024-11-06T16:49:11Z</time>
      </trkpt>
      <trkpt lat="43.61389" lon="1.4072">
        <ele>134</ele>
        <time>2024-11-06T16:49:12Z</time>
      </trkpt>
      <trkpt lat="43.61386" lon="1.40724">
        <ele>134</ele>
        <time>2024-11-06T16:49:13Z</time>
      </trkpt>
      <trkpt lat="43.61385" lon="1.40725">
        <ele>134</ele>
        <time>2024-11-06T16:49:14Z</time>
      </trkpt>
      <trkpt lat="43.61383" lon="1.40728">
        <ele>134</ele>
        <time>2024-11-06T16:49:15Z</time>
      </trkpt>
      <trkpt lat="43.61381" lon="1.4073">
        <ele>134</ele>
        <time>2024-11-06T16:49:16Z</time>
      </trkpt>
      <trkpt lat="43.61378" lon="1.40733">
        <ele>134</ele>
        <time>2024-11-06T16:49:17Z</time>
      </trkpt>
      <trkpt lat="43.61376" lon="1.40735">
        <ele>134</ele>
        <time>2024-11-06T16:49:18Z</time>
      </trkpt>
      <trkpt lat="43.61374" lon="1.40737">
        <ele>134</ele>
        <time>2024-11-06T16:49:19Z</time>
      </trkpt>
      <trkpt lat="43.61372" lon="1.40739">
        <ele>134</ele>
        <time>2024-11-06T16:49:20Z</time>
      </trkpt>
      <trkpt lat="43.6137" lon="1.40742">
        <ele>134</ele>
        <time>2024-11-06T16:49:21Z</time>
      </trkpt>
      <trkpt lat="43.61367" lon="1.40745">
        <ele>134</ele>
        <time>2024-11-06T16:49:22Z</time>
      </trkpt>
      <trkpt lat="43.61366" lon="1.40747">
        <ele>134</ele>
        <time>2024-11-06T16:49:23Z</time>
      </trkpt>
      <trkpt lat="43.61364" lon="1.40749">
        <ele>134</ele>
        <time>2024-11-06T16:49:24Z</time>
      </trkpt>
      <trkpt lat="43.61363" lon="1.40751">
        <ele>134</ele>
        <time>2024-11-06T16:49:25Z</time>
      </trkpt>
      <trkpt lat="43.61361" lon="1.40753">
        <ele>134</ele>
        <time>2024-11-06T16:49:26Z</time>
      </trkpt>
      <trkpt lat="43.61359" lon="1.40755">
        <ele>134</ele>
        <time>2024-11-06T16:49:27Z</time>
      </trkpt>
      <trkpt lat="43.61357" lon="1.40757">
        <ele>134</ele>
        <time>2024-11-06T16:49:28Z</time>
      </trkpt>
      <trkpt lat="43.61355" lon="1.4076">
        <ele>134</ele>
        <time>2024-11-06T16:49:29Z</time>
      </trkpt>
      <trkpt lat="43.61353" lon="1.40762">
        <ele>134</ele>
        <time>2024-11-06T16:49:30Z</time>
      </trkpt>
      <trkpt lat="43.61351" lon="1.40764">
        <ele>134</ele>
        <time>2024-11-06T16:49:31Z</time>
      </trkpt>
      <trkpt lat="43.61348" lon="1.40768">
        <ele>134</ele>
        <time>2024-11-06T16:49:32Z</time>
      </trkpt>
      <trkpt lat="43.61346" lon="1.40769">
        <ele>134</ele>
        <time>2024-11-06T16:49:33Z</time>
      </trkpt>
      <trkpt lat="43.61345" lon="1.40771">
        <ele>134</ele>
        <time>2024-11-06T16:49:34Z</time>
      </trkpt>
      <trkpt lat="43.61343" lon="1.40773">
        <ele>134</ele>
        <time>2024-11-06T16:49:35Z</time>
      </trkpt>
      <trkpt lat="43.61341" lon="1.40776">
        <ele>134</ele>
        <time>2024-11-06T16:49:36Z</time>
      </trkpt>
      <trkpt lat="43.61339" lon="1.40778">
        <ele>134</ele>
        <time>2024-11-06T16:49:37Z</time>
      </trkpt>
      <trkpt lat="43.61337" lon="1.40781">
        <ele>134</ele>
        <time>2024-11-06T16:49:38Z</time>
      </trkpt>
      <trkpt lat="43.61335" lon="1.40783">
        <ele>134</ele>
        <time>2024-11-06T16:49:39Z</time>
      </trkpt>
      <trkpt lat="43.61332" lon="1.40785">
        <ele>134</ele>
        <time>2024-11-06T16:49:40Z</time>
      </trkpt>
      <trkpt lat="43.61329" lon="1.40788">
        <ele>134</ele>
        <time>2024-11-06T16:49:41Z</time>
      </trkpt>
      <trkpt lat="43.61328" lon="1.4079">
        <ele>134</ele>
        <time>2024-11-06T16:49:42Z</time>
      </trkpt>
      <trkpt lat="43.61326" lon="1.40792">
        <ele>134</ele>
        <time>2024-11-06T16:49:43Z</time>
      </trkpt>
      <trkpt lat="43.61324" lon="1.40794">
        <ele>134</ele>
        <time>2024-11-06T16:49:44Z</time>
      </trkpt>
      <trkpt lat="43.61322" lon="1.40796">
        <ele>134</ele>
        <time>2024-11-06T16:49:45Z</time>
      </trkpt>
      <trkpt lat="43.6132" lon="1.40798">
        <ele>134</ele>
        <time>2024-11-06T16:49:46Z</time>
      </trkpt>
      <trkpt lat="43.61318" lon="1.408">
        <ele>134</ele>
        <time>2024-11-06T16:49:47Z</time>
      </trkpt>
      <trkpt lat="43.61317" lon="1.40802">
        <ele>134</ele>
        <time>2024-11-06T16:49:48Z</time>
      </trkpt>
      <trkpt lat="43.61315" lon="1.40804">
        <ele>134</ele>
        <time>2024-11-06T16:49:49Z</time>
      </trkpt>
      <trkpt lat="43.61313" lon="1.40806">
        <ele>134</ele>
        <time>2024-11-06T16:49:50Z</time>
      </trkpt>
      <trkpt lat="43.6131" lon="1.40809">
        <ele>134</ele>
        <time>2024-11-06T16:49:51Z</time>
      </trkpt>
      <trkpt lat="43.61309" lon="1.40811">
        <ele>134</ele>
        <time>2024-11-06T16:49:52Z</time>
      </trkpt>
      <trkpt lat="43.61307" lon="1.40813">
        <ele>134</ele>
        <time>2024-11-06T16:49:53Z</time>
      </trkpt>
      <trkpt lat="43.61305" lon="1.40815">
        <ele>134</ele>
        <time>2024-11-06T16:49:54Z</time>
      </trkpt>
      <trkpt lat="43.61303" lon="1.40817">
        <ele>134</ele>
        <time>2024-11-06T16:49:55Z</time>
      </trkpt>
      <trkpt lat="43.61302" lon="1.4082">
        <ele>134</ele>
        <time>2024-11-06T16:49:56Z</time>
      </trkpt>
      <trkpt lat="43.613" lon="1.40822">
        <ele>134</ele>
        <time>2024-11-06T16:49:57Z</time>
      </trkpt>
      <trkpt lat="43.61298" lon="1.40824">
        <ele>134</ele>
        <time>2024-11-06T16:49:58Z</time>
      </trkpt>
      <trkpt lat="43.61296" lon="1.40826">
        <ele>134</ele>
        <time>2024-11-06T16:49:59Z</time>
      </trkpt>
      <trkpt lat="43.61293" lon="1.40829">
        <ele>134</ele>
        <time>2024-11-06T16:50:00Z</time>
      </trkpt>
      <trkpt lat="43.61293" lon="1.4083">
        <ele>134</ele>
        <time>2024-11-06T16:50:01Z</time>
      </trkpt>
      <trkpt lat="43.61291" lon="1.40832">
        <ele>134</ele>
        <time>2024-11-06T16:50:02Z</time>
      </trkpt>
      <trkpt lat="43.61289" lon="1.40834">
        <ele>134</ele>
        <time>2024-11-06T16:50:03Z</time>
      </trkpt>
      <trkpt lat="43.61287" lon="1.40836">
        <ele>134</ele>
        <time>2024-11-06T16:50:04Z</time>
      </trkpt>
      <trkpt lat="43.61285" lon="1.40839">
        <ele>134</ele>
        <time>2024-11-06T16:50:05Z</time>
      </trkpt>
      <trkpt lat="43.61283" lon="1.40841">
        <ele>134</ele>
        <time>2024-11-06T16:50:06Z</time>
      </trkpt>
      <trkpt lat="43.61281" lon="1.40843">
        <ele>134</ele>
        <time>2024-11-06T16:50:07Z</time>
      </trkpt>
      <trkpt lat="43.61279" lon="1.40845">
        <ele>134</ele>
        <time>2024-11-06T16:50:08Z</time>
      </trkpt>
      <trkpt lat="43.61277" lon="1.40847">
        <ele>134</ele>
        <time>2024-11-06T16:50:09Z</time>
      </trkpt>
      <trkpt lat="43.61275" lon="1.40849">
        <ele>134</ele>
        <time>2024-11-06T16:50:10Z</time>
      </trkpt>
      <trkpt lat="43.61273" lon="1.40851">
        <ele>134</ele>
        <time>2024-11-06T16:50:11Z</time>
      </trkpt>
      <trkpt lat="43.6127" lon="1.40854">
        <ele>134</ele>
        <time>2024-11-06T16:50:12Z</time>
      </trkpt>
      <trkpt lat="43.61269" lon="1.40855">
        <ele>134</ele>
        <time>2024-11-06T16:50:13Z</time>
      </trkpt>
      <trkpt lat="43.61267" lon="1.40857">
        <ele>134</ele>
        <time>2024-11-06T16:50:14Z</time>
      </trkpt>
      <trkpt lat="43.61265" lon="1.4086">
        <ele>134</ele>
        <time>2024-11-06T16:50:15Z</time>
      </trkpt>
      <trkpt lat="43.61263" lon="1.40863">
        <ele>134</ele>
        <time>2024-11-06T16:50:16Z</time>
      </trkpt>
      <trkpt lat="43.61261" lon="1.40865">
        <ele>134</ele>
        <time>2024-11-06T16:50:17Z</time>
      </trkpt>
      <trkpt lat="43.61258" lon="1.40867">
        <ele>134</ele>
        <time>2024-11-06T16:50:18Z</time>
      </trkpt>
      <trkpt lat="43.61256" lon="1.40871">
        <ele>134</ele>
        <time>2024-11-06T16:50:19Z</time>
      </trkpt>
      <trkpt lat="43.61255" lon="1.40873">
        <ele>134</ele>
        <time>2024-11-06T16:50:20Z</time>
      </trkpt>
      <trkpt lat="43.61253" lon="1.40875">
        <ele>134</ele>
        <time>2024-11-06T16:50:21Z</time>
      </trkpt>
      <trkpt lat="43.61252" lon="1.40877">
        <ele>134</ele>
        <time>2024-11-06T16:50:22Z</time>
      </trkpt>
      <trkpt lat="43.6125" lon="1.40879">
        <ele>134</ele>
        <time>2024-11-06T16:50:23Z</time>
      </trkpt>
      <trkpt lat="43.61248" lon="1.40881">
        <ele>134</ele>
        <time>2024-11-06T16:50:24Z</time>
      </trkpt>
      <trkpt lat="43.61246" lon="1.40883">
        <ele>134</ele>
        <time>2024-11-06T16:50:25Z</time>
      </trkpt>
      <trkpt lat="43.61244" lon="1.40885">
        <ele>134</ele>
        <time>2024-11-06T16:50:26Z</time>
      </trkpt>
      <trkpt lat="43.61242" lon="1.40887">
        <ele>134</ele>
        <time>2024-11-06T16:50:27Z</time>
      </trkpt>
      <trkpt lat="43.6124" lon="1.40889">
        <ele>134</ele>
        <time>2024-11-06T16:50:28Z</time>
      </trkpt>
      <trkpt lat="43.61238" lon="1.40892">
        <ele>134</ele>
        <time>2024-11-06T16:50:29Z</time>
      </trkpt>
      <trkpt lat="43.61236" lon="1.40894">
        <ele>134</ele>
        <time>2024-11-06T16:50:30Z</time>
      </trkpt>
      <trkpt lat="43.61233" lon="1.40898">
        <ele>134</ele>
        <time>2024-11-06T16:50:31Z</time>
      </trkpt>
      <trkpt lat="43.61232" lon="1.40899">
        <ele>134</ele>
        <time>2024-11-06T16:50:32Z</time>
      </trkpt>
      <trkpt lat="43.6123" lon="1.40901">
        <ele>134</ele>
        <time>2024-11-06T16:50:33Z</time>
      </trkpt>
      <trkpt lat="43.61228" lon="1.40903">
        <ele>134</ele>
        <time>2024-11-06T16:50:34Z</time>
      </trkpt>
      <trkpt lat="43.61226" lon="1.40905">
        <ele>134</ele>
        <time>2024-11-06T16:50:35Z</time>
      </trkpt>
      <trkpt lat="43.61224" lon="1.40907">
        <ele>134</ele>
        <time>2024-11-06T16:50:36Z</time>
      </trkpt>
      <trkpt lat="43.61222" lon="1.40909">
        <ele>134</ele>
        <time>2024-11-06T16:50:37Z</time>
      </trkpt>
      <trkpt lat="43.61219" lon="1.40912">
        <ele>134</ele>
        <time>2024-11-06T16:50:38Z</time>
      </trkpt>
      <trkpt lat="43.61217" lon="1.40914">
        <ele>134</ele>
        <time>2024-11-06T16:50:39Z</time>
      </trkpt>
      <trkpt lat="43.61216" lon="1.40916">
        <ele>134</ele>
        <time>2024-11-06T16:50:40Z</time>
      </trkpt>
      <trkpt lat="43.61213" lon="1.40918">
        <ele>134</ele>
        <time>2024-11-06T16:50:41Z</time>
      </trkpt>
      <trkpt lat="43.61212" lon="1.40921">
        <ele>134</ele>
        <time>2024-11-06T16:50:42Z</time>
      </trkpt>
      <trkpt lat="43.6121" lon="1.40923">
        <ele>134</ele>
        <time>2024-11-06T16:50:43Z</time>
      </trkpt>
      <trkpt lat="43.61207" lon="1.40926">
        <ele>134</ele>
        <time>2024-11-06T16:50:44Z</time>
      </trkpt>
      <trkpt lat="43.61205" lon="1.40928">
        <ele>134</ele>
        <time>2024-11-06T16:50:45Z</time>
      </trkpt>
      <trkpt lat="43.61203" lon="1.4093">
        <ele>134</ele>
        <time>2024-11-06T16:50:46Z</time>
      </trkpt>
      <trkpt lat="43.61202" lon="1.40932">
        <ele>134</ele>
        <time>2024-11-06T16:50:47Z</time>
      </trkpt>
      <trkpt lat="43.612" lon="1.40935">
        <ele>134</ele>
        <time>2024-11-06T16:50:48Z</time>
      </trkpt>
      <trkpt lat="43.61198" lon="1.40937">
        <ele>134</ele>
        <time>2024-11-06T16:50:49Z</time>
      </trkpt>
      <trkpt lat="43.61194" lon="1.40941">
        <ele>134</ele>
        <time>2024-11-06T16:50:50Z</time>
      </trkpt>
      <trkpt lat="43.61193" lon="1.40942">
        <ele>134</ele>
        <time>2024-11-06T16:50:51Z</time>
      </trkpt>
      <trkpt lat="43.61191" lon="1.40944">
        <ele>134</ele>
        <time>2024-11-06T16:50:52Z</time>
      </trkpt>
      <trkpt lat="43.61189" lon="1.40946">
        <ele>134</ele>
        <time>2024-11-06T16:50:53Z</time>
      </trkpt>
      <trkpt lat="43.61187" lon="1.40949">
        <ele>134</ele>
        <time>2024-11-06T16:50:54Z</time>
      </trkpt>
      <trkpt lat="43.61185" lon="1.40951">
        <ele>134</ele>
        <time>2024-11-06T16:50:55Z</time>
      </trkpt>
      <trkpt lat="43.61183" lon="1.40953">
        <ele>134</ele>
        <time>2024-11-06T16:50:56Z</time>
      </trkpt>
      <trkpt lat="43.6118" lon="1.40956">
        <ele>134</ele>
        <time>2024-11-06T16:50:57Z</time>
      </trkpt>
      <trkpt lat="43.61179" lon="1.40957">
        <ele>134</ele>
        <time>2024-11-06T16:50:58Z</time>
      </trkpt>
      <trkpt lat="43.61177" lon="1.40959">
        <ele>134</ele>
        <time>2024-11-06T16:50:59Z</time>
      </trkpt>
      <trkpt lat="43.61175" lon="1.40961">
        <ele>134</ele>
        <time>2024-11-06T16:51:00Z</time>
      </trkpt>
      <trkpt lat="43.61173" lon="1.40963">
        <ele>134</ele>
        <time>2024-11-06T16:51:01Z</time>
      </trkpt>
      <trkpt lat="43.61171" lon="1.40966">
        <ele>134</ele>
        <time>2024-11-06T16:51:02Z</time>
      </trkpt>
      <trkpt lat="43.61169" lon="1.40968">
        <ele>134</ele>
        <time>2024-11-06T16:51:03Z</time>
      </trkpt>
      <trkpt lat="43.61167" lon="1.40971">
        <ele>134</ele>
        <time>2024-11-06T16:51:04Z</time>
      </trkpt>
      <trkpt lat="43.61165" lon="1.40973">
        <ele>134</ele>
        <time>2024-11-06T16:51:05Z</time>
      </trkpt>
      <trkpt lat="43.61163" lon="1.40975">
        <ele>134</ele>
        <time>2024-11-06T16:51:06Z</time>
      </trkpt>
      <trkpt lat="43.61161" lon="1.40977">
        <ele>134</ele>
        <time>2024-11-06T16:51:07Z</time>
      </trkpt>
      <trkpt lat="43.61159" lon="1.40979">
        <ele>134</ele>
        <time>2024-11-06T16:51:08Z</time>
      </trkpt>
      <trkpt lat="43.61156" lon="1.40982">
        <ele>134</ele>
        <time>2024-11-06T16:51:09Z</time>
      </trkpt>
      <trkpt lat="43.61155" lon="1.40983">
        <ele>134</ele>
        <time>2024-11-06T16:51:10Z</time>
      </trkpt>
      <trkpt lat="43.61153" lon="1.40986">
        <ele>134</ele>
        <time>2024-11-06T16:51:11Z</time>
      </trkpt>
      <trkpt lat="43.61151" lon="1.40988">
        <ele>134</ele>
        <time>2024-11-06T16:51:12Z</time>
      </trkpt>
      <trkpt lat="43.61149" lon="1.40991">
        <ele>134</ele>
        <time>2024-11-06T16:51:13Z</time>
      </trkpt>
      <trkpt lat="43.61146" lon="1.40993">
        <ele>134</ele>
        <time>2024-11-06T16:51:14Z</time>
      </trkpt>
      <trkpt lat="43.61145" lon="1.40995">
        <ele>134</ele>
        <time>2024-11-06T16:51:15Z</time>
      </trkpt>
      <trkpt lat="43.61142" lon="1.40998">
        <ele>134</ele>
        <time>2024-11-06T16:51:16Z</time>
      </trkpt>
      <trkpt lat="43.6114" lon="1.40999">
        <ele>134</ele>
        <time>2024-11-06T16:51:17Z</time>
      </trkpt>
      <trkpt lat="43.61139" lon="1.41001">
        <ele>134</ele>
        <time>2024-11-06T16:51:18Z</time>
      </trkpt>
      <trkpt lat="43.61137" lon="1.41003">
        <ele>134</ele>
        <time>2024-11-06T16:51:19Z</time>
      </trkpt>
      <trkpt lat="43.61135" lon="1.41005">
        <ele>134</ele>
        <time>2024-11-06T16:51:20Z</time>
      </trkpt>
      <trkpt lat="43.61134" lon="1.41007">
        <ele>134</ele>
        <time>2024-11-06T16:51:21Z</time>
      </trkpt>
      <trkpt lat="43.61132" lon="1.41009">
        <ele>134</ele>
        <time>2024-11-06T16:51:22Z</time>
      </trkpt>
      <trkpt lat="43.6113" lon="1.41011">
        <ele>134</ele>
        <time>2024-11-06T16:51:23Z</time>
      </trkpt>
      <trkpt lat="43.61128" lon="1.41013">
        <ele>134</ele>
        <time>2024-11-06T16:51:24Z</time>
      </trkpt>
      <trkpt lat="43.61126" lon="1.41015">
        <ele>134</ele>
        <time>2024-11-06T16:51:25Z</time>
      </trkpt>
      <trkpt lat="43.61124" lon="1.41017">
        <ele>134</ele>
        <time>2024-11-06T16:51:26Z</time>
      </trkpt>
      <trkpt lat="43.61122" lon="1.41019">
        <ele>134</ele>
        <time>2024-11-06T16:51:27Z</time>
      </trkpt>
      <trkpt lat="43.6112" lon="1.41022">
        <ele>134</ele>
        <time>2024-11-06T16:51:28Z</time>
      </trkpt>
      <trkpt lat="43.61119" lon="1.41024">
        <ele>134</ele>
        <time>2024-11-06T16:51:29Z</time>
      </trkpt>
      <trkpt lat="43.61116" lon="1.41028">
        <ele>134</ele>
        <time>2024-11-06T16:51:30Z</time>
      </trkpt>
      <trkpt lat="43.61115" lon="1.41029">
        <ele>134</ele>
        <time>2024-11-06T16:51:31Z</time>
      </trkpt>
      <trkpt lat="43.61113" lon="1.41032">
        <ele>134</ele>
        <time>2024-11-06T16:51:32Z</time>
      </trkpt>
      <trkpt lat="43.61111" lon="1.41034">
        <ele>134</ele>
        <time>2024-11-06T16:51:33Z</time>
      </trkpt>
      <trkpt lat="43.61109" lon="1.41036">
        <ele>134</ele>
        <time>2024-11-06T16:51:34Z</time>
      </trkpt>
      <trkpt lat="43.61106" lon="1.41039">
        <ele>134</ele>
        <time>2024-11-06T16:51:35Z</time>
      </trkpt>
      <trkpt lat="43.61105" lon="1.41041">
        <ele>134</ele>
        <time>2024-11-06T16:51:36Z</time>
      </trkpt>
      <trkpt lat="43.61103" lon="1.41043">
        <ele>134</ele>
        <time>2024-11-06T16:51:37Z</time>
      </trkpt>
      <trkpt lat="43.61101" lon="1.41046">
        <ele>134</ele>
        <time>2024-11-06T16:51:38Z</time>
      </trkpt>
      <trkpt lat="43.61099" lon="1.41048">
        <ele>134</ele>
        <time>2024-11-06T16:51:39Z</time>
      </trkpt>
      <trkpt lat="43.61098" lon="1.41051">
        <ele>134</ele>
        <time>2024-11-06T16:51:40Z</time>
      </trkpt>
      <trkpt lat="43.61096" lon="1.41053">
        <ele>134</ele>
        <time>2024-11-06T16:51:41Z</time>
      </trkpt>
      <trkpt lat="43.61094" lon="1.41056">
        <ele>134</ele>
        <time>2024-11-06T16:51:42Z</time>
      </trkpt>
      <trkpt lat="43.61092" lon="1.41058">
        <ele>134</ele>
        <time>2024-11-06T16:51:43Z</time>
      </trkpt>
      <trkpt lat="43.61091" lon="1.41061">
        <ele>134</ele>
        <time>2024-11-06T16:51:44Z</time>
      </trkpt>
      <trkpt lat="43.61089" lon="1.41063">
        <ele>134</ele>
        <time>2024-11-06T16:51:45Z</time>
      </trkpt>
      <trkpt lat="43.61087" lon="1.41066">
        <ele>134</ele>
        <time>2024-11-06T16:51:46Z</time>
      </trkpt>
      <trkpt lat="43.61085" lon="1.41068">
        <ele>134</ele>
        <time>2024-11-06T16:51:47Z</time>
      </trkpt>
      <trkpt lat="43.61083" lon="1.41071">
        <ele>134</ele>
        <time>2024-11-06T16:51:48Z</time>
      </trkpt>
      <trkpt lat="43.61081" lon="1.41074">
        <ele>134</ele>
        <time>2024-11-06T16:51:49Z</time>
      </trkpt>
      <trkpt lat="43.6108" lon="1.41075">
        <ele>134</ele>
        <time>2024-11-06T16:51:50Z</time>
      </trkpt>
      <trkpt lat="43.61078" lon="1.41078">
        <ele>134</ele>
        <time>2024-11-06T16:51:51Z</time>
      </trkpt>
      <trkpt lat="43.61076" lon="1.41081">
        <ele>134</ele>
        <time>2024-11-06T16:51:52Z</time>
      </trkpt>
      <trkpt lat="43.61074" lon="1.41083">
        <ele>134</ele>
        <time>2024-11-06T16:51:53Z</time>
      </trkpt>
      <trkpt lat="43.61072" lon="1.41087">
        <ele>134</ele>
        <time>2024-11-06T16:51:54Z</time>
      </trkpt>
      <trkpt lat="43.61071" lon="1.41088">
        <ele>134</ele>
        <time>2024-11-06T16:51:55Z</time>
      </trkpt>
      <trkpt lat="43.6107" lon="1.41091">
        <ele>134</ele>
        <time>2024-11-06T16:51:56Z</time>
      </trkpt>
      <trkpt lat="43.61067" lon="1.41093">
        <ele>134</ele>
        <time>2024-11-06T16:51:57Z</time>
      </trkpt>
      <trkpt lat="43.61066" lon="1.41096">
        <ele>134</ele>
        <time>2024-11-06T16:51:58Z</time>
      </trkpt>
      <trkpt lat="43.61064" lon="1.41098">
        <ele>134</ele>
        <time>2024-11-06T16:51:59Z</time>
      </trkpt>
      <trkpt lat="43.61062" lon="1.41101">
        <ele>134</ele>
        <time>2024-11-06T16:52:00Z</time>
      </trkpt>
      <trkpt lat="43.6106" lon="1.41104">
        <ele>134</ele>
        <time>2024-11-06T16:52:01Z</time>
      </trkpt>
      <trkpt lat="43.61058" lon="1.41106">
        <ele>134</ele>
        <time>2024-11-06T16:52:02Z</time>
      </trkpt>
      <trkpt lat="43.61056" lon="1.41109">
        <ele>134</ele>
        <time>2024-11-06T16:52:03Z</time>
      </trkpt>
      <trkpt lat="43.61054" lon="1.41111">
        <ele>134</ele>
        <time>2024-11-06T16:52:04Z</time>
      </trkpt>
      <trkpt lat="43.61053" lon="1.41114">
        <ele>134</ele>
        <time>2024-11-06T16:52:05Z</time>
      </trkpt>
      <trkpt lat="43.61051" lon="1.41117">
        <ele>134</ele>
        <time>2024-11-06T16:52:06Z</time>
      </trkpt>
      <trkpt lat="43.61049" lon="1.41119">
        <ele>134</ele>
        <time>2024-11-06T16:52:07Z</time>
      </trkpt>
      <trkpt lat="43.61048" lon="1.41122">
        <ele>134</ele>
        <time>2024-11-06T16:52:08Z</time>
      </trkpt>
      <trkpt lat="43.61045" lon="1.41126">
        <ele>134</ele>
        <time>2024-11-06T16:52:09Z</time>
      </trkpt>
      <trkpt lat="43.61044" lon="1.41128">
        <ele>134</ele>
        <time>2024-11-06T16:52:10Z</time>
      </trkpt>
      <trkpt lat="43.61042" lon="1.41131">
        <ele>134</ele>
        <time>2024-11-06T16:52:11Z</time>
      </trkpt>
      <trkpt lat="43.61041" lon="1.41133">
        <ele>134</ele>
        <time>2024-11-06T16:52:12Z</time>
      </trkpt>
      <trkpt lat="43.61038" lon="1.41137">
        <ele>134</ele>
        <time>2024-11-06T16:52:13Z</time>
      </trkpt>
      <trkpt lat="43.61038" lon="1.41138">
        <ele>134</ele>
        <time>2024-11-06T16:52:14Z</time>
      </trkpt>
      <trkpt lat="43.61036" lon="1.41141">
        <ele>134</ele>
        <time>2024-11-06T16:52:15Z</time>
      </trkpt>
      <trkpt lat="43.61035" lon="1.41144">
        <ele>134</ele>
        <time>2024-11-06T16:52:16Z</time>
      </trkpt>
      <trkpt lat="43.61033" lon="1.41147">
        <ele>134</ele>
        <time>2024-11-06T16:52:17Z</time>
      </trkpt>
      <trkpt lat="43.61031" lon="1.41149">
        <ele>134</ele>
        <time>2024-11-06T16:52:18Z</time>
      </trkpt>
      <trkpt lat="43.61029" lon="1.41152">
        <ele>134</ele>
        <time>2024-11-06T16:52:19Z</time>
      </trkpt>
      <trkpt lat="43.61028" lon="1.41155">
        <ele>134</ele>
        <time>2024-11-06T16:52:20Z</time>
      </trkpt>
      <trkpt lat="43.61026" lon="1.41157">
        <ele>134</ele>
        <time>2024-11-06T16:52:21Z</time>
      </trkpt>
      <trkpt lat="43.61025" lon="1.4116">
        <ele>134</ele>
        <time>2024-11-06T16:52:22Z</time>
      </trkpt>
      <trkpt lat="43.61023" lon="1.41163">
        <ele>134</ele>
        <time>2024-11-06T16:52:23Z</time>
      </trkpt>
      <trkpt lat="43.61022" lon="1.41165">
        <ele>134</ele>
        <time>2024-11-06T16:52:24Z</time>
      </trkpt>
      <trkpt lat="43.6102" lon="1.41167">
        <ele>134</ele>
        <time>2024-11-06T16:52:25Z</time>
      </trkpt>
      <trkpt lat="43.61019" lon="1.4117">
        <ele>134</ele>
        <time>2024-11-06T16:52:26Z</time>
      </trkpt>
      <trkpt lat="43.61017" lon="1.41173">
        <ele>134</ele>
        <time>2024-11-06T16:52:27Z</time>
      </trkpt>
      <trkpt lat="43.61016" lon="1.41176">
        <ele>134</ele>
        <time>2024-11-06T16:52:28Z</time>
      </trkpt>
      <trkpt lat="43.61014" lon="1.4118">
        <ele>134</ele>
        <time>2024-11-06T16:52:29Z</time>
      </trkpt>
      <trkpt lat="43.61013" lon="1.41181">
        <ele>134</ele>
        <time>2024-11-06T16:52:30Z</time>
      </trkpt>
      <trkpt lat="43.61011" lon="1.41184">
        <ele>134</ele>
        <time>2024-11-06T16:52:31Z</time>
      </trkpt>
      <trkpt lat="43.61008" lon="1.41188">
        <ele>134</ele>
        <time>2024-11-06T16:52:32Z</time>
      </trkpt>
      <trkpt lat="43.61007" lon="1.4119">
        <ele>134</ele>
        <time>2024-11-06T16:52:33Z</time>
      </trkpt>
      <trkpt lat="43.61005" lon="1.41193">
        <ele>134</ele>
        <time>2024-11-06T16:52:34Z</time>
      </trkpt>
      <trkpt lat="43.61004" lon="1.41196">
        <ele>134</ele>
        <time>2024-11-06T16:52:35Z</time>
      </trkpt>
      <trkpt lat="43.61002" lon="1.41199">
        <ele>134</ele>
        <time>2024-11-06T16:52:36Z</time>
      </trkpt>
      <trkpt lat="43.61" lon="1.41202">
        <ele>134</ele>
        <time>2024-11-06T16:52:37Z</time>
      </trkpt>
      <trkpt lat="43.60999" lon="1.41205">
        <ele>134</ele>
        <time>2024-11-06T16:52:38Z</time>
      </trkpt>
      <trkpt lat="43.60997" lon="1.41208">
        <ele>134</ele>
        <time>2024-11-06T16:52:39Z</time>
      </trkpt>
      <trkpt lat="43.60995" lon="1.41211">
        <ele>134</ele>
        <time>2024-11-06T16:52:40Z</time>
      </trkpt>
      <trkpt lat="43.60993" lon="1.41214">
        <ele>135</ele>
        <time>2024-11-06T16:52:41Z</time>
      </trkpt>
      <trkpt lat="43.60991" lon="1.41217">
        <ele>135</ele>
        <time>2024-11-06T16:52:42Z</time>
      </trkpt>
      <trkpt lat="43.60989" lon="1.4122">
        <ele>135</ele>
        <time>2024-11-06T16:52:43Z</time>
      </trkpt>
      <trkpt lat="43.60988" lon="1.41223">
        <ele>135</ele>
        <time>2024-11-06T16:52:44Z</time>
      </trkpt>
      <trkpt lat="43.60986" lon="1.41226">
        <ele>135</ele>
        <time>2024-11-06T16:52:45Z</time>
      </trkpt>
      <trkpt lat="43.60984" lon="1.41228">
        <ele>135</ele>
        <time>2024-11-06T16:52:46Z</time>
      </trkpt>
      <trkpt lat="43.60982" lon="1.41233">
        <ele>135</ele>
        <time>2024-11-06T16:52:47Z</time>
      </trkpt>
      <trkpt lat="43.60981" lon="1.41234">
        <ele>135</ele>
        <time>2024-11-06T16:52:48Z</time>
      </trkpt>
      <trkpt lat="43.6098" lon="1.41237">
        <ele>135</ele>
        <time>2024-11-06T16:52:49Z</time>
      </trkpt>
      <trkpt lat="43.60978" lon="1.4124">
        <ele>135</ele>
        <time>2024-11-06T16:52:50Z</time>
      </trkpt>
      <trkpt lat="43.60976" lon="1.41244">
        <ele>135</ele>
        <time>2024-11-06T16:52:51Z</time>
      </trkpt>
      <trkpt lat="43.60975" lon="1.41245">
        <ele>134</ele>
        <time>2024-11-06T16:52:52Z</time>
      </trkpt>
      <trkpt lat="43.60974" lon="1.41248">
        <ele>134</ele>
        <time>2024-11-06T16:52:53Z</time>
      </trkpt>
      <trkpt lat="43.60973" lon="1.41251">
        <ele>134</ele>
        <time>2024-11-06T16:52:54Z</time>
      </trkpt>
      <trkpt lat="43.60971" lon="1.41253">
        <ele>134</ele>
        <time>2024-11-06T16:52:55Z</time>
      </trkpt>
      <trkpt lat="43.6097" lon="1.41256">
        <ele>134</ele>
        <time>2024-11-06T16:52:56Z</time>
      </trkpt>
      <trkpt lat="43.60971" lon="1.41255">
        <ele>134</ele>
        <time>2024-11-06T16:52:57Z</time>
      </trkpt>
      <trkpt lat="43.60971" lon="1.41253">
        <ele>134</ele>
        <time>2024-11-06T16:52:58Z</time>
      </trkpt>
      <trkpt lat="43.60971" lon="1.41252">
        <ele>134</ele>
        <time>2024-11-06T16:52:59Z</time>
      </trkpt>
      <trkpt lat="43.60972" lon="1.41251">
        <ele>134</ele>
        <time>2024-11-06T16:53:00Z</time>
      </trkpt>
      <trkpt lat="43.60973" lon="1.41248">
        <ele>134</ele>
        <time>2024-11-06T16:53:01Z</time>
      </trkpt>
      <trkpt lat="43.60975" lon="1.41245">
        <ele>134</ele>
        <time>2024-11-06T16:53:02Z</time>
      </trkpt>
      <trkpt lat="43.60977" lon="1.41242">
        <ele>134</ele>
        <time>2024-11-06T16:53:03Z</time>
      </trkpt>
      <trkpt lat="43.60979" lon="1.41239">
        <ele>134</ele>
        <time>2024-11-06T16:53:04Z</time>
      </trkpt>
      <trkpt lat="43.6098" lon="1.41235">
        <ele>134</ele>
        <time>2024-11-06T16:53:05Z</time>
      </trkpt>
      <trkpt lat="43.60982" lon="1.41233">
        <ele>134</ele>
        <time>2024-11-06T16:53:06Z</time>
      </trkpt>
      <trkpt lat="43.60983" lon="1.4123">
        <ele>134</ele>
        <time>2024-11-06T16:53:07Z</time>
      </trkpt>
      <trkpt lat="43.60985" lon="1.41227">
        <ele>134</ele>
        <time>2024-11-06T16:53:08Z</time>
      </trkpt>
      <trkpt lat="43.60986" lon="1.41223">
        <ele>134</ele>
        <time>2024-11-06T16:53:09Z</time>
      </trkpt>
      <trkpt lat="43.60988" lon="1.4122">
        <ele>134</ele>
        <time>2024-11-06T16:53:10Z</time>
      </trkpt>
      <trkpt lat="43.60989" lon="1.41216">
        <ele>134</ele>
        <time>2024-11-06T16:53:11Z</time>
      </trkpt>
      <trkpt lat="43.60991" lon="1.41213">
        <ele>134</ele>
        <time>2024-11-06T16:53:12Z</time>
      </trkpt>
      <trkpt lat="43.60992" lon="1.4121">
        <ele>134</ele>
        <time>2024-11-06T16:53:13Z</time>
      </trkpt>
      <trkpt lat="43.60994" lon="1.41207">
        <ele>134</ele>
        <time>2024-11-06T16:53:14Z</time>
      </trkpt>
      <trkpt lat="43.60996" lon="1.41204">
        <ele>134</ele>
        <time>2024-11-06T16:53:15Z</time>
      </trkpt>
      <trkpt lat="43.60997" lon="1.41201">
        <ele>134</ele>
        <time>2024-11-06T16:53:16Z</time>
      </trkpt>
      <trkpt lat="43.60999" lon="1.41198">
        <ele>134</ele>
        <time>2024-11-06T16:53:17Z</time>
      </trkpt>
      <trkpt lat="43.61001" lon="1.41195">
        <ele>134</ele>
        <time>2024-11-06T16:53:18Z</time>
      </trkpt>
      <trkpt lat="43.61002" lon="1.41192">
        <ele>134</ele>
        <time>2024-11-06T16:53:19Z</time>
      </trkpt>
      <trkpt lat="43.61004" lon="1.41189">
        <ele>134</ele>
        <time>2024-11-06T16:53:20Z</time>
      </trkpt>
      <trkpt lat="43.61006" lon="1.41187">
        <ele>134</ele>
        <time>2024-11-06T16:53:21Z</time>
      </trkpt>
      <trkpt lat="43.61007" lon="1.41184">
        <ele>134</ele>
        <time>2024-11-06T16:53:22Z</time>
      </trkpt>
      <trkpt lat="43.61009" lon="1.41182">
        <ele>134</ele>
        <time>2024-11-06T16:53:23Z</time>
      </trkpt>
      <trkpt lat="43.61011" lon="1.41179">
        <ele>134</ele>
        <time>2024-11-06T16:53:24Z</time>
      </trkpt>
      <trkpt lat="43.61013" lon="1.41176">
        <ele>134</ele>
        <time>2024-11-06T16:53:25Z</time>
      </trkpt>
      <trkpt lat="43.61014" lon="1.41174">
        <ele>134</ele>
        <time>2024-11-06T16:53:26Z</time>
      </trkpt>
      <trkpt lat="43.61017" lon="1.4117">
        <ele>134</ele>
        <time>2024-11-06T16:53:27Z</time>
      </trkpt>
      <trkpt lat="43.61018" lon="1.41169">
        <ele>134</ele>
        <time>2024-11-06T16:53:28Z</time>
      </trkpt>
      <trkpt lat="43.61021" lon="1.41165">
        <ele>134</ele>
        <time>2024-11-06T16:53:29Z</time>
      </trkpt>
      <trkpt lat="43.61021" lon="1.41164">
        <ele>134</ele>
        <time>2024-11-06T16:53:30Z</time>
      </trkpt>
      <trkpt lat="43.61023" lon="1.41161">
        <ele>134</ele>
        <time>2024-11-06T16:53:31Z</time>
      </trkpt>
      <trkpt lat="43.61025" lon="1.41158">
        <ele>134</ele>
        <time>2024-11-06T16:53:32Z</time>
      </trkpt>
      <trkpt lat="43.61027" lon="1.41155">
        <ele>134</ele>
        <time>2024-11-06T16:53:33Z</time>
      </trkpt>
      <trkpt lat="43.61028" lon="1.41152">
        <ele>134</ele>
        <time>2024-11-06T16:53:34Z</time>
      </trkpt>
      <trkpt lat="43.6103" lon="1.41149">
        <ele>134</ele>
        <time>2024-11-06T16:53:35Z</time>
      </trkpt>
      <trkpt lat="43.61032" lon="1.41145">
        <ele>134</ele>
        <time>2024-11-06T16:53:36Z</time>
      </trkpt>
      <trkpt lat="43.61033" lon="1.41142">
        <ele>134</ele>
        <time>2024-11-06T16:53:37Z</time>
      </trkpt>
      <trkpt lat="43.61036" lon="1.41139">
        <ele>134</ele>
        <time>2024-11-06T16:53:38Z</time>
      </trkpt>
      <trkpt lat="43.61038" lon="1.41135">
        <ele>134</ele>
        <time>2024-11-06T16:53:39Z</time>
      </trkpt>
      <trkpt lat="43.6104" lon="1.41132">
        <ele>134</ele>
        <time>2024-11-06T16:53:40Z</time>
      </trkpt>
      <trkpt lat="43.61042" lon="1.41129">
        <ele>134</ele>
        <time>2024-11-06T16:53:41Z</time>
      </trkpt>
      <trkpt lat="43.61045" lon="1.41126">
        <ele>134</ele>
        <time>2024-11-06T16:53:42Z</time>
      </trkpt>
      <trkpt lat="43.61047" lon="1.41123">
        <ele>134</ele>
        <time>2024-11-06T16:53:43Z</time>
      </trkpt>
      <trkpt lat="43.61049" lon="1.41118">
        <ele>134</ele>
        <time>2024-11-06T16:53:44Z</time>
      </trkpt>
      <trkpt lat="43.6105" lon="1.41117">
        <ele>134</ele>
        <time>2024-11-06T16:53:45Z</time>
      </trkpt>
      <trkpt lat="43.61052" lon="1.41114">
        <ele>134</ele>
        <time>2024-11-06T16:53:46Z</time>
      </trkpt>
      <trkpt lat="43.61054" lon="1.41112">
        <ele>134</ele>
        <time>2024-11-06T16:53:47Z</time>
      </trkpt>
      <trkpt lat="43.61057" lon="1.41109">
        <ele>134</ele>
        <time>2024-11-06T16:53:48Z</time>
      </trkpt>
      <trkpt lat="43.61058" lon="1.41108">
        <ele>134</ele>
        <time>2024-11-06T16:53:49Z</time>
      </trkpt>
      <trkpt lat="43.6106" lon="1.41105">
        <ele>134</ele>
        <time>2024-11-06T16:53:50Z</time>
      </trkpt>
      <trkpt lat="43.61061" lon="1.41102">
        <ele>134</ele>
        <time>2024-11-06T16:53:51Z</time>
      </trkpt>
      <trkpt lat="43.61063" lon="1.41099">
        <ele>134</ele>
        <time>2024-11-06T16:53:52Z</time>
      </trkpt>
      <trkpt lat="43.61065" lon="1.41097">
        <ele>134</ele>
        <time>2024-11-06T16:53:53Z</time>
      </trkpt>
      <trkpt lat="43.61067" lon="1.41094">
        <ele>134</ele>
        <time>2024-11-06T16:53:54Z</time>
      </trkpt>
      <trkpt lat="43.61068" lon="1.41092">
        <ele>134</ele>
        <time>2024-11-06T16:53:55Z</time>
      </trkpt>
      <trkpt lat="43.6107" lon="1.4109">
        <ele>134</ele>
        <time>2024-11-06T16:53:56Z</time>
      </trkpt>
      <trkpt lat="43.61072" lon="1.41087">
        <ele>134</ele>
        <time>2024-11-06T16:53:57Z</time>
      </trkpt>
      <trkpt lat="43.61074" lon="1.41084">
        <ele>134</ele>
        <time>2024-11-06T16:53:58Z</time>
      </trkpt>
      <trkpt lat="43.61076" lon="1.41082">
        <ele>134</ele>
        <time>2024-11-06T16:53:59Z</time>
      </trkpt>
      <trkpt lat="43.61078" lon="1.41079">
        <ele>134</ele>
        <time>2024-11-06T16:54:00Z</time>
      </trkpt>
      <trkpt lat="43.6108" lon="1.41076">
        <ele>134</ele>
        <time>2024-11-06T16:54:01Z</time>
      </trkpt>
      <trkpt lat="43.61081" lon="1.41074">
        <ele>134</ele>
        <time>2024-11-06T16:54:02Z</time>
      </trkpt>
      <trkpt lat="43.61083" lon="1.41071">
        <ele>134</ele>
        <time>2024-11-06T16:54:03Z</time>
      </trkpt>
      <trkpt lat="43.61086" lon="1.41067">
        <ele>134</ele>
        <time>2024-11-06T16:54:04Z</time>
      </trkpt>
      <trkpt lat="43.61087" lon="1.41066">
        <ele>134</ele>
        <time>2024-11-06T16:54:05Z</time>
      </trkpt>
      <trkpt lat="43.61089" lon="1.41064">
        <ele>134</ele>
        <time>2024-11-06T16:54:06Z</time>
      </trkpt>
      <trkpt lat="43.61092" lon="1.4106">
        <ele>134</ele>
        <time>2024-11-06T16:54:07Z</time>
      </trkpt>
      <trkpt lat="43.61093" lon="1.41059">
        <ele>134</ele>
        <time>2024-11-06T16:54:08Z</time>
      </trkpt>
      <trkpt lat="43.61094" lon="1.41056">
        <ele>134</ele>
        <time>2024-11-06T16:54:09Z</time>
      </trkpt>
      <trkpt lat="43.61096" lon="1.41054">
        <ele>134</ele>
        <time>2024-11-06T16:54:10Z</time>
      </trkpt>
      <trkpt lat="43.61098" lon="1.41051">
        <ele>134</ele>
        <time>2024-11-06T16:54:11Z</time>
      </trkpt>
      <trkpt lat="43.611" lon="1.41049">
        <ele>134</ele>
        <time>2024-11-06T16:54:12Z</time>
      </trkpt>
      <trkpt lat="43.61102" lon="1.41046">
        <ele>134</ele>
        <time>2024-11-06T16:54:13Z</time>
      </trkpt>
      <trkpt lat="43.61103" lon="1.41043">
        <ele>134</ele>
        <time>2024-11-06T16:54:14Z</time>
      </trkpt>
      <trkpt lat="43.61105" lon="1.4104">
        <ele>134</ele>
        <time>2024-11-06T16:54:15Z</time>
      </trkpt>
      <trkpt lat="43.61108" lon="1.41038">
        <ele>134</ele>
        <time>2024-11-06T16:54:16Z</time>
      </trkpt>
      <trkpt lat="43.61109" lon="1.41035">
        <ele>134</ele>
        <time>2024-11-06T16:54:17Z</time>
      </trkpt>
      <trkpt lat="43.61111" lon="1.41033">
        <ele>134</ele>
        <time>2024-11-06T16:54:18Z</time>
      </trkpt>
      <trkpt lat="43.61113" lon="1.41031">
        <ele>134</ele>
        <time>2024-11-06T16:54:19Z</time>
      </trkpt>
      <trkpt lat="43.61115" lon="1.41028">
        <ele>134</ele>
        <time>2024-11-06T16:54:20Z</time>
      </trkpt>
      <trkpt lat="43.61117" lon="1.41024">
        <ele>135</ele>
        <time>2024-11-06T16:54:21Z</time>
      </trkpt>
      <trkpt lat="43.6112" lon="1.4102">
        <ele>135</ele>
        <time>2024-11-06T16:54:22Z</time>
      </trkpt>
      <trkpt lat="43.61121" lon="1.41019">
        <ele>135</ele>
        <time>2024-11-06T16:54:23Z</time>
      </trkpt>
      <trkpt lat="43.61123" lon="1.41017">
        <ele>135</ele>
        <time>2024-11-06T16:54:24Z</time>
      </trkpt>
      <trkpt lat="43.61125" lon="1.41014">
        <ele>134</ele>
        <time>2024-11-06T16:54:25Z</time>
      </trkpt>
      <trkpt lat="43.61129" lon="1.4101">
        <ele>134</ele>
        <time>2024-11-06T16:54:26Z</time>
      </trkpt>
      <trkpt lat="43.6113" lon="1.41009">
        <ele>134</ele>
        <time>2024-11-06T16:54:27Z</time>
      </trkpt>
      <trkpt lat="43.61132" lon="1.41007">
        <ele>134</ele>
        <time>2024-11-06T16:54:28Z</time>
      </trkpt>
      <trkpt lat="43.61134" lon="1.41004">
        <ele>134</ele>
        <time>2024-11-06T16:54:29Z</time>
      </trkpt>
      <trkpt lat="43.61136" lon="1.41002">
        <ele>134</ele>
        <time>2024-11-06T16:54:30Z</time>
      </trkpt>
      <trkpt lat="43.61137" lon="1.40999">
        <ele>134</ele>
        <time>2024-11-06T16:54:31Z</time>
      </trkpt>
      <trkpt lat="43.61139" lon="1.40996">
        <ele>134</ele>
        <time>2024-11-06T16:54:32Z</time>
      </trkpt>
      <trkpt lat="43.61141" lon="1.40994">
        <ele>134</ele>
        <time>2024-11-06T16:54:33Z</time>
      </trkpt>
      <trkpt lat="43.61142" lon="1.40991">
        <ele>134</ele>
        <time>2024-11-06T16:54:34Z</time>
      </trkpt>
      <trkpt lat="43.61144" lon="1.40988">
        <ele>134</ele>
        <time>2024-11-06T16:54:35Z</time>
      </trkpt>
      <trkpt lat="43.61146" lon="1.40985">
        <ele>134</ele>
        <time>2024-11-06T16:54:36Z</time>
      </trkpt>
      <trkpt lat="43.61148" lon="1.40983">
        <ele>134</ele>
        <time>2024-11-06T16:54:37Z</time>
      </trkpt>
      <trkpt lat="43.6115" lon="1.4098">
        <ele>134</ele>
        <time>2024-11-06T16:54:38Z</time>
      </trkpt>
      <trkpt lat="43.61153" lon="1.40978">
        <ele>134</ele>
        <time>2024-11-06T16:54:39Z</time>
      </trkpt>
      <trkpt lat="43.61156" lon="1.40974">
        <ele>134</ele>
        <time>2024-11-06T16:54:40Z</time>
      </trkpt>
      <trkpt lat="43.61157" lon="1.40973">
        <ele>134</ele>
        <time>2024-11-06T16:54:41Z</time>
      </trkpt>
      <trkpt lat="43.61159" lon="1.40971">
        <ele>134</ele>
        <time>2024-11-06T16:54:42Z</time>
      </trkpt>
      <trkpt lat="43.61162" lon="1.40968">
        <ele>134</ele>
        <time>2024-11-06T16:54:43Z</time>
      </trkpt>
      <trkpt lat="43.61164" lon="1.40965">
        <ele>134</ele>
        <time>2024-11-06T16:54:44Z</time>
      </trkpt>
      <trkpt lat="43.61167" lon="1.40961">
        <ele>134</ele>
        <time>2024-11-06T16:54:45Z</time>
      </trkpt>
      <trkpt lat="43.61168" lon="1.4096">
        <ele>134</ele>
        <time>2024-11-06T16:54:46Z</time>
      </trkpt>
      <trkpt lat="43.6117" lon="1.40957">
        <ele>134</ele>
        <time>2024-11-06T16:54:47Z</time>
      </trkpt>
      <trkpt lat="43.61172" lon="1.40954">
        <ele>134</ele>
        <time>2024-11-06T16:54:48Z</time>
      </trkpt>
      <trkpt lat="43.61175" lon="1.40952">
        <ele>134</ele>
        <time>2024-11-06T16:54:49Z</time>
      </trkpt>
      <trkpt lat="43.61177" lon="1.40949">
        <ele>134</ele>
        <time>2024-11-06T16:54:50Z</time>
      </trkpt>
      <trkpt lat="43.61179" lon="1.40947">
        <ele>134</ele>
        <time>2024-11-06T16:54:51Z</time>
      </trkpt>
      <trkpt lat="43.61181" lon="1.40945">
        <ele>134</ele>
        <time>2024-11-06T16:54:52Z</time>
      </trkpt>
      <trkpt lat="43.61183" lon="1.40943">
        <ele>134</ele>
        <time>2024-11-06T16:54:53Z</time>
      </trkpt>
      <trkpt lat="43.61186" lon="1.40941">
        <ele>134</ele>
        <time>2024-11-06T16:54:54Z</time>
      </trkpt>
      <trkpt lat="43.61188" lon="1.40938">
        <ele>134</ele>
        <time>2024-11-06T16:54:55Z</time>
      </trkpt>
      <trkpt lat="43.6119" lon="1.40936">
        <ele>134</ele>
        <time>2024-11-06T16:54:56Z</time>
      </trkpt>
      <trkpt lat="43.61192" lon="1.40934">
        <ele>134</ele>
        <time>2024-11-06T16:54:57Z</time>
      </trkpt>
      <trkpt lat="43.61195" lon="1.4093">
        <ele>134</ele>
        <time>2024-11-06T16:54:58Z</time>
      </trkpt>
      <trkpt lat="43.61196" lon="1.40929">
        <ele>134</ele>
        <time>2024-11-06T16:54:59Z</time>
      </trkpt>
      <trkpt lat="43.61199" lon="1.40926">
        <ele>134</ele>
        <time>2024-11-06T16:55:00Z</time>
      </trkpt>
      <trkpt lat="43.61201" lon="1.40924">
        <ele>134</ele>
        <time>2024-11-06T16:55:01Z</time>
      </trkpt>
      <trkpt lat="43.61203" lon="1.40922">
        <ele>134</ele>
        <time>2024-11-06T16:55:02Z</time>
      </trkpt>
      <trkpt lat="43.61205" lon="1.40921">
        <ele>134</ele>
        <time>2024-11-06T16:55:03Z</time>
      </trkpt>
      <trkpt lat="43.61208" lon="1.40918">
        <ele>134</ele>
        <time>2024-11-06T16:55:04Z</time>
      </trkpt>
      <trkpt lat="43.61209" lon="1.40917">
        <ele>134</ele>
        <time>2024-11-06T16:55:05Z</time>
      </trkpt>
      <trkpt lat="43.61212" lon="1.40915">
        <ele>134</ele>
        <time>2024-11-06T16:55:06Z</time>
      </trkpt>
      <trkpt lat="43.61213" lon="1.40913">
        <ele>134</ele>
        <time>2024-11-06T16:55:07Z</time>
      </trkpt>
      <trkpt lat="43.61215" lon="1.4091">
        <ele>134</ele>
        <time>2024-11-06T16:55:08Z</time>
      </trkpt>
      <trkpt lat="43.61218" lon="1.40907">
        <ele>134</ele>
        <time>2024-11-06T16:55:09Z</time>
      </trkpt>
      <trkpt lat="43.6122" lon="1.40905">
        <ele>134</ele>
        <time>2024-11-06T16:55:10Z</time>
      </trkpt>
      <trkpt lat="43.61222" lon="1.40902">
        <ele>134</ele>
        <time>2024-11-06T16:55:11Z</time>
      </trkpt>
      <trkpt lat="43.61224" lon="1.409">
        <ele>134</ele>
        <time>2024-11-06T16:55:12Z</time>
      </trkpt>
      <trkpt lat="43.61226" lon="1.40898">
        <ele>134</ele>
        <time>2024-11-06T16:55:13Z</time>
      </trkpt>
      <trkpt lat="43.61228" lon="1.40895">
        <ele>134</ele>
        <time>2024-11-06T16:55:14Z</time>
      </trkpt>
      <trkpt lat="43.6123" lon="1.40893">
        <ele>134</ele>
        <time>2024-11-06T16:55:15Z</time>
      </trkpt>
      <trkpt lat="43.61232" lon="1.40891">
        <ele>134</ele>
        <time>2024-11-06T16:55:16Z</time>
      </trkpt>
      <trkpt lat="43.61235" lon="1.40887">
        <ele>134</ele>
        <time>2024-11-06T16:55:17Z</time>
      </trkpt>
      <trkpt lat="43.61236" lon="1.40886">
        <ele>134</ele>
        <time>2024-11-06T16:55:18Z</time>
      </trkpt>
      <trkpt lat="43.61238" lon="1.40884">
        <ele>134</ele>
        <time>2024-11-06T16:55:19Z</time>
      </trkpt>
      <trkpt lat="43.61239" lon="1.40881">
        <ele>134</ele>
        <time>2024-11-06T16:55:20Z</time>
      </trkpt>
      <trkpt lat="43.61242" lon="1.40879">
        <ele>134</ele>
        <time>2024-11-06T16:55:21Z</time>
      </trkpt>
      <trkpt lat="43.61244" lon="1.40876">
        <ele>134</ele>
        <time>2024-11-06T16:55:22Z</time>
      </trkpt>
      <trkpt lat="43.61246" lon="1.40872">
        <ele>134</ele>
        <time>2024-11-06T16:55:23Z</time>
      </trkpt>
      <trkpt lat="43.61247" lon="1.40871">
        <ele>134</ele>
        <time>2024-11-06T16:55:24Z</time>
      </trkpt>
      <trkpt lat="43.61249" lon="1.40868">
        <ele>134</ele>
        <time>2024-11-06T16:55:25Z</time>
      </trkpt>
      <trkpt lat="43.61251" lon="1.40865">
        <ele>134</ele>
        <time>2024-11-06T16:55:26Z</time>
      </trkpt>
      <trkpt lat="43.61253" lon="1.40863">
        <ele>134</ele>
        <time>2024-11-06T16:55:27Z</time>
      </trkpt>
      <trkpt lat="43.61255" lon="1.4086">
        <ele>134</ele>
        <time>2024-11-06T16:55:28Z</time>
      </trkpt>
      <trkpt lat="43.61257" lon="1.40858">
        <ele>134</ele>
        <time>2024-11-06T16:55:29Z</time>
      </trkpt>
      <trkpt lat="43.6126" lon="1.40856">
        <ele>134</ele>
        <time>2024-11-06T16:55:30Z</time>
      </trkpt>
      <trkpt lat="43.61262" lon="1.40854">
        <ele>134</ele>
        <time>2024-11-06T16:55:31Z</time>
      </trkpt>
      <trkpt lat="43.61264" lon="1.40852">
        <ele>134</ele>
        <time>2024-11-06T16:55:32Z</time>
      </trkpt>
      <trkpt lat="43.61266" lon="1.4085">
        <ele>134</ele>
        <time>2024-11-06T16:55:33Z</time>
      </trkpt>
      <trkpt lat="43.61269" lon="1.40847">
        <ele>134</ele>
        <time>2024-11-06T16:55:34Z</time>
      </trkpt>
      <trkpt lat="43.61272" lon="1.40844">
        <ele>134</ele>
        <time>2024-11-06T16:55:35Z</time>
      </trkpt>
      <trkpt lat="43.61274" lon="1.40843">
        <ele>134</ele>
        <time>2024-11-06T16:55:36Z</time>
      </trkpt>
      <trkpt lat="43.61276" lon="1.40841">
        <ele>134</ele>
        <time>2024-11-06T16:55:37Z</time>
      </trkpt>
      <trkpt lat="43.61278" lon="1.40839">
        <ele>134</ele>
        <time>2024-11-06T16:55:38Z</time>
      </trkpt>
      <trkpt lat="43.6128" lon="1.40836">
        <ele>134</ele>
        <time>2024-11-06T16:55:39Z</time>
      </trkpt>
      <trkpt lat="43.61283" lon="1.40834">
        <ele>133</ele>
        <time>2024-11-06T16:55:40Z</time>
      </trkpt>
      <trkpt lat="43.61285" lon="1.40831">
        <ele>133</ele>
        <time>2024-11-06T16:55:41Z</time>
      </trkpt>
      <trkpt lat="43.61288" lon="1.40828">
        <ele>133</ele>
        <time>2024-11-06T16:55:42Z</time>
      </trkpt>
      <trkpt lat="43.61289" lon="1.40826">
        <ele>133</ele>
        <time>2024-11-06T16:55:43Z</time>
      </trkpt>
      <trkpt lat="43.61291" lon="1.40824">
        <ele>133</ele>
        <time>2024-11-06T16:55:44Z</time>
      </trkpt>
      <trkpt lat="43.61293" lon="1.40822">
        <ele>133</ele>
        <time>2024-11-06T16:55:45Z</time>
      </trkpt>
      <trkpt lat="43.61295" lon="1.4082">
        <ele>133</ele>
        <time>2024-11-06T16:55:46Z</time>
      </trkpt>
      <trkpt lat="43.61297" lon="1.40817">
        <ele>133</ele>
        <time>2024-11-06T16:55:47Z</time>
      </trkpt>
      <trkpt lat="43.613" lon="1.40815">
        <ele>133</ele>
        <time>2024-11-06T16:55:48Z</time>
      </trkpt>
      <trkpt lat="43.61302" lon="1.40812">
        <ele>133</ele>
        <time>2024-11-06T16:55:49Z</time>
      </trkpt>
      <trkpt lat="43.61304" lon="1.4081">
        <ele>133</ele>
        <time>2024-11-06T16:55:50Z</time>
      </trkpt>
      <trkpt lat="43.61306" lon="1.40808">
        <ele>133</ele>
        <time>2024-11-06T16:55:51Z</time>
      </trkpt>
      <trkpt lat="43.61308" lon="1.40806">
        <ele>133</ele>
        <time>2024-11-06T16:55:52Z</time>
      </trkpt>
      <trkpt lat="43.6131" lon="1.40804">
        <ele>133</ele>
        <time>2024-11-06T16:55:53Z</time>
      </trkpt>
      <trkpt lat="43.61313" lon="1.40801">
        <ele>133</ele>
        <time>2024-11-06T16:55:54Z</time>
      </trkpt>
      <trkpt lat="43.61314" lon="1.408">
        <ele>133</ele>
        <time>2024-11-06T16:55:55Z</time>
      </trkpt>
      <trkpt lat="43.61316" lon="1.40797">
        <ele>133</ele>
        <time>2024-11-06T16:55:56Z</time>
      </trkpt>
      <trkpt lat="43.61318" lon="1.40794">
        <ele>133</ele>
        <time>2024-11-06T16:55:57Z</time>
      </trkpt>
      <trkpt lat="43.6132" lon="1.40792">
        <ele>133</ele>
        <time>2024-11-06T16:55:58Z</time>
      </trkpt>
      <trkpt lat="43.61322" lon="1.40789">
        <ele>133</ele>
        <time>2024-11-06T16:55:59Z</time>
      </trkpt>
      <trkpt lat="43.61324" lon="1.40786">
        <ele>133</ele>
        <time>2024-11-06T16:56:00Z</time>
      </trkpt>
      <trkpt lat="43.61327" lon="1.40783">
        <ele>133</ele>
        <time>2024-11-06T16:56:01Z</time>
      </trkpt>
      <trkpt lat="43.61328" lon="1.40782">
        <ele>134</ele>
        <time>2024-11-06T16:56:02Z</time>
      </trkpt>
      <trkpt lat="43.6133" lon="1.40779">
        <ele>134</ele>
        <time>2024-11-06T16:56:03Z</time>
      </trkpt>
      <trkpt lat="43.61332" lon="1.40777">
        <ele>134</ele>
        <time>2024-11-06T16:56:04Z</time>
      </trkpt>
      <trkpt lat="43.61334" lon="1.40775">
        <ele>134</ele>
        <time>2024-11-06T16:56:05Z</time>
      </trkpt>
      <trkpt lat="43.61336" lon="1.40772">
        <ele>134</ele>
        <time>2024-11-06T16:56:06Z</time>
      </trkpt>
      <trkpt lat="43.61338" lon="1.4077">
        <ele>134</ele>
        <time>2024-11-06T16:56:07Z</time>
      </trkpt>
      <trkpt lat="43.6134" lon="1.40767">
        <ele>134</ele>
        <time>2024-11-06T16:56:08Z</time>
      </trkpt>
      <trkpt lat="43.61342" lon="1.40765">
        <ele>134</ele>
        <time>2024-11-06T16:56:09Z</time>
      </trkpt>
      <trkpt lat="43.61344" lon="1.40763">
        <ele>134</ele>
        <time>2024-11-06T16:56:10Z</time>
      </trkpt>
      <trkpt lat="43.61346" lon="1.4076">
        <ele>134</ele>
        <time>2024-11-06T16:56:11Z</time>
      </trkpt>
      <trkpt lat="43.61348" lon="1.40757">
        <ele>134</ele>
        <time>2024-11-06T16:56:12Z</time>
      </trkpt>
      <trkpt lat="43.61349" lon="1.40756">
        <ele>134</ele>
        <time>2024-11-06T16:56:13Z</time>
      </trkpt>
      <trkpt lat="43.61351" lon="1.40753">
        <ele>134</ele>
        <time>2024-11-06T16:56:14Z</time>
      </trkpt>
      <trkpt lat="43.61354" lon="1.40751">
        <ele>134</ele>
        <time>2024-11-06T16:56:15Z</time>
      </trkpt>
      <trkpt lat="43.61356" lon="1.40749">
        <ele>133</ele>
        <time>2024-11-06T16:56:16Z</time>
      </trkpt>
      <trkpt lat="43.61359" lon="1.40746">
        <ele>133</ele>
        <time>2024-11-06T16:56:17Z</time>
      </trkpt>
      <trkpt lat="43.61361" lon="1.40744">
        <ele>133</ele>
        <time>2024-11-06T16:56:18Z</time>
      </trkpt>
      <trkpt lat="43.61363" lon="1.40741">
        <ele>133</ele>
        <time>2024-11-06T16:56:19Z</time>
      </trkpt>
      <trkpt lat="43.61367" lon="1.40738">
        <ele>133</ele>
        <time>2024-11-06T16:56:20Z</time>
      </trkpt>
      <trkpt lat="43.61368" lon="1.40737">
        <ele>133</ele>
        <time>2024-11-06T16:56:21Z</time>
      </trkpt>
      <trkpt lat="43.6137" lon="1.40735">
        <ele>133</ele>
        <time>2024-11-06T16:56:22Z</time>
      </trkpt>
      <trkpt lat="43.61372" lon="1.40732">
        <ele>134</ele>
        <time>2024-11-06T16:56:23Z</time>
      </trkpt>
      <trkpt lat="43.61375" lon="1.4073">
        <ele>134</ele>
        <time>2024-11-06T16:56:24Z</time>
      </trkpt>
      <trkpt lat="43.61377" lon="1.40728">
        <ele>134</ele>
        <time>2024-11-06T16:56:25Z</time>
      </trkpt>
      <trkpt lat="43.61379" lon="1.40726">
        <ele>133</ele>
        <time>2024-11-06T16:56:26Z</time>
      </trkpt>
      <trkpt lat="43.61381" lon="1.40723">
        <ele>133</ele>
        <time>2024-11-06T16:56:27Z</time>
      </trkpt>
      <trkpt lat="43.61383" lon="1.40721">
        <ele>134</ele>
        <time>2024-11-06T16:56:28Z</time>
      </trkpt>
      <trkpt lat="43.61385" lon="1.40719">
        <ele>134</ele>
        <time>2024-11-06T16:56:29Z</time>
      </trkpt>
      <trkpt lat="43.61388" lon="1.40718">
        <ele>134</ele>
        <time>2024-11-06T16:56:30Z</time>
      </trkpt>
      <trkpt lat="43.61391" lon="1.40715">
        <ele>134</ele>
        <time>2024-11-06T16:56:31Z</time>
      </trkpt>
      <trkpt lat="43.61392" lon="1.40714">
        <ele>134</ele>
        <time>2024-11-06T16:56:32Z</time>
      </trkpt>
      <trkpt lat="43.61395" lon="1.40712">
        <ele>134</ele>
        <time>2024-11-06T16:56:33Z</time>
      </trkpt>
      <trkpt lat="43.61397" lon="1.40709">
        <ele>134</ele>
        <time>2024-11-06T16:56:34Z</time>
      </trkpt>
      <trkpt lat="43.61399" lon="1.40707">
        <ele>134</ele>
        <time>2024-11-06T16:56:35Z</time>
      </trkpt>
      <trkpt lat="43.61401" lon="1.40704">
        <ele>134</ele>
        <time>2024-11-06T16:56:36Z</time>
      </trkpt>
      <trkpt lat="43.61403" lon="1.40702">
        <ele>134</ele>
        <time>2024-11-06T16:56:37Z</time>
      </trkpt>
      <trkpt lat="43.61406" lon="1.40699">
        <ele>134</ele>
        <time>2024-11-06T16:56:38Z</time>
      </trkpt>
      <trkpt lat="43.61409" lon="1.40695">
        <ele>134</ele>
        <time>2024-11-06T16:56:39Z</time>
      </trkpt>
      <trkpt lat="43.6141" lon="1.40694">
        <ele>134</ele>
        <time>2024-11-06T16:56:40Z</time>
      </trkpt>
      <trkpt lat="43.61412" lon="1.40692">
        <ele>134</ele>
        <time>2024-11-06T16:56:41Z</time>
      </trkpt>
      <trkpt lat="43.61414" lon="1.40689">
        <ele>134</ele>
        <time>2024-11-06T16:56:42Z</time>
      </trkpt>
      <trkpt lat="43.61416" lon="1.40687">
        <ele>134</ele>
        <time>2024-11-06T16:56:43Z</time>
      </trkpt>
      <trkpt lat="43.61418" lon="1.40684">
        <ele>134</ele>
        <time>2024-11-06T16:56:44Z</time>
      </trkpt>
      <trkpt lat="43.6142" lon="1.40682">
        <ele>134</ele>
        <time>2024-11-06T16:56:45Z</time>
      </trkpt>
      <trkpt lat="43.61422" lon="1.40679">
        <ele>134</ele>
        <time>2024-11-06T16:56:46Z</time>
      </trkpt>
      <trkpt lat="43.61424" lon="1.40677">
        <ele>134</ele>
        <time>2024-11-06T16:56:47Z</time>
      </trkpt>
      <trkpt lat="43.61426" lon="1.40674">
        <ele>134</ele>
        <time>2024-11-06T16:56:48Z</time>
      </trkpt>
      <trkpt lat="43.6143" lon="1.40671">
        <ele>134</ele>
        <time>2024-11-06T16:56:49Z</time>
      </trkpt>
      <trkpt lat="43.61431" lon="1.4067">
        <ele>133</ele>
        <time>2024-11-06T16:56:50Z</time>
      </trkpt>
      <trkpt lat="43.61433" lon="1.40668">
        <ele>133</ele>
        <time>2024-11-06T16:56:51Z</time>
      </trkpt>
      <trkpt lat="43.61435" lon="1.40666">
        <ele>133</ele>
        <time>2024-11-06T16:56:52Z</time>
      </trkpt>
      <trkpt lat="43.61437" lon="1.40664">
        <ele>133</ele>
        <time>2024-11-06T16:56:53Z</time>
      </trkpt>
      <trkpt lat="43.61439" lon="1.40662">
        <ele>133</ele>
        <time>2024-11-06T16:56:54Z</time>
      </trkpt>
      <trkpt lat="43.61441" lon="1.4066">
        <ele>133</ele>
        <time>2024-11-06T16:56:55Z</time>
      </trkpt>
      <trkpt lat="43.61443" lon="1.40658">
        <ele>133</ele>
        <time>2024-11-06T16:56:56Z</time>
      </trkpt>
      <trkpt lat="43.61445" lon="1.40656">
        <ele>133</ele>
        <time>2024-11-06T16:56:57Z</time>
      </trkpt>
      <trkpt lat="43.61449" lon="1.40652">
        <ele>133</ele>
        <time>2024-11-06T16:56:58Z</time>
      </trkpt>
      <trkpt lat="43.6145" lon="1.40651">
        <ele>133</ele>
        <time>2024-11-06T16:56:59Z</time>
      </trkpt>
      <trkpt lat="43.61452" lon="1.40648">
        <ele>133</ele>
        <time>2024-11-06T16:57:00Z</time>
      </trkpt>
      <trkpt lat="43.61454" lon="1.40646">
        <ele>133</ele>
        <time>2024-11-06T16:57:01Z</time>
      </trkpt>
      <trkpt lat="43.61456" lon="1.40644">
        <ele>133</ele>
        <time>2024-11-06T16:57:02Z</time>
      </trkpt>
      <trkpt lat="43.61458" lon="1.40641">
        <ele>133</ele>
        <time>2024-11-06T16:57:03Z</time>
      </trkpt>
      <trkpt lat="43.6146" lon="1.40639">
        <ele>133</ele>
        <time>2024-11-06T16:57:04Z</time>
      </trkpt>
      <trkpt lat="43.61462" lon="1.40636">
        <ele>133</ele>
        <time>2024-11-06T16:57:05Z</time>
      </trkpt>
      <trkpt lat="43.61464" lon="1.40634">
        <ele>132</ele>
        <time>2024-11-06T16:57:06Z</time>
      </trkpt>
      <trkpt lat="43.61467" lon="1.4063">
        <ele>132</ele>
        <time>2024-11-06T16:57:07Z</time>
      </trkpt>
      <trkpt lat="43.61468" lon="1.40629">
        <ele>132</ele>
        <time>2024-11-06T16:57:08Z</time>
      </trkpt>
      <trkpt lat="43.6147" lon="1.40626">
        <ele>132</ele>
        <time>2024-11-06T16:57:09Z</time>
      </trkpt>
      <trkpt lat="43.61472" lon="1.40624">
        <ele>132</ele>
        <time>2024-11-06T16:57:10Z</time>
      </trkpt>
      <trkpt lat="43.61474" lon="1.40621">
        <ele>132</ele>
        <time>2024-11-06T16:57:11Z</time>
      </trkpt>
      <trkpt lat="43.61476" lon="1.40619">
        <ele>132</ele>
        <time>2024-11-06T16:57:12Z</time>
      </trkpt>
      <trkpt lat="43.61478" lon="1.40616">
        <ele>132</ele>
        <time>2024-11-06T16:57:13Z</time>
      </trkpt>
      <trkpt lat="43.61481" lon="1.40614">
        <ele>132</ele>
        <time>2024-11-06T16:57:14Z</time>
      </trkpt>
      <trkpt lat="43.61483" lon="1.40611">
        <ele>133</ele>
        <time>2024-11-06T16:57:15Z</time>
      </trkpt>
      <trkpt lat="43.61486" lon="1.4061">
        <ele>133</ele>
        <time>2024-11-06T16:57:16Z</time>
      </trkpt>
      <trkpt lat="43.61489" lon="1.40607">
        <ele>133</ele>
        <time>2024-11-06T16:57:17Z</time>
      </trkpt>
      <trkpt lat="43.6149" lon="1.40606">
        <ele>133</ele>
        <time>2024-11-06T16:57:18Z</time>
      </trkpt>
      <trkpt lat="43.61493" lon="1.40604">
        <ele>133</ele>
        <time>2024-11-06T16:57:19Z</time>
      </trkpt>
      <trkpt lat="43.61495" lon="1.40601">
        <ele>133</ele>
        <time>2024-11-06T16:57:20Z</time>
      </trkpt>
      <trkpt lat="43.61497" lon="1.40599">
        <ele>133</ele>
        <time>2024-11-06T16:57:21Z</time>
      </trkpt>
      <trkpt lat="43.61499" lon="1.40597">
        <ele>133</ele>
        <time>2024-11-06T16:57:22Z</time>
      </trkpt>
      <trkpt lat="43.61501" lon="1.40595">
        <ele>133</ele>
        <time>2024-11-06T16:57:23Z</time>
      </trkpt>
      <trkpt lat="43.61503" lon="1.40593">
        <ele>133</ele>
        <time>2024-11-06T16:57:24Z</time>
      </trkpt>
      <trkpt lat="43.61507" lon="1.4059">
        <ele>133</ele>
        <time>2024-11-06T16:57:25Z</time>
      </trkpt>
      <trkpt lat="43.61508" lon="1.40588">
        <ele>133</ele>
        <time>2024-11-06T16:57:26Z</time>
      </trkpt>
      <trkpt lat="43.6151" lon="1.40586">
        <ele>133</ele>
        <time>2024-11-06T16:57:27Z</time>
      </trkpt>
      <trkpt lat="43.61512" lon="1.40584">
        <ele>133</ele>
        <time>2024-11-06T16:57:28Z</time>
      </trkpt>
      <trkpt lat="43.61514" lon="1.40581">
        <ele>133</ele>
        <time>2024-11-06T16:57:29Z</time>
      </trkpt>
      <trkpt lat="43.61516" lon="1.40579">
        <ele>133</ele>
        <time>2024-11-06T16:57:30Z</time>
      </trkpt>
      <trkpt lat="43.61518" lon="1.40577">
        <ele>133</ele>
        <time>2024-11-06T16:57:31Z</time>
      </trkpt>
      <trkpt lat="43.6152" lon="1.40574">
        <ele>133</ele>
        <time>2024-11-06T16:57:32Z</time>
      </trkpt>
      <trkpt lat="43.61523" lon="1.40572">
        <ele>133</ele>
        <time>2024-11-06T16:57:33Z</time>
      </trkpt>
      <trkpt lat="43.61524" lon="1.4057">
        <ele>133</ele>
        <time>2024-11-06T16:57:34Z</time>
      </trkpt>
      <trkpt lat="43.61527" lon="1.40567">
        <ele>133</ele>
        <time>2024-11-06T16:57:35Z</time>
      </trkpt>
      <trkpt lat="43.6153" lon="1.40564">
        <ele>133</ele>
        <time>2024-11-06T16:57:36Z</time>
      </trkpt>
      <trkpt lat="43.61531" lon="1.40562">
        <ele>133</ele>
        <time>2024-11-06T16:57:37Z</time>
      </trkpt>
      <trkpt lat="43.61533" lon="1.4056">
        <ele>133</ele>
        <time>2024-11-06T16:57:38Z</time>
      </trkpt>
      <trkpt lat="43.61535" lon="1.40558">
        <ele>132</ele>
        <time>2024-11-06T16:57:39Z</time>
      </trkpt>
      <trkpt lat="43.61538" lon="1.40557">
        <ele>133</ele>
        <time>2024-11-06T16:57:40Z</time>
      </trkpt>
      <trkpt lat="43.6154" lon="1.40554">
        <ele>133</ele>
        <time>2024-11-06T16:57:41Z</time>
      </trkpt>
      <trkpt lat="43.61542" lon="1.40553">
        <ele>133</ele>
        <time>2024-11-06T16:57:42Z</time>
      </trkpt>
      <trkpt lat="43.61545" lon="1.40551">
        <ele>133</ele>
        <time>2024-11-06T16:57:43Z</time>
      </trkpt>
      <trkpt lat="43.61548" lon="1.40548">
        <ele>133</ele>
        <time>2024-11-06T16:57:44Z</time>
      </trkpt>
      <trkpt lat="43.61549" lon="1.40547">
        <ele>132</ele>
        <time>2024-11-06T16:57:45Z</time>
      </trkpt>
      <trkpt lat="43.61551" lon="1.40545">
        <ele>132</ele>
        <time>2024-11-06T16:57:46Z</time>
      </trkpt>
      <trkpt lat="43.61554" lon="1.40543">
        <ele>132</ele>
        <time>2024-11-06T16:57:47Z</time>
      </trkpt>
      <trkpt lat="43.61556" lon="1.4054">
        <ele>132</ele>
        <time>2024-11-06T16:57:48Z</time>
      </trkpt>
      <trkpt lat="43.61558" lon="1.40538">
        <ele>132</ele>
        <time>2024-11-06T16:57:49Z</time>
      </trkpt>
      <trkpt lat="43.6156" lon="1.40536">
        <ele>132</ele>
        <time>2024-11-06T16:57:50Z</time>
      </trkpt>
      <trkpt lat="43.61563" lon="1.40534">
        <ele>132</ele>
        <time>2024-11-06T16:57:51Z</time>
      </trkpt>
      <trkpt lat="43.61565" lon="1.40532">
        <ele>133</ele>
        <time>2024-11-06T16:57:52Z</time>
      </trkpt>
      <trkpt lat="43.61567" lon="1.40531">
        <ele>133</ele>
        <time>2024-11-06T16:57:53Z</time>
      </trkpt>
      <trkpt lat="43.6157" lon="1.40529">
        <ele>133</ele>
        <time>2024-11-06T16:57:54Z</time>
      </trkpt>
      <trkpt lat="43.61573" lon="1.40526">
        <ele>133</ele>
        <time>2024-11-06T16:57:55Z</time>
      </trkpt>
      <trkpt lat="43.61574" lon="1.40525">
        <ele>133</ele>
        <time>2024-11-06T16:57:56Z</time>
      </trkpt>
      <trkpt lat="43.61576" lon="1.40522">
        <ele>133</ele>
        <time>2024-11-06T16:57:57Z</time>
      </trkpt>
      <trkpt lat="43.61579" lon="1.40521">
        <ele>132</ele>
        <time>2024-11-06T16:57:58Z</time>
      </trkpt>
      <trkpt lat="43.61581" lon="1.4052">
        <ele>132</ele>
        <time>2024-11-06T16:57:59Z</time>
      </trkpt>
      <trkpt lat="43.61583" lon="1.40518">
        <ele>132</ele>
        <time>2024-11-06T16:58:00Z</time>
      </trkpt>
      <trkpt lat="43.61586" lon="1.40516">
        <ele>132</ele>
        <time>2024-11-06T16:58:01Z</time>
      </trkpt>
      <trkpt lat="43.61588" lon="1.40514">
        <ele>132</ele>
        <time>2024-11-06T16:58:02Z</time>
      </trkpt>
      <trkpt lat="43.61591" lon="1.4051">
        <ele>132</ele>
        <time>2024-11-06T16:58:03Z</time>
      </trkpt>
      <trkpt lat="43.61592" lon="1.40509">
        <ele>132</ele>
        <time>2024-11-06T16:58:04Z</time>
      </trkpt>
      <trkpt lat="43.61594" lon="1.40507">
        <ele>132</ele>
        <time>2024-11-06T16:58:05Z</time>
      </trkpt>
      <trkpt lat="43.61596" lon="1.40504">
        <ele>132</ele>
        <time>2024-11-06T16:58:06Z</time>
      </trkpt>
      <trkpt lat="43.61598" lon="1.40502">
        <ele>132</ele>
        <time>2024-11-06T16:58:07Z</time>
      </trkpt>
      <trkpt lat="43.61601" lon="1.405">
        <ele>132</ele>
        <time>2024-11-06T16:58:08Z</time>
      </trkpt>
      <trkpt lat="43.61602" lon="1.40498">
        <ele>132</ele>
        <time>2024-11-06T16:58:09Z</time>
      </trkpt>
      <trkpt lat="43.61605" lon="1.40496">
        <ele>132</ele>
        <time>2024-11-06T16:58:10Z</time>
      </trkpt>
      <trkpt lat="43.61607" lon="1.40494">
        <ele>131</ele>
        <time>2024-11-06T16:58:11Z</time>
      </trkpt>
      <trkpt lat="43.61609" lon="1.40492">
        <ele>131</ele>
        <time>2024-11-06T16:58:12Z</time>
      </trkpt>
      <trkpt lat="43.61612" lon="1.4049">
        <ele>131</ele>
        <time>2024-11-06T16:58:13Z</time>
      </trkpt>
      <trkpt lat="43.61615" lon="1.40486">
        <ele>131</ele>
        <time>2024-11-06T16:58:14Z</time>
      </trkpt>
      <trkpt lat="43.61616" lon="1.40485">
        <ele>131</ele>
        <time>2024-11-06T16:58:15Z</time>
      </trkpt>
      <trkpt lat="43.61618" lon="1.40484">
        <ele>131</ele>
        <time>2024-11-06T16:58:16Z</time>
      </trkpt>
      <trkpt lat="43.61621" lon="1.40482">
        <ele>131</ele>
        <time>2024-11-06T16:58:17Z</time>
      </trkpt>
      <trkpt lat="43.61623" lon="1.40481">
        <ele>132</ele>
        <time>2024-11-06T16:58:18Z</time>
      </trkpt>
      <trkpt lat="43.61625" lon="1.40479">
        <ele>132</ele>
        <time>2024-11-06T16:58:19Z</time>
      </trkpt>
      <trkpt lat="43.61628" lon="1.40478">
        <ele>131</ele>
        <time>2024-11-06T16:58:20Z</time>
      </trkpt>
      <trkpt lat="43.61632" lon="1.40476">
        <ele>131</ele>
        <time>2024-11-06T16:58:21Z</time>
      </trkpt>
      <trkpt lat="43.61633" lon="1.40476">
        <ele>131</ele>
        <time>2024-11-06T16:58:22Z</time>
      </trkpt>
      <trkpt lat="43.61636" lon="1.40474">
        <ele>131</ele>
        <time>2024-11-06T16:58:23Z</time>
      </trkpt>
      <trkpt lat="43.61638" lon="1.40472">
        <ele>131</ele>
        <time>2024-11-06T16:58:24Z</time>
      </trkpt>
      <trkpt lat="43.61641" lon="1.4047">
        <ele>131</ele>
        <time>2024-11-06T16:58:25Z</time>
      </trkpt>
      <trkpt lat="43.61643" lon="1.40469">
        <ele>131</ele>
        <time>2024-11-06T16:58:26Z</time>
      </trkpt>
      <trkpt lat="43.61646" lon="1.40467">
        <ele>131</ele>
        <time>2024-11-06T16:58:27Z</time>
      </trkpt>
      <trkpt lat="43.61648" lon="1.40466">
        <ele>131</ele>
        <time>2024-11-06T16:58:28Z</time>
      </trkpt>
      <trkpt lat="43.61651" lon="1.40464">
        <ele>131</ele>
        <time>2024-11-06T16:58:29Z</time>
      </trkpt>
      <trkpt lat="43.61653" lon="1.40462">
        <ele>131</ele>
        <time>2024-11-06T16:58:30Z</time>
      </trkpt>
      <trkpt lat="43.61656" lon="1.40461">
        <ele>132</ele>
        <time>2024-11-06T16:58:31Z</time>
      </trkpt>
      <trkpt lat="43.61658" lon="1.40459">
        <ele>132</ele>
        <time>2024-11-06T16:58:32Z</time>
      </trkpt>
      <trkpt lat="43.61662" lon="1.40457">
        <ele>132</ele>
        <time>2024-11-06T16:58:33Z</time>
      </trkpt>
      <trkpt lat="43.61663" lon="1.40456">
        <ele>133</ele>
        <time>2024-11-06T16:58:34Z</time>
      </trkpt>
      <trkpt lat="43.61665" lon="1.40454">
        <ele>133</ele>
        <time>2024-11-06T16:58:35Z</time>
      </trkpt>
      <trkpt lat="43.61668" lon="1.40453">
        <ele>133</ele>
        <time>2024-11-06T16:58:36Z</time>
      </trkpt>
      <trkpt lat="43.6167" lon="1.40451">
        <ele>133</ele>
        <time>2024-11-06T16:58:37Z</time>
      </trkpt>
      <trkpt lat="43.61672" lon="1.40449">
        <ele>133</ele>
        <time>2024-11-06T16:58:38Z</time>
      </trkpt>
      <trkpt lat="43.61675" lon="1.40448">
        <ele>133</ele>
        <time>2024-11-06T16:58:39Z</time>
      </trkpt>
      <trkpt lat="43.61678" lon="1.40445">
        <ele>133</ele>
        <time>2024-11-06T16:58:40Z</time>
      </trkpt>
      <trkpt lat="43.6168" lon="1.40445">
        <ele>132</ele>
        <time>2024-11-06T16:58:41Z</time>
      </trkpt>
      <trkpt lat="43.61682" lon="1.40443">
        <ele>132</ele>
        <time>2024-11-06T16:58:42Z</time>
      </trkpt>
      <trkpt lat="43.61684" lon="1.4044">
        <ele>132</ele>
        <time>2024-11-06T16:58:43Z</time>
      </trkpt>
      <trkpt lat="43.61687" lon="1.40438">
        <ele>132</ele>
        <time>2024-11-06T16:58:44Z</time>
      </trkpt>
      <trkpt lat="43.61689" lon="1.40437">
        <ele>132</ele>
        <time>2024-11-06T16:58:45Z</time>
      </trkpt>
      <trkpt lat="43.61691" lon="1.40435">
        <ele>132</ele>
        <time>2024-11-06T16:58:46Z</time>
      </trkpt>
      <trkpt lat="43.61694" lon="1.40433">
        <ele>132</ele>
        <time>2024-11-06T16:58:47Z</time>
      </trkpt>
      <trkpt lat="43.61696" lon="1.40432">
        <ele>132</ele>
        <time>2024-11-06T16:58:48Z</time>
      </trkpt>
      <trkpt lat="43.61698" lon="1.40431">
        <ele>132</ele>
        <time>2024-11-06T16:58:49Z</time>
      </trkpt>
      <trkpt lat="43.61701" lon="1.40429">
        <ele>132</ele>
        <time>2024-11-06T16:58:50Z</time>
      </trkpt>
      <trkpt lat="43.61703" lon="1.40427">
        <ele>132</ele>
        <time>2024-11-06T16:58:51Z</time>
      </trkpt>
      <trkpt lat="43.61707" lon="1.40425">
        <ele>132</ele>
        <time>2024-11-06T16:58:52Z</time>
      </trkpt>
      <trkpt lat="43.61709" lon="1.40425">
        <ele>132</ele>
        <time>2024-11-06T16:58:53Z</time>
      </trkpt>
      <trkpt lat="43.61711" lon="1.40423">
        <ele>132</ele>
        <time>2024-11-06T16:58:54Z</time>
      </trkpt>
      <trkpt lat="43.61714" lon="1.40421">
        <ele>132</ele>
        <time>2024-11-06T16:58:55Z</time>
      </trkpt>
      <trkpt lat="43.61716" lon="1.4042">
        <ele>132</ele>
        <time>2024-11-06T16:58:56Z</time>
      </trkpt>
      <trkpt lat="43.61719" lon="1.40419">
        <ele>132</ele>
        <time>2024-11-06T16:58:57Z</time>
      </trkpt>
      <trkpt lat="43.61722" lon="1.40417">
        <ele>132</ele>
        <time>2024-11-06T16:58:58Z</time>
      </trkpt>
      <trkpt lat="43.61724" lon="1.40417">
        <ele>132</ele>
        <time>2024-11-06T16:58:59Z</time>
      </trkpt>
      <trkpt lat="43.61726" lon="1.40415">
        <ele>132</ele>
        <time>2024-11-06T16:59:00Z</time>
      </trkpt>
      <trkpt lat="43.61729" lon="1.40414">
        <ele>132</ele>
        <time>2024-11-06T16:59:01Z</time>
      </trkpt>
      <trkpt lat="43.61731" lon="1.40413">
        <ele>132</ele>
        <time>2024-11-06T16:59:02Z</time>
      </trkpt>
      <trkpt lat="43.61734" lon="1.40411">
        <ele>132</ele>
        <time>2024-11-06T16:59:03Z</time>
      </trkpt>
      <trkpt lat="43.61736" lon="1.4041">
        <ele>132</ele>
        <time>2024-11-06T16:59:04Z</time>
      </trkpt>
      <trkpt lat="43.61739" lon="1.40409">
        <ele>132</ele>
        <time>2024-11-06T16:59:05Z</time>
      </trkpt>
      <trkpt lat="43.61741" lon="1.40408">
        <ele>131</ele>
        <time>2024-11-06T16:59:06Z</time>
      </trkpt>
      <trkpt lat="43.61744" lon="1.40407">
        <ele>131</ele>
        <time>2024-11-06T16:59:07Z</time>
      </trkpt>
      <trkpt lat="43.61746" lon="1.40405">
        <ele>131</ele>
        <time>2024-11-06T16:59:08Z</time>
      </trkpt>
      <trkpt lat="43.61748" lon="1.40404">
        <ele>131</ele>
        <time>2024-11-06T16:59:09Z</time>
      </trkpt>
      <trkpt lat="43.61751" lon="1.40402">
        <ele>131</ele>
        <time>2024-11-06T16:59:10Z</time>
      </trkpt>
      <trkpt lat="43.61755" lon="1.404">
        <ele>131</ele>
        <time>2024-11-06T16:59:11Z</time>
      </trkpt>
      <trkpt lat="43.61756" lon="1.404">
        <ele>131</ele>
        <time>2024-11-06T16:59:12Z</time>
      </trkpt>
      <trkpt lat="43.61759" lon="1.40398">
        <ele>131</ele>
        <time>2024-11-06T16:59:13Z</time>
      </trkpt>
      <trkpt lat="43.61761" lon="1.40397">
        <ele>131</ele>
        <time>2024-11-06T16:59:14Z</time>
      </trkpt>
      <trkpt lat="43.61763" lon="1.40396">
        <ele>131</ele>
        <time>2024-11-06T16:59:15Z</time>
      </trkpt>
      <trkpt lat="43.61766" lon="1.40394">
        <ele>131</ele>
        <time>2024-11-06T16:59:16Z</time>
      </trkpt>
      <trkpt lat="43.61769" lon="1.40393">
        <ele>131</ele>
        <time>2024-11-06T16:59:17Z</time>
      </trkpt>
      <trkpt lat="43.61771" lon="1.40392">
        <ele>132</ele>
        <time>2024-11-06T16:59:18Z</time>
      </trkpt>
      <trkpt lat="43.61773" lon="1.40392">
        <ele>132</ele>
        <time>2024-11-06T16:59:19Z</time>
      </trkpt>
      <trkpt lat="43.61776" lon="1.40391">
        <ele>132</ele>
        <time>2024-11-06T16:59:20Z</time>
      </trkpt>
      <trkpt lat="43.61779" lon="1.40389">
        <ele>132</ele>
        <time>2024-11-06T16:59:21Z</time>
      </trkpt>
      <trkpt lat="43.61782" lon="1.40388">
        <ele>131</ele>
        <time>2024-11-06T16:59:22Z</time>
      </trkpt>
      <trkpt lat="43.61784" lon="1.40387">
        <ele>132</ele>
        <time>2024-11-06T16:59:23Z</time>
      </trkpt>
      <trkpt lat="43.61786" lon="1.40386">
        <ele>132</ele>
        <time>2024-11-06T16:59:24Z</time>
      </trkpt>
      <trkpt lat="43.61789" lon="1.40385">
        <ele>132</ele>
        <time>2024-11-06T16:59:25Z</time>
      </trkpt>
      <trkpt lat="43.61791" lon="1.40384">
        <ele>132</ele>
        <time>2024-11-06T16:59:26Z</time>
      </trkpt>
      <trkpt lat="43.61794" lon="1.40383">
        <ele>132</ele>
        <time>2024-11-06T16:59:27Z</time>
      </trkpt>
      <trkpt lat="43.61796" lon="1.40382">
        <ele>132</ele>
        <time>2024-11-06T16:59:28Z</time>
      </trkpt>
      <trkpt lat="43.61799" lon="1.4038">
        <ele>132</ele>
        <time>2024-11-06T16:59:29Z</time>
      </trkpt>
      <trkpt lat="43.61803" lon="1.40378">
        <ele>132</ele>
        <time>2024-11-06T16:59:30Z</time>
      </trkpt>
      <trkpt lat="43.61804" lon="1.40377">
        <ele>131</ele>
        <time>2024-11-06T16:59:31Z</time>
      </trkpt>
      <trkpt lat="43.61807" lon="1.40376">
        <ele>131</ele>
        <time>2024-11-06T16:59:32Z</time>
      </trkpt>
      <trkpt lat="43.61809" lon="1.40375">
        <ele>131</ele>
        <time>2024-11-06T16:59:33Z</time>
      </trkpt>
      <trkpt lat="43.61812" lon="1.40374">
        <ele>132</ele>
        <time>2024-11-06T16:59:34Z</time>
      </trkpt>
      <trkpt lat="43.61816" lon="1.40374">
        <ele>132</ele>
        <time>2024-11-06T16:59:35Z</time>
      </trkpt>
      <trkpt lat="43.61817" lon="1.40373">
        <ele>132</ele>
        <time>2024-11-06T16:59:36Z</time>
      </trkpt>
      <trkpt lat="43.61819" lon="1.40372">
        <ele>132</ele>
        <time>2024-11-06T16:59:37Z</time>
      </trkpt>
      <trkpt lat="43.61822" lon="1.40372">
        <ele>132</ele>
        <time>2024-11-06T16:59:38Z</time>
      </trkpt>
      <trkpt lat="43.61825" lon="1.40371">
        <ele>132</ele>
        <time>2024-11-06T16:59:39Z</time>
      </trkpt>
      <trkpt lat="43.61828" lon="1.4037">
        <ele>132</ele>
        <time>2024-11-06T16:59:40Z</time>
      </trkpt>
      <trkpt lat="43.6183" lon="1.40369">
        <ele>132</ele>
        <time>2024-11-06T16:59:41Z</time>
      </trkpt>
      <trkpt lat="43.61833" lon="1.40368">
        <ele>132</ele>
        <time>2024-11-06T16:59:42Z</time>
      </trkpt>
      <trkpt lat="43.61836" lon="1.40367">
        <ele>132</ele>
        <time>2024-11-06T16:59:43Z</time>
      </trkpt>
      <trkpt lat="43.61838" lon="1.40366">
        <ele>132</ele>
        <time>2024-11-06T16:59:44Z</time>
      </trkpt>
      <trkpt lat="43.61841" lon="1.40365">
        <ele>132</ele>
        <time>2024-11-06T16:59:45Z</time>
      </trkpt>
      <trkpt lat="43.61843" lon="1.40363">
        <ele>132</ele>
        <time>2024-11-06T16:59:46Z</time>
      </trkpt>
      <trkpt lat="43.61846" lon="1.40362">
        <ele>132</ele>
        <time>2024-11-06T16:59:47Z</time>
      </trkpt>
      <trkpt lat="43.61848" lon="1.40361">
        <ele>131</ele>
        <time>2024-11-06T16:59:48Z</time>
      </trkpt>
      <trkpt lat="43.61852" lon="1.4036">
        <ele>131</ele>
        <time>2024-11-06T16:59:49Z</time>
      </trkpt>
      <trkpt lat="43.61853" lon="1.40359">
        <ele>131</ele>
        <time>2024-11-06T16:59:50Z</time>
      </trkpt>
      <trkpt lat="43.61855" lon="1.40358">
        <ele>131</ele>
        <time>2024-11-06T16:59:51Z</time>
      </trkpt>
      <trkpt lat="43.61858" lon="1.40357">
        <ele>131</ele>
        <time>2024-11-06T16:59:52Z</time>
      </trkpt>
      <trkpt lat="43.6186" lon="1.40355">
        <ele>131</ele>
        <time>2024-11-06T16:59:53Z</time>
      </trkpt>
      <trkpt lat="43.61864" lon="1.40353">
        <ele>131</ele>
        <time>2024-11-06T16:59:54Z</time>
      </trkpt>
      <trkpt lat="43.61865" lon="1.40353">
        <ele>131</ele>
        <time>2024-11-06T16:59:55Z</time>
      </trkpt>
      <trkpt lat="43.61868" lon="1.40352">
        <ele>131</ele>
        <time>2024-11-06T16:59:56Z</time>
      </trkpt>
      <trkpt lat="43.6187" lon="1.40351">
        <ele>131</ele>
        <time>2024-11-06T16:59:57Z</time>
      </trkpt>
      <trkpt lat="43.61875" lon="1.40349">
        <ele>131</ele>
        <time>2024-11-06T16:59:58Z</time>
      </trkpt>
      <trkpt lat="43.61876" lon="1.40349">
        <ele>131</ele>
        <time>2024-11-06T16:59:59Z</time>
      </trkpt>
      <trkpt lat="43.61879" lon="1.40348">
        <ele>131</ele>
        <time>2024-11-06T17:00:00Z</time>
      </trkpt>
      <trkpt lat="43.61881" lon="1.40347">
        <ele>131</ele>
        <time>2024-11-06T17:00:01Z</time>
      </trkpt>
      <trkpt lat="43.61884" lon="1.40346">
        <ele>131</ele>
        <time>2024-11-06T17:00:02Z</time>
      </trkpt>
      <trkpt lat="43.61886" lon="1.40345">
        <ele>131</ele>
        <time>2024-11-06T17:00:03Z</time>
      </trkpt>
      <trkpt lat="43.61889" lon="1.40344">
        <ele>131</ele>
        <time>2024-11-06T17:00:04Z</time>
      </trkpt>
      <trkpt lat="43.61891" lon="1.40343">
        <ele>131</ele>
        <time>2024-11-06T17:00:05Z</time>
      </trkpt>
      <trkpt lat="43.61894" lon="1.40342">
        <ele>131</ele>
        <time>2024-11-06T17:00:06Z</time>
      </trkpt>
      <trkpt lat="43.61896" lon="1.40341">
        <ele>131</ele>
        <time>2024-11-06T17:00:07Z</time>
      </trkpt>
      <trkpt lat="43.61901" lon="1.4034">
        <ele>131</ele>
        <time>2024-11-06T17:00:08Z</time>
      </trkpt>
      <trkpt lat="43.61902" lon="1.4034">
        <ele>131</ele>
        <time>2024-11-06T17:00:09Z</time>
      </trkpt>
      <trkpt lat="43.61905" lon="1.40339">
        <ele>131</ele>
        <time>2024-11-06T17:00:10Z</time>
      </trkpt>
      <trkpt lat="43.61908" lon="1.40338">
        <ele>131</ele>
        <time>2024-11-06T17:00:11Z</time>
      </trkpt>
      <trkpt lat="43.61912" lon="1.40337">
        <ele>131</ele>
        <time>2024-11-06T17:00:12Z</time>
      </trkpt>
      <trkpt lat="43.61913" lon="1.40337">
        <ele>131</ele>
        <time>2024-11-06T17:00:13Z</time>
      </trkpt>
      <trkpt lat="43.61916" lon="1.40336">
        <ele>131</ele>
        <time>2024-11-06T17:00:14Z</time>
      </trkpt>
      <trkpt lat="43.61918" lon="1.40335">
        <ele>131</ele>
        <time>2024-11-06T17:00:15Z</time>
      </trkpt>
      <trkpt lat="43.61921" lon="1.40335">
        <ele>131</ele>
        <time>2024-11-06T17:00:16Z</time>
      </trkpt>
      <trkpt lat="43.61924" lon="1.40334">
        <ele>131</ele>
        <time>2024-11-06T17:00:17Z</time>
      </trkpt>
      <trkpt lat="43.61926" lon="1.40333">
        <ele>131</ele>
        <time>2024-11-06T17:00:18Z</time>
      </trkpt>
      <trkpt lat="43.61929" lon="1.40332">
        <ele>131</ele>
        <time>2024-11-06T17:00:19Z</time>
      </trkpt>
      <trkpt lat="43.61932" lon="1.40331">
        <ele>132</ele>
        <time>2024-11-06T17:00:20Z</time>
      </trkpt>
      <trkpt lat="43.61934" lon="1.40331">
        <ele>132</ele>
        <time>2024-11-06T17:00:21Z</time>
      </trkpt>
      <trkpt lat="43.61937" lon="1.4033">
        <ele>132</ele>
        <time>2024-11-06T17:00:22Z</time>
      </trkpt>
      <trkpt lat="43.6194" lon="1.40329">
        <ele>131</ele>
        <time>2024-11-06T17:00:23Z</time>
      </trkpt>
      <trkpt lat="43.61942" lon="1.40328">
        <ele>131</ele>
        <time>2024-11-06T17:00:24Z</time>
      </trkpt>
      <trkpt lat="43.61945" lon="1.40327">
        <ele>132</ele>
        <time>2024-11-06T17:00:25Z</time>
      </trkpt>
      <trkpt lat="43.61947" lon="1.40326">
        <ele>132</ele>
        <time>2024-11-06T17:00:26Z</time>
      </trkpt>
      <trkpt lat="43.61952" lon="1.40325">
        <ele>132</ele>
        <time>2024-11-06T17:00:27Z</time>
      </trkpt>
      <trkpt lat="43.61953" lon="1.40325">
        <ele>131</ele>
        <time>2024-11-06T17:00:28Z</time>
      </trkpt>
      <trkpt lat="43.61956" lon="1.40324">
        <ele>131</ele>
        <time>2024-11-06T17:00:29Z</time>
      </trkpt>
      <trkpt lat="43.61958" lon="1.40323">
        <ele>131</ele>
        <time>2024-11-06T17:00:30Z</time>
      </trkpt>
      <trkpt lat="43.61962" lon="1.40322">
        <ele>131</ele>
        <time>2024-11-06T17:00:31Z</time>
      </trkpt>
      <trkpt lat="43.61964" lon="1.40322">
        <ele>131</ele>
        <time>2024-11-06T17:00:32Z</time>
      </trkpt>
      <trkpt lat="43.61966" lon="1.40321">
        <ele>131</ele>
        <time>2024-11-06T17:00:33Z</time>
      </trkpt>
      <trkpt lat="43.61969" lon="1.4032">
        <ele>131</ele>
        <time>2024-11-06T17:00:34Z</time>
      </trkpt>
      <trkpt lat="43.61971" lon="1.40319">
        <ele>131</ele>
        <time>2024-11-06T17:00:35Z</time>
      </trkpt>
      <trkpt lat="43.61974" lon="1.40318">
        <ele>131</ele>
        <time>2024-11-06T17:00:36Z</time>
      </trkpt>
      <trkpt lat="43.61977" lon="1.40317">
        <ele>131</ele>
        <time>2024-11-06T17:00:37Z</time>
      </trkpt>
      <trkpt lat="43.61979" lon="1.40317">
        <ele>131</ele>
        <time>2024-11-06T17:00:38Z</time>
      </trkpt>
      <trkpt lat="43.61982" lon="1.40315">
        <ele>131</ele>
        <time>2024-11-06T17:00:39Z</time>
      </trkpt>
      <trkpt lat="43.61985" lon="1.40314">
        <ele>131</ele>
        <time>2024-11-06T17:00:40Z</time>
      </trkpt>
      <trkpt lat="43.61987" lon="1.40313">
        <ele>131</ele>
        <time>2024-11-06T17:00:41Z</time>
      </trkpt>
      <trkpt lat="43.6199" lon="1.40313">
        <ele>131</ele>
        <time>2024-11-06T17:00:42Z</time>
      </trkpt>
      <trkpt lat="43.61992" lon="1.40312">
        <ele>131</ele>
        <time>2024-11-06T17:00:43Z</time>
      </trkpt>
      <trkpt lat="43.61995" lon="1.40311">
        <ele>131</ele>
        <time>2024-11-06T17:00:44Z</time>
      </trkpt>
      <trkpt lat="43.61998" lon="1.4031">
        <ele>131</ele>
        <time>2024-11-06T17:00:45Z</time>
      </trkpt>
      <trkpt lat="43.62002" lon="1.40309">
        <ele>131</ele>
        <time>2024-11-06T17:00:46Z</time>
      </trkpt>
      <trkpt lat="43.62003" lon="1.40309">
        <ele>131</ele>
        <time>2024-11-06T17:00:47Z</time>
      </trkpt>
      <trkpt lat="43.62005" lon="1.40308">
        <ele>131</ele>
        <time>2024-11-06T17:00:48Z</time>
      </trkpt>
      <trkpt lat="43.62008" lon="1.40307">
        <ele>131</ele>
        <time>2024-11-06T17:00:49Z</time>
      </trkpt>
      <trkpt lat="43.62012" lon="1.40305">
        <ele>131</ele>
        <time>2024-11-06T17:00:50Z</time>
      </trkpt>
      <trkpt lat="43.62013" lon="1.40305">
        <ele>132</ele>
        <time>2024-11-06T17:00:51Z</time>
      </trkpt>
      <trkpt lat="43.62015" lon="1.40303">
        <ele>132</ele>
        <time>2024-11-06T17:00:52Z</time>
      </trkpt>
      <trkpt lat="43.62018" lon="1.40302">
        <ele>131</ele>
        <time>2024-11-06T17:00:53Z</time>
      </trkpt>
      <trkpt lat="43.6202" lon="1.403">
        <ele>131</ele>
        <time>2024-11-06T17:00:54Z</time>
      </trkpt>
      <trkpt lat="43.62022" lon="1.40299">
        <ele>131</ele>
        <time>2024-11-06T17:00:55Z</time>
      </trkpt>
      <trkpt lat="43.62025" lon="1.40298">
        <ele>131</ele>
        <time>2024-11-06T17:00:56Z</time>
      </trkpt>
      <trkpt lat="43.62027" lon="1.40296">
        <ele>131</ele>
        <time>2024-11-06T17:00:57Z</time>
      </trkpt>
      <trkpt lat="43.6203" lon="1.40295">
        <ele>131</ele>
        <time>2024-11-06T17:00:58Z</time>
      </trkpt>
      <trkpt lat="43.62032" lon="1.40294">
        <ele>131</ele>
        <time>2024-11-06T17:00:59Z</time>
      </trkpt>
      <trkpt lat="43.62035" lon="1.40293">
        <ele>131</ele>
        <time>2024-11-06T17:01:00Z</time>
      </trkpt>
      <trkpt lat="43.62037" lon="1.40292">
        <ele>131</ele>
        <time>2024-11-06T17:01:01Z</time>
      </trkpt>
      <trkpt lat="43.6204" lon="1.4029">
        <ele>131</ele>
        <time>2024-11-06T17:01:02Z</time>
      </trkpt>
      <trkpt lat="43.62042" lon="1.40289">
        <ele>131</ele>
        <time>2024-11-06T17:01:03Z</time>
      </trkpt>
      <trkpt lat="43.62045" lon="1.40288">
        <ele>131</ele>
        <time>2024-11-06T17:01:04Z</time>
      </trkpt>
      <trkpt lat="43.62049" lon="1.40287">
        <ele>131</ele>
        <time>2024-11-06T17:01:05Z</time>
      </trkpt>
      <trkpt lat="43.6205" lon="1.40286">
        <ele>131</ele>
        <time>2024-11-06T17:01:06Z</time>
      </trkpt>
      <trkpt lat="43.62052" lon="1.40285">
        <ele>131</ele>
        <time>2024-11-06T17:01:07Z</time>
      </trkpt>
      <trkpt lat="43.62055" lon="1.40284">
        <ele>131</ele>
        <time>2024-11-06T17:01:08Z</time>
      </trkpt>
      <trkpt lat="43.62059" lon="1.40283">
        <ele>131</ele>
        <time>2024-11-06T17:01:09Z</time>
      </trkpt>
      <trkpt lat="43.6206" lon="1.40283">
        <ele>131</ele>
        <time>2024-11-06T17:01:10Z</time>
      </trkpt>
      <trkpt lat="43.62063" lon="1.40282">
        <ele>131</ele>
        <time>2024-11-06T17:01:11Z</time>
      </trkpt>
      <trkpt lat="43.62065" lon="1.40281">
        <ele>131</ele>
        <time>2024-11-06T17:01:12Z</time>
      </trkpt>
      <trkpt lat="43.62068" lon="1.4028">
        <ele>131</ele>
        <time>2024-11-06T17:01:13Z</time>
      </trkpt>
      <trkpt lat="43.62071" lon="1.4028">
        <ele>131</ele>
        <time>2024-11-06T17:01:14Z</time>
      </trkpt>
      <trkpt lat="43.62073" lon="1.40279">
        <ele>131</ele>
        <time>2024-11-06T17:01:15Z</time>
      </trkpt>
      <trkpt lat="43.62076" lon="1.40279">
        <ele>131</ele>
        <time>2024-11-06T17:01:16Z</time>
      </trkpt>
      <trkpt lat="43.62078" lon="1.40278">
        <ele>131</ele>
        <time>2024-11-06T17:01:17Z</time>
      </trkpt>
      <trkpt lat="43.62081" lon="1.40277">
        <ele>131</ele>
        <time>2024-11-06T17:01:18Z</time>
      </trkpt>
      <trkpt lat="43.62084" lon="1.40276">
        <ele>131</ele>
        <time>2024-11-06T17:01:19Z</time>
      </trkpt>
      <trkpt lat="43.62086" lon="1.40276">
        <ele>131</ele>
        <time>2024-11-06T17:01:20Z</time>
      </trkpt>
      <trkpt lat="43.62089" lon="1.40275">
        <ele>131</ele>
        <time>2024-11-06T17:01:21Z</time>
      </trkpt>
      <trkpt lat="43.62092" lon="1.40273">
        <ele>131</ele>
        <time>2024-11-06T17:01:22Z</time>
      </trkpt>
      <trkpt lat="43.62095" lon="1.40273">
        <ele>131</ele>
        <time>2024-11-06T17:01:23Z</time>
      </trkpt>
      <trkpt lat="43.62098" lon="1.40271">
        <ele>131</ele>
        <time>2024-11-06T17:01:24Z</time>
      </trkpt>
      <trkpt lat="43.621" lon="1.40271">
        <ele>131</ele>
        <time>2024-11-06T17:01:25Z</time>
      </trkpt>
      <trkpt lat="43.62102" lon="1.40269">
        <ele>131</ele>
        <time>2024-11-06T17:01:26Z</time>
      </trkpt>
      <trkpt lat="43.62106" lon="1.40268">
        <ele>131</ele>
        <time>2024-11-06T17:01:27Z</time>
      </trkpt>
      <trkpt lat="43.62107" lon="1.40267">
        <ele>131</ele>
        <time>2024-11-06T17:01:28Z</time>
      </trkpt>
      <trkpt lat="43.6211" lon="1.40266">
        <ele>131</ele>
        <time>2024-11-06T17:01:29Z</time>
      </trkpt>
      <trkpt lat="43.62112" lon="1.40265">
        <ele>131</ele>
        <time>2024-11-06T17:01:30Z</time>
      </trkpt>
      <trkpt lat="43.62115" lon="1.40264">
        <ele>131</ele>
        <time>2024-11-06T17:01:31Z</time>
      </trkpt>
      <trkpt lat="43.62118" lon="1.40264">
        <ele>131</ele>
        <time>2024-11-06T17:01:32Z</time>
      </trkpt>
      <trkpt lat="43.6212" lon="1.40262">
        <ele>131</ele>
        <time>2024-11-06T17:01:33Z</time>
      </trkpt>
      <trkpt lat="43.62123" lon="1.40261">
        <ele>131</ele>
        <time>2024-11-06T17:01:34Z</time>
      </trkpt>
      <trkpt lat="43.62126" lon="1.4026">
        <ele>131</ele>
        <time>2024-11-06T17:01:35Z</time>
      </trkpt>
      <trkpt lat="43.62128" lon="1.4026">
        <ele>131</ele>
        <time>2024-11-06T17:01:36Z</time>
      </trkpt>
      <trkpt lat="43.62131" lon="1.40259">
        <ele>131</ele>
        <time>2024-11-06T17:01:37Z</time>
      </trkpt>
      <trkpt lat="43.62133" lon="1.40258">
        <ele>131</ele>
        <time>2024-11-06T17:01:38Z</time>
      </trkpt>
      <trkpt lat="43.62136" lon="1.40257">
        <ele>131</ele>
        <time>2024-11-06T17:01:39Z</time>
      </trkpt>
      <trkpt lat="43.62139" lon="1.40256">
        <ele>131</ele>
        <time>2024-11-06T17:01:40Z</time>
      </trkpt>
      <trkpt lat="43.62141" lon="1.40255">
        <ele>131</ele>
        <time>2024-11-06T17:01:41Z</time>
      </trkpt>
      <trkpt lat="43.62144" lon="1.40255">
        <ele>131</ele>
        <time>2024-11-06T17:01:42Z</time>
      </trkpt>
      <trkpt lat="43.62148" lon="1.40253">
        <ele>131</ele>
        <time>2024-11-06T17:01:43Z</time>
      </trkpt>
      <trkpt lat="43.62149" lon="1.40253">
        <ele>131</ele>
        <time>2024-11-06T17:01:44Z</time>
      </trkpt>
      <trkpt lat="43.62151" lon="1.40252">
        <ele>131</ele>
        <time>2024-11-06T17:01:45Z</time>
      </trkpt>
      <trkpt lat="43.62155" lon="1.40251">
        <ele>131</ele>
        <time>2024-11-06T17:01:46Z</time>
      </trkpt>
      <trkpt lat="43.62157" lon="1.40251">
        <ele>131</ele>
        <time>2024-11-06T17:01:47Z</time>
      </trkpt>
      <trkpt lat="43.62159" lon="1.4025">
        <ele>131</ele>
        <time>2024-11-06T17:01:48Z</time>
      </trkpt>
      <trkpt lat="43.62162" lon="1.4025">
        <ele>131</ele>
        <time>2024-11-06T17:01:49Z</time>
      </trkpt>
      <trkpt lat="43.62164" lon="1.40249">
        <ele>131</ele>
        <time>2024-11-06T17:01:50Z</time>
      </trkpt>
      <trkpt lat="43.62167" lon="1.40248">
        <ele>131</ele>
        <time>2024-11-06T17:01:51Z</time>
      </trkpt>
      <trkpt lat="43.6217" lon="1.40247">
        <ele>131</ele>
        <time>2024-11-06T17:01:52Z</time>
      </trkpt>
      <trkpt lat="43.62173" lon="1.40247">
        <ele>131</ele>
        <time>2024-11-06T17:01:53Z</time>
      </trkpt>
      <trkpt lat="43.62175" lon="1.40246">
        <ele>131</ele>
        <time>2024-11-06T17:01:54Z</time>
      </trkpt>
      <trkpt lat="43.62178" lon="1.40245">
        <ele>131</ele>
        <time>2024-11-06T17:01:55Z</time>
      </trkpt>
      <trkpt lat="43.62182" lon="1.40244">
        <ele>131</ele>
        <time>2024-11-06T17:01:56Z</time>
      </trkpt>
      <trkpt lat="43.62183" lon="1.40243">
        <ele>131</ele>
        <time>2024-11-06T17:01:57Z</time>
      </trkpt>
      <trkpt lat="43.62185" lon="1.40243">
        <ele>131</ele>
        <time>2024-11-06T17:01:58Z</time>
      </trkpt>
      <trkpt lat="43.62188" lon="1.40242">
        <ele>131</ele>
        <time>2024-11-06T17:01:59Z</time>
      </trkpt>
      <trkpt lat="43.6219" lon="1.40241">
        <ele>131</ele>
        <time>2024-11-06T17:02:00Z</time>
      </trkpt>
      <trkpt lat="43.62193" lon="1.40241">
        <ele>131</ele>
        <time>2024-11-06T17:02:01Z</time>
      </trkpt>
      <trkpt lat="43.62197" lon="1.4024">
        <ele>131</ele>
        <time>2024-11-06T17:02:02Z</time>
      </trkpt>
      <trkpt lat="43.62198" lon="1.4024">
        <ele>131</ele>
        <time>2024-11-06T17:02:03Z</time>
      </trkpt>
      <trkpt lat="43.622" lon="1.4024">
        <ele>131</ele>
        <time>2024-11-06T17:02:04Z</time>
      </trkpt>
      <trkpt lat="43.62202" lon="1.4024">
        <ele>131</ele>
        <time>2024-11-06T17:02:05Z</time>
      </trkpt>
      <trkpt lat="43.62202" lon="1.4024">
        <ele>131</ele>
        <time>2024-11-06T17:02:06Z</time>
      </trkpt>
      <trkpt lat="43.62205" lon="1.4024">
        <ele>131</ele>
        <time>2024-11-06T17:02:07Z</time>
      </trkpt>
      <trkpt lat="43.62208" lon="1.4024">
        <ele>131</ele>
        <time>2024-11-06T17:02:08Z</time>
      </trkpt>
      <trkpt lat="43.6221" lon="1.40239">
        <ele>131</ele>
        <time>2024-11-06T17:02:09Z</time>
      </trkpt>
      <trkpt lat="43.62213" lon="1.40239">
        <ele>131</ele>
        <time>2024-11-06T17:02:10Z</time>
      </trkpt>
      <trkpt lat="43.62216" lon="1.40237">
        <ele>131</ele>
        <time>2024-11-06T17:02:11Z</time>
      </trkpt>
      <trkpt lat="43.62219" lon="1.40235">
        <ele>131</ele>
        <time>2024-11-06T17:02:12Z</time>
      </trkpt>
      <trkpt lat="43.62222" lon="1.40233">
        <ele>131</ele>
        <time>2024-11-06T17:02:13Z</time>
      </trkpt>
      <trkpt lat="43.62225" lon="1.40231">
        <ele>131</ele>
        <time>2024-11-06T17:02:14Z</time>
      </trkpt>
      <trkpt lat="43.62228" lon="1.40231">
        <ele>131</ele>
        <time>2024-11-06T17:02:15Z</time>
      </trkpt>
      <trkpt lat="43.6223" lon="1.4023">
        <ele>131</ele>
        <time>2024-11-06T17:02:16Z</time>
      </trkpt>
      <trkpt lat="43.62233" lon="1.40229">
        <ele>131</ele>
        <time>2024-11-06T17:02:17Z</time>
      </trkpt>
      <trkpt lat="43.62236" lon="1.40229">
        <ele>131</ele>
        <time>2024-11-06T17:02:18Z</time>
      </trkpt>
      <trkpt lat="43.62238" lon="1.40228">
        <ele>131</ele>
        <time>2024-11-06T17:02:19Z</time>
      </trkpt>
      <trkpt lat="43.62241" lon="1.40228">
        <ele>131</ele>
        <time>2024-11-06T17:02:20Z</time>
      </trkpt>
      <trkpt lat="43.62244" lon="1.40227">
        <ele>131</ele>
        <time>2024-11-06T17:02:21Z</time>
      </trkpt>
      <trkpt lat="43.62246" lon="1.40227">
        <ele>131</ele>
        <time>2024-11-06T17:02:22Z</time>
      </trkpt>
      <trkpt lat="43.62248" lon="1.40227">
        <ele>131</ele>
        <time>2024-11-06T17:02:23Z</time>
      </trkpt>
      <trkpt lat="43.62253" lon="1.40227">
        <ele>131</ele>
        <time>2024-11-06T17:02:24Z</time>
      </trkpt>
      <trkpt lat="43.62254" lon="1.40227">
        <ele>131</ele>
        <time>2024-11-06T17:02:25Z</time>
      </trkpt>
      <trkpt lat="43.62257" lon="1.40227">
        <ele>131</ele>
        <time>2024-11-06T17:02:26Z</time>
      </trkpt>
      <trkpt lat="43.62259" lon="1.40227">
        <ele>131</ele>
        <time>2024-11-06T17:02:27Z</time>
      </trkpt>
      <trkpt lat="43.62262" lon="1.40226">
        <ele>131</ele>
        <time>2024-11-06T17:02:28Z</time>
      </trkpt>
      <trkpt lat="43.62265" lon="1.40226">
        <ele>131</ele>
        <time>2024-11-06T17:02:29Z</time>
      </trkpt>
      <trkpt lat="43.62268" lon="1.40225">
        <ele>131</ele>
        <time>2024-11-06T17:02:30Z</time>
      </trkpt>
      <trkpt lat="43.62271" lon="1.40225">
        <ele>131</ele>
        <time>2024-11-06T17:02:31Z</time>
      </trkpt>
      <trkpt lat="43.62274" lon="1.40224">
        <ele>131</ele>
        <time>2024-11-06T17:02:32Z</time>
      </trkpt>
      <trkpt lat="43.62276" lon="1.40224">
        <ele>131</ele>
        <time>2024-11-06T17:02:33Z</time>
      </trkpt>
      <trkpt lat="43.62279" lon="1.40224">
        <ele>131</ele>
        <time>2024-11-06T17:02:34Z</time>
      </trkpt>
      <trkpt lat="43.62282" lon="1.40224">
        <ele>131</ele>
        <time>2024-11-06T17:02:35Z</time>
      </trkpt>
      <trkpt lat="43.62284" lon="1.40224">
        <ele>131</ele>
        <time>2024-11-06T17:02:36Z</time>
      </trkpt>
      <trkpt lat="43.62287" lon="1.40224">
        <ele>131</ele>
        <time>2024-11-06T17:02:37Z</time>
      </trkpt>
      <trkpt lat="43.6229" lon="1.40223">
        <ele>131</ele>
        <time>2024-11-06T17:02:38Z</time>
      </trkpt>
      <trkpt lat="43.62293" lon="1.40223">
        <ele>131</ele>
        <time>2024-11-06T17:02:39Z</time>
      </trkpt>
      <trkpt lat="43.62297" lon="1.40223">
        <ele>131</ele>
        <time>2024-11-06T17:02:40Z</time>
      </trkpt>
      <trkpt lat="43.62298" lon="1.40223">
        <ele>131</ele>
        <time>2024-11-06T17:02:41Z</time>
      </trkpt>
      <trkpt lat="43.62302" lon="1.40223">
        <ele>131</ele>
        <time>2024-11-06T17:02:42Z</time>
      </trkpt>
      <trkpt lat="43.62304" lon="1.40223">
        <ele>131</ele>
        <time>2024-11-06T17:02:43Z</time>
      </trkpt>
      <trkpt lat="43.62306" lon="1.40223">
        <ele>131</ele>
        <time>2024-11-06T17:02:44Z</time>
      </trkpt>
      <trkpt lat="43.62309" lon="1.40223">
        <ele>131</ele>
        <time>2024-11-06T17:02:45Z</time>
      </trkpt>
      <trkpt lat="43.62312" lon="1.40223">
        <ele>131</ele>
        <time>2024-11-06T17:02:46Z</time>
      </trkpt>
      <trkpt lat="43.62314" lon="1.40222">
        <ele>131</ele>
        <time>2024-11-06T17:02:47Z</time>
      </trkpt>
      <trkpt lat="43.62317" lon="1.40222">
        <ele>131</ele>
        <time>2024-11-06T17:02:48Z</time>
      </trkpt>
      <trkpt lat="43.6232" lon="1.40222">
        <ele>130</ele>
        <time>2024-11-06T17:02:49Z</time>
      </trkpt>
      <trkpt lat="43.62322" lon="1.40222">
        <ele>130</ele>
        <time>2024-11-06T17:02:50Z</time>
      </trkpt>
      <trkpt lat="43.62325" lon="1.40222">
        <ele>131</ele>
        <time>2024-11-06T17:02:51Z</time>
      </trkpt>
      <trkpt lat="43.62327" lon="1.40222">
        <ele>131</ele>
        <time>2024-11-06T17:02:52Z</time>
      </trkpt>
      <trkpt lat="43.6233" lon="1.40222">
        <ele>131</ele>
        <time>2024-11-06T17:02:53Z</time>
      </trkpt>
      <trkpt lat="43.62333" lon="1.40222">
        <ele>131</ele>
        <time>2024-11-06T17:02:54Z</time>
      </trkpt>
      <trkpt lat="43.62336" lon="1.40222">
        <ele>131</ele>
        <time>2024-11-06T17:02:55Z</time>
      </trkpt>
      <trkpt lat="43.62339" lon="1.40222">
        <ele>131</ele>
        <time>2024-11-06T17:02:56Z</time>
      </trkpt>
      <trkpt lat="43.62341" lon="1.40222">
        <ele>131</ele>
        <time>2024-11-06T17:02:57Z</time>
      </trkpt>
      <trkpt lat="43.62344" lon="1.40222">
        <ele>131</ele>
        <time>2024-11-06T17:02:58Z</time>
      </trkpt>
      <trkpt lat="43.62346" lon="1.40222">
        <ele>131</ele>
        <time>2024-11-06T17:02:59Z</time>
      </trkpt>
      <trkpt lat="43.62349" lon="1.40222">
        <ele>131</ele>
        <time>2024-11-06T17:03:00Z</time>
      </trkpt>
      <trkpt lat="43.62352" lon="1.40222">
        <ele>131</ele>
        <time>2024-11-06T17:03:01Z</time>
      </trkpt>
      <trkpt lat="43.62355" lon="1.40222">
        <ele>131</ele>
        <time>2024-11-06T17:03:02Z</time>
      </trkpt>
      <trkpt lat="43.62357" lon="1.40222">
        <ele>130</ele>
        <time>2024-11-06T17:03:03Z</time>
      </trkpt>
      <trkpt lat="43.6236" lon="1.40222">
        <ele>130</ele>
        <time>2024-11-06T17:03:04Z</time>
      </trkpt>
      <trkpt lat="43.62363" lon="1.40222">
        <ele>130</ele>
        <time>2024-11-06T17:03:05Z</time>
      </trkpt>
      <trkpt lat="43.62366" lon="1.40222">
        <ele>130</ele>
        <time>2024-11-06T17:03:06Z</time>
      </trkpt>
      <trkpt lat="43.62369" lon="1.40222">
        <ele>130</ele>
        <time>2024-11-06T17:03:07Z</time>
      </trkpt>
      <trkpt lat="43.62372" lon="1.40222">
        <ele>130</ele>
        <time>2024-11-06T17:03:08Z</time>
      </trkpt>
      <trkpt lat="43.62374" lon="1.40222">
        <ele>130</ele>
        <time>2024-11-06T17:03:09Z</time>
      </trkpt>
      <trkpt lat="43.62377" lon="1.40222">
        <ele>130</ele>
        <time>2024-11-06T17:03:10Z</time>
      </trkpt>
      <trkpt lat="43.62379" lon="1.40223">
        <ele>130</ele>
        <time>2024-11-06T17:03:11Z</time>
      </trkpt>
      <trkpt lat="43.62382" lon="1.40223">
        <ele>130</ele>
        <time>2024-11-06T17:03:12Z</time>
      </trkpt>
      <trkpt lat="43.62384" lon="1.40223">
        <ele>130</ele>
        <time>2024-11-06T17:03:13Z</time>
      </trkpt>
      <trkpt lat="43.62387" lon="1.40224">
        <ele>130</ele>
        <time>2024-11-06T17:03:14Z</time>
      </trkpt>
      <trkpt lat="43.6239" lon="1.40224">
        <ele>130</ele>
        <time>2024-11-06T17:03:15Z</time>
      </trkpt>
      <trkpt lat="43.62392" lon="1.40224">
        <ele>130</ele>
        <time>2024-11-06T17:03:16Z</time>
      </trkpt>
      <trkpt lat="43.62395" lon="1.40224">
        <ele>130</ele>
        <time>2024-11-06T17:03:17Z</time>
      </trkpt>
      <trkpt lat="43.62398" lon="1.40224">
        <ele>130</ele>
        <time>2024-11-06T17:03:18Z</time>
      </trkpt>
      <trkpt lat="43.62401" lon="1.40225">
        <ele>130</ele>
        <time>2024-11-06T17:03:19Z</time>
      </trkpt>
      <trkpt lat="43.62403" lon="1.40225">
        <ele>130</ele>
        <time>2024-11-06T17:03:20Z</time>
      </trkpt>
      <trkpt lat="43.62406" lon="1.40225">
        <ele>130</ele>
        <time>2024-11-06T17:03:21Z</time>
      </trkpt>
      <trkpt lat="43.62409" lon="1.40226">
        <ele>130</ele>
        <time>2024-11-06T17:03:22Z</time>
      </trkpt>
      <trkpt lat="43.62411" lon="1.40226">
        <ele>130</ele>
        <time>2024-11-06T17:03:23Z</time>
      </trkpt>
      <trkpt lat="43.62414" lon="1.40226">
        <ele>130</ele>
        <time>2024-11-06T17:03:24Z</time>
      </trkpt>
      <trkpt lat="43.62417" lon="1.40227">
        <ele>130</ele>
        <time>2024-11-06T17:03:25Z</time>
      </trkpt>
      <trkpt lat="43.62419" lon="1.40227">
        <ele>130</ele>
        <time>2024-11-06T17:03:26Z</time>
      </trkpt>
      <trkpt lat="43.62422" lon="1.40227">
        <ele>130</ele>
        <time>2024-11-06T17:03:27Z</time>
      </trkpt>
      <trkpt lat="43.62424" lon="1.40227">
        <ele>130</ele>
        <time>2024-11-06T17:03:28Z</time>
      </trkpt>
      <trkpt lat="43.62427" lon="1.40226">
        <ele>130</ele>
        <time>2024-11-06T17:03:29Z</time>
      </trkpt>
      <trkpt lat="43.6243" lon="1.40227">
        <ele>130</ele>
        <time>2024-11-06T17:03:30Z</time>
      </trkpt>
      <trkpt lat="43.62433" lon="1.40227">
        <ele>130</ele>
        <time>2024-11-06T17:03:31Z</time>
      </trkpt>
      <trkpt lat="43.62435" lon="1.40227">
        <ele>130</ele>
        <time>2024-11-06T17:03:32Z</time>
      </trkpt>
      <trkpt lat="43.62438" lon="1.40227">
        <ele>130</ele>
        <time>2024-11-06T17:03:33Z</time>
      </trkpt>
      <trkpt lat="43.62441" lon="1.40228">
        <ele>130</ele>
        <time>2024-11-06T17:03:34Z</time>
      </trkpt>
      <trkpt lat="43.62443" lon="1.4023">
        <ele>130</ele>
        <time>2024-11-06T17:03:35Z</time>
      </trkpt>
      <trkpt lat="43.62445" lon="1.40233">
        <ele>130</ele>
        <time>2024-11-06T17:03:36Z</time>
      </trkpt>
      <trkpt lat="43.62446" lon="1.40236">
        <ele>130</ele>
        <time>2024-11-06T17:03:37Z</time>
      </trkpt>
      <trkpt lat="43.62447" lon="1.4024">
        <ele>130</ele>
        <time>2024-11-06T17:03:38Z</time>
      </trkpt>
      <trkpt lat="43.62448" lon="1.40243">
        <ele>130</ele>
        <time>2024-11-06T17:03:39Z</time>
      </trkpt>
      <trkpt lat="43.62449" lon="1.40246">
        <ele>130</ele>
        <time>2024-11-06T17:03:40Z</time>
      </trkpt>
      <trkpt lat="43.6245" lon="1.4025">
        <ele>130</ele>
        <time>2024-11-06T17:03:41Z</time>
      </trkpt>
      <trkpt lat="43.62451" lon="1.40253">
        <ele>130</ele>
        <time>2024-11-06T17:03:42Z</time>
      </trkpt>
      <trkpt lat="43.62452" lon="1.40257">
        <ele>130</ele>
        <time>2024-11-06T17:03:43Z</time>
      </trkpt>
      <trkpt lat="43.62454" lon="1.4026">
        <ele>130</ele>
        <time>2024-11-06T17:03:44Z</time>
      </trkpt>
      <trkpt lat="43.62455" lon="1.40263">
        <ele>130</ele>
        <time>2024-11-06T17:03:45Z</time>
      </trkpt>
      <trkpt lat="43.62456" lon="1.40266">
        <ele>130</ele>
        <time>2024-11-06T17:03:46Z</time>
      </trkpt>
      <trkpt lat="43.62456" lon="1.40266">
        <ele>130</ele>
        <time>2024-11-06T17:03:47Z</time>
      </trkpt>
      <trkpt lat="43.62464" lon="1.40276">
        <ele>130</ele>
        <time>2024-11-06T17:03:53Z</time>
      </trkpt>
      <trkpt lat="43.62467" lon="1.40275">
        <ele>130</ele>
        <time>2024-11-06T17:03:54Z</time>
      </trkpt>
      <trkpt lat="43.62468" lon="1.40272">
        <ele>130</ele>
        <time>2024-11-06T17:03:55Z</time>
      </trkpt>
      <trkpt lat="43.62469" lon="1.40269">
        <ele>130</ele>
        <time>2024-11-06T17:03:56Z</time>
      </trkpt>
      <trkpt lat="43.62469" lon="1.40266">
        <ele>130</ele>
        <time>2024-11-06T17:03:57Z</time>
      </trkpt>
      <trkpt lat="43.62469" lon="1.40262">
        <ele>130</ele>
        <time>2024-11-06T17:03:58Z</time>
      </trkpt>
      <trkpt lat="43.6247" lon="1.40259">
        <ele>130</ele>
        <time>2024-11-06T17:03:59Z</time>
      </trkpt>
      <trkpt lat="43.62469" lon="1.40256">
        <ele>130</ele>
        <time>2024-11-06T17:04:00Z</time>
      </trkpt>
      <trkpt lat="43.62469" lon="1.40253">
        <ele>130</ele>
        <time>2024-11-06T17:04:01Z</time>
      </trkpt>
      <trkpt lat="43.6247" lon="1.40249">
        <ele>130</ele>
        <time>2024-11-06T17:04:02Z</time>
      </trkpt>
      <trkpt lat="43.6247" lon="1.40246">
        <ele>130</ele>
        <time>2024-11-06T17:04:03Z</time>
      </trkpt>
      <trkpt lat="43.6247" lon="1.40241">
        <ele>130</ele>
        <time>2024-11-06T17:04:04Z</time>
      </trkpt>
      <trkpt lat="43.6247" lon="1.4024">
        <ele>130</ele>
        <time>2024-11-06T17:04:05Z</time>
      </trkpt>
      <trkpt lat="43.6247" lon="1.40236">
        <ele>130</ele>
        <time>2024-11-06T17:04:06Z</time>
      </trkpt>
      <trkpt lat="43.6247" lon="1.40233">
        <ele>131</ele>
        <time>2024-11-06T17:04:07Z</time>
      </trkpt>
      <trkpt lat="43.6247" lon="1.4023">
        <ele>131</ele>
        <time>2024-11-06T17:04:08Z</time>
      </trkpt>
      <trkpt lat="43.6247" lon="1.40226">
        <ele>131</ele>
        <time>2024-11-06T17:04:09Z</time>
      </trkpt>
      <trkpt lat="43.62471" lon="1.40223">
        <ele>131</ele>
        <time>2024-11-06T17:04:10Z</time>
      </trkpt>
      <trkpt lat="43.62471" lon="1.4022">
        <ele>131</ele>
        <time>2024-11-06T17:04:11Z</time>
      </trkpt>
      <trkpt lat="43.62471" lon="1.40215">
        <ele>131</ele>
        <time>2024-11-06T17:04:12Z</time>
      </trkpt>
      <trkpt lat="43.62471" lon="1.40213">
        <ele>132</ele>
        <time>2024-11-06T17:04:13Z</time>
      </trkpt>
      <trkpt lat="43.62471" lon="1.4021">
        <ele>132</ele>
        <time>2024-11-06T17:04:14Z</time>
      </trkpt>
      <trkpt lat="43.62472" lon="1.40206">
        <ele>132</ele>
        <time>2024-11-06T17:04:15Z</time>
      </trkpt>
      <trkpt lat="43.62472" lon="1.40203">
        <ele>132</ele>
        <time>2024-11-06T17:04:16Z</time>
      </trkpt>
      <trkpt lat="43.62471" lon="1.40198">
        <ele>132</ele>
        <time>2024-11-06T17:04:17Z</time>
      </trkpt>
      <trkpt lat="43.62471" lon="1.40194">
        <ele>132</ele>
        <time>2024-11-06T17:04:18Z</time>
      </trkpt>
      <trkpt lat="43.62471" lon="1.4019">
        <ele>132</ele>
        <time>2024-11-06T17:04:19Z</time>
      </trkpt>
      <trkpt lat="43.62471" lon="1.40187">
        <ele>133</ele>
        <time>2024-11-06T17:04:20Z</time>
      </trkpt>
      <trkpt lat="43.62471" lon="1.40183">
        <ele>133</ele>
        <time>2024-11-06T17:04:21Z</time>
      </trkpt>
      <trkpt lat="43.62472" lon="1.4018">
        <ele>133</ele>
        <time>2024-11-06T17:04:22Z</time>
      </trkpt>
      <trkpt lat="43.62472" lon="1.40177">
        <ele>133</ele>
        <time>2024-11-06T17:04:23Z</time>
      </trkpt>
      <trkpt lat="43.62472" lon="1.40171">
        <ele>133</ele>
        <time>2024-11-06T17:04:24Z</time>
      </trkpt>
      <trkpt lat="43.62472" lon="1.4017">
        <ele>134</ele>
        <time>2024-11-06T17:04:25Z</time>
      </trkpt>
      <trkpt lat="43.62472" lon="1.40166">
        <ele>134</ele>
        <time>2024-11-06T17:04:26Z</time>
      </trkpt>
      <trkpt lat="43.62472" lon="1.40163">
        <ele>134</ele>
        <time>2024-11-06T17:04:27Z</time>
      </trkpt>
      <trkpt lat="43.62473" lon="1.4016">
        <ele>134</ele>
        <time>2024-11-06T17:04:28Z</time>
      </trkpt>
      <trkpt lat="43.62473" lon="1.40156">
        <ele>134</ele>
        <time>2024-11-06T17:04:29Z</time>
      </trkpt>
      <trkpt lat="43.62473" lon="1.40153">
        <ele>134</ele>
        <time>2024-11-06T17:04:30Z</time>
      </trkpt>
      <trkpt lat="43.62473" lon="1.40148">
        <ele>134</ele>
        <time>2024-11-06T17:04:31Z</time>
      </trkpt>
      <trkpt lat="43.62473" lon="1.40147">
        <ele>134</ele>
        <time>2024-11-06T17:04:32Z</time>
      </trkpt>
      <trkpt lat="43.62474" lon="1.40143">
        <ele>134</ele>
        <time>2024-11-06T17:04:33Z</time>
      </trkpt>
      <trkpt lat="43.62474" lon="1.40139">
        <ele>134</ele>
        <time>2024-11-06T17:04:34Z</time>
      </trkpt>
      <trkpt lat="43.62473" lon="1.40136">
        <ele>134</ele>
        <time>2024-11-06T17:04:35Z</time>
      </trkpt>
      <trkpt lat="43.62473" lon="1.40132">
        <ele>134</ele>
        <time>2024-11-06T17:04:36Z</time>
      </trkpt>
      <trkpt lat="43.62474" lon="1.40129">
        <ele>134</ele>
        <time>2024-11-06T17:04:37Z</time>
      </trkpt>
      <trkpt lat="43.62474" lon="1.40126">
        <ele>134</ele>
        <time>2024-11-06T17:04:38Z</time>
      </trkpt>
      <trkpt lat="43.62474" lon="1.40122">
        <ele>134</ele>
        <time>2024-11-06T17:04:39Z</time>
      </trkpt>
      <trkpt lat="43.62474" lon="1.40119">
        <ele>134</ele>
        <time>2024-11-06T17:04:40Z</time>
      </trkpt>
      <trkpt lat="43.62474" lon="1.40116">
        <ele>134</ele>
        <time>2024-11-06T17:04:41Z</time>
      </trkpt>
      <trkpt lat="43.62474" lon="1.40112">
        <ele>134</ele>
        <time>2024-11-06T17:04:42Z</time>
      </trkpt>
      <trkpt lat="43.62475" lon="1.40109">
        <ele>134</ele>
        <time>2024-11-06T17:04:43Z</time>
      </trkpt>
      <trkpt lat="43.62475" lon="1.40106">
        <ele>134</ele>
        <time>2024-11-06T17:04:44Z</time>
      </trkpt>
      <trkpt lat="43.62475" lon="1.401">
        <ele>134</ele>
        <time>2024-11-06T17:04:45Z</time>
      </trkpt>
      <trkpt lat="43.62475" lon="1.40099">
        <ele>134</ele>
        <time>2024-11-06T17:04:46Z</time>
      </trkpt>
      <trkpt lat="43.62475" lon="1.40095">
        <ele>134</ele>
        <time>2024-11-06T17:04:47Z</time>
      </trkpt>
      <trkpt lat="43.62476" lon="1.40091">
        <ele>134</ele>
        <time>2024-11-06T17:04:48Z</time>
      </trkpt>
      <trkpt lat="43.62476" lon="1.40087">
        <ele>134</ele>
        <time>2024-11-06T17:04:49Z</time>
      </trkpt>
      <trkpt lat="43.62476" lon="1.40082">
        <ele>134</ele>
        <time>2024-11-06T17:04:50Z</time>
      </trkpt>
      <trkpt lat="43.62476" lon="1.4008">
        <ele>134</ele>
        <time>2024-11-06T17:04:51Z</time>
      </trkpt>
      <trkpt lat="43.62476" lon="1.40076">
        <ele>134</ele>
        <time>2024-11-06T17:04:52Z</time>
      </trkpt>
      <trkpt lat="43.62476" lon="1.40073">
        <ele>134</ele>
        <time>2024-11-06T17:04:53Z</time>
      </trkpt>
      <trkpt lat="43.62477" lon="1.40069">
        <ele>134</ele>
        <time>2024-11-06T17:04:54Z</time>
      </trkpt>
      <trkpt lat="43.62477" lon="1.40066">
        <ele>134</ele>
        <time>2024-11-06T17:04:55Z</time>
      </trkpt>
      <trkpt lat="43.62477" lon="1.40062">
        <ele>134</ele>
        <time>2024-11-06T17:04:56Z</time>
      </trkpt>
      <trkpt lat="43.62477" lon="1.40058">
        <ele>134</ele>
        <time>2024-11-06T17:04:57Z</time>
      </trkpt>
      <trkpt lat="43.62477" lon="1.40055">
        <ele>134</ele>
        <time>2024-11-06T17:04:58Z</time>
      </trkpt>
      <trkpt lat="43.62477" lon="1.40051">
        <ele>134</ele>
        <time>2024-11-06T17:04:59Z</time>
      </trkpt>
      <trkpt lat="43.62477" lon="1.40047">
        <ele>134</ele>
        <time>2024-11-06T17:05:00Z</time>
      </trkpt>
      <trkpt lat="43.62477" lon="1.40044">
        <ele>133</ele>
        <time>2024-11-06T17:05:01Z</time>
      </trkpt>
      <trkpt lat="43.62477" lon="1.4004">
        <ele>133</ele>
        <time>2024-11-06T17:05:02Z</time>
      </trkpt>
      <trkpt lat="43.62477" lon="1.40037">
        <ele>133</ele>
        <time>2024-11-06T17:05:03Z</time>
      </trkpt>
      <trkpt lat="43.62478" lon="1.40031">
        <ele>133</ele>
        <time>2024-11-06T17:05:04Z</time>
      </trkpt>
      <trkpt lat="43.62478" lon="1.4003">
        <ele>133</ele>
        <time>2024-11-06T17:05:05Z</time>
      </trkpt>
      <trkpt lat="43.62478" lon="1.40026">
        <ele>133</ele>
        <time>2024-11-06T17:05:06Z</time>
      </trkpt>
      <trkpt lat="43.62478" lon="1.40022">
        <ele>133</ele>
        <time>2024-11-06T17:05:07Z</time>
      </trkpt>
      <trkpt lat="43.62478" lon="1.40018">
        <ele>133</ele>
        <time>2024-11-06T17:05:08Z</time>
      </trkpt>
      <trkpt lat="43.62479" lon="1.40012">
        <ele>133</ele>
        <time>2024-11-06T17:05:09Z</time>
      </trkpt>
      <trkpt lat="43.62479" lon="1.4001">
        <ele>133</ele>
        <time>2024-11-06T17:05:10Z</time>
      </trkpt>
      <trkpt lat="43.62479" lon="1.40006">
        <ele>133</ele>
        <time>2024-11-06T17:05:11Z</time>
      </trkpt>
      <trkpt lat="43.6248" lon="1.40002">
        <ele>132</ele>
        <time>2024-11-06T17:05:12Z</time>
      </trkpt>
      <trkpt lat="43.6248" lon="1.39999">
        <ele>132</ele>
        <time>2024-11-06T17:05:13Z</time>
      </trkpt>
      <trkpt lat="43.6248" lon="1.39995">
        <ele>131</ele>
        <time>2024-11-06T17:05:14Z</time>
      </trkpt>
      <trkpt lat="43.6248" lon="1.39991">
        <ele>131</ele>
        <time>2024-11-06T17:05:15Z</time>
      </trkpt>
      <trkpt lat="43.6248" lon="1.39987">
        <ele>131</ele>
        <time>2024-11-06T17:05:16Z</time>
      </trkpt>
      <trkpt lat="43.6248" lon="1.39983">
        <ele>131</ele>
        <time>2024-11-06T17:05:17Z</time>
      </trkpt>
      <trkpt lat="43.62481" lon="1.39979">
        <ele>131</ele>
        <time>2024-11-06T17:05:18Z</time>
      </trkpt>
      <trkpt lat="43.62481" lon="1.39975">
        <ele>131</ele>
        <time>2024-11-06T17:05:19Z</time>
      </trkpt>
      <trkpt lat="43.62482" lon="1.39972">
        <ele>131</ele>
        <time>2024-11-06T17:05:20Z</time>
      </trkpt>
      <trkpt lat="43.62483" lon="1.39967">
        <ele>131</ele>
        <time>2024-11-06T17:05:21Z</time>
      </trkpt>
      <trkpt lat="43.62483" lon="1.39965">
        <ele>130</ele>
        <time>2024-11-06T17:05:22Z</time>
      </trkpt>
      <trkpt lat="43.62484" lon="1.39962">
        <ele>130</ele>
        <time>2024-11-06T17:05:23Z</time>
      </trkpt>
      <trkpt lat="43.62485" lon="1.3996">
        <ele>130</ele>
        <time>2024-11-06T17:05:24Z</time>
      </trkpt>
      <trkpt lat="43.62485" lon="1.3996">
        <ele>130</ele>
        <time>2024-11-06T17:05:25Z</time>
      </trkpt>
      <trkpt lat="43.62485" lon="1.39964">
        <ele>130</ele>
        <time>2024-11-06T17:05:26Z</time>
      </trkpt>
      <trkpt lat="43.62488" lon="1.39976">
        <ele>131</ele>
        <time>2024-11-06T17:06:00Z</time>
      </trkpt>
      <trkpt lat="43.62488" lon="1.39976">
        <ele>131</ele>
        <time>2024-11-06T17:06:01Z</time>
      </trkpt>
      <trkpt lat="43.62488" lon="1.3998">
        <ele>130</ele>
        <time>2024-11-06T17:06:02Z</time>
      </trkpt>
      <trkpt lat="43.62488" lon="1.39983">
        <ele>130</ele>
        <time>2024-11-06T17:06:03Z</time>
      </trkpt>
      <trkpt lat="43.62488" lon="1.39987">
        <ele>129</ele>
        <time>2024-11-06T17:06:04Z</time>
      </trkpt>
      <trkpt lat="43.62488" lon="1.39991">
        <ele>129</ele>
        <time>2024-11-06T17:06:05Z</time>
      </trkpt>
      <trkpt lat="43.62487" lon="1.39994">
        <ele>129</ele>
        <time>2024-11-06T17:06:06Z</time>
      </trkpt>
      <trkpt lat="43.62486" lon="1.39997">
        <ele>129</ele>
        <time>2024-11-06T17:06:07Z</time>
      </trkpt>
      <trkpt lat="43.62486" lon="1.40001">
        <ele>129</ele>
        <time>2024-11-06T17:06:08Z</time>
      </trkpt>
      <trkpt lat="43.62486" lon="1.40005">
        <ele>129</ele>
        <time>2024-11-06T17:06:09Z</time>
      </trkpt>
      <trkpt lat="43.62486" lon="1.40008">
        <ele>128</ele>
        <time>2024-11-06T17:06:10Z</time>
      </trkpt>
      <trkpt lat="43.62487" lon="1.40011">
        <ele>128</ele>
        <time>2024-11-06T17:06:11Z</time>
      </trkpt>
      <trkpt lat="43.62489" lon="1.40011">
        <ele>127</ele>
        <time>2024-11-06T17:06:12Z</time>
      </trkpt>
      <trkpt lat="43.62492" lon="1.40012">
        <ele>126</ele>
        <time>2024-11-06T17:06:13Z</time>
      </trkpt>
      <trkpt lat="43.62494" lon="1.40011">
        <ele>126</ele>
        <time>2024-11-06T17:06:14Z</time>
      </trkpt>
      <trkpt lat="43.62497" lon="1.40011">
        <ele>126</ele>
        <time>2024-11-06T17:06:15Z</time>
      </trkpt>
      <trkpt lat="43.625" lon="1.40011">
        <ele>126</ele>
        <time>2024-11-06T17:06:16Z</time>
      </trkpt>
      <trkpt lat="43.62504" lon="1.40011">
        <ele>126</ele>
        <time>2024-11-06T17:06:17Z</time>
      </trkpt>
      <trkpt lat="43.62505" lon="1.40011">
        <ele>126</ele>
        <time>2024-11-06T17:06:18Z</time>
      </trkpt>
      <trkpt lat="43.62509" lon="1.40012">
        <ele>126</ele>
        <time>2024-11-06T17:06:19Z</time>
      </trkpt>
      <trkpt lat="43.6251" lon="1.40012">
        <ele>126</ele>
        <time>2024-11-06T17:06:20Z</time>
      </trkpt>
      <trkpt lat="43.62513" lon="1.40012">
        <ele>126</ele>
        <time>2024-11-06T17:06:21Z</time>
      </trkpt>
      <trkpt lat="43.62516" lon="1.40012">
        <ele>126</ele>
        <time>2024-11-06T17:06:22Z</time>
      </trkpt>
      <trkpt lat="43.62519" lon="1.40013">
        <ele>126</ele>
        <time>2024-11-06T17:06:23Z</time>
      </trkpt>
      <trkpt lat="43.62522" lon="1.40014">
        <ele>126</ele>
        <time>2024-11-06T17:06:24Z</time>
      </trkpt>
      <trkpt lat="43.62525" lon="1.40015">
        <ele>126</ele>
        <time>2024-11-06T17:06:25Z</time>
      </trkpt>
      <trkpt lat="43.62527" lon="1.40016">
        <ele>126</ele>
        <time>2024-11-06T17:06:26Z</time>
      </trkpt>
      <trkpt lat="43.6253" lon="1.40016">
        <ele>126</ele>
        <time>2024-11-06T17:06:27Z</time>
      </trkpt>
      <trkpt lat="43.62532" lon="1.40016">
        <ele>126</ele>
        <time>2024-11-06T17:06:28Z</time>
      </trkpt>
      <trkpt lat="43.62534" lon="1.40017">
        <ele>126</ele>
        <time>2024-11-06T17:06:29Z</time>
      </trkpt>
      <trkpt lat="43.62537" lon="1.40018">
        <ele>126</ele>
        <time>2024-11-06T17:06:30Z</time>
      </trkpt>
      <trkpt lat="43.62539" lon="1.40018">
        <ele>126</ele>
        <time>2024-11-06T17:06:31Z</time>
      </trkpt>
      <trkpt lat="43.62542" lon="1.40019">
        <ele>126</ele>
        <time>2024-11-06T17:06:32Z</time>
      </trkpt>
      <trkpt lat="43.62544" lon="1.4002">
        <ele>126</ele>
        <time>2024-11-06T17:06:33Z</time>
      </trkpt>
      <trkpt lat="43.62547" lon="1.4002">
        <ele>126</ele>
        <time>2024-11-06T17:06:34Z</time>
      </trkpt>
      <trkpt lat="43.6255" lon="1.40021">
        <ele>126</ele>
        <time>2024-11-06T17:06:35Z</time>
      </trkpt>
      <trkpt lat="43.62554" lon="1.40021">
        <ele>126</ele>
        <time>2024-11-06T17:06:36Z</time>
      </trkpt>
      <trkpt lat="43.62555" lon="1.40021">
        <ele>126</ele>
        <time>2024-11-06T17:06:37Z</time>
      </trkpt>
      <trkpt lat="43.6256" lon="1.40022">
        <ele>126</ele>
        <time>2024-11-06T17:06:38Z</time>
      </trkpt>
      <trkpt lat="43.62561" lon="1.40022">
        <ele>126</ele>
        <time>2024-11-06T17:06:39Z</time>
      </trkpt>
      <trkpt lat="43.62563" lon="1.40022">
        <ele>126</ele>
        <time>2024-11-06T17:06:40Z</time>
      </trkpt>
      <trkpt lat="43.62566" lon="1.40022">
        <ele>126</ele>
        <time>2024-11-06T17:06:41Z</time>
      </trkpt>
      <trkpt lat="43.62568" lon="1.40023">
        <ele>126</ele>
        <time>2024-11-06T17:06:42Z</time>
      </trkpt>
      <trkpt lat="43.6257" lon="1.40023">
        <ele>126</ele>
        <time>2024-11-06T17:06:43Z</time>
      </trkpt>
      <trkpt lat="43.62573" lon="1.40023">
        <ele>126</ele>
        <time>2024-11-06T17:06:44Z</time>
      </trkpt>
      <trkpt lat="43.62575" lon="1.40024">
        <ele>126</ele>
        <time>2024-11-06T17:06:45Z</time>
      </trkpt>
      <trkpt lat="43.62578" lon="1.40024">
        <ele>126</ele>
        <time>2024-11-06T17:06:46Z</time>
      </trkpt>
      <trkpt lat="43.62581" lon="1.40025">
        <ele>126</ele>
        <time>2024-11-06T17:06:47Z</time>
      </trkpt>
      <trkpt lat="43.62584" lon="1.40026">
        <ele>126</ele>
        <time>2024-11-06T17:06:48Z</time>
      </trkpt>
      <trkpt lat="43.62587" lon="1.40026">
        <ele>126</ele>
        <time>2024-11-06T17:06:49Z</time>
      </trkpt>
      <trkpt lat="43.6259" lon="1.40026">
        <ele>126</ele>
        <time>2024-11-06T17:06:50Z</time>
      </trkpt>
      <trkpt lat="43.62592" lon="1.40027">
        <ele>126</ele>
        <time>2024-11-06T17:06:51Z</time>
      </trkpt>
      <trkpt lat="43.62596" lon="1.40027">
        <ele>126</ele>
        <time>2024-11-06T17:06:52Z</time>
      </trkpt>
      <trkpt lat="43.62598" lon="1.40027">
        <ele>126</ele>
        <time>2024-11-06T17:06:53Z</time>
      </trkpt>
      <trkpt lat="43.62601" lon="1.40028">
        <ele>126</ele>
        <time>2024-11-06T17:06:54Z</time>
      </trkpt>
      <trkpt lat="43.62605" lon="1.40028">
        <ele>126</ele>
        <time>2024-11-06T17:06:55Z</time>
      </trkpt>
      <trkpt lat="43.62607" lon="1.40028">
        <ele>126</ele>
        <time>2024-11-06T17:06:56Z</time>
      </trkpt>
      <trkpt lat="43.6261" lon="1.40029">
        <ele>126</ele>
        <time>2024-11-06T17:06:57Z</time>
      </trkpt>
      <trkpt lat="43.62611" lon="1.40029">
        <ele>126</ele>
        <time>2024-11-06T17:06:58Z</time>
      </trkpt>
      <trkpt lat="43.62614" lon="1.40029">
        <ele>126</ele>
        <time>2024-11-06T17:06:59Z</time>
      </trkpt>
      <trkpt lat="43.62616" lon="1.40029">
        <ele>126</ele>
        <time>2024-11-06T17:07:00Z</time>
      </trkpt>
      <trkpt lat="43.62619" lon="1.4003">
        <ele>125</ele>
        <time>2024-11-06T17:07:01Z</time>
      </trkpt>
      <trkpt lat="43.62621" lon="1.4003">
        <ele>125</ele>
        <time>2024-11-06T17:07:02Z</time>
      </trkpt>
      <trkpt lat="43.62623" lon="1.4003">
        <ele>125</ele>
        <time>2024-11-06T17:07:03Z</time>
      </trkpt>
      <trkpt lat="43.62626" lon="1.40031">
        <ele>125</ele>
        <time>2024-11-06T17:07:04Z</time>
      </trkpt>
      <trkpt lat="43.62629" lon="1.40031">
        <ele>125</ele>
        <time>2024-11-06T17:07:05Z</time>
      </trkpt>
      <trkpt lat="43.62631" lon="1.40031">
        <ele>125</ele>
        <time>2024-11-06T17:07:06Z</time>
      </trkpt>
      <trkpt lat="43.62634" lon="1.40031">
        <ele>125</ele>
        <time>2024-11-06T17:07:07Z</time>
      </trkpt>
      <trkpt lat="43.62637" lon="1.40031">
        <ele>125</ele>
        <time>2024-11-06T17:07:08Z</time>
      </trkpt>
      <trkpt lat="43.62639" lon="1.40032">
        <ele>125</ele>
        <time>2024-11-06T17:07:09Z</time>
      </trkpt>
      <trkpt lat="43.62641" lon="1.40032">
        <ele>125</ele>
        <time>2024-11-06T17:07:10Z</time>
      </trkpt>
      <trkpt lat="43.62643" lon="1.40032">
        <ele>125</ele>
        <time>2024-11-06T17:07:11Z</time>
      </trkpt>
      <trkpt lat="43.62646" lon="1.40032">
        <ele>125</ele>
        <time>2024-11-06T17:07:12Z</time>
      </trkpt>
      <trkpt lat="43.62649" lon="1.40032">
        <ele>125</ele>
        <time>2024-11-06T17:07:13Z</time>
      </trkpt>
      <trkpt lat="43.62651" lon="1.40032">
        <ele>125</ele>
        <time>2024-11-06T17:07:14Z</time>
      </trkpt>
      <trkpt lat="43.62654" lon="1.40032">
        <ele>125</ele>
        <time>2024-11-06T17:07:15Z</time>
      </trkpt>
      <trkpt lat="43.62657" lon="1.40033">
        <ele>125</ele>
        <time>2024-11-06T17:07:16Z</time>
      </trkpt>
      <trkpt lat="43.62659" lon="1.40033">
        <ele>125</ele>
        <time>2024-11-06T17:07:17Z</time>
      </trkpt>
      <trkpt lat="43.62662" lon="1.40033">
        <ele>125</ele>
        <time>2024-11-06T17:07:18Z</time>
      </trkpt>
      <trkpt lat="43.62664" lon="1.40033">
        <ele>125</ele>
        <time>2024-11-06T17:07:19Z</time>
      </trkpt>
      <trkpt lat="43.62667" lon="1.40034">
        <ele>125</ele>
        <time>2024-11-06T17:07:20Z</time>
      </trkpt>
      <trkpt lat="43.62671" lon="1.40034">
        <ele>125</ele>
        <time>2024-11-06T17:07:21Z</time>
      </trkpt>
      <trkpt lat="43.62674" lon="1.40034">
        <ele>125</ele>
        <time>2024-11-06T17:07:22Z</time>
      </trkpt>
      <trkpt lat="43.62677" lon="1.40035">
        <ele>125</ele>
        <time>2024-11-06T17:07:23Z</time>
      </trkpt>
      <trkpt lat="43.6268" lon="1.40035">
        <ele>125</ele>
        <time>2024-11-06T17:07:24Z</time>
      </trkpt>
      <trkpt lat="43.62683" lon="1.40035">
        <ele>125</ele>
        <time>2024-11-06T17:07:25Z</time>
      </trkpt>
      <trkpt lat="43.62686" lon="1.40035">
        <ele>125</ele>
        <time>2024-11-06T17:07:26Z</time>
      </trkpt>
      <trkpt lat="43.62689" lon="1.40035">
        <ele>125</ele>
        <time>2024-11-06T17:07:27Z</time>
      </trkpt>
      <trkpt lat="43.62691" lon="1.40035">
        <ele>125</ele>
        <time>2024-11-06T17:07:28Z</time>
      </trkpt>
      <trkpt lat="43.62693" lon="1.40036">
        <ele>124</ele>
        <time>2024-11-06T17:07:29Z</time>
      </trkpt>
      <trkpt lat="43.62696" lon="1.40036">
        <ele>124</ele>
        <time>2024-11-06T17:07:30Z</time>
      </trkpt>
      <trkpt lat="43.62698" lon="1.40037">
        <ele>124</ele>
        <time>2024-11-06T17:07:31Z</time>
      </trkpt>
      <trkpt lat="43.627" lon="1.40037">
        <ele>124</ele>
        <time>2024-11-06T17:07:32Z</time>
      </trkpt>
      <trkpt lat="43.62704" lon="1.40037">
        <ele>124</ele>
        <time>2024-11-06T17:07:33Z</time>
      </trkpt>
      <trkpt lat="43.62706" lon="1.40037">
        <ele>125</ele>
        <time>2024-11-06T17:07:34Z</time>
      </trkpt>
      <trkpt lat="43.6271" lon="1.40037">
        <ele>125</ele>
        <time>2024-11-06T17:07:35Z</time>
      </trkpt>
      <trkpt lat="43.62712" lon="1.40038">
        <ele>125</ele>
        <time>2024-11-06T17:07:36Z</time>
      </trkpt>
      <trkpt lat="43.62715" lon="1.40038">
        <ele>125</ele>
        <time>2024-11-06T17:07:37Z</time>
      </trkpt>
      <trkpt lat="43.62718" lon="1.40039">
        <ele>124</ele>
        <time>2024-11-06T17:07:38Z</time>
      </trkpt>
      <trkpt lat="43.62721" lon="1.40039">
        <ele>124</ele>
        <time>2024-11-06T17:07:39Z</time>
      </trkpt>
      <trkpt lat="43.62724" lon="1.40039">
        <ele>125</ele>
        <time>2024-11-06T17:07:40Z</time>
      </trkpt>
      <trkpt lat="43.62727" lon="1.40039">
        <ele>125</ele>
        <time>2024-11-06T17:07:41Z</time>
      </trkpt>
      <trkpt lat="43.62729" lon="1.40039">
        <ele>125</ele>
        <time>2024-11-06T17:07:42Z</time>
      </trkpt>
      <trkpt lat="43.62732" lon="1.40039">
        <ele>125</ele>
        <time>2024-11-06T17:07:43Z</time>
      </trkpt>
      <trkpt lat="43.62735" lon="1.40039">
        <ele>125</ele>
        <time>2024-11-06T17:07:44Z</time>
      </trkpt>
      <trkpt lat="43.62737" lon="1.40039">
        <ele>125</ele>
        <time>2024-11-06T17:07:45Z</time>
      </trkpt>
      <trkpt lat="43.6274" lon="1.4004">
        <ele>125</ele>
        <time>2024-11-06T17:07:46Z</time>
      </trkpt>
      <trkpt lat="43.62742" lon="1.4004">
        <ele>125</ele>
        <time>2024-11-06T17:07:47Z</time>
      </trkpt>
      <trkpt lat="43.62745" lon="1.40041">
        <ele>125</ele>
        <time>2024-11-06T17:07:48Z</time>
      </trkpt>
      <trkpt lat="43.62747" lon="1.40042">
        <ele>125</ele>
        <time>2024-11-06T17:07:49Z</time>
      </trkpt>
      <trkpt lat="43.6275" lon="1.40042">
        <ele>125</ele>
        <time>2024-11-06T17:07:50Z</time>
      </trkpt>
      <trkpt lat="43.62753" lon="1.40042">
        <ele>125</ele>
        <time>2024-11-06T17:07:51Z</time>
      </trkpt>
      <trkpt lat="43.62754" lon="1.40042">
        <ele>124</ele>
        <time>2024-11-06T17:07:52Z</time>
      </trkpt>
      <trkpt lat="43.62757" lon="1.40042">
        <ele>124</ele>
        <time>2024-11-06T17:07:53Z</time>
      </trkpt>
      <trkpt lat="43.6276" lon="1.40043">
        <ele>124</ele>
        <time>2024-11-06T17:07:54Z</time>
      </trkpt>
      <trkpt lat="43.62762" lon="1.40043">
        <ele>124</ele>
        <time>2024-11-06T17:07:55Z</time>
      </trkpt>
      <trkpt lat="43.62764" lon="1.40043">
        <ele>124</ele>
        <time>2024-11-06T17:07:56Z</time>
      </trkpt>
      <trkpt lat="43.62766" lon="1.40044">
        <ele>124</ele>
        <time>2024-11-06T17:07:57Z</time>
      </trkpt>
      <trkpt lat="43.62768" lon="1.40044">
        <ele>124</ele>
        <time>2024-11-06T17:07:58Z</time>
      </trkpt>
      <trkpt lat="43.62771" lon="1.40044">
        <ele>124</ele>
        <time>2024-11-06T17:07:59Z</time>
      </trkpt>
      <trkpt lat="43.62773" lon="1.40044">
        <ele>124</ele>
        <time>2024-11-06T17:08:00Z</time>
      </trkpt>
      <trkpt lat="43.62776" lon="1.40044">
        <ele>124</ele>
        <time>2024-11-06T17:08:01Z</time>
      </trkpt>
      <trkpt lat="43.62779" lon="1.40045">
        <ele>124</ele>
        <time>2024-11-06T17:08:02Z</time>
      </trkpt>
      <trkpt lat="43.62781" lon="1.40045">
        <ele>124</ele>
        <time>2024-11-06T17:08:03Z</time>
      </trkpt>
      <trkpt lat="43.62784" lon="1.40045">
        <ele>124</ele>
        <time>2024-11-06T17:08:04Z</time>
      </trkpt>
      <trkpt lat="43.62786" lon="1.40045">
        <ele>124</ele>
        <time>2024-11-06T17:08:05Z</time>
      </trkpt>
      <trkpt lat="43.62789" lon="1.40044">
        <ele>124</ele>
        <time>2024-11-06T17:08:06Z</time>
      </trkpt>
      <trkpt lat="43.62792" lon="1.40044">
        <ele>124</ele>
        <time>2024-11-06T17:08:07Z</time>
      </trkpt>
      <trkpt lat="43.62795" lon="1.40045">
        <ele>124</ele>
        <time>2024-11-06T17:08:08Z</time>
      </trkpt>
      <trkpt lat="43.62798" lon="1.40045">
        <ele>124</ele>
        <time>2024-11-06T17:08:09Z</time>
      </trkpt>
      <trkpt lat="43.628" lon="1.40045">
        <ele>124</ele>
        <time>2024-11-06T17:08:10Z</time>
      </trkpt>
      <trkpt lat="43.62804" lon="1.40044">
        <ele>124</ele>
        <time>2024-11-06T17:08:11Z</time>
      </trkpt>
      <trkpt lat="43.62806" lon="1.40044">
        <ele>124</ele>
        <time>2024-11-06T17:08:12Z</time>
      </trkpt>
      <trkpt lat="43.6281" lon="1.40044">
        <ele>124</ele>
        <time>2024-11-06T17:08:13Z</time>
      </trkpt>
      <trkpt lat="43.62811" lon="1.40044">
        <ele>124</ele>
        <time>2024-11-06T17:08:14Z</time>
      </trkpt>
      <trkpt lat="43.62814" lon="1.40044">
        <ele>124</ele>
        <time>2024-11-06T17:08:15Z</time>
      </trkpt>
      <trkpt lat="43.62816" lon="1.40045">
        <ele>124</ele>
        <time>2024-11-06T17:08:16Z</time>
      </trkpt>
      <trkpt lat="43.62819" lon="1.40045">
        <ele>124</ele>
        <time>2024-11-06T17:08:17Z</time>
      </trkpt>
      <trkpt lat="43.62821" lon="1.40045">
        <ele>124</ele>
        <time>2024-11-06T17:08:18Z</time>
      </trkpt>
      <trkpt lat="43.62824" lon="1.40046">
        <ele>124</ele>
        <time>2024-11-06T17:08:19Z</time>
      </trkpt>
      <trkpt lat="43.62826" lon="1.40045">
        <ele>124</ele>
        <time>2024-11-06T17:08:20Z</time>
      </trkpt>
      <trkpt lat="43.62828" lon="1.40045">
        <ele>124</ele>
        <time>2024-11-06T17:08:21Z</time>
      </trkpt>
      <trkpt lat="43.6283" lon="1.40046">
        <ele>125</ele>
        <time>2024-11-06T17:08:22Z</time>
      </trkpt>
      <trkpt lat="43.62832" lon="1.40046">
        <ele>125</ele>
        <time>2024-11-06T17:08:23Z</time>
      </trkpt>
      <trkpt lat="43.62835" lon="1.40046">
        <ele>125</ele>
        <time>2024-11-06T17:08:24Z</time>
      </trkpt>
      <trkpt lat="43.62837" lon="1.40046">
        <ele>125</ele>
        <time>2024-11-06T17:08:25Z</time>
      </trkpt>
      <trkpt lat="43.6284" lon="1.40046">
        <ele>125</ele>
        <time>2024-11-06T17:08:26Z</time>
      </trkpt>
      <trkpt lat="43.62842" lon="1.40047">
        <ele>124</ele>
        <time>2024-11-06T17:08:27Z</time>
      </trkpt>
      <trkpt lat="43.62844" lon="1.40047">
        <ele>124</ele>
        <time>2024-11-06T17:08:28Z</time>
      </trkpt>
      <trkpt lat="43.62847" lon="1.40046">
        <ele>124</ele>
        <time>2024-11-06T17:08:29Z</time>
      </trkpt>
      <trkpt lat="43.62849" lon="1.40047">
        <ele>124</ele>
        <time>2024-11-06T17:08:30Z</time>
      </trkpt>
      <trkpt lat="43.62852" lon="1.40047">
        <ele>124</ele>
        <time>2024-11-06T17:08:31Z</time>
      </trkpt>
      <trkpt lat="43.62854" lon="1.40047">
        <ele>124</ele>
        <time>2024-11-06T17:08:32Z</time>
      </trkpt>
      <trkpt lat="43.62857" lon="1.40048">
        <ele>124</ele>
        <time>2024-11-06T17:08:33Z</time>
      </trkpt>
      <trkpt lat="43.6286" lon="1.40048">
        <ele>124</ele>
        <time>2024-11-06T17:08:34Z</time>
      </trkpt>
      <trkpt lat="43.62864" lon="1.40048">
        <ele>123</ele>
        <time>2024-11-06T17:08:35Z</time>
      </trkpt>
      <trkpt lat="43.62867" lon="1.40049">
        <ele>124</ele>
        <time>2024-11-06T17:08:36Z</time>
      </trkpt>
      <trkpt lat="43.62869" lon="1.40049">
        <ele>124</ele>
        <time>2024-11-06T17:08:37Z</time>
      </trkpt>
      <trkpt lat="43.62872" lon="1.4005">
        <ele>124</ele>
        <time>2024-11-06T17:08:38Z</time>
      </trkpt>
      <trkpt lat="43.62875" lon="1.4005">
        <ele>124</ele>
        <time>2024-11-06T17:08:39Z</time>
      </trkpt>
      <trkpt lat="43.62878" lon="1.40051">
        <ele>124</ele>
        <time>2024-11-06T17:08:40Z</time>
      </trkpt>
      <trkpt lat="43.62881" lon="1.40051">
        <ele>125</ele>
        <time>2024-11-06T17:08:41Z</time>
      </trkpt>
      <trkpt lat="43.62885" lon="1.40052">
        <ele>125</ele>
        <time>2024-11-06T17:08:42Z</time>
      </trkpt>
      <trkpt lat="43.62888" lon="1.40053">
        <ele>125</ele>
        <time>2024-11-06T17:08:43Z</time>
      </trkpt>
      <trkpt lat="43.62891" lon="1.40053">
        <ele>125</ele>
        <time>2024-11-06T17:08:44Z</time>
      </trkpt>
      <trkpt lat="43.62893" lon="1.40054">
        <ele>124</ele>
        <time>2024-11-06T17:08:45Z</time>
      </trkpt>
      <trkpt lat="43.62896" lon="1.40055">
        <ele>124</ele>
        <time>2024-11-06T17:08:46Z</time>
      </trkpt>
      <trkpt lat="43.62899" lon="1.40056">
        <ele>124</ele>
        <time>2024-11-06T17:08:47Z</time>
      </trkpt>
      <trkpt lat="43.62904" lon="1.40058">
        <ele>124</ele>
        <time>2024-11-06T17:08:48Z</time>
      </trkpt>
      <trkpt lat="43.62905" lon="1.40058">
        <ele>124</ele>
        <time>2024-11-06T17:08:49Z</time>
      </trkpt>
      <trkpt lat="43.62908" lon="1.40059">
        <ele>124</ele>
        <time>2024-11-06T17:08:50Z</time>
      </trkpt>
      <trkpt lat="43.62912" lon="1.40059">
        <ele>124</ele>
        <time>2024-11-06T17:08:51Z</time>
      </trkpt>
      <trkpt lat="43.62913" lon="1.4006">
        <ele>124</ele>
        <time>2024-11-06T17:08:52Z</time>
      </trkpt>
      <trkpt lat="43.62916" lon="1.4006">
        <ele>124</ele>
        <time>2024-11-06T17:08:53Z</time>
      </trkpt>
      <trkpt lat="43.62918" lon="1.40059">
        <ele>124</ele>
        <time>2024-11-06T17:08:54Z</time>
      </trkpt>
      <trkpt lat="43.62918" lon="1.40059">
        <ele>124</ele>
        <time>2024-11-06T17:08:55Z</time>
      </trkpt>
      <trkpt lat="43.62921" lon="1.4006">
        <ele>124</ele>
        <time>2024-11-06T17:08:56Z</time>
      </trkpt>
      <trkpt lat="43.62923" lon="1.40061">
        <ele>124</ele>
        <time>2024-11-06T17:08:57Z</time>
      </trkpt>
      <trkpt lat="43.62926" lon="1.40061">
        <ele>124</ele>
        <time>2024-11-06T17:08:58Z</time>
      </trkpt>
      <trkpt lat="43.62928" lon="1.40062">
        <ele>123</ele>
        <time>2024-11-06T17:08:59Z</time>
      </trkpt>
      <trkpt lat="43.6293" lon="1.40063">
        <ele>123</ele>
        <time>2024-11-06T17:09:00Z</time>
      </trkpt>
      <trkpt lat="43.62933" lon="1.40063">
        <ele>124</ele>
        <time>2024-11-06T17:09:01Z</time>
      </trkpt>
      <trkpt lat="43.62935" lon="1.40063">
        <ele>124</ele>
        <time>2024-11-06T17:09:02Z</time>
      </trkpt>
      <trkpt lat="43.62937" lon="1.40063">
        <ele>124</ele>
        <time>2024-11-06T17:09:03Z</time>
      </trkpt>
      <trkpt lat="43.62939" lon="1.40063">
        <ele>125</ele>
        <time>2024-11-06T17:09:04Z</time>
      </trkpt>
      <trkpt lat="43.62942" lon="1.40063">
        <ele>125</ele>
        <time>2024-11-06T17:09:05Z</time>
      </trkpt>
      <trkpt lat="43.62944" lon="1.40063">
        <ele>125</ele>
        <time>2024-11-06T17:09:06Z</time>
      </trkpt>
      <trkpt lat="43.62946" lon="1.40063">
        <ele>126</ele>
        <time>2024-11-06T17:09:07Z</time>
      </trkpt>
      <trkpt lat="43.62948" lon="1.40063">
        <ele>126</ele>
        <time>2024-11-06T17:09:08Z</time>
      </trkpt>
      <trkpt lat="43.62951" lon="1.40064">
        <ele>126</ele>
        <time>2024-11-06T17:09:09Z</time>
      </trkpt>
      <trkpt lat="43.62954" lon="1.40064">
        <ele>127</ele>
        <time>2024-11-06T17:09:10Z</time>
      </trkpt>
      <trkpt lat="43.62956" lon="1.40065">
        <ele>127</ele>
        <time>2024-11-06T17:09:11Z</time>
      </trkpt>
      <trkpt lat="43.62959" lon="1.40066">
        <ele>126</ele>
        <time>2024-11-06T17:09:12Z</time>
      </trkpt>
      <trkpt lat="43.62962" lon="1.40067">
        <ele>126</ele>
        <time>2024-11-06T17:09:13Z</time>
      </trkpt>
      <trkpt lat="43.62965" lon="1.40068">
        <ele>127</ele>
        <time>2024-11-06T17:09:14Z</time>
      </trkpt>
      <trkpt lat="43.62968" lon="1.40069">
        <ele>127</ele>
        <time>2024-11-06T17:09:15Z</time>
      </trkpt>
      <trkpt lat="43.62971" lon="1.40069">
        <ele>127</ele>
        <time>2024-11-06T17:09:16Z</time>
      </trkpt>
      <trkpt lat="43.62974" lon="1.40069">
        <ele>127</ele>
        <time>2024-11-06T17:09:17Z</time>
      </trkpt>
      <trkpt lat="43.62977" lon="1.4007">
        <ele>127</ele>
        <time>2024-11-06T17:09:18Z</time>
      </trkpt>
      <trkpt lat="43.6298" lon="1.40071">
        <ele>127</ele>
        <time>2024-11-06T17:09:19Z</time>
      </trkpt>
      <trkpt lat="43.62983" lon="1.40071">
        <ele>127</ele>
        <time>2024-11-06T17:09:20Z</time>
      </trkpt>
      <trkpt lat="43.62986" lon="1.40072">
        <ele>126</ele>
        <time>2024-11-06T17:09:21Z</time>
      </trkpt>
      <trkpt lat="43.62989" lon="1.40072">
        <ele>126</ele>
        <time>2024-11-06T17:09:22Z</time>
      </trkpt>
      <trkpt lat="43.62991" lon="1.40073">
        <ele>126</ele>
        <time>2024-11-06T17:09:23Z</time>
      </trkpt>
      <trkpt lat="43.62994" lon="1.40073">
        <ele>126</ele>
        <time>2024-11-06T17:09:24Z</time>
      </trkpt>
      <trkpt lat="43.62997" lon="1.40074">
        <ele>126</ele>
        <time>2024-11-06T17:09:25Z</time>
      </trkpt>
      <trkpt lat="43.62999" lon="1.40074">
        <ele>126</ele>
        <time>2024-11-06T17:09:26Z</time>
      </trkpt>
      <trkpt lat="43.62999" lon="1.40074">
        <ele>126</ele>
        <time>2024-11-06T17:09:27Z</time>
      </trkpt>
      <trkpt lat="43.63005" lon="1.40076">
        <ele>126</ele>
        <time>2024-11-06T17:09:28Z</time>
      </trkpt>
      <trkpt lat="43.63009" lon="1.40078">
        <ele>126</ele>
        <time>2024-11-06T17:09:29Z</time>
      </trkpt>
      <trkpt lat="43.6301" lon="1.40078">
        <ele>126</ele>
        <time>2024-11-06T17:09:30Z</time>
      </trkpt>
      <trkpt lat="43.63013" lon="1.40079">
        <ele>126</ele>
        <time>2024-11-06T17:09:31Z</time>
      </trkpt>
      <trkpt lat="43.63015" lon="1.40079">
        <ele>126</ele>
        <time>2024-11-06T17:09:32Z</time>
      </trkpt>
      <trkpt lat="43.63018" lon="1.4008">
        <ele>126</ele>
        <time>2024-11-06T17:09:33Z</time>
      </trkpt>
      <trkpt lat="43.63021" lon="1.40081">
        <ele>126</ele>
        <time>2024-11-06T17:09:34Z</time>
      </trkpt>
      <trkpt lat="43.63024" lon="1.40082">
        <ele>126</ele>
        <time>2024-11-06T17:09:35Z</time>
      </trkpt>
      <trkpt lat="43.63027" lon="1.40082">
        <ele>126</ele>
        <time>2024-11-06T17:09:36Z</time>
      </trkpt>
      <trkpt lat="43.63029" lon="1.40082">
        <ele>126</ele>
        <time>2024-11-06T17:09:37Z</time>
      </trkpt>
      <trkpt lat="43.63032" lon="1.40082">
        <ele>126</ele>
        <time>2024-11-06T17:09:38Z</time>
      </trkpt>
      <trkpt lat="43.63035" lon="1.40083">
        <ele>126</ele>
        <time>2024-11-06T17:09:39Z</time>
      </trkpt>
      <trkpt lat="43.63038" lon="1.40084">
        <ele>126</ele>
        <time>2024-11-06T17:09:40Z</time>
      </trkpt>
      <trkpt lat="43.6304" lon="1.40085">
        <ele>126</ele>
        <time>2024-11-06T17:09:41Z</time>
      </trkpt>
      <trkpt lat="43.63043" lon="1.40086">
        <ele>126</ele>
        <time>2024-11-06T17:09:42Z</time>
      </trkpt>
      <trkpt lat="43.63046" lon="1.40087">
        <ele>126</ele>
        <time>2024-11-06T17:09:43Z</time>
      </trkpt>
      <trkpt lat="43.6305" lon="1.40088">
        <ele>126</ele>
        <time>2024-11-06T17:09:44Z</time>
      </trkpt>
      <trkpt lat="43.63052" lon="1.40089">
        <ele>126</ele>
        <time>2024-11-06T17:09:45Z</time>
      </trkpt>
      <trkpt lat="43.63055" lon="1.4009">
        <ele>126</ele>
        <time>2024-11-06T17:09:46Z</time>
      </trkpt>
      <trkpt lat="43.63057" lon="1.40091">
        <ele>126</ele>
        <time>2024-11-06T17:09:47Z</time>
      </trkpt>
      <trkpt lat="43.63061" lon="1.40091">
        <ele>126</ele>
        <time>2024-11-06T17:09:48Z</time>
      </trkpt>
      <trkpt lat="43.63063" lon="1.40091">
        <ele>126</ele>
        <time>2024-11-06T17:09:49Z</time>
      </trkpt>
      <trkpt lat="43.63066" lon="1.40092">
        <ele>126</ele>
        <time>2024-11-06T17:09:50Z</time>
      </trkpt>
      <trkpt lat="43.63069" lon="1.40092">
        <ele>126</ele>
        <time>2024-11-06T17:09:51Z</time>
      </trkpt>
      <trkpt lat="43.63072" lon="1.40093">
        <ele>126</ele>
        <time>2024-11-06T17:09:52Z</time>
      </trkpt>
      <trkpt lat="43.63075" lon="1.40094">
        <ele>126</ele>
        <time>2024-11-06T17:09:53Z</time>
      </trkpt>
      <trkpt lat="43.63078" lon="1.40095">
        <ele>126</ele>
        <time>2024-11-06T17:09:54Z</time>
      </trkpt>
      <trkpt lat="43.63081" lon="1.40096">
        <ele>126</ele>
        <time>2024-11-06T17:09:55Z</time>
      </trkpt>
      <trkpt lat="43.63084" lon="1.40097">
        <ele>126</ele>
        <time>2024-11-06T17:09:56Z</time>
      </trkpt>
      <trkpt lat="43.63086" lon="1.40098">
        <ele>126</ele>
        <time>2024-11-06T17:09:57Z</time>
      </trkpt>
      <trkpt lat="43.63089" lon="1.40099">
        <ele>126</ele>
        <time>2024-11-06T17:09:58Z</time>
      </trkpt>
      <trkpt lat="43.63092" lon="1.401">
        <ele>126</ele>
        <time>2024-11-06T17:09:59Z</time>
      </trkpt>
      <trkpt lat="43.63095" lon="1.40102">
        <ele>126</ele>
        <time>2024-11-06T17:10:00Z</time>
      </trkpt>
      <trkpt lat="43.63098" lon="1.40103">
        <ele>126</ele>
        <time>2024-11-06T17:10:01Z</time>
      </trkpt>
      <trkpt lat="43.631" lon="1.40103">
        <ele>126</ele>
        <time>2024-11-06T17:10:02Z</time>
      </trkpt>
      <trkpt lat="43.63103" lon="1.40104">
        <ele>126</ele>
        <time>2024-11-06T17:10:03Z</time>
      </trkpt>
      <trkpt lat="43.63105" lon="1.40105">
        <ele>126</ele>
        <time>2024-11-06T17:10:04Z</time>
      </trkpt>
      <trkpt lat="43.63108" lon="1.40106">
        <ele>126</ele>
        <time>2024-11-06T17:10:05Z</time>
      </trkpt>
      <trkpt lat="43.63111" lon="1.40106">
        <ele>126</ele>
        <time>2024-11-06T17:10:06Z</time>
      </trkpt>
      <trkpt lat="43.63113" lon="1.40106">
        <ele>126</ele>
        <time>2024-11-06T17:10:07Z</time>
      </trkpt>
      <trkpt lat="43.63116" lon="1.40106">
        <ele>126</ele>
        <time>2024-11-06T17:10:08Z</time>
      </trkpt>
      <trkpt lat="43.63118" lon="1.40107">
        <ele>126</ele>
        <time>2024-11-06T17:10:09Z</time>
      </trkpt>
      <trkpt lat="43.63121" lon="1.40107">
        <ele>126</ele>
        <time>2024-11-06T17:10:10Z</time>
      </trkpt>
      <trkpt lat="43.63124" lon="1.40108">
        <ele>126</ele>
        <time>2024-11-06T17:10:11Z</time>
      </trkpt>
      <trkpt lat="43.63126" lon="1.40108">
        <ele>126</ele>
        <time>2024-11-06T17:10:12Z</time>
      </trkpt>
      <trkpt lat="43.63129" lon="1.40109">
        <ele>126</ele>
        <time>2024-11-06T17:10:13Z</time>
      </trkpt>
      <trkpt lat="43.63131" lon="1.4011">
        <ele>126</ele>
        <time>2024-11-06T17:10:14Z</time>
      </trkpt>
      <trkpt lat="43.63134" lon="1.40111">
        <ele>126</ele>
        <time>2024-11-06T17:10:15Z</time>
      </trkpt>
      <trkpt lat="43.63136" lon="1.40112">
        <ele>126</ele>
        <time>2024-11-06T17:10:16Z</time>
      </trkpt>
      <trkpt lat="43.63139" lon="1.40113">
        <ele>126</ele>
        <time>2024-11-06T17:10:17Z</time>
      </trkpt>
      <trkpt lat="43.63142" lon="1.40114">
        <ele>126</ele>
        <time>2024-11-06T17:10:18Z</time>
      </trkpt>
      <trkpt lat="43.63144" lon="1.40115">
        <ele>126</ele>
        <time>2024-11-06T17:10:19Z</time>
      </trkpt>
      <trkpt lat="43.63148" lon="1.40116">
        <ele>126</ele>
        <time>2024-11-06T17:10:20Z</time>
      </trkpt>
      <trkpt lat="43.63149" lon="1.40117">
        <ele>126</ele>
        <time>2024-11-06T17:10:21Z</time>
      </trkpt>
      <trkpt lat="43.63152" lon="1.40118">
        <ele>126</ele>
        <time>2024-11-06T17:10:22Z</time>
      </trkpt>
      <trkpt lat="43.63154" lon="1.40119">
        <ele>126</ele>
        <time>2024-11-06T17:10:23Z</time>
      </trkpt>
      <trkpt lat="43.63157" lon="1.4012">
        <ele>126</ele>
        <time>2024-11-06T17:10:24Z</time>
      </trkpt>
      <trkpt lat="43.6316" lon="1.40121">
        <ele>126</ele>
        <time>2024-11-06T17:10:25Z</time>
      </trkpt>
      <trkpt lat="43.63164" lon="1.40123">
        <ele>126</ele>
        <time>2024-11-06T17:10:26Z</time>
      </trkpt>
      <trkpt lat="43.63165" lon="1.40124">
        <ele>126</ele>
        <time>2024-11-06T17:10:27Z</time>
      </trkpt>
      <trkpt lat="43.63168" lon="1.40125">
        <ele>126</ele>
        <time>2024-11-06T17:10:28Z</time>
      </trkpt>
      <trkpt lat="43.63171" lon="1.40126">
        <ele>126</ele>
        <time>2024-11-06T17:10:29Z</time>
      </trkpt>
      <trkpt lat="43.63174" lon="1.40127">
        <ele>126</ele>
        <time>2024-11-06T17:10:30Z</time>
      </trkpt>
      <trkpt lat="43.63176" lon="1.40128">
        <ele>126</ele>
        <time>2024-11-06T17:10:31Z</time>
      </trkpt>
      <trkpt lat="43.63179" lon="1.40129">
        <ele>126</ele>
        <time>2024-11-06T17:10:32Z</time>
      </trkpt>
      <trkpt lat="43.63182" lon="1.40131">
        <ele>126</ele>
        <time>2024-11-06T17:10:33Z</time>
      </trkpt>
      <trkpt lat="43.63184" lon="1.40132">
        <ele>126</ele>
        <time>2024-11-06T17:10:34Z</time>
      </trkpt>
      <trkpt lat="43.63187" lon="1.40133">
        <ele>126</ele>
        <time>2024-11-06T17:10:35Z</time>
      </trkpt>
      <trkpt lat="43.6319" lon="1.40134">
        <ele>126</ele>
        <time>2024-11-06T17:10:36Z</time>
      </trkpt>
      <trkpt lat="43.63194" lon="1.40136">
        <ele>126</ele>
        <time>2024-11-06T17:10:37Z</time>
      </trkpt>
      <trkpt lat="43.63196" lon="1.40137">
        <ele>126</ele>
        <time>2024-11-06T17:10:38Z</time>
      </trkpt>
      <trkpt lat="43.63199" lon="1.40139">
        <ele>126</ele>
        <time>2024-11-06T17:10:39Z</time>
      </trkpt>
      <trkpt lat="43.63201" lon="1.4014">
        <ele>126</ele>
        <time>2024-11-06T17:10:40Z</time>
      </trkpt>
      <trkpt lat="43.63204" lon="1.4014">
        <ele>126</ele>
        <time>2024-11-06T17:10:41Z</time>
      </trkpt>
      <trkpt lat="43.63206" lon="1.40141">
        <ele>126</ele>
        <time>2024-11-06T17:10:42Z</time>
      </trkpt>
      <trkpt lat="43.63209" lon="1.40141">
        <ele>126</ele>
        <time>2024-11-06T17:10:43Z</time>
      </trkpt>
      <trkpt lat="43.63211" lon="1.40142">
        <ele>126</ele>
        <time>2024-11-06T17:10:44Z</time>
      </trkpt>
      <trkpt lat="43.63215" lon="1.40144">
        <ele>126</ele>
        <time>2024-11-06T17:10:45Z</time>
      </trkpt>
      <trkpt lat="43.63216" lon="1.40144">
        <ele>126</ele>
        <time>2024-11-06T17:10:46Z</time>
      </trkpt>
      <trkpt lat="43.63219" lon="1.40145">
        <ele>126</ele>
        <time>2024-11-06T17:10:47Z</time>
      </trkpt>
      <trkpt lat="43.63221" lon="1.40146">
        <ele>126</ele>
        <time>2024-11-06T17:10:48Z</time>
      </trkpt>
      <trkpt lat="43.63224" lon="1.40147">
        <ele>126</ele>
        <time>2024-11-06T17:10:49Z</time>
      </trkpt>
      <trkpt lat="43.63226" lon="1.40147">
        <ele>126</ele>
        <time>2024-11-06T17:10:50Z</time>
      </trkpt>
      <trkpt lat="43.63228" lon="1.40148">
        <ele>126</ele>
        <time>2024-11-06T17:10:51Z</time>
      </trkpt>
      <trkpt lat="43.63231" lon="1.40149">
        <ele>126</ele>
        <time>2024-11-06T17:10:52Z</time>
      </trkpt>
      <trkpt lat="43.63233" lon="1.4015">
        <ele>126</ele>
        <time>2024-11-06T17:10:53Z</time>
      </trkpt>
      <trkpt lat="43.63236" lon="1.4015">
        <ele>126</ele>
        <time>2024-11-06T17:10:54Z</time>
      </trkpt>
      <trkpt lat="43.63238" lon="1.40151">
        <ele>126</ele>
        <time>2024-11-06T17:10:55Z</time>
      </trkpt>
      <trkpt lat="43.63241" lon="1.40151">
        <ele>126</ele>
        <time>2024-11-06T17:10:56Z</time>
      </trkpt>
      <trkpt lat="43.63245" lon="1.40152">
        <ele>126</ele>
        <time>2024-11-06T17:10:57Z</time>
      </trkpt>
      <trkpt lat="43.63246" lon="1.40153">
        <ele>126</ele>
        <time>2024-11-06T17:10:58Z</time>
      </trkpt>
      <trkpt lat="43.63249" lon="1.40154">
        <ele>126</ele>
        <time>2024-11-06T17:10:59Z</time>
      </trkpt>
      <trkpt lat="43.63251" lon="1.40155">
        <ele>126</ele>
        <time>2024-11-06T17:11:00Z</time>
      </trkpt>
      <trkpt lat="43.63254" lon="1.40155">
        <ele>126</ele>
        <time>2024-11-06T17:11:01Z</time>
      </trkpt>
      <trkpt lat="43.63256" lon="1.40156">
        <ele>126</ele>
        <time>2024-11-06T17:11:02Z</time>
      </trkpt>
      <trkpt lat="43.63259" lon="1.40157">
        <ele>126</ele>
        <time>2024-11-06T17:11:03Z</time>
      </trkpt>
      <trkpt lat="43.63262" lon="1.40157">
        <ele>126</ele>
        <time>2024-11-06T17:11:04Z</time>
      </trkpt>
      <trkpt lat="43.63264" lon="1.40158">
        <ele>126</ele>
        <time>2024-11-06T17:11:05Z</time>
      </trkpt>
      <trkpt lat="43.63266" lon="1.40159">
        <ele>126</ele>
        <time>2024-11-06T17:11:06Z</time>
      </trkpt>
      <trkpt lat="43.63269" lon="1.4016">
        <ele>126</ele>
        <time>2024-11-06T17:11:07Z</time>
      </trkpt>
      <trkpt lat="43.63271" lon="1.40161">
        <ele>126</ele>
        <time>2024-11-06T17:11:08Z</time>
      </trkpt>
      <trkpt lat="43.63274" lon="1.40162">
        <ele>126</ele>
        <time>2024-11-06T17:11:09Z</time>
      </trkpt>
      <trkpt lat="43.63277" lon="1.40163">
        <ele>126</ele>
        <time>2024-11-06T17:11:10Z</time>
      </trkpt>
      <trkpt lat="43.63279" lon="1.40164">
        <ele>126</ele>
        <time>2024-11-06T17:11:11Z</time>
      </trkpt>
      <trkpt lat="43.63282" lon="1.40165">
        <ele>126</ele>
        <time>2024-11-06T17:11:12Z</time>
      </trkpt>
      <trkpt lat="43.63284" lon="1.40165">
        <ele>126</ele>
        <time>2024-11-06T17:11:13Z</time>
      </trkpt>
      <trkpt lat="43.63287" lon="1.40166">
        <ele>126</ele>
        <time>2024-11-06T17:11:14Z</time>
      </trkpt>
      <trkpt lat="43.6329" lon="1.40167">
        <ele>126</ele>
        <time>2024-11-06T17:11:15Z</time>
      </trkpt>
      <trkpt lat="43.63293" lon="1.40168">
        <ele>126</ele>
        <time>2024-11-06T17:11:16Z</time>
      </trkpt>
      <trkpt lat="43.63295" lon="1.40168">
        <ele>126</ele>
        <time>2024-11-06T17:11:17Z</time>
      </trkpt>
      <trkpt lat="43.63297" lon="1.40169">
        <ele>126</ele>
        <time>2024-11-06T17:11:18Z</time>
      </trkpt>
      <trkpt lat="43.633" lon="1.4017">
        <ele>126</ele>
        <time>2024-11-06T17:11:19Z</time>
      </trkpt>
      <trkpt lat="43.63303" lon="1.40171">
        <ele>126</ele>
        <time>2024-11-06T17:11:20Z</time>
      </trkpt>
      <trkpt lat="43.63305" lon="1.40172">
        <ele>126</ele>
        <time>2024-11-06T17:11:21Z</time>
      </trkpt>
      <trkpt lat="43.63308" lon="1.40173">
        <ele>126</ele>
        <time>2024-11-06T17:11:22Z</time>
      </trkpt>
      <trkpt lat="43.63312" lon="1.40174">
        <ele>126</ele>
        <time>2024-11-06T17:11:23Z</time>
      </trkpt>
      <trkpt lat="43.63314" lon="1.40175">
        <ele>126</ele>
        <time>2024-11-06T17:11:24Z</time>
      </trkpt>
      <trkpt lat="43.63316" lon="1.40176">
        <ele>126</ele>
        <time>2024-11-06T17:11:25Z</time>
      </trkpt>
      <trkpt lat="43.63319" lon="1.40177">
        <ele>126</ele>
        <time>2024-11-06T17:11:26Z</time>
      </trkpt>
      <trkpt lat="43.63321" lon="1.40178">
        <ele>126</ele>
        <time>2024-11-06T17:11:27Z</time>
      </trkpt>
      <trkpt lat="43.63324" lon="1.4018">
        <ele>126</ele>
        <time>2024-11-06T17:11:28Z</time>
      </trkpt>
      <trkpt lat="43.63327" lon="1.40181">
        <ele>126</ele>
        <time>2024-11-06T17:11:29Z</time>
      </trkpt>
      <trkpt lat="43.63329" lon="1.40182">
        <ele>126</ele>
        <time>2024-11-06T17:11:30Z</time>
      </trkpt>
      <trkpt lat="43.63332" lon="1.40183">
        <ele>126</ele>
        <time>2024-11-06T17:11:31Z</time>
      </trkpt>
      <trkpt lat="43.63335" lon="1.40185">
        <ele>126</ele>
        <time>2024-11-06T17:11:32Z</time>
      </trkpt>
      <trkpt lat="43.63337" lon="1.40186">
        <ele>126</ele>
        <time>2024-11-06T17:11:33Z</time>
      </trkpt>
      <trkpt lat="43.63341" lon="1.40187">
        <ele>126</ele>
        <time>2024-11-06T17:11:34Z</time>
      </trkpt>
      <trkpt lat="43.63342" lon="1.40188">
        <ele>126</ele>
        <time>2024-11-06T17:11:35Z</time>
      </trkpt>
      <trkpt lat="43.63345" lon="1.40189">
        <ele>126</ele>
        <time>2024-11-06T17:11:36Z</time>
      </trkpt>
      <trkpt lat="43.63347" lon="1.4019">
        <ele>126</ele>
        <time>2024-11-06T17:11:37Z</time>
      </trkpt>
      <trkpt lat="43.6335" lon="1.40191">
        <ele>126</ele>
        <time>2024-11-06T17:11:38Z</time>
      </trkpt>
      <trkpt lat="43.63353" lon="1.40193">
        <ele>126</ele>
        <time>2024-11-06T17:11:39Z</time>
      </trkpt>
      <trkpt lat="43.63355" lon="1.40194">
        <ele>126</ele>
        <time>2024-11-06T17:11:40Z</time>
      </trkpt>
      <trkpt lat="43.63358" lon="1.40195">
        <ele>126</ele>
        <time>2024-11-06T17:11:41Z</time>
      </trkpt>
      <trkpt lat="43.6336" lon="1.40196">
        <ele>126</ele>
        <time>2024-11-06T17:11:42Z</time>
      </trkpt>
      <trkpt lat="43.63363" lon="1.40197">
        <ele>126</ele>
        <time>2024-11-06T17:11:43Z</time>
      </trkpt>
      <trkpt lat="43.63366" lon="1.40199">
        <ele>126</ele>
        <time>2024-11-06T17:11:44Z</time>
      </trkpt>
      <trkpt lat="43.63369" lon="1.40201">
        <ele>126</ele>
        <time>2024-11-06T17:11:45Z</time>
      </trkpt>
      <trkpt lat="43.63372" lon="1.40202">
        <ele>126</ele>
        <time>2024-11-06T17:11:46Z</time>
      </trkpt>
      <trkpt lat="43.63374" lon="1.40203">
        <ele>126</ele>
        <time>2024-11-06T17:11:47Z</time>
      </trkpt>
      <trkpt lat="43.63377" lon="1.40205">
        <ele>126</ele>
        <time>2024-11-06T17:11:48Z</time>
      </trkpt>
      <trkpt lat="43.63379" lon="1.40207">
        <ele>126</ele>
        <time>2024-11-06T17:11:49Z</time>
      </trkpt>
      <trkpt lat="43.63382" lon="1.40208">
        <ele>126</ele>
        <time>2024-11-06T17:11:50Z</time>
      </trkpt>
      <trkpt lat="43.63385" lon="1.40209">
        <ele>126</ele>
        <time>2024-11-06T17:11:51Z</time>
      </trkpt>
      <trkpt lat="43.63388" lon="1.40211">
        <ele>126</ele>
        <time>2024-11-06T17:11:52Z</time>
      </trkpt>
      <trkpt lat="43.6339" lon="1.40212">
        <ele>126</ele>
        <time>2024-11-06T17:11:53Z</time>
      </trkpt>
      <trkpt lat="43.63392" lon="1.40213">
        <ele>126</ele>
        <time>2024-11-06T17:11:54Z</time>
      </trkpt>
      <trkpt lat="43.63395" lon="1.40215">
        <ele>126</ele>
        <time>2024-11-06T17:11:55Z</time>
      </trkpt>
      <trkpt lat="43.63397" lon="1.40216">
        <ele>126</ele>
        <time>2024-11-06T17:11:56Z</time>
      </trkpt>
      <trkpt lat="43.634" lon="1.40217">
        <ele>126</ele>
        <time>2024-11-06T17:11:57Z</time>
      </trkpt>
      <trkpt lat="43.63402" lon="1.40219">
        <ele>126</ele>
        <time>2024-11-06T17:11:58Z</time>
      </trkpt>
      <trkpt lat="43.63405" lon="1.4022">
        <ele>126</ele>
        <time>2024-11-06T17:11:59Z</time>
      </trkpt>
      <trkpt lat="43.63407" lon="1.4022">
        <ele>126</ele>
        <time>2024-11-06T17:12:00Z</time>
      </trkpt>
      <trkpt lat="43.63411" lon="1.40221">
        <ele>126</ele>
        <time>2024-11-06T17:12:01Z</time>
      </trkpt>
      <trkpt lat="43.63412" lon="1.40222">
        <ele>126</ele>
        <time>2024-11-06T17:12:02Z</time>
      </trkpt>
      <trkpt lat="43.63415" lon="1.40223">
        <ele>126</ele>
        <time>2024-11-06T17:12:03Z</time>
      </trkpt>
      <trkpt lat="43.63418" lon="1.40224">
        <ele>126</ele>
        <time>2024-11-06T17:12:04Z</time>
      </trkpt>
      <trkpt lat="43.6342" lon="1.40225">
        <ele>126</ele>
        <time>2024-11-06T17:12:05Z</time>
      </trkpt>
      <trkpt lat="43.63423" lon="1.40227">
        <ele>126</ele>
        <time>2024-11-06T17:12:06Z</time>
      </trkpt>
      <trkpt lat="43.63426" lon="1.40228">
        <ele>126</ele>
        <time>2024-11-06T17:12:07Z</time>
      </trkpt>
      <trkpt lat="43.63428" lon="1.40229">
        <ele>126</ele>
        <time>2024-11-06T17:12:08Z</time>
      </trkpt>
      <trkpt lat="43.63431" lon="1.4023">
        <ele>126</ele>
        <time>2024-11-06T17:12:09Z</time>
      </trkpt>
      <trkpt lat="43.63435" lon="1.40231">
        <ele>126</ele>
        <time>2024-11-06T17:12:10Z</time>
      </trkpt>
      <trkpt lat="43.63437" lon="1.40232">
        <ele>126</ele>
        <time>2024-11-06T17:12:11Z</time>
      </trkpt>
      <trkpt lat="43.63439" lon="1.40232">
        <ele>126</ele>
        <time>2024-11-06T17:12:12Z</time>
      </trkpt>
      <trkpt lat="43.63442" lon="1.40233">
        <ele>126</ele>
        <time>2024-11-06T17:12:13Z</time>
      </trkpt>
      <trkpt lat="43.63445" lon="1.40234">
        <ele>126</ele>
        <time>2024-11-06T17:12:14Z</time>
      </trkpt>
      <trkpt lat="43.63448" lon="1.40234">
        <ele>126</ele>
        <time>2024-11-06T17:12:15Z</time>
      </trkpt>
      <trkpt lat="43.63451" lon="1.40234">
        <ele>126</ele>
        <time>2024-11-06T17:12:16Z</time>
      </trkpt>
      <trkpt lat="43.63453" lon="1.40235">
        <ele>126</ele>
        <time>2024-11-06T17:12:17Z</time>
      </trkpt>
      <trkpt lat="43.63456" lon="1.40236">
        <ele>126</ele>
        <time>2024-11-06T17:12:18Z</time>
      </trkpt>
      <trkpt lat="43.63459" lon="1.40236">
        <ele>126</ele>
        <time>2024-11-06T17:12:19Z</time>
      </trkpt>
      <trkpt lat="43.63463" lon="1.40237">
        <ele>126</ele>
        <time>2024-11-06T17:12:20Z</time>
      </trkpt>
      <trkpt lat="43.63464" lon="1.40238">
        <ele>126</ele>
        <time>2024-11-06T17:12:21Z</time>
      </trkpt>
      <trkpt lat="43.63467" lon="1.40239">
        <ele>126</ele>
        <time>2024-11-06T17:12:22Z</time>
      </trkpt>
      <trkpt lat="43.6347" lon="1.40239">
        <ele>126</ele>
        <time>2024-11-06T17:12:23Z</time>
      </trkpt>
      <trkpt lat="43.63472" lon="1.4024">
        <ele>126</ele>
        <time>2024-11-06T17:12:24Z</time>
      </trkpt>
      <trkpt lat="43.63475" lon="1.40241">
        <ele>126</ele>
        <time>2024-11-06T17:12:25Z</time>
      </trkpt>
      <trkpt lat="43.63477" lon="1.40241">
        <ele>126</ele>
        <time>2024-11-06T17:12:26Z</time>
      </trkpt>
      <trkpt lat="43.6348" lon="1.40241">
        <ele>126</ele>
        <time>2024-11-06T17:12:27Z</time>
      </trkpt>
      <trkpt lat="43.63483" lon="1.40241">
        <ele>126</ele>
        <time>2024-11-06T17:12:28Z</time>
      </trkpt>
      <trkpt lat="43.63484" lon="1.40241">
        <ele>126</ele>
        <time>2024-11-06T17:12:29Z</time>
      </trkpt>
      <trkpt lat="43.63487" lon="1.40241">
        <ele>126</ele>
        <time>2024-11-06T17:12:30Z</time>
      </trkpt>
      <trkpt lat="43.6349" lon="1.40242">
        <ele>126</ele>
        <time>2024-11-06T17:12:31Z</time>
      </trkpt>
      <trkpt lat="43.63492" lon="1.40243">
        <ele>126</ele>
        <time>2024-11-06T17:12:32Z</time>
      </trkpt>
      <trkpt lat="43.63495" lon="1.40243">
        <ele>126</ele>
        <time>2024-11-06T17:12:33Z</time>
      </trkpt>
      <trkpt lat="43.63497" lon="1.40243">
        <ele>126</ele>
        <time>2024-11-06T17:12:34Z</time>
      </trkpt>
      <trkpt lat="43.635" lon="1.40243">
        <ele>126</ele>
        <time>2024-11-06T17:12:35Z</time>
      </trkpt>
      <trkpt lat="43.63502" lon="1.40244">
        <ele>126</ele>
        <time>2024-11-06T17:12:36Z</time>
      </trkpt>
      <trkpt lat="43.63505" lon="1.40244">
        <ele>126</ele>
        <time>2024-11-06T17:12:37Z</time>
      </trkpt>
      <trkpt lat="43.63508" lon="1.40244">
        <ele>126</ele>
        <time>2024-11-06T17:12:38Z</time>
      </trkpt>
      <trkpt lat="43.63512" lon="1.40245">
        <ele>126</ele>
        <time>2024-11-06T17:12:39Z</time>
      </trkpt>
      <trkpt lat="43.63513" lon="1.40246">
        <ele>126</ele>
        <time>2024-11-06T17:12:40Z</time>
      </trkpt>
      <trkpt lat="43.63516" lon="1.40247">
        <ele>126</ele>
        <time>2024-11-06T17:12:41Z</time>
      </trkpt>
      <trkpt lat="43.63518" lon="1.40248">
        <ele>126</ele>
        <time>2024-11-06T17:12:42Z</time>
      </trkpt>
      <trkpt lat="43.63521" lon="1.40249">
        <ele>126</ele>
        <time>2024-11-06T17:12:43Z</time>
      </trkpt>
      <trkpt lat="43.63523" lon="1.4025">
        <ele>126</ele>
        <time>2024-11-06T17:12:44Z</time>
      </trkpt>
      <trkpt lat="43.63526" lon="1.40251">
        <ele>126</ele>
        <time>2024-11-06T17:12:45Z</time>
      </trkpt>
      <trkpt lat="43.63529" lon="1.40251">
        <ele>126</ele>
        <time>2024-11-06T17:12:46Z</time>
      </trkpt>
      <trkpt lat="43.63534" lon="1.40252">
        <ele>126</ele>
        <time>2024-11-06T17:12:47Z</time>
      </trkpt>
      <trkpt lat="43.63535" lon="1.40252">
        <ele>126</ele>
        <time>2024-11-06T17:12:48Z</time>
      </trkpt>
      <trkpt lat="43.63538" lon="1.40253">
        <ele>126</ele>
        <time>2024-11-06T17:12:49Z</time>
      </trkpt>
      <trkpt lat="43.6354" lon="1.40253">
        <ele>126</ele>
        <time>2024-11-06T17:12:50Z</time>
      </trkpt>
      <trkpt lat="43.63543" lon="1.40254">
        <ele>126</ele>
        <time>2024-11-06T17:12:51Z</time>
      </trkpt>
      <trkpt lat="43.63545" lon="1.40254">
        <ele>126</ele>
        <time>2024-11-06T17:12:52Z</time>
      </trkpt>
      <trkpt lat="43.63548" lon="1.40255">
        <ele>126</ele>
        <time>2024-11-06T17:12:53Z</time>
      </trkpt>
      <trkpt lat="43.63551" lon="1.40255">
        <ele>126</ele>
        <time>2024-11-06T17:12:54Z</time>
      </trkpt>
      <trkpt lat="43.63553" lon="1.40256">
        <ele>126</ele>
        <time>2024-11-06T17:12:55Z</time>
      </trkpt>
      <trkpt lat="43.63556" lon="1.40257">
        <ele>126</ele>
        <time>2024-11-06T17:12:56Z</time>
      </trkpt>
      <trkpt lat="43.63558" lon="1.40257">
        <ele>126</ele>
        <time>2024-11-06T17:12:57Z</time>
      </trkpt>
      <trkpt lat="43.63562" lon="1.40257">
        <ele>126</ele>
        <time>2024-11-06T17:12:58Z</time>
      </trkpt>
      <trkpt lat="43.63563" lon="1.40257">
        <ele>126</ele>
        <time>2024-11-06T17:12:59Z</time>
      </trkpt>
      <trkpt lat="43.63566" lon="1.40257">
        <ele>126</ele>
        <time>2024-11-06T17:13:00Z</time>
      </trkpt>
      <trkpt lat="43.63569" lon="1.40257">
        <ele>126</ele>
        <time>2024-11-06T17:13:01Z</time>
      </trkpt>
      <trkpt lat="43.63571" lon="1.40257">
        <ele>126</ele>
        <time>2024-11-06T17:13:02Z</time>
      </trkpt>
      <trkpt lat="43.63573" lon="1.40258">
        <ele>126</ele>
        <time>2024-11-06T17:13:03Z</time>
      </trkpt>
      <trkpt lat="43.63576" lon="1.40258">
        <ele>126</ele>
        <time>2024-11-06T17:13:04Z</time>
      </trkpt>
      <trkpt lat="43.63578" lon="1.40258">
        <ele>126</ele>
        <time>2024-11-06T17:13:05Z</time>
      </trkpt>
      <trkpt lat="43.63582" lon="1.40258">
        <ele>126</ele>
        <time>2024-11-06T17:13:06Z</time>
      </trkpt>
      <trkpt lat="43.63584" lon="1.40258">
        <ele>126</ele>
        <time>2024-11-06T17:13:07Z</time>
      </trkpt>
      <trkpt lat="43.63587" lon="1.40258">
        <ele>126</ele>
        <time>2024-11-06T17:13:08Z</time>
      </trkpt>
      <trkpt lat="43.6359" lon="1.40258">
        <ele>126</ele>
        <time>2024-11-06T17:13:09Z</time>
      </trkpt>
      <trkpt lat="43.63593" lon="1.40259">
        <ele>126</ele>
        <time>2024-11-06T17:13:10Z</time>
      </trkpt>
      <trkpt lat="43.63596" lon="1.4026">
        <ele>126</ele>
        <time>2024-11-06T17:13:11Z</time>
      </trkpt>
      <trkpt lat="43.63599" lon="1.40261">
        <ele>126</ele>
        <time>2024-11-06T17:13:12Z</time>
      </trkpt>
      <trkpt lat="43.63602" lon="1.40261">
        <ele>126</ele>
        <time>2024-11-06T17:13:13Z</time>
      </trkpt>
      <trkpt lat="43.63605" lon="1.40262">
        <ele>126</ele>
        <time>2024-11-06T17:13:14Z</time>
      </trkpt>
      <trkpt lat="43.63608" lon="1.40263">
        <ele>126</ele>
        <time>2024-11-06T17:13:15Z</time>
      </trkpt>
      <trkpt lat="43.6361" lon="1.40263">
        <ele>126</ele>
        <time>2024-11-06T17:13:16Z</time>
      </trkpt>
      <trkpt lat="43.63615" lon="1.40263">
        <ele>126</ele>
        <time>2024-11-06T17:13:17Z</time>
      </trkpt>
      <trkpt lat="43.63616" lon="1.40263">
        <ele>126</ele>
        <time>2024-11-06T17:13:18Z</time>
      </trkpt>
      <trkpt lat="43.63618" lon="1.40263">
        <ele>126</ele>
        <time>2024-11-06T17:13:19Z</time>
      </trkpt>
      <trkpt lat="43.63621" lon="1.40263">
        <ele>126</ele>
        <time>2024-11-06T17:13:20Z</time>
      </trkpt>
      <trkpt lat="43.63624" lon="1.40263">
        <ele>126</ele>
        <time>2024-11-06T17:13:21Z</time>
      </trkpt>
      <trkpt lat="43.63627" lon="1.40263">
        <ele>126</ele>
        <time>2024-11-06T17:13:22Z</time>
      </trkpt>
      <trkpt lat="43.6363" lon="1.40263">
        <ele>126</ele>
        <time>2024-11-06T17:13:23Z</time>
      </trkpt>
      <trkpt lat="43.63633" lon="1.40263">
        <ele>126</ele>
        <time>2024-11-06T17:13:24Z</time>
      </trkpt>
      <trkpt lat="43.63635" lon="1.40262">
        <ele>126</ele>
        <time>2024-11-06T17:13:25Z</time>
      </trkpt>
      <trkpt lat="43.63637" lon="1.40261">
        <ele>126</ele>
        <time>2024-11-06T17:13:26Z</time>
      </trkpt>
      <trkpt lat="43.6364" lon="1.40261">
        <ele>126</ele>
        <time>2024-11-06T17:13:27Z</time>
      </trkpt>
      <trkpt lat="43.63643" lon="1.40263">
        <ele>126</ele>
        <time>2024-11-06T17:13:28Z</time>
      </trkpt>
      <trkpt lat="43.63645" lon="1.40262">
        <ele>126</ele>
        <time>2024-11-06T17:13:29Z</time>
      </trkpt>
      <trkpt lat="43.63648" lon="1.40262">
        <ele>126</ele>
        <time>2024-11-06T17:13:30Z</time>
      </trkpt>
      <trkpt lat="43.63651" lon="1.40262">
        <ele>126</ele>
        <time>2024-11-06T17:13:31Z</time>
      </trkpt>
      <trkpt lat="43.63654" lon="1.40262">
        <ele>126</ele>
        <time>2024-11-06T17:13:32Z</time>
      </trkpt>
      <trkpt lat="43.63657" lon="1.40262">
        <ele>126</ele>
        <time>2024-11-06T17:13:33Z</time>
      </trkpt>
      <trkpt lat="43.63659" lon="1.40262">
        <ele>126</ele>
        <time>2024-11-06T17:13:34Z</time>
      </trkpt>
      <trkpt lat="43.63662" lon="1.40263">
        <ele>126</ele>
        <time>2024-11-06T17:13:35Z</time>
      </trkpt>
      <trkpt lat="43.63666" lon="1.40263">
        <ele>126</ele>
        <time>2024-11-06T17:13:36Z</time>
      </trkpt>
      <trkpt lat="43.63667" lon="1.40263">
        <ele>125</ele>
        <time>2024-11-06T17:13:37Z</time>
      </trkpt>
      <trkpt lat="43.6367" lon="1.40262">
        <ele>125</ele>
        <time>2024-11-06T17:13:38Z</time>
      </trkpt>
      <trkpt lat="43.63672" lon="1.40262">
        <ele>125</ele>
        <time>2024-11-06T17:13:39Z</time>
      </trkpt>
      <trkpt lat="43.63675" lon="1.40261">
        <ele>125</ele>
        <time>2024-11-06T17:13:40Z</time>
      </trkpt>
      <trkpt lat="43.63678" lon="1.40261">
        <ele>125</ele>
        <time>2024-11-06T17:13:41Z</time>
      </trkpt>
      <trkpt lat="43.63682" lon="1.40261">
        <ele>125</ele>
        <time>2024-11-06T17:13:42Z</time>
      </trkpt>
      <trkpt lat="43.63683" lon="1.40261">
        <ele>125</ele>
        <time>2024-11-06T17:13:43Z</time>
      </trkpt>
      <trkpt lat="43.63685" lon="1.40261">
        <ele>125</ele>
        <time>2024-11-06T17:13:44Z</time>
      </trkpt>
      <trkpt lat="43.63688" lon="1.4026">
        <ele>125</ele>
        <time>2024-11-06T17:13:45Z</time>
      </trkpt>
      <trkpt lat="43.6369" lon="1.4026">
        <ele>125</ele>
        <time>2024-11-06T17:13:46Z</time>
      </trkpt>
      <trkpt lat="43.63693" lon="1.40259">
        <ele>125</ele>
        <time>2024-11-06T17:13:47Z</time>
      </trkpt>
      <trkpt lat="43.63695" lon="1.40259">
        <ele>125</ele>
        <time>2024-11-06T17:13:48Z</time>
      </trkpt>
      <trkpt lat="43.63698" lon="1.40258">
        <ele>125</ele>
        <time>2024-11-06T17:13:49Z</time>
      </trkpt>
      <trkpt lat="43.63701" lon="1.40258">
        <ele>125</ele>
        <time>2024-11-06T17:13:50Z</time>
      </trkpt>
      <trkpt lat="43.63703" lon="1.40257">
        <ele>125</ele>
        <time>2024-11-06T17:13:51Z</time>
      </trkpt>
      <trkpt lat="43.63706" lon="1.40257">
        <ele>125</ele>
        <time>2024-11-06T17:13:52Z</time>
      </trkpt>
      <trkpt lat="43.63708" lon="1.40257">
        <ele>125</ele>
        <time>2024-11-06T17:13:53Z</time>
      </trkpt>
      <trkpt lat="43.63711" lon="1.40256">
        <ele>125</ele>
        <time>2024-11-06T17:13:54Z</time>
      </trkpt>
      <trkpt lat="43.63715" lon="1.40256">
        <ele>125</ele>
        <time>2024-11-06T17:13:55Z</time>
      </trkpt>
      <trkpt lat="43.63717" lon="1.40256">
        <ele>126</ele>
        <time>2024-11-06T17:13:56Z</time>
      </trkpt>
      <trkpt lat="43.63719" lon="1.40256">
        <ele>126</ele>
        <time>2024-11-06T17:13:57Z</time>
      </trkpt>
      <trkpt lat="43.63722" lon="1.40255">
        <ele>126</ele>
        <time>2024-11-06T17:13:58Z</time>
      </trkpt>
      <trkpt lat="43.63724" lon="1.40255">
        <ele>125</ele>
        <time>2024-11-06T17:13:59Z</time>
      </trkpt>
      <trkpt lat="43.63727" lon="1.40254">
        <ele>125</ele>
        <time>2024-11-06T17:14:00Z</time>
      </trkpt>
      <trkpt lat="43.63729" lon="1.40254">
        <ele>125</ele>
        <time>2024-11-06T17:14:01Z</time>
      </trkpt>
      <trkpt lat="43.63733" lon="1.40254">
        <ele>125</ele>
        <time>2024-11-06T17:14:02Z</time>
      </trkpt>
      <trkpt lat="43.63735" lon="1.40254">
        <ele>125</ele>
        <time>2024-11-06T17:14:03Z</time>
      </trkpt>
      <trkpt lat="43.63737" lon="1.40253">
        <ele>126</ele>
        <time>2024-11-06T17:14:04Z</time>
      </trkpt>
      <trkpt lat="43.6374" lon="1.40253">
        <ele>126</ele>
        <time>2024-11-06T17:14:05Z</time>
      </trkpt>
      <trkpt lat="43.63743" lon="1.40253">
        <ele>126</ele>
        <time>2024-11-06T17:14:06Z</time>
      </trkpt>
      <trkpt lat="43.63746" lon="1.40253">
        <ele>126</ele>
        <time>2024-11-06T17:14:07Z</time>
      </trkpt>
      <trkpt lat="43.63749" lon="1.40253">
        <ele>126</ele>
        <time>2024-11-06T17:14:08Z</time>
      </trkpt>
      <trkpt lat="43.63752" lon="1.40253">
        <ele>126</ele>
        <time>2024-11-06T17:14:09Z</time>
      </trkpt>
      <trkpt lat="43.63755" lon="1.40253">
        <ele>126</ele>
        <time>2024-11-06T17:14:10Z</time>
      </trkpt>
      <trkpt lat="43.63757" lon="1.40252">
        <ele>126</ele>
        <time>2024-11-06T17:14:11Z</time>
      </trkpt>
      <trkpt lat="43.6376" lon="1.40252">
        <ele>126</ele>
        <time>2024-11-06T17:14:12Z</time>
      </trkpt>
      <trkpt lat="43.63763" lon="1.40252">
        <ele>126</ele>
        <time>2024-11-06T17:14:13Z</time>
      </trkpt>
      <trkpt lat="43.63767" lon="1.40251">
        <ele>126</ele>
        <time>2024-11-06T17:14:14Z</time>
      </trkpt>
      <trkpt lat="43.63769" lon="1.40251">
        <ele>126</ele>
        <time>2024-11-06T17:14:15Z</time>
      </trkpt>
      <trkpt lat="43.63772" lon="1.4025">
        <ele>126</ele>
        <time>2024-11-06T17:14:16Z</time>
      </trkpt>
      <trkpt lat="43.63775" lon="1.4025">
        <ele>126</ele>
        <time>2024-11-06T17:14:17Z</time>
      </trkpt>
      <trkpt lat="43.63777" lon="1.4025">
        <ele>126</ele>
        <time>2024-11-06T17:14:18Z</time>
      </trkpt>
      <trkpt lat="43.63781" lon="1.4025">
        <ele>126</ele>
        <time>2024-11-06T17:14:19Z</time>
      </trkpt>
      <trkpt lat="43.63783" lon="1.4025">
        <ele>126</ele>
        <time>2024-11-06T17:14:20Z</time>
      </trkpt>
      <trkpt lat="43.63785" lon="1.4025">
        <ele>126</ele>
        <time>2024-11-06T17:14:21Z</time>
      </trkpt>
      <trkpt lat="43.63788" lon="1.4025">
        <ele>125</ele>
        <time>2024-11-06T17:14:22Z</time>
      </trkpt>
      <trkpt lat="43.63791" lon="1.40249">
        <ele>126</ele>
        <time>2024-11-06T17:14:23Z</time>
      </trkpt>
      <trkpt lat="43.63793" lon="1.40248">
        <ele>126</ele>
        <time>2024-11-06T17:14:24Z</time>
      </trkpt>
      <trkpt lat="43.63796" lon="1.40248">
        <ele>126</ele>
        <time>2024-11-06T17:14:25Z</time>
      </trkpt>
      <trkpt lat="43.63799" lon="1.40248">
        <ele>126</ele>
        <time>2024-11-06T17:14:26Z</time>
      </trkpt>
      <trkpt lat="43.63801" lon="1.40247">
        <ele>126</ele>
        <time>2024-11-06T17:14:27Z</time>
      </trkpt>
      <trkpt lat="43.63804" lon="1.40247">
        <ele>126</ele>
        <time>2024-11-06T17:14:28Z</time>
      </trkpt>
      <trkpt lat="43.63807" lon="1.40247">
        <ele>126</ele>
        <time>2024-11-06T17:14:29Z</time>
      </trkpt>
      <trkpt lat="43.6381" lon="1.40246">
        <ele>126</ele>
        <time>2024-11-06T17:14:30Z</time>
      </trkpt>
      <trkpt lat="43.63812" lon="1.40246">
        <ele>126</ele>
        <time>2024-11-06T17:14:31Z</time>
      </trkpt>
      <trkpt lat="43.63815" lon="1.40245">
        <ele>126</ele>
        <time>2024-11-06T17:14:32Z</time>
      </trkpt>
      <trkpt lat="43.63819" lon="1.40245">
        <ele>126</ele>
        <time>2024-11-06T17:14:33Z</time>
      </trkpt>
      <trkpt lat="43.6382" lon="1.40244">
        <ele>126</ele>
        <time>2024-11-06T17:14:34Z</time>
      </trkpt>
      <trkpt lat="43.63823" lon="1.40244">
        <ele>126</ele>
        <time>2024-11-06T17:14:35Z</time>
      </trkpt>
      <trkpt lat="43.63826" lon="1.40244">
        <ele>126</ele>
        <time>2024-11-06T17:14:36Z</time>
      </trkpt>
      <trkpt lat="43.63829" lon="1.40244">
        <ele>126</ele>
        <time>2024-11-06T17:14:37Z</time>
      </trkpt>
      <trkpt lat="43.63833" lon="1.40242">
        <ele>126</ele>
        <time>2024-11-06T17:14:38Z</time>
      </trkpt>
      <trkpt lat="43.63834" lon="1.40242">
        <ele>126</ele>
        <time>2024-11-06T17:14:39Z</time>
      </trkpt>
      <trkpt lat="43.63836" lon="1.40241">
        <ele>126</ele>
        <time>2024-11-06T17:14:40Z</time>
      </trkpt>
      <trkpt lat="43.63839" lon="1.4024">
        <ele>126</ele>
        <time>2024-11-06T17:14:41Z</time>
      </trkpt>
      <trkpt lat="43.63841" lon="1.40239">
        <ele>126</ele>
        <time>2024-11-06T17:14:42Z</time>
      </trkpt>
      <trkpt lat="43.63844" lon="1.40238">
        <ele>126</ele>
        <time>2024-11-06T17:14:43Z</time>
      </trkpt>
      <trkpt lat="43.63846" lon="1.40237">
        <ele>126</ele>
        <time>2024-11-06T17:14:44Z</time>
      </trkpt>
      <trkpt lat="43.63848" lon="1.40236">
        <ele>126</ele>
        <time>2024-11-06T17:14:45Z</time>
      </trkpt>
      <trkpt lat="43.63851" lon="1.40236">
        <ele>126</ele>
        <time>2024-11-06T17:14:46Z</time>
      </trkpt>
      <trkpt lat="43.63854" lon="1.40235">
        <ele>126</ele>
        <time>2024-11-06T17:14:47Z</time>
      </trkpt>
      <trkpt lat="43.63857" lon="1.40234">
        <ele>127</ele>
        <time>2024-11-06T17:14:48Z</time>
      </trkpt>
      <trkpt lat="43.63859" lon="1.40234">
        <ele>127</ele>
        <time>2024-11-06T17:14:49Z</time>
      </trkpt>
      <trkpt lat="43.63862" lon="1.40233">
        <ele>127</ele>
        <time>2024-11-06T17:14:50Z</time>
      </trkpt>
      <trkpt lat="43.63865" lon="1.40233">
        <ele>127</ele>
        <time>2024-11-06T17:14:51Z</time>
      </trkpt>
      <trkpt lat="43.63869" lon="1.40232">
        <ele>127</ele>
        <time>2024-11-06T17:14:52Z</time>
      </trkpt>
      <trkpt lat="43.6387" lon="1.40231">
        <ele>127</ele>
        <time>2024-11-06T17:14:53Z</time>
      </trkpt>
      <trkpt lat="43.63873" lon="1.40231">
        <ele>127</ele>
        <time>2024-11-06T17:14:54Z</time>
      </trkpt>
      <trkpt lat="43.63876" lon="1.40231">
        <ele>127</ele>
        <time>2024-11-06T17:14:55Z</time>
      </trkpt>
      <trkpt lat="43.6388" lon="1.40229">
        <ele>127</ele>
        <time>2024-11-06T17:14:56Z</time>
      </trkpt>
      <trkpt lat="43.63881" lon="1.40229">
        <ele>127</ele>
        <time>2024-11-06T17:14:57Z</time>
      </trkpt>
      <trkpt lat="43.63884" lon="1.40228">
        <ele>127</ele>
        <time>2024-11-06T17:14:58Z</time>
      </trkpt>
      <trkpt lat="43.63887" lon="1.40228">
        <ele>127</ele>
        <time>2024-11-06T17:14:59Z</time>
      </trkpt>
      <trkpt lat="43.63889" lon="1.40227">
        <ele>127</ele>
        <time>2024-11-06T17:15:00Z</time>
      </trkpt>
      <trkpt lat="43.63892" lon="1.40225">
        <ele>127</ele>
        <time>2024-11-06T17:15:01Z</time>
      </trkpt>
      <trkpt lat="43.63894" lon="1.40224">
        <ele>127</ele>
        <time>2024-11-06T17:15:02Z</time>
      </trkpt>
      <trkpt lat="43.63897" lon="1.40222">
        <ele>127</ele>
        <time>2024-11-06T17:15:03Z</time>
      </trkpt>
      <trkpt lat="43.639" lon="1.40222">
        <ele>127</ele>
        <time>2024-11-06T17:15:04Z</time>
      </trkpt>
      <trkpt lat="43.63903" lon="1.40221">
        <ele>127</ele>
        <time>2024-11-06T17:15:05Z</time>
      </trkpt>
      <trkpt lat="43.63905" lon="1.4022">
        <ele>126</ele>
        <time>2024-11-06T17:15:06Z</time>
      </trkpt>
      <trkpt lat="43.63908" lon="1.40219">
        <ele>126</ele>
        <time>2024-11-06T17:15:07Z</time>
      </trkpt>
      <trkpt lat="43.6391" lon="1.40219">
        <ele>127</ele>
        <time>2024-11-06T17:15:08Z</time>
      </trkpt>
      <trkpt lat="43.63913" lon="1.40218">
        <ele>127</ele>
        <time>2024-11-06T17:15:09Z</time>
      </trkpt>
      <trkpt lat="43.63915" lon="1.40217">
        <ele>127</ele>
        <time>2024-11-06T17:15:10Z</time>
      </trkpt>
      <trkpt lat="43.63919" lon="1.40214">
        <ele>127</ele>
        <time>2024-11-06T17:15:11Z</time>
      </trkpt>
      <trkpt lat="43.63921" lon="1.40214">
        <ele>127</ele>
        <time>2024-11-06T17:15:12Z</time>
      </trkpt>
      <trkpt lat="43.63923" lon="1.40212">
        <ele>127</ele>
        <time>2024-11-06T17:15:13Z</time>
      </trkpt>
      <trkpt lat="43.63927" lon="1.4021">
        <ele>127</ele>
        <time>2024-11-06T17:15:14Z</time>
      </trkpt>
      <trkpt lat="43.63928" lon="1.40209">
        <ele>127</ele>
        <time>2024-11-06T17:15:15Z</time>
      </trkpt>
      <trkpt lat="43.6393" lon="1.40208">
        <ele>127</ele>
        <time>2024-11-06T17:15:16Z</time>
      </trkpt>
      <trkpt lat="43.63933" lon="1.40207">
        <ele>127</ele>
        <time>2024-11-06T17:15:17Z</time>
      </trkpt>
      <trkpt lat="43.63935" lon="1.40205">
        <ele>127</ele>
        <time>2024-11-06T17:15:18Z</time>
      </trkpt>
      <trkpt lat="43.63937" lon="1.40203">
        <ele>127</ele>
        <time>2024-11-06T17:15:19Z</time>
      </trkpt>
      <trkpt lat="43.63939" lon="1.40201">
        <ele>127</ele>
        <time>2024-11-06T17:15:20Z</time>
      </trkpt>
      <trkpt lat="43.63942" lon="1.40199">
        <ele>127</ele>
        <time>2024-11-06T17:15:21Z</time>
      </trkpt>
      <trkpt lat="43.63944" lon="1.40197">
        <ele>127</ele>
        <time>2024-11-06T17:15:22Z</time>
      </trkpt>
      <trkpt lat="43.63946" lon="1.40196">
        <ele>127</ele>
        <time>2024-11-06T17:15:23Z</time>
      </trkpt>
      <trkpt lat="43.63949" lon="1.40194">
        <ele>127</ele>
        <time>2024-11-06T17:15:24Z</time>
      </trkpt>
      <trkpt lat="43.63951" lon="1.40193">
        <ele>127</ele>
        <time>2024-11-06T17:15:25Z</time>
      </trkpt>
      <trkpt lat="43.63954" lon="1.40191">
        <ele>127</ele>
        <time>2024-11-06T17:15:26Z</time>
      </trkpt>
      <trkpt lat="43.63956" lon="1.4019">
        <ele>127</ele>
        <time>2024-11-06T17:15:27Z</time>
      </trkpt>
      <trkpt lat="43.63959" lon="1.40188">
        <ele>127</ele>
        <time>2024-11-06T17:15:28Z</time>
      </trkpt>
      <trkpt lat="43.63961" lon="1.40187">
        <ele>127</ele>
        <time>2024-11-06T17:15:29Z</time>
      </trkpt>
      <trkpt lat="43.63963" lon="1.40185">
        <ele>127</ele>
        <time>2024-11-06T17:15:30Z</time>
      </trkpt>
      <trkpt lat="43.63966" lon="1.40184">
        <ele>126</ele>
        <time>2024-11-06T17:15:31Z</time>
      </trkpt>
      <trkpt lat="43.63968" lon="1.40182">
        <ele>126</ele>
        <time>2024-11-06T17:15:32Z</time>
      </trkpt>
      <trkpt lat="43.63972" lon="1.40179">
        <ele>126</ele>
        <time>2024-11-06T17:15:33Z</time>
      </trkpt>
      <trkpt lat="43.63973" lon="1.40178">
        <ele>125</ele>
        <time>2024-11-06T17:15:34Z</time>
      </trkpt>
      <trkpt lat="43.63975" lon="1.40176">
        <ele>125</ele>
        <time>2024-11-06T17:15:35Z</time>
      </trkpt>
      <trkpt lat="43.63977" lon="1.40174">
        <ele>126</ele>
        <time>2024-11-06T17:15:36Z</time>
      </trkpt>
      <trkpt lat="43.63979" lon="1.40171">
        <ele>126</ele>
        <time>2024-11-06T17:15:37Z</time>
      </trkpt>
      <trkpt lat="43.63981" lon="1.40169">
        <ele>127</ele>
        <time>2024-11-06T17:15:38Z</time>
      </trkpt>
      <trkpt lat="43.63983" lon="1.40167">
        <ele>127</ele>
        <time>2024-11-06T17:15:39Z</time>
      </trkpt>
      <trkpt lat="43.63985" lon="1.40165">
        <ele>127</ele>
        <time>2024-11-06T17:15:40Z</time>
      </trkpt>
      <trkpt lat="43.63987" lon="1.40162">
        <ele>127</ele>
        <time>2024-11-06T17:15:41Z</time>
      </trkpt>
      <trkpt lat="43.63989" lon="1.4016">
        <ele>127</ele>
        <time>2024-11-06T17:15:42Z</time>
      </trkpt>
      <trkpt lat="43.63991" lon="1.40158">
        <ele>127</ele>
        <time>2024-11-06T17:15:43Z</time>
      </trkpt>
      <trkpt lat="43.63993" lon="1.40156">
        <ele>127</ele>
        <time>2024-11-06T17:15:44Z</time>
      </trkpt>
      <trkpt lat="43.63996" lon="1.40154">
        <ele>127</ele>
        <time>2024-11-06T17:15:45Z</time>
      </trkpt>
      <trkpt lat="43.63998" lon="1.40152">
        <ele>127</ele>
        <time>2024-11-06T17:15:46Z</time>
      </trkpt>
      <trkpt lat="43.64" lon="1.4015">
        <ele>127</ele>
        <time>2024-11-06T17:15:47Z</time>
      </trkpt>
      <trkpt lat="43.64002" lon="1.40147">
        <ele>127</ele>
        <time>2024-11-06T17:15:48Z</time>
      </trkpt>
      <trkpt lat="43.64006" lon="1.40144">
        <ele>127</ele>
        <time>2024-11-06T17:15:49Z</time>
      </trkpt>
      <trkpt lat="43.64007" lon="1.40143">
        <ele>127</ele>
        <time>2024-11-06T17:15:50Z</time>
      </trkpt>
      <trkpt lat="43.64009" lon="1.4014">
        <ele>127</ele>
        <time>2024-11-06T17:15:51Z</time>
      </trkpt>
      <trkpt lat="43.64012" lon="1.40137">
        <ele>127</ele>
        <time>2024-11-06T17:15:52Z</time>
      </trkpt>
      <trkpt lat="43.64013" lon="1.40136">
        <ele>127</ele>
        <time>2024-11-06T17:15:53Z</time>
      </trkpt>
      <trkpt lat="43.64015" lon="1.40134">
        <ele>127</ele>
        <time>2024-11-06T17:15:54Z</time>
      </trkpt>
      <trkpt lat="43.64017" lon="1.40132">
        <ele>127</ele>
        <time>2024-11-06T17:15:55Z</time>
      </trkpt>
      <trkpt lat="43.6402" lon="1.40129">
        <ele>127</ele>
        <time>2024-11-06T17:15:56Z</time>
      </trkpt>
      <trkpt lat="43.64022" lon="1.40127">
        <ele>127</ele>
        <time>2024-11-06T17:15:57Z</time>
      </trkpt>
      <trkpt lat="43.64024" lon="1.40125">
        <ele>127</ele>
        <time>2024-11-06T17:15:58Z</time>
      </trkpt>
      <trkpt lat="43.64026" lon="1.40122">
        <ele>127</ele>
        <time>2024-11-06T17:15:59Z</time>
      </trkpt>
      <trkpt lat="43.64028" lon="1.4012">
        <ele>127</ele>
        <time>2024-11-06T17:16:00Z</time>
      </trkpt>
      <trkpt lat="43.6403" lon="1.40118">
        <ele>127</ele>
        <time>2024-11-06T17:16:01Z</time>
      </trkpt>
      <trkpt lat="43.64033" lon="1.40116">
        <ele>127</ele>
        <time>2024-11-06T17:16:02Z</time>
      </trkpt>
      <trkpt lat="43.64035" lon="1.40114">
        <ele>127</ele>
        <time>2024-11-06T17:16:03Z</time>
      </trkpt>
      <trkpt lat="43.64038" lon="1.40112">
        <ele>127</ele>
        <time>2024-11-06T17:16:04Z</time>
      </trkpt>
      <trkpt lat="43.6404" lon="1.4011">
        <ele>127</ele>
        <time>2024-11-06T17:16:05Z</time>
      </trkpt>
      <trkpt lat="43.64042" lon="1.40108">
        <ele>127</ele>
        <time>2024-11-06T17:16:06Z</time>
      </trkpt>
      <trkpt lat="43.64045" lon="1.40106">
        <ele>127</ele>
        <time>2024-11-06T17:16:07Z</time>
      </trkpt>
      <trkpt lat="43.64048" lon="1.40103">
        <ele>127</ele>
        <time>2024-11-06T17:16:08Z</time>
      </trkpt>
      <trkpt lat="43.6405" lon="1.40102">
        <ele>127</ele>
        <time>2024-11-06T17:16:09Z</time>
      </trkpt>
      <trkpt lat="43.64053" lon="1.40099">
        <ele>127</ele>
        <time>2024-11-06T17:16:10Z</time>
      </trkpt>
      <trkpt lat="43.64054" lon="1.40098">
        <ele>127</ele>
        <time>2024-11-06T17:16:11Z</time>
      </trkpt>
      <trkpt lat="43.64057" lon="1.40096">
        <ele>127</ele>
        <time>2024-11-06T17:16:12Z</time>
      </trkpt>
      <trkpt lat="43.64059" lon="1.40094">
        <ele>127</ele>
        <time>2024-11-06T17:16:13Z</time>
      </trkpt>
      <trkpt lat="43.64061" lon="1.40091">
        <ele>127</ele>
        <time>2024-11-06T17:16:14Z</time>
      </trkpt>
      <trkpt lat="43.64063" lon="1.40088">
        <ele>127</ele>
        <time>2024-11-06T17:16:15Z</time>
      </trkpt>
      <trkpt lat="43.64065" lon="1.40086">
        <ele>127</ele>
        <time>2024-11-06T17:16:16Z</time>
      </trkpt>
      <trkpt lat="43.64067" lon="1.40084">
        <ele>127</ele>
        <time>2024-11-06T17:16:17Z</time>
      </trkpt>
      <trkpt lat="43.6407" lon="1.40081">
        <ele>127</ele>
        <time>2024-11-06T17:16:18Z</time>
      </trkpt>
      <trkpt lat="43.64071" lon="1.40078">
        <ele>127</ele>
        <time>2024-11-06T17:16:19Z</time>
      </trkpt>
      <trkpt lat="43.64074" lon="1.40076">
        <ele>127</ele>
        <time>2024-11-06T17:16:20Z</time>
      </trkpt>
      <trkpt lat="43.64076" lon="1.40073">
        <ele>127</ele>
        <time>2024-11-06T17:16:21Z</time>
      </trkpt>
      <trkpt lat="43.64078" lon="1.40071">
        <ele>127</ele>
        <time>2024-11-06T17:16:22Z</time>
      </trkpt>
      <trkpt lat="43.64079" lon="1.40068">
        <ele>127</ele>
        <time>2024-11-06T17:16:23Z</time>
      </trkpt>
      <trkpt lat="43.64081" lon="1.40066">
        <ele>126</ele>
        <time>2024-11-06T17:16:24Z</time>
      </trkpt>
      <trkpt lat="43.64084" lon="1.40063">
        <ele>126</ele>
        <time>2024-11-06T17:16:25Z</time>
      </trkpt>
      <trkpt lat="43.64086" lon="1.4006">
        <ele>126</ele>
        <time>2024-11-06T17:16:26Z</time>
      </trkpt>
      <trkpt lat="43.64088" lon="1.40058">
        <ele>126</ele>
        <time>2024-11-06T17:16:27Z</time>
      </trkpt>
      <trkpt lat="43.6409" lon="1.40055">
        <ele>127</ele>
        <time>2024-11-06T17:16:28Z</time>
      </trkpt>
      <trkpt lat="43.64091" lon="1.40052">
        <ele>127</ele>
        <time>2024-11-06T17:16:29Z</time>
      </trkpt>
      <trkpt lat="43.64092" lon="1.40048">
        <ele>127</ele>
        <time>2024-11-06T17:16:30Z</time>
      </trkpt>
      <trkpt lat="43.64094" lon="1.40045">
        <ele>127</ele>
        <time>2024-11-06T17:16:31Z</time>
      </trkpt>
      <trkpt lat="43.64095" lon="1.40042">
        <ele>127</ele>
        <time>2024-11-06T17:16:32Z</time>
      </trkpt>
      <trkpt lat="43.64096" lon="1.40038">
        <ele>127</ele>
        <time>2024-11-06T17:16:33Z</time>
      </trkpt>
      <trkpt lat="43.64098" lon="1.40035">
        <ele>127</ele>
        <time>2024-11-06T17:16:34Z</time>
      </trkpt>
      <trkpt lat="43.641" lon="1.40032">
        <ele>127</ele>
        <time>2024-11-06T17:16:35Z</time>
      </trkpt>
      <trkpt lat="43.64102" lon="1.40029">
        <ele>127</ele>
        <time>2024-11-06T17:16:36Z</time>
      </trkpt>
      <trkpt lat="43.64104" lon="1.40026">
        <ele>127</ele>
        <time>2024-11-06T17:16:37Z</time>
      </trkpt>
      <trkpt lat="43.64105" lon="1.40023">
        <ele>127</ele>
        <time>2024-11-06T17:16:38Z</time>
      </trkpt>
      <trkpt lat="43.64107" lon="1.4002">
        <ele>127</ele>
        <time>2024-11-06T17:16:39Z</time>
      </trkpt>
      <trkpt lat="43.64108" lon="1.40017">
        <ele>127</ele>
        <time>2024-11-06T17:16:40Z</time>
      </trkpt>
      <trkpt lat="43.6411" lon="1.40013">
        <ele>127</ele>
        <time>2024-11-06T17:16:41Z</time>
      </trkpt>
      <trkpt lat="43.64111" lon="1.4001">
        <ele>126</ele>
        <time>2024-11-06T17:16:42Z</time>
      </trkpt>
      <trkpt lat="43.64113" lon="1.40006">
        <ele>126</ele>
        <time>2024-11-06T17:16:43Z</time>
      </trkpt>
      <trkpt lat="43.64114" lon="1.40002">
        <ele>126</ele>
        <time>2024-11-06T17:16:44Z</time>
      </trkpt>
      <trkpt lat="43.64115" lon="1.39999">
        <ele>126</ele>
        <time>2024-11-06T17:16:45Z</time>
      </trkpt>
      <trkpt lat="43.64118" lon="1.39993">
        <ele>126</ele>
        <time>2024-11-06T17:16:46Z</time>
      </trkpt>
      <trkpt lat="43.64119" lon="1.39992">
        <ele>126</ele>
        <time>2024-11-06T17:16:47Z</time>
      </trkpt>
      <trkpt lat="43.64121" lon="1.39989">
        <ele>126</ele>
        <time>2024-11-06T17:16:48Z</time>
      </trkpt>
      <trkpt lat="43.64124" lon="1.39987">
        <ele>126</ele>
        <time>2024-11-06T17:16:49Z</time>
      </trkpt>
      <trkpt lat="43.64127" lon="1.39986">
        <ele>126</ele>
        <time>2024-11-06T17:16:50Z</time>
      </trkpt>
      <trkpt lat="43.6413" lon="1.39985">
        <ele>126</ele>
        <time>2024-11-06T17:16:51Z</time>
      </trkpt>
      <trkpt lat="43.64133" lon="1.39984">
        <ele>126</ele>
        <time>2024-11-06T17:16:52Z</time>
      </trkpt>
      <trkpt lat="43.64135" lon="1.39983">
        <ele>126</ele>
        <time>2024-11-06T17:16:53Z</time>
      </trkpt>
      <trkpt lat="43.64139" lon="1.39983">
        <ele>126</ele>
        <time>2024-11-06T17:16:54Z</time>
      </trkpt>
      <trkpt lat="43.64142" lon="1.39982">
        <ele>126</ele>
        <time>2024-11-06T17:16:55Z</time>
      </trkpt>
      <trkpt lat="43.64147" lon="1.39981">
        <ele>126</ele>
        <time>2024-11-06T17:16:56Z</time>
      </trkpt>
      <trkpt lat="43.64149" lon="1.3998">
        <ele>125</ele>
        <time>2024-11-06T17:16:57Z</time>
      </trkpt>
      <trkpt lat="43.64152" lon="1.3998">
        <ele>125</ele>
        <time>2024-11-06T17:16:58Z</time>
      </trkpt>
      <trkpt lat="43.64155" lon="1.39979">
        <ele>125</ele>
        <time>2024-11-06T17:16:59Z</time>
      </trkpt>
      <trkpt lat="43.64158" lon="1.39978">
        <ele>125</ele>
        <time>2024-11-06T17:17:00Z</time>
      </trkpt>
      <trkpt lat="43.64161" lon="1.39978">
        <ele>125</ele>
        <time>2024-11-06T17:17:01Z</time>
      </trkpt>
      <trkpt lat="43.64165" lon="1.39977">
        <ele>125</ele>
        <time>2024-11-06T17:17:02Z</time>
      </trkpt>
      <trkpt lat="43.64167" lon="1.39976">
        <ele>125</ele>
        <time>2024-11-06T17:17:03Z</time>
      </trkpt>
      <trkpt lat="43.64169" lon="1.39975">
        <ele>125</ele>
        <time>2024-11-06T17:17:04Z</time>
      </trkpt>
      <trkpt lat="43.64173" lon="1.39974">
        <ele>125</ele>
        <time>2024-11-06T17:17:05Z</time>
      </trkpt>
      <trkpt lat="43.64175" lon="1.39974">
        <ele>125</ele>
        <time>2024-11-06T17:17:06Z</time>
      </trkpt>
      <trkpt lat="43.64177" lon="1.39972">
        <ele>125</ele>
        <time>2024-11-06T17:17:07Z</time>
      </trkpt>
      <trkpt lat="43.6418" lon="1.39971">
        <ele>125</ele>
        <time>2024-11-06T17:17:08Z</time>
      </trkpt>
      <trkpt lat="43.64182" lon="1.39971">
        <ele>125</ele>
        <time>2024-11-06T17:17:09Z</time>
      </trkpt>
      <trkpt lat="43.64185" lon="1.3997">
        <ele>125</ele>
        <time>2024-11-06T17:17:10Z</time>
      </trkpt>
      <trkpt lat="43.64187" lon="1.39969">
        <ele>125</ele>
        <time>2024-11-06T17:17:11Z</time>
      </trkpt>
      <trkpt lat="43.6419" lon="1.39968">
        <ele>125</ele>
        <time>2024-11-06T17:17:12Z</time>
      </trkpt>
      <trkpt lat="43.64193" lon="1.39967">
        <ele>125</ele>
        <time>2024-11-06T17:17:13Z</time>
      </trkpt>
      <trkpt lat="43.64196" lon="1.39966">
        <ele>125</ele>
        <time>2024-11-06T17:17:14Z</time>
      </trkpt>
      <trkpt lat="43.64198" lon="1.39964">
        <ele>125</ele>
        <time>2024-11-06T17:17:15Z</time>
      </trkpt>
      <trkpt lat="43.64201" lon="1.39962">
        <ele>125</ele>
        <time>2024-11-06T17:17:16Z</time>
      </trkpt>
      <trkpt lat="43.64203" lon="1.3996">
        <ele>125</ele>
        <time>2024-11-06T17:17:17Z</time>
      </trkpt>
      <trkpt lat="43.64205" lon="1.39958">
        <ele>125</ele>
        <time>2024-11-06T17:17:18Z</time>
      </trkpt>
      <trkpt lat="43.64207" lon="1.39955">
        <ele>125</ele>
        <time>2024-11-06T17:17:19Z</time>
      </trkpt>
      <trkpt lat="43.64211" lon="1.39951">
        <ele>125</ele>
        <time>2024-11-06T17:17:20Z</time>
      </trkpt>
      <trkpt lat="43.64212" lon="1.3995">
        <ele>125</ele>
        <time>2024-11-06T17:17:21Z</time>
      </trkpt>
      <trkpt lat="43.64214" lon="1.39947">
        <ele>125</ele>
        <time>2024-11-06T17:17:22Z</time>
      </trkpt>
      <trkpt lat="43.64216" lon="1.39945">
        <ele>125</ele>
        <time>2024-11-06T17:17:23Z</time>
      </trkpt>
      <trkpt lat="43.64219" lon="1.39942">
        <ele>125</ele>
        <time>2024-11-06T17:17:24Z</time>
      </trkpt>
      <trkpt lat="43.6422" lon="1.3994">
        <ele>125</ele>
        <time>2024-11-06T17:17:25Z</time>
      </trkpt>
      <trkpt lat="43.64223" lon="1.39938">
        <ele>125</ele>
        <time>2024-11-06T17:17:26Z</time>
      </trkpt>
      <trkpt lat="43.64225" lon="1.39937">
        <ele>125</ele>
        <time>2024-11-06T17:17:27Z</time>
      </trkpt>
      <trkpt lat="43.64228" lon="1.39935">
        <ele>125</ele>
        <time>2024-11-06T17:17:28Z</time>
      </trkpt>
      <trkpt lat="43.6423" lon="1.39934">
        <ele>125</ele>
        <time>2024-11-06T17:17:29Z</time>
      </trkpt>
      <trkpt lat="43.64232" lon="1.39932">
        <ele>125</ele>
        <time>2024-11-06T17:17:30Z</time>
      </trkpt>
      <trkpt lat="43.64235" lon="1.39931">
        <ele>125</ele>
        <time>2024-11-06T17:17:31Z</time>
      </trkpt>
      <trkpt lat="43.64237" lon="1.39929">
        <ele>125</ele>
        <time>2024-11-06T17:17:32Z</time>
      </trkpt>
      <trkpt lat="43.6424" lon="1.39928">
        <ele>125</ele>
        <time>2024-11-06T17:17:33Z</time>
      </trkpt>
      <trkpt lat="43.64242" lon="1.39926">
        <ele>125</ele>
        <time>2024-11-06T17:17:34Z</time>
      </trkpt>
      <trkpt lat="43.64245" lon="1.39925">
        <ele>125</ele>
        <time>2024-11-06T17:17:35Z</time>
      </trkpt>
      <trkpt lat="43.64248" lon="1.39924">
        <ele>125</ele>
        <time>2024-11-06T17:17:36Z</time>
      </trkpt>
      <trkpt lat="43.64251" lon="1.39923">
        <ele>125</ele>
        <time>2024-11-06T17:17:37Z</time>
      </trkpt>
      <trkpt lat="43.64255" lon="1.39922">
        <ele>125</ele>
        <time>2024-11-06T17:17:38Z</time>
      </trkpt>
      <trkpt lat="43.64257" lon="1.39922">
        <ele>125</ele>
        <time>2024-11-06T17:17:39Z</time>
      </trkpt>
      <trkpt lat="43.64259" lon="1.39921">
        <ele>125</ele>
        <time>2024-11-06T17:17:40Z</time>
      </trkpt>
      <trkpt lat="43.64262" lon="1.39921">
        <ele>125</ele>
        <time>2024-11-06T17:17:41Z</time>
      </trkpt>
      <trkpt lat="43.64265" lon="1.39921">
        <ele>125</ele>
        <time>2024-11-06T17:17:42Z</time>
      </trkpt>
      <trkpt lat="43.64269" lon="1.39921">
        <ele>125</ele>
        <time>2024-11-06T17:17:43Z</time>
      </trkpt>
      <trkpt lat="43.64271" lon="1.39922">
        <ele>125</ele>
        <time>2024-11-06T17:17:44Z</time>
      </trkpt>
      <trkpt lat="43.64273" lon="1.39921">
        <ele>125</ele>
        <time>2024-11-06T17:17:45Z</time>
      </trkpt>
      <trkpt lat="43.64276" lon="1.39921">
        <ele>125</ele>
        <time>2024-11-06T17:17:46Z</time>
      </trkpt>
      <trkpt lat="43.64279" lon="1.39921">
        <ele>125</ele>
        <time>2024-11-06T17:17:47Z</time>
      </trkpt>
      <trkpt lat="43.64282" lon="1.39922">
        <ele>125</ele>
        <time>2024-11-06T17:17:48Z</time>
      </trkpt>
      <trkpt lat="43.64285" lon="1.39923">
        <ele>125</ele>
        <time>2024-11-06T17:17:49Z</time>
      </trkpt>
      <trkpt lat="43.64288" lon="1.39924">
        <ele>125</ele>
        <time>2024-11-06T17:17:50Z</time>
      </trkpt>
      <trkpt lat="43.64291" lon="1.39925">
        <ele>125</ele>
        <time>2024-11-06T17:17:51Z</time>
      </trkpt>
      <trkpt lat="43.64294" lon="1.39926">
        <ele>125</ele>
        <time>2024-11-06T17:17:52Z</time>
      </trkpt>
      <trkpt lat="43.64296" lon="1.39927">
        <ele>125</ele>
        <time>2024-11-06T17:17:53Z</time>
      </trkpt>
      <trkpt lat="43.64299" lon="1.39928">
        <ele>125</ele>
        <time>2024-11-06T17:17:54Z</time>
      </trkpt>
      <trkpt lat="43.64303" lon="1.3993">
        <ele>125</ele>
        <time>2024-11-06T17:17:55Z</time>
      </trkpt>
      <trkpt lat="43.64304" lon="1.39931">
        <ele>125</ele>
        <time>2024-11-06T17:17:56Z</time>
      </trkpt>
      <trkpt lat="43.64307" lon="1.39932">
        <ele>125</ele>
        <time>2024-11-06T17:17:57Z</time>
      </trkpt>
      <trkpt lat="43.6431" lon="1.39933">
        <ele>125</ele>
        <time>2024-11-06T17:17:58Z</time>
      </trkpt>
      <trkpt lat="43.64312" lon="1.39934">
        <ele>125</ele>
        <time>2024-11-06T17:17:59Z</time>
      </trkpt>
      <trkpt lat="43.64315" lon="1.39935">
        <ele>125</ele>
        <time>2024-11-06T17:18:00Z</time>
      </trkpt>
      <trkpt lat="43.64318" lon="1.39935">
        <ele>125</ele>
        <time>2024-11-06T17:18:01Z</time>
      </trkpt>
      <trkpt lat="43.64323" lon="1.39937">
        <ele>125</ele>
        <time>2024-11-06T17:18:02Z</time>
      </trkpt>
      <trkpt lat="43.64325" lon="1.39938">
        <ele>125</ele>
        <time>2024-11-06T17:18:03Z</time>
      </trkpt>
      <trkpt lat="43.64328" lon="1.39939">
        <ele>125</ele>
        <time>2024-11-06T17:18:04Z</time>
      </trkpt>
      <trkpt lat="43.64331" lon="1.3994">
        <ele>125</ele>
        <time>2024-11-06T17:18:05Z</time>
      </trkpt>
      <trkpt lat="43.64333" lon="1.39941">
        <ele>125</ele>
        <time>2024-11-06T17:18:06Z</time>
      </trkpt>
      <trkpt lat="43.64336" lon="1.39942">
        <ele>125</ele>
        <time>2024-11-06T17:18:07Z</time>
      </trkpt>
      <trkpt lat="43.64339" lon="1.39942">
        <ele>125</ele>
        <time>2024-11-06T17:18:08Z</time>
      </trkpt>
      <trkpt lat="43.64342" lon="1.39943">
        <ele>125</ele>
        <time>2024-11-06T17:18:09Z</time>
      </trkpt>
      <trkpt lat="43.64344" lon="1.39944">
        <ele>125</ele>
        <time>2024-11-06T17:18:10Z</time>
      </trkpt>
      <trkpt lat="43.64347" lon="1.39945">
        <ele>125</ele>
        <time>2024-11-06T17:18:11Z</time>
      </trkpt>
      <trkpt lat="43.64349" lon="1.39946">
        <ele>125</ele>
        <time>2024-11-06T17:18:12Z</time>
      </trkpt>
      <trkpt lat="43.64354" lon="1.39947">
        <ele>125</ele>
        <time>2024-11-06T17:18:13Z</time>
      </trkpt>
      <trkpt lat="43.64355" lon="1.39948">
        <ele>125</ele>
        <time>2024-11-06T17:18:14Z</time>
      </trkpt>
      <trkpt lat="43.64358" lon="1.39949">
        <ele>125</ele>
        <time>2024-11-06T17:18:15Z</time>
      </trkpt>
      <trkpt lat="43.6436" lon="1.3995">
        <ele>125</ele>
        <time>2024-11-06T17:18:16Z</time>
      </trkpt>
      <trkpt lat="43.64363" lon="1.39951">
        <ele>125</ele>
        <time>2024-11-06T17:18:17Z</time>
      </trkpt>
      <trkpt lat="43.64365" lon="1.39951">
        <ele>125</ele>
        <time>2024-11-06T17:18:18Z</time>
      </trkpt>
      <trkpt lat="43.64369" lon="1.39951">
        <ele>125</ele>
        <time>2024-11-06T17:18:19Z</time>
      </trkpt>
      <trkpt lat="43.64371" lon="1.39951">
        <ele>125</ele>
        <time>2024-11-06T17:18:20Z</time>
      </trkpt>
      <trkpt lat="43.64376" lon="1.39952">
        <ele>125</ele>
        <time>2024-11-06T17:18:21Z</time>
      </trkpt>
      <trkpt lat="43.64378" lon="1.39952">
        <ele>125</ele>
        <time>2024-11-06T17:18:22Z</time>
      </trkpt>
      <trkpt lat="43.64381" lon="1.39953">
        <ele>125</ele>
        <time>2024-11-06T17:18:23Z</time>
      </trkpt>
      <trkpt lat="43.64384" lon="1.39953">
        <ele>125</ele>
        <time>2024-11-06T17:18:24Z</time>
      </trkpt>
      <trkpt lat="43.64387" lon="1.39954">
        <ele>125</ele>
        <time>2024-11-06T17:18:25Z</time>
      </trkpt>
      <trkpt lat="43.64389" lon="1.39954">
        <ele>125</ele>
        <time>2024-11-06T17:18:26Z</time>
      </trkpt>
      <trkpt lat="43.64392" lon="1.39954">
        <ele>125</ele>
        <time>2024-11-06T17:18:27Z</time>
      </trkpt>
      <trkpt lat="43.64395" lon="1.39954">
        <ele>125</ele>
        <time>2024-11-06T17:18:28Z</time>
      </trkpt>
      <trkpt lat="43.64398" lon="1.39954">
        <ele>125</ele>
        <time>2024-11-06T17:18:29Z</time>
      </trkpt>
      <trkpt lat="43.64403" lon="1.39954">
        <ele>125</ele>
        <time>2024-11-06T17:18:30Z</time>
      </trkpt>
      <trkpt lat="43.64404" lon="1.39955">
        <ele>125</ele>
        <time>2024-11-06T17:18:31Z</time>
      </trkpt>
      <trkpt lat="43.64407" lon="1.39955">
        <ele>125</ele>
        <time>2024-11-06T17:18:32Z</time>
      </trkpt>
      <trkpt lat="43.6441" lon="1.39955">
        <ele>125</ele>
        <time>2024-11-06T17:18:33Z</time>
      </trkpt>
      <trkpt lat="43.64413" lon="1.39955">
        <ele>125</ele>
        <time>2024-11-06T17:18:34Z</time>
      </trkpt>
      <trkpt lat="43.64416" lon="1.39955">
        <ele>125</ele>
        <time>2024-11-06T17:18:35Z</time>
      </trkpt>
      <trkpt lat="43.64419" lon="1.39955">
        <ele>125</ele>
        <time>2024-11-06T17:18:36Z</time>
      </trkpt>
      <trkpt lat="43.64422" lon="1.39954">
        <ele>125</ele>
        <time>2024-11-06T17:18:37Z</time>
      </trkpt>
      <trkpt lat="43.64425" lon="1.39954">
        <ele>125</ele>
        <time>2024-11-06T17:18:38Z</time>
      </trkpt>
      <trkpt lat="43.64428" lon="1.39954">
        <ele>125</ele>
        <time>2024-11-06T17:18:39Z</time>
      </trkpt>
      <trkpt lat="43.64433" lon="1.39955">
        <ele>125</ele>
        <time>2024-11-06T17:18:40Z</time>
      </trkpt>
      <trkpt lat="43.64434" lon="1.39955">
        <ele>125</ele>
        <time>2024-11-06T17:18:41Z</time>
      </trkpt>
      <trkpt lat="43.64437" lon="1.39955">
        <ele>125</ele>
        <time>2024-11-06T17:18:42Z</time>
      </trkpt>
      <trkpt lat="43.6444" lon="1.39956">
        <ele>125</ele>
        <time>2024-11-06T17:18:43Z</time>
      </trkpt>
      <trkpt lat="43.64444" lon="1.39956">
        <ele>125</ele>
        <time>2024-11-06T17:18:44Z</time>
      </trkpt>
      <trkpt lat="43.64446" lon="1.39956">
        <ele>125</ele>
        <time>2024-11-06T17:18:45Z</time>
      </trkpt>
      <trkpt lat="43.64449" lon="1.39956">
        <ele>125</ele>
        <time>2024-11-06T17:18:46Z</time>
      </trkpt>
      <trkpt lat="43.64453" lon="1.39956">
        <ele>125</ele>
        <time>2024-11-06T17:18:47Z</time>
      </trkpt>
      <trkpt lat="43.64454" lon="1.39955">
        <ele>125</ele>
        <time>2024-11-06T17:18:48Z</time>
      </trkpt>
      <trkpt lat="43.64457" lon="1.39955">
        <ele>125</ele>
        <time>2024-11-06T17:18:49Z</time>
      </trkpt>
      <trkpt lat="43.6446" lon="1.39955">
        <ele>125</ele>
        <time>2024-11-06T17:18:50Z</time>
      </trkpt>
      <trkpt lat="43.64463" lon="1.39956">
        <ele>125</ele>
        <time>2024-11-06T17:18:51Z</time>
      </trkpt>
      <trkpt lat="43.64465" lon="1.39956">
        <ele>125</ele>
        <time>2024-11-06T17:18:52Z</time>
      </trkpt>
      <trkpt lat="43.64468" lon="1.39956">
        <ele>125</ele>
        <time>2024-11-06T17:18:53Z</time>
      </trkpt>
      <trkpt lat="43.64471" lon="1.39956">
        <ele>125</ele>
        <time>2024-11-06T17:18:54Z</time>
      </trkpt>
      <trkpt lat="43.64473" lon="1.39956">
        <ele>125</ele>
        <time>2024-11-06T17:18:55Z</time>
      </trkpt>
      <trkpt lat="43.64476" lon="1.39955">
        <ele>125</ele>
        <time>2024-11-06T17:18:56Z</time>
      </trkpt>
      <trkpt lat="43.64478" lon="1.39954">
        <ele>125</ele>
        <time>2024-11-06T17:18:57Z</time>
      </trkpt>
      <trkpt lat="43.64481" lon="1.39953">
        <ele>125</ele>
        <time>2024-11-06T17:18:58Z</time>
      </trkpt>
      <trkpt lat="43.64485" lon="1.39952">
        <ele>125</ele>
        <time>2024-11-06T17:18:59Z</time>
      </trkpt>
      <trkpt lat="43.64486" lon="1.39952">
        <ele>125</ele>
        <time>2024-11-06T17:19:00Z</time>
      </trkpt>
      <trkpt lat="43.64489" lon="1.39951">
        <ele>125</ele>
        <time>2024-11-06T17:19:01Z</time>
      </trkpt>
      <trkpt lat="43.64491" lon="1.39951">
        <ele>125</ele>
        <time>2024-11-06T17:19:02Z</time>
      </trkpt>
      <trkpt lat="43.64494" lon="1.3995">
        <ele>125</ele>
        <time>2024-11-06T17:19:03Z</time>
      </trkpt>
      <trkpt lat="43.64497" lon="1.39949">
        <ele>125</ele>
        <time>2024-11-06T17:19:04Z</time>
      </trkpt>
      <trkpt lat="43.64501" lon="1.39947">
        <ele>125</ele>
        <time>2024-11-06T17:19:05Z</time>
      </trkpt>
      <trkpt lat="43.64502" lon="1.39946">
        <ele>125</ele>
        <time>2024-11-06T17:19:06Z</time>
      </trkpt>
      <trkpt lat="43.64504" lon="1.39945">
        <ele>125</ele>
        <time>2024-11-06T17:19:07Z</time>
      </trkpt>
      <trkpt lat="43.64506" lon="1.39942">
        <ele>125</ele>
        <time>2024-11-06T17:19:08Z</time>
      </trkpt>
      <trkpt lat="43.64508" lon="1.39939">
        <ele>125</ele>
        <time>2024-11-06T17:19:09Z</time>
      </trkpt>
      <trkpt lat="43.64508" lon="1.39935">
        <ele>125</ele>
        <time>2024-11-06T17:19:10Z</time>
      </trkpt>
      <trkpt lat="43.64508" lon="1.39931">
        <ele>125</ele>
        <time>2024-11-06T17:19:11Z</time>
      </trkpt>
      <trkpt lat="43.64507" lon="1.39928">
        <ele>125</ele>
        <time>2024-11-06T17:19:12Z</time>
      </trkpt>
      <trkpt lat="43.64505" lon="1.39925">
        <ele>125</ele>
        <time>2024-11-06T17:19:13Z</time>
      </trkpt>
      <trkpt lat="43.64503" lon="1.39923">
        <ele>125</ele>
        <time>2024-11-06T17:19:14Z</time>
      </trkpt>
      <trkpt lat="43.64501" lon="1.39921">
        <ele>125</ele>
        <time>2024-11-06T17:19:15Z</time>
      </trkpt>
      <trkpt lat="43.64499" lon="1.39918">
        <ele>125</ele>
        <time>2024-11-06T17:19:16Z</time>
      </trkpt>
      <trkpt lat="43.64498" lon="1.39914">
        <ele>125</ele>
        <time>2024-11-06T17:19:17Z</time>
      </trkpt>
      <trkpt lat="43.64498" lon="1.39908">
        <ele>125</ele>
        <time>2024-11-06T17:19:18Z</time>
      </trkpt>
      <trkpt lat="43.64498" lon="1.39906">
        <ele>125</ele>
        <time>2024-11-06T17:19:19Z</time>
      </trkpt>
      <trkpt lat="43.64498" lon="1.39903">
        <ele>125</ele>
        <time>2024-11-06T17:19:20Z</time>
      </trkpt>
      <trkpt lat="43.64498" lon="1.39899">
        <ele>125</ele>
        <time>2024-11-06T17:19:21Z</time>
      </trkpt>
      <trkpt lat="43.64498" lon="1.39895">
        <ele>126</ele>
        <time>2024-11-06T17:19:22Z</time>
      </trkpt>
      <trkpt lat="43.64498" lon="1.39889">
        <ele>126</ele>
        <time>2024-11-06T17:19:23Z</time>
      </trkpt>
      <trkpt lat="43.64498" lon="1.39887">
        <ele>126</ele>
        <time>2024-11-06T17:19:24Z</time>
      </trkpt>
      <trkpt lat="43.64499" lon="1.39884">
        <ele>126</ele>
        <time>2024-11-06T17:19:25Z</time>
      </trkpt>
      <trkpt lat="43.64499" lon="1.3988">
        <ele>126</ele>
        <time>2024-11-06T17:19:26Z</time>
      </trkpt>
      <trkpt lat="43.64498" lon="1.39876">
        <ele>126</ele>
        <time>2024-11-06T17:19:27Z</time>
      </trkpt>
      <trkpt lat="43.64498" lon="1.39873">
        <ele>126</ele>
        <time>2024-11-06T17:19:28Z</time>
      </trkpt>
      <trkpt lat="43.64499" lon="1.39869">
        <ele>126</ele>
        <time>2024-11-06T17:19:29Z</time>
      </trkpt>
      <trkpt lat="43.64499" lon="1.39865">
        <ele>126</ele>
        <time>2024-11-06T17:19:30Z</time>
      </trkpt>
      <trkpt lat="43.64499" lon="1.3986">
        <ele>126</ele>
        <time>2024-11-06T17:19:31Z</time>
      </trkpt>
      <trkpt lat="43.64499" lon="1.39857">
        <ele>126</ele>
        <time>2024-11-06T17:19:32Z</time>
      </trkpt>
      <trkpt lat="43.64499" lon="1.39853">
        <ele>126</ele>
        <time>2024-11-06T17:19:33Z</time>
      </trkpt>
      <trkpt lat="43.64499" lon="1.39849">
        <ele>126</ele>
        <time>2024-11-06T17:19:34Z</time>
      </trkpt>
      <trkpt lat="43.64499" lon="1.39845">
        <ele>126</ele>
        <time>2024-11-06T17:19:35Z</time>
      </trkpt>
      <trkpt lat="43.64499" lon="1.39842">
        <ele>126</ele>
        <time>2024-11-06T17:19:36Z</time>
      </trkpt>
      <trkpt lat="43.64499" lon="1.39836">
        <ele>126</ele>
        <time>2024-11-06T17:19:37Z</time>
      </trkpt>
      <trkpt lat="43.64499" lon="1.39834">
        <ele>126</ele>
        <time>2024-11-06T17:19:38Z</time>
      </trkpt>
      <trkpt lat="43.64499" lon="1.3983">
        <ele>126</ele>
        <time>2024-11-06T17:19:39Z</time>
      </trkpt>
      <trkpt lat="43.64499" lon="1.39826">
        <ele>126</ele>
        <time>2024-11-06T17:19:40Z</time>
      </trkpt>
      <trkpt lat="43.645" lon="1.3982">
        <ele>126</ele>
        <time>2024-11-06T17:19:41Z</time>
      </trkpt>
      <trkpt lat="43.645" lon="1.39818">
        <ele>126</ele>
        <time>2024-11-06T17:19:42Z</time>
      </trkpt>
      <trkpt lat="43.645" lon="1.39815">
        <ele>126</ele>
        <time>2024-11-06T17:19:43Z</time>
      </trkpt>
      <trkpt lat="43.645" lon="1.39811">
        <ele>126</ele>
        <time>2024-11-06T17:19:44Z</time>
      </trkpt>
      <trkpt lat="43.645" lon="1.39807">
        <ele>126</ele>
        <time>2024-11-06T17:19:45Z</time>
      </trkpt>
      <trkpt lat="43.645" lon="1.39803">
        <ele>126</ele>
        <time>2024-11-06T17:19:46Z</time>
      </trkpt>
      <trkpt lat="43.645" lon="1.39799">
        <ele>126</ele>
        <time>2024-11-06T17:19:47Z</time>
      </trkpt>
      <trkpt lat="43.645" lon="1.39796">
        <ele>126</ele>
        <time>2024-11-06T17:19:48Z</time>
      </trkpt>
      <trkpt lat="43.645" lon="1.39792">
        <ele>126</ele>
        <time>2024-11-06T17:19:49Z</time>
      </trkpt>
      <trkpt lat="43.645" lon="1.39788">
        <ele>126</ele>
        <time>2024-11-06T17:19:50Z</time>
      </trkpt>
      <trkpt lat="43.645" lon="1.39784">
        <ele>126</ele>
        <time>2024-11-06T17:19:51Z</time>
      </trkpt>
      <trkpt lat="43.645" lon="1.3978">
        <ele>126</ele>
        <time>2024-11-06T17:19:52Z</time>
      </trkpt>
      <trkpt lat="43.645" lon="1.39777">
        <ele>126</ele>
        <time>2024-11-06T17:19:53Z</time>
      </trkpt>
      <trkpt lat="43.645" lon="1.39773">
        <ele>126</ele>
        <time>2024-11-06T17:19:54Z</time>
      </trkpt>
      <trkpt lat="43.645" lon="1.39769">
        <ele>126</ele>
        <time>2024-11-06T17:19:55Z</time>
      </trkpt>
      <trkpt lat="43.645" lon="1.39763">
        <ele>126</ele>
        <time>2024-11-06T17:19:56Z</time>
      </trkpt>
      <trkpt lat="43.645" lon="1.39761">
        <ele>126</ele>
        <time>2024-11-06T17:19:57Z</time>
      </trkpt>
      <trkpt lat="43.645" lon="1.39757">
        <ele>126</ele>
        <time>2024-11-06T17:19:58Z</time>
      </trkpt>
      <trkpt lat="43.645" lon="1.39754">
        <ele>126</ele>
        <time>2024-11-06T17:19:59Z</time>
      </trkpt>
      <trkpt lat="43.64501" lon="1.39748">
        <ele>126</ele>
        <time>2024-11-06T17:20:00Z</time>
      </trkpt>
      <trkpt lat="43.64501" lon="1.39746">
        <ele>126</ele>
        <time>2024-11-06T17:20:01Z</time>
      </trkpt>
      <trkpt lat="43.64501" lon="1.39742">
        <ele>126</ele>
        <time>2024-11-06T17:20:02Z</time>
      </trkpt>
      <trkpt lat="43.64501" lon="1.39738">
        <ele>126</ele>
        <time>2024-11-06T17:20:03Z</time>
      </trkpt>
      <trkpt lat="43.64501" lon="1.39735">
        <ele>126</ele>
        <time>2024-11-06T17:20:04Z</time>
      </trkpt>
      <trkpt lat="43.64501" lon="1.39731">
        <ele>126</ele>
        <time>2024-11-06T17:20:05Z</time>
      </trkpt>
      <trkpt lat="43.64501" lon="1.39727">
        <ele>126</ele>
        <time>2024-11-06T17:20:06Z</time>
      </trkpt>
      <trkpt lat="43.64501" lon="1.39723">
        <ele>126</ele>
        <time>2024-11-06T17:20:07Z</time>
      </trkpt>
      <trkpt lat="43.64501" lon="1.39719">
        <ele>126</ele>
        <time>2024-11-06T17:20:08Z</time>
      </trkpt>
      <trkpt lat="43.64501" lon="1.39715">
        <ele>126</ele>
        <time>2024-11-06T17:20:09Z</time>
      </trkpt>
      <trkpt lat="43.64501" lon="1.39711">
        <ele>126</ele>
        <time>2024-11-06T17:20:10Z</time>
      </trkpt>
      <trkpt lat="43.64501" lon="1.39708">
        <ele>126</ele>
        <time>2024-11-06T17:20:11Z</time>
      </trkpt>
      <trkpt lat="43.64501" lon="1.39704">
        <ele>126</ele>
        <time>2024-11-06T17:20:12Z</time>
      </trkpt>
      <trkpt lat="43.64501" lon="1.397">
        <ele>126</ele>
        <time>2024-11-06T17:20:13Z</time>
      </trkpt>
      <trkpt lat="43.64501" lon="1.39696">
        <ele>126</ele>
        <time>2024-11-06T17:20:14Z</time>
      </trkpt>
      <trkpt lat="43.64501" lon="1.3969">
        <ele>126</ele>
        <time>2024-11-06T17:20:15Z</time>
      </trkpt>
      <trkpt lat="43.64501" lon="1.39688">
        <ele>126</ele>
        <time>2024-11-06T17:20:16Z</time>
      </trkpt>
      <trkpt lat="43.64501" lon="1.39683">
        <ele>126</ele>
        <time>2024-11-06T17:20:17Z</time>
      </trkpt>
      <trkpt lat="43.64501" lon="1.39681">
        <ele>126</ele>
        <time>2024-11-06T17:20:18Z</time>
      </trkpt>
      <trkpt lat="43.64502" lon="1.39677">
        <ele>126</ele>
        <time>2024-11-06T17:20:19Z</time>
      </trkpt>
      <trkpt lat="43.64502" lon="1.39673">
        <ele>126</ele>
        <time>2024-11-06T17:20:20Z</time>
      </trkpt>
      <trkpt lat="43.64502" lon="1.39669">
        <ele>126</ele>
        <time>2024-11-06T17:20:21Z</time>
      </trkpt>
      <trkpt lat="43.64502" lon="1.39665">
        <ele>126</ele>
        <time>2024-11-06T17:20:22Z</time>
      </trkpt>
      <trkpt lat="43.64502" lon="1.39661">
        <ele>126</ele>
        <time>2024-11-06T17:20:23Z</time>
      </trkpt>
      <trkpt lat="43.64502" lon="1.39657">
        <ele>126</ele>
        <time>2024-11-06T17:20:24Z</time>
      </trkpt>
      <trkpt lat="43.64502" lon="1.39653">
        <ele>126</ele>
        <time>2024-11-06T17:20:25Z</time>
      </trkpt>
      <trkpt lat="43.64502" lon="1.3965">
        <ele>126</ele>
        <time>2024-11-06T17:20:26Z</time>
      </trkpt>
      <trkpt lat="43.64502" lon="1.39646">
        <ele>126</ele>
        <time>2024-11-06T17:20:27Z</time>
      </trkpt>
      <trkpt lat="43.64502" lon="1.39642">
        <ele>126</ele>
        <time>2024-11-06T17:20:28Z</time>
      </trkpt>
      <trkpt lat="43.64502" lon="1.39639">
        <ele>126</ele>
        <time>2024-11-06T17:20:29Z</time>
      </trkpt>
      <trkpt lat="43.64502" lon="1.39635">
        <ele>126</ele>
        <time>2024-11-06T17:20:30Z</time>
      </trkpt>
      <trkpt lat="43.64502" lon="1.39631">
        <ele>126</ele>
        <time>2024-11-06T17:20:31Z</time>
      </trkpt>
      <trkpt lat="43.64501" lon="1.39628">
        <ele>126</ele>
        <time>2024-11-06T17:20:32Z</time>
      </trkpt>
      <trkpt lat="43.64501" lon="1.39624">
        <ele>126</ele>
        <time>2024-11-06T17:20:33Z</time>
      </trkpt>
      <trkpt lat="43.64501" lon="1.39618">
        <ele>126</ele>
        <time>2024-11-06T17:20:34Z</time>
      </trkpt>
      <trkpt lat="43.64501" lon="1.39616">
        <ele>126</ele>
        <time>2024-11-06T17:20:35Z</time>
      </trkpt>
      <trkpt lat="43.64501" lon="1.39611">
        <ele>126</ele>
        <time>2024-11-06T17:20:36Z</time>
      </trkpt>
      <trkpt lat="43.64501" lon="1.39609">
        <ele>126</ele>
        <time>2024-11-06T17:20:37Z</time>
      </trkpt>
      <trkpt lat="43.64501" lon="1.39605">
        <ele>126</ele>
        <time>2024-11-06T17:20:38Z</time>
      </trkpt>
      <trkpt lat="43.64501" lon="1.39601">
        <ele>126</ele>
        <time>2024-11-06T17:20:39Z</time>
      </trkpt>
      <trkpt lat="43.64501" lon="1.39597">
        <ele>126</ele>
        <time>2024-11-06T17:20:40Z</time>
      </trkpt>
      <trkpt lat="43.64501" lon="1.39593">
        <ele>126</ele>
        <time>2024-11-06T17:20:41Z</time>
      </trkpt>
      <trkpt lat="43.64501" lon="1.39589">
        <ele>126</ele>
        <time>2024-11-06T17:20:42Z</time>
      </trkpt>
      <trkpt lat="43.645" lon="1.39585">
        <ele>126</ele>
        <time>2024-11-06T17:20:43Z</time>
      </trkpt>
      <trkpt lat="43.645" lon="1.39581">
        <ele>126</ele>
        <time>2024-11-06T17:20:44Z</time>
      </trkpt>
      <trkpt lat="43.645" lon="1.39578">
        <ele>126</ele>
        <time>2024-11-06T17:20:45Z</time>
      </trkpt>
      <trkpt lat="43.64499" lon="1.39574">
        <ele>126</ele>
        <time>2024-11-06T17:20:46Z</time>
      </trkpt>
      <trkpt lat="43.64499" lon="1.3957">
        <ele>126</ele>
        <time>2024-11-06T17:20:47Z</time>
      </trkpt>
      <trkpt lat="43.64498" lon="1.39567">
        <ele>126</ele>
        <time>2024-11-06T17:20:48Z</time>
      </trkpt>
      <trkpt lat="43.64498" lon="1.39563">
        <ele>126</ele>
        <time>2024-11-06T17:20:49Z</time>
      </trkpt>
      <trkpt lat="43.64498" lon="1.39559">
        <ele>126</ele>
        <time>2024-11-06T17:20:50Z</time>
      </trkpt>
      <trkpt lat="43.64497" lon="1.39556">
        <ele>126</ele>
        <time>2024-11-06T17:20:51Z</time>
      </trkpt>
      <trkpt lat="43.64497" lon="1.39552">
        <ele>126</ele>
        <time>2024-11-06T17:20:52Z</time>
      </trkpt>
      <trkpt lat="43.64496" lon="1.39548">
        <ele>126</ele>
        <time>2024-11-06T17:20:53Z</time>
      </trkpt>
      <trkpt lat="43.64496" lon="1.39544">
        <ele>126</ele>
        <time>2024-11-06T17:20:54Z</time>
      </trkpt>
      <trkpt lat="43.64496" lon="1.3954">
        <ele>126</ele>
        <time>2024-11-06T17:20:55Z</time>
      </trkpt>
      <trkpt lat="43.64495" lon="1.39536">
        <ele>126</ele>
        <time>2024-11-06T17:20:56Z</time>
      </trkpt>
      <trkpt lat="43.64495" lon="1.39532">
        <ele>126</ele>
        <time>2024-11-06T17:20:57Z</time>
      </trkpt>
      <trkpt lat="43.64494" lon="1.39528">
        <ele>126</ele>
        <time>2024-11-06T17:20:58Z</time>
      </trkpt>
      <trkpt lat="43.64494" lon="1.39524">
        <ele>126</ele>
        <time>2024-11-06T17:20:59Z</time>
      </trkpt>
      <trkpt lat="43.64493" lon="1.3952">
        <ele>126</ele>
        <time>2024-11-06T17:21:00Z</time>
      </trkpt>
      <trkpt lat="43.64493" lon="1.39516">
        <ele>126</ele>
        <time>2024-11-06T17:21:01Z</time>
      </trkpt>
      <trkpt lat="43.64492" lon="1.39512">
        <ele>126</ele>
        <time>2024-11-06T17:21:02Z</time>
      </trkpt>
      <trkpt lat="43.64492" lon="1.39508">
        <ele>126</ele>
        <time>2024-11-06T17:21:03Z</time>
      </trkpt>
      <trkpt lat="43.64491" lon="1.39505">
        <ele>126</ele>
        <time>2024-11-06T17:21:04Z</time>
      </trkpt>
      <trkpt lat="43.64491" lon="1.39501">
        <ele>126</ele>
        <time>2024-11-06T17:21:05Z</time>
      </trkpt>
      <trkpt lat="43.6449" lon="1.39498">
        <ele>126</ele>
        <time>2024-11-06T17:21:06Z</time>
      </trkpt>
      <trkpt lat="43.6449" lon="1.39494">
        <ele>126</ele>
        <time>2024-11-06T17:21:07Z</time>
      </trkpt>
      <trkpt lat="43.64489" lon="1.3949">
        <ele>126</ele>
        <time>2024-11-06T17:21:08Z</time>
      </trkpt>
      <trkpt lat="43.64488" lon="1.39487">
        <ele>126</ele>
        <time>2024-11-06T17:21:09Z</time>
      </trkpt>
      <trkpt lat="43.64488" lon="1.39483">
        <ele>126</ele>
        <time>2024-11-06T17:21:10Z</time>
      </trkpt>
      <trkpt lat="43.64487" lon="1.39479">
        <ele>126</ele>
        <time>2024-11-06T17:21:11Z</time>
      </trkpt>
      <trkpt lat="43.64487" lon="1.39475">
        <ele>126</ele>
        <time>2024-11-06T17:21:12Z</time>
      </trkpt>
      <trkpt lat="43.64486" lon="1.39472">
        <ele>127</ele>
        <time>2024-11-06T17:21:13Z</time>
      </trkpt>
      <trkpt lat="43.64486" lon="1.39468">
        <ele>127</ele>
        <time>2024-11-06T17:21:14Z</time>
      </trkpt>
      <trkpt lat="43.64485" lon="1.39464">
        <ele>126</ele>
        <time>2024-11-06T17:21:15Z</time>
      </trkpt>
      <trkpt lat="43.64484" lon="1.3946">
        <ele>126</ele>
        <time>2024-11-06T17:21:16Z</time>
      </trkpt>
      <trkpt lat="43.64484" lon="1.39457">
        <ele>126</ele>
        <time>2024-11-06T17:21:17Z</time>
      </trkpt>
      <trkpt lat="43.64483" lon="1.39453">
        <ele>126</ele>
        <time>2024-11-06T17:21:18Z</time>
      </trkpt>
      <trkpt lat="43.64483" lon="1.39449">
        <ele>126</ele>
        <time>2024-11-06T17:21:19Z</time>
      </trkpt>
      <trkpt lat="43.64482" lon="1.39446">
        <ele>126</ele>
        <time>2024-11-06T17:21:20Z</time>
      </trkpt>
      <trkpt lat="43.64482" lon="1.39442">
        <ele>126</ele>
        <time>2024-11-06T17:21:21Z</time>
      </trkpt>
      <trkpt lat="43.64481" lon="1.39438">
        <ele>126</ele>
        <time>2024-11-06T17:21:22Z</time>
      </trkpt>
      <trkpt lat="43.64481" lon="1.39435">
        <ele>126</ele>
        <time>2024-11-06T17:21:23Z</time>
      </trkpt>
      <trkpt lat="43.6448" lon="1.39431">
        <ele>126</ele>
        <time>2024-11-06T17:21:24Z</time>
      </trkpt>
      <trkpt lat="43.64479" lon="1.39427">
        <ele>126</ele>
        <time>2024-11-06T17:21:25Z</time>
      </trkpt>
      <trkpt lat="43.64478" lon="1.39424">
        <ele>126</ele>
        <time>2024-11-06T17:21:26Z</time>
      </trkpt>
      <trkpt lat="43.64478" lon="1.39421">
        <ele>126</ele>
        <time>2024-11-06T17:21:27Z</time>
      </trkpt>
      <trkpt lat="43.64477" lon="1.39417">
        <ele>127</ele>
        <time>2024-11-06T17:21:28Z</time>
      </trkpt>
      <trkpt lat="43.64476" lon="1.39413">
        <ele>127</ele>
        <time>2024-11-06T17:21:29Z</time>
      </trkpt>
      <trkpt lat="43.64475" lon="1.39409">
        <ele>127</ele>
        <time>2024-11-06T17:21:30Z</time>
      </trkpt>
      <trkpt lat="43.64475" lon="1.39406">
        <ele>127</ele>
        <time>2024-11-06T17:21:31Z</time>
      </trkpt>
      <trkpt lat="43.64474" lon="1.39402">
        <ele>127</ele>
        <time>2024-11-06T17:21:32Z</time>
      </trkpt>
      <trkpt lat="43.64474" lon="1.39399">
        <ele>127</ele>
        <time>2024-11-06T17:21:33Z</time>
      </trkpt>
      <trkpt lat="43.64473" lon="1.39395">
        <ele>127</ele>
        <time>2024-11-06T17:21:34Z</time>
      </trkpt>
      <trkpt lat="43.64472" lon="1.39392">
        <ele>126</ele>
        <time>2024-11-06T17:21:35Z</time>
      </trkpt>
      <trkpt lat="43.64472" lon="1.39388">
        <ele>126</ele>
        <time>2024-11-06T17:21:36Z</time>
      </trkpt>
      <trkpt lat="43.64472" lon="1.39384">
        <ele>127</ele>
        <time>2024-11-06T17:21:37Z</time>
      </trkpt>
      <trkpt lat="43.64471" lon="1.39381">
        <ele>127</ele>
        <time>2024-11-06T17:21:38Z</time>
      </trkpt>
      <trkpt lat="43.64471" lon="1.39377">
        <ele>127</ele>
        <time>2024-11-06T17:21:39Z</time>
      </trkpt>
      <trkpt lat="43.6447" lon="1.39374">
        <ele>127</ele>
        <time>2024-11-06T17:21:40Z</time>
      </trkpt>
      <trkpt lat="43.6447" lon="1.3937">
        <ele>127</ele>
        <time>2024-11-06T17:21:41Z</time>
      </trkpt>
      <trkpt lat="43.64469" lon="1.39367">
        <ele>126</ele>
        <time>2024-11-06T17:21:42Z</time>
      </trkpt>
      <trkpt lat="43.64469" lon="1.39363">
        <ele>126</ele>
        <time>2024-11-06T17:21:43Z</time>
      </trkpt>
      <trkpt lat="43.64468" lon="1.39359">
        <ele>126</ele>
        <time>2024-11-06T17:21:44Z</time>
      </trkpt>
      <trkpt lat="43.64468" lon="1.39356">
        <ele>126</ele>
        <time>2024-11-06T17:21:45Z</time>
      </trkpt>
      <trkpt lat="43.64467" lon="1.39352">
        <ele>126</ele>
        <time>2024-11-06T17:21:46Z</time>
      </trkpt>
      <trkpt lat="43.64466" lon="1.39348">
        <ele>126</ele>
        <time>2024-11-06T17:21:47Z</time>
      </trkpt>
      <trkpt lat="43.64465" lon="1.39343">
        <ele>126</ele>
        <time>2024-11-06T17:21:48Z</time>
      </trkpt>
      <trkpt lat="43.64465" lon="1.39341">
        <ele>126</ele>
        <time>2024-11-06T17:21:49Z</time>
      </trkpt>
      <trkpt lat="43.64463" lon="1.39335">
        <ele>126</ele>
        <time>2024-11-06T17:21:50Z</time>
      </trkpt>
      <trkpt lat="43.64463" lon="1.39333">
        <ele>126</ele>
        <time>2024-11-06T17:21:51Z</time>
      </trkpt>
      <trkpt lat="43.64462" lon="1.39329">
        <ele>126</ele>
        <time>2024-11-06T17:21:52Z</time>
      </trkpt>
      <trkpt lat="43.64461" lon="1.39325">
        <ele>126</ele>
        <time>2024-11-06T17:21:53Z</time>
      </trkpt>
      <trkpt lat="43.64461" lon="1.39322">
        <ele>126</ele>
        <time>2024-11-06T17:21:54Z</time>
      </trkpt>
      <trkpt lat="43.64459" lon="1.39319">
        <ele>126</ele>
        <time>2024-11-06T17:21:55Z</time>
      </trkpt>
      <trkpt lat="43.64457" lon="1.39315">
        <ele>126</ele>
        <time>2024-11-06T17:21:56Z</time>
      </trkpt>
      <trkpt lat="43.64456" lon="1.39312">
        <ele>126</ele>
        <time>2024-11-06T17:21:57Z</time>
      </trkpt>
      <trkpt lat="43.64456" lon="1.39308">
        <ele>126</ele>
        <time>2024-11-06T17:21:58Z</time>
      </trkpt>
      <trkpt lat="43.64455" lon="1.39305">
        <ele>126</ele>
        <time>2024-11-06T17:21:59Z</time>
      </trkpt>
      <trkpt lat="43.64455" lon="1.39301">
        <ele>126</ele>
        <time>2024-11-06T17:22:00Z</time>
      </trkpt>
      <trkpt lat="43.64455" lon="1.39298">
        <ele>126</ele>
        <time>2024-11-06T17:22:01Z</time>
      </trkpt>
      <trkpt lat="43.64454" lon="1.39294">
        <ele>126</ele>
        <time>2024-11-06T17:22:02Z</time>
      </trkpt>
      <trkpt lat="43.64453" lon="1.39291">
        <ele>126</ele>
        <time>2024-11-06T17:22:03Z</time>
      </trkpt>
      <trkpt lat="43.64452" lon="1.39287">
        <ele>126</ele>
        <time>2024-11-06T17:22:04Z</time>
      </trkpt>
      <trkpt lat="43.64451" lon="1.39284">
        <ele>126</ele>
        <time>2024-11-06T17:22:05Z</time>
      </trkpt>
      <trkpt lat="43.6445" lon="1.3928">
        <ele>126</ele>
        <time>2024-11-06T17:22:06Z</time>
      </trkpt>
      <trkpt lat="43.64449" lon="1.39274">
        <ele>126</ele>
        <time>2024-11-06T17:22:07Z</time>
      </trkpt>
      <trkpt lat="43.64448" lon="1.39272">
        <ele>127</ele>
        <time>2024-11-06T17:22:08Z</time>
      </trkpt>
      <trkpt lat="43.64447" lon="1.39267">
        <ele>127</ele>
        <time>2024-11-06T17:22:09Z</time>
      </trkpt>
      <trkpt lat="43.64446" lon="1.39265">
        <ele>126</ele>
        <time>2024-11-06T17:22:10Z</time>
      </trkpt>
      <trkpt lat="43.64445" lon="1.39261">
        <ele>126</ele>
        <time>2024-11-06T17:22:11Z</time>
      </trkpt>
      <trkpt lat="43.64444" lon="1.39258">
        <ele>126</ele>
        <time>2024-11-06T17:22:12Z</time>
      </trkpt>
      <trkpt lat="43.64442" lon="1.39254">
        <ele>126</ele>
        <time>2024-11-06T17:22:13Z</time>
      </trkpt>
      <trkpt lat="43.64441" lon="1.39251">
        <ele>126</ele>
        <time>2024-11-06T17:22:14Z</time>
      </trkpt>
      <trkpt lat="43.64439" lon="1.39248">
        <ele>126</ele>
        <time>2024-11-06T17:22:15Z</time>
      </trkpt>
      <trkpt lat="43.64438" lon="1.39245">
        <ele>127</ele>
        <time>2024-11-06T17:22:16Z</time>
      </trkpt>
      <trkpt lat="43.64436" lon="1.39242">
        <ele>127</ele>
        <time>2024-11-06T17:22:17Z</time>
      </trkpt>
      <trkpt lat="43.64435" lon="1.39239">
        <ele>127</ele>
        <time>2024-11-06T17:22:18Z</time>
      </trkpt>
      <trkpt lat="43.64433" lon="1.39236">
        <ele>127</ele>
        <time>2024-11-06T17:22:19Z</time>
      </trkpt>
      <trkpt lat="43.64431" lon="1.39233">
        <ele>127</ele>
        <time>2024-11-06T17:22:20Z</time>
      </trkpt>
      <trkpt lat="43.6443" lon="1.3923">
        <ele>127</ele>
        <time>2024-11-06T17:22:21Z</time>
      </trkpt>
      <trkpt lat="43.64428" lon="1.39227">
        <ele>127</ele>
        <time>2024-11-06T17:22:22Z</time>
      </trkpt>
      <trkpt lat="43.64427" lon="1.39224">
        <ele>127</ele>
        <time>2024-11-06T17:22:23Z</time>
      </trkpt>
      <trkpt lat="43.64425" lon="1.39221">
        <ele>127</ele>
        <time>2024-11-06T17:22:24Z</time>
      </trkpt>
      <trkpt lat="43.64423" lon="1.39216">
        <ele>127</ele>
        <time>2024-11-06T17:22:25Z</time>
      </trkpt>
      <trkpt lat="43.64422" lon="1.39215">
        <ele>128</ele>
        <time>2024-11-06T17:22:26Z</time>
      </trkpt>
      <trkpt lat="43.64421" lon="1.39212">
        <ele>128</ele>
        <time>2024-11-06T17:22:27Z</time>
      </trkpt>
      <trkpt lat="43.64418" lon="1.39207">
        <ele>128</ele>
        <time>2024-11-06T17:22:28Z</time>
      </trkpt>
      <trkpt lat="43.64418" lon="1.39206">
        <ele>128</ele>
        <time>2024-11-06T17:22:29Z</time>
      </trkpt>
      <trkpt lat="43.64416" lon="1.39203">
        <ele>128</ele>
        <time>2024-11-06T17:22:30Z</time>
      </trkpt>
      <trkpt lat="43.64415" lon="1.392">
        <ele>128</ele>
        <time>2024-11-06T17:22:31Z</time>
      </trkpt>
      <trkpt lat="43.64414" lon="1.39196">
        <ele>128</ele>
        <time>2024-11-06T17:22:32Z</time>
      </trkpt>
      <trkpt lat="43.64413" lon="1.39194">
        <ele>128</ele>
        <time>2024-11-06T17:22:33Z</time>
      </trkpt>
      <trkpt lat="43.64412" lon="1.3919">
        <ele>128</ele>
        <time>2024-11-06T17:22:34Z</time>
      </trkpt>
      <trkpt lat="43.64411" lon="1.39187">
        <ele>129</ele>
        <time>2024-11-06T17:22:35Z</time>
      </trkpt>
      <trkpt lat="43.6441" lon="1.39184">
        <ele>129</ele>
        <time>2024-11-06T17:22:36Z</time>
      </trkpt>
      <trkpt lat="43.64409" lon="1.3918">
        <ele>129</ele>
        <time>2024-11-06T17:22:37Z</time>
      </trkpt>
      <trkpt lat="43.64409" lon="1.39177">
        <ele>129</ele>
        <time>2024-11-06T17:22:38Z</time>
      </trkpt>
      <trkpt lat="43.64409" lon="1.39173">
        <ele>130</ele>
        <time>2024-11-06T17:22:39Z</time>
      </trkpt>
      <trkpt lat="43.64409" lon="1.3917">
        <ele>130</ele>
        <time>2024-11-06T17:22:40Z</time>
      </trkpt>
      <trkpt lat="43.64409" lon="1.39166">
        <ele>130</ele>
        <time>2024-11-06T17:22:41Z</time>
      </trkpt>
      <trkpt lat="43.64409" lon="1.39163">
        <ele>131</ele>
        <time>2024-11-06T17:22:42Z</time>
      </trkpt>
      <trkpt lat="43.6441" lon="1.39159">
        <ele>131</ele>
        <time>2024-11-06T17:22:43Z</time>
      </trkpt>
      <trkpt lat="43.6441" lon="1.39154">
        <ele>131</ele>
        <time>2024-11-06T17:22:44Z</time>
      </trkpt>
      <trkpt lat="43.64411" lon="1.39152">
        <ele>132</ele>
        <time>2024-11-06T17:22:45Z</time>
      </trkpt>
      <trkpt lat="43.64411" lon="1.39149">
        <ele>132</ele>
        <time>2024-11-06T17:22:46Z</time>
      </trkpt>
      <trkpt lat="43.64412" lon="1.39146">
        <ele>132</ele>
        <time>2024-11-06T17:22:47Z</time>
      </trkpt>
      <trkpt lat="43.64413" lon="1.39143">
        <ele>132</ele>
        <time>2024-11-06T17:22:48Z</time>
      </trkpt>
      <trkpt lat="43.64414" lon="1.3914">
        <ele>133</ele>
        <time>2024-11-06T17:22:49Z</time>
      </trkpt>
      <trkpt lat="43.64416" lon="1.39138">
        <ele>133</ele>
        <time>2024-11-06T17:22:50Z</time>
      </trkpt>
      <trkpt lat="43.64417" lon="1.39135">
        <ele>133</ele>
        <time>2024-11-06T17:22:51Z</time>
      </trkpt>
      <trkpt lat="43.64418" lon="1.39132">
        <ele>133</ele>
        <time>2024-11-06T17:22:52Z</time>
      </trkpt>
      <trkpt lat="43.64419" lon="1.39129">
        <ele>134</ele>
        <time>2024-11-06T17:22:53Z</time>
      </trkpt>
      <trkpt lat="43.6442" lon="1.39126">
        <ele>134</ele>
        <time>2024-11-06T17:22:54Z</time>
      </trkpt>
      <trkpt lat="43.64421" lon="1.39123">
        <ele>135</ele>
        <time>2024-11-06T17:22:55Z</time>
      </trkpt>
      <trkpt lat="43.64422" lon="1.3912">
        <ele>135</ele>
        <time>2024-11-06T17:22:56Z</time>
      </trkpt>
      <trkpt lat="43.64423" lon="1.39117">
        <ele>135</ele>
        <time>2024-11-06T17:22:57Z</time>
      </trkpt>
      <trkpt lat="43.64424" lon="1.39115">
        <ele>136</ele>
        <time>2024-11-06T17:22:58Z</time>
      </trkpt>
      <trkpt lat="43.64425" lon="1.39112">
        <ele>136</ele>
        <time>2024-11-06T17:22:59Z</time>
      </trkpt>
      <trkpt lat="43.64427" lon="1.39109">
        <ele>136</ele>
        <time>2024-11-06T17:23:00Z</time>
      </trkpt>
      <trkpt lat="43.64428" lon="1.39106">
        <ele>136</ele>
        <time>2024-11-06T17:23:01Z</time>
      </trkpt>
      <trkpt lat="43.64429" lon="1.39102">
        <ele>137</ele>
        <time>2024-11-06T17:23:02Z</time>
      </trkpt>
      <trkpt lat="43.64431" lon="1.39099">
        <ele>137</ele>
        <time>2024-11-06T17:23:03Z</time>
      </trkpt>
      <trkpt lat="43.64433" lon="1.39094">
        <ele>137</ele>
        <time>2024-11-06T17:23:04Z</time>
      </trkpt>
      <trkpt lat="43.64433" lon="1.39092">
        <ele>137</ele>
        <time>2024-11-06T17:23:05Z</time>
      </trkpt>
      <trkpt lat="43.64436" lon="1.39088">
        <ele>137</ele>
        <time>2024-11-06T17:23:06Z</time>
      </trkpt>
      <trkpt lat="43.64436" lon="1.39087">
        <ele>137</ele>
        <time>2024-11-06T17:23:07Z</time>
      </trkpt>
      <trkpt lat="43.64438" lon="1.39084">
        <ele>137</ele>
        <time>2024-11-06T17:23:08Z</time>
      </trkpt>
      <trkpt lat="43.64439" lon="1.39081">
        <ele>137</ele>
        <time>2024-11-06T17:23:09Z</time>
      </trkpt>
      <trkpt lat="43.64441" lon="1.39078">
        <ele>137</ele>
        <time>2024-11-06T17:23:10Z</time>
      </trkpt>
      <trkpt lat="43.64442" lon="1.39076">
        <ele>137</ele>
        <time>2024-11-06T17:23:11Z</time>
      </trkpt>
      <trkpt lat="43.64444" lon="1.39073">
        <ele>137</ele>
        <time>2024-11-06T17:23:12Z</time>
      </trkpt>
      <trkpt lat="43.64445" lon="1.39071">
        <ele>137</ele>
        <time>2024-11-06T17:23:13Z</time>
      </trkpt>
      <trkpt lat="43.64447" lon="1.39068">
        <ele>137</ele>
        <time>2024-11-06T17:23:14Z</time>
      </trkpt>
      <trkpt lat="43.64448" lon="1.39065">
        <ele>138</ele>
        <time>2024-11-06T17:23:15Z</time>
      </trkpt>
      <trkpt lat="43.6445" lon="1.39062">
        <ele>138</ele>
        <time>2024-11-06T17:23:16Z</time>
      </trkpt>
      <trkpt lat="43.64451" lon="1.39059">
        <ele>138</ele>
        <time>2024-11-06T17:23:17Z</time>
      </trkpt>
      <trkpt lat="43.64452" lon="1.39056">
        <ele>138</ele>
        <time>2024-11-06T17:23:18Z</time>
      </trkpt>
      <trkpt lat="43.64454" lon="1.39053">
        <ele>138</ele>
        <time>2024-11-06T17:23:19Z</time>
      </trkpt>
      <trkpt lat="43.64456" lon="1.39051">
        <ele>139</ele>
        <time>2024-11-06T17:23:20Z</time>
      </trkpt>
      <trkpt lat="43.64458" lon="1.39049">
        <ele>139</ele>
        <time>2024-11-06T17:23:21Z</time>
      </trkpt>
      <trkpt lat="43.6446" lon="1.39047">
        <ele>139</ele>
        <time>2024-11-06T17:23:22Z</time>
      </trkpt>
      <trkpt lat="43.64463" lon="1.39046">
        <ele>139</ele>
        <time>2024-11-06T17:23:23Z</time>
      </trkpt>
      <trkpt lat="43.64465" lon="1.39044">
        <ele>139</ele>
        <time>2024-11-06T17:23:24Z</time>
      </trkpt>
      <trkpt lat="43.64468" lon="1.39044">
        <ele>139</ele>
        <time>2024-11-06T17:23:25Z</time>
      </trkpt>
      <trkpt lat="43.6447" lon="1.39043">
        <ele>139</ele>
        <time>2024-11-06T17:23:26Z</time>
      </trkpt>
      <trkpt lat="43.64473" lon="1.39042">
        <ele>139</ele>
        <time>2024-11-06T17:23:27Z</time>
      </trkpt>
      <trkpt lat="43.64475" lon="1.3904">
        <ele>139</ele>
        <time>2024-11-06T17:23:28Z</time>
      </trkpt>
      <trkpt lat="43.64477" lon="1.39038">
        <ele>139</ele>
        <time>2024-11-06T17:23:29Z</time>
      </trkpt>
      <trkpt lat="43.64479" lon="1.39035">
        <ele>138</ele>
        <time>2024-11-06T17:23:30Z</time>
      </trkpt>
      <trkpt lat="43.6448" lon="1.3903">
        <ele>138</ele>
        <time>2024-11-06T17:23:31Z</time>
      </trkpt>
      <trkpt lat="43.64482" lon="1.39027">
        <ele>138</ele>
        <time>2024-11-06T17:23:32Z</time>
      </trkpt>
      <trkpt lat="43.64483" lon="1.39021">
        <ele>138</ele>
        <time>2024-11-06T17:23:33Z</time>
      </trkpt>
      <trkpt lat="43.64484" lon="1.39019">
        <ele>138</ele>
        <time>2024-11-06T17:23:34Z</time>
      </trkpt>
      <trkpt lat="43.64485" lon="1.39016">
        <ele>138</ele>
        <time>2024-11-06T17:23:35Z</time>
      </trkpt>
      <trkpt lat="43.64486" lon="1.39013">
        <ele>138</ele>
        <time>2024-11-06T17:23:36Z</time>
      </trkpt>
      <trkpt lat="43.64487" lon="1.3901">
        <ele>139</ele>
        <time>2024-11-06T17:23:37Z</time>
      </trkpt>
      <trkpt lat="43.64488" lon="1.39008">
        <ele>139</ele>
        <time>2024-11-06T17:23:38Z</time>
      </trkpt>
      <trkpt lat="43.64489" lon="1.39004">
        <ele>139</ele>
        <time>2024-11-06T17:23:39Z</time>
      </trkpt>
      <trkpt lat="43.64491" lon="1.39001">
        <ele>139</ele>
        <time>2024-11-06T17:23:40Z</time>
      </trkpt>
      <trkpt lat="43.64492" lon="1.38998">
        <ele>139</ele>
        <time>2024-11-06T17:23:41Z</time>
      </trkpt>
      <trkpt lat="43.64493" lon="1.38995">
        <ele>139</ele>
        <time>2024-11-06T17:23:42Z</time>
      </trkpt>
      <trkpt lat="43.64494" lon="1.38992">
        <ele>139</ele>
        <time>2024-11-06T17:23:43Z</time>
      </trkpt>
      <trkpt lat="43.64496" lon="1.38988">
        <ele>139</ele>
        <time>2024-11-06T17:23:44Z</time>
      </trkpt>
      <trkpt lat="43.64497" lon="1.38984">
        <ele>139</ele>
        <time>2024-11-06T17:23:45Z</time>
      </trkpt>
      <trkpt lat="43.64498" lon="1.38981">
        <ele>139</ele>
        <time>2024-11-06T17:23:46Z</time>
      </trkpt>
      <trkpt lat="43.64499" lon="1.38977">
        <ele>138</ele>
        <time>2024-11-06T17:23:47Z</time>
      </trkpt>
      <trkpt lat="43.645" lon="1.38973">
        <ele>138</ele>
        <time>2024-11-06T17:23:48Z</time>
      </trkpt>
      <trkpt lat="43.64501" lon="1.3897">
        <ele>138</ele>
        <time>2024-11-06T17:23:49Z</time>
      </trkpt>
      <trkpt lat="43.64502" lon="1.38966">
        <ele>139</ele>
        <time>2024-11-06T17:23:50Z</time>
      </trkpt>
      <trkpt lat="43.64504" lon="1.38963">
        <ele>138</ele>
        <time>2024-11-06T17:23:51Z</time>
      </trkpt>
      <trkpt lat="43.64505" lon="1.38959">
        <ele>138</ele>
        <time>2024-11-06T17:23:52Z</time>
      </trkpt>
      <trkpt lat="43.64506" lon="1.38956">
        <ele>138</ele>
        <time>2024-11-06T17:23:53Z</time>
      </trkpt>
      <trkpt lat="43.64507" lon="1.38952">
        <ele>138</ele>
        <time>2024-11-06T17:23:54Z</time>
      </trkpt>
      <trkpt lat="43.64508" lon="1.38948">
        <ele>138</ele>
        <time>2024-11-06T17:23:55Z</time>
      </trkpt>
      <trkpt lat="43.64509" lon="1.38945">
        <ele>138</ele>
        <time>2024-11-06T17:23:56Z</time>
      </trkpt>
      <trkpt lat="43.64511" lon="1.38942">
        <ele>138</ele>
        <time>2024-11-06T17:23:57Z</time>
      </trkpt>
      <trkpt lat="43.64512" lon="1.38939">
        <ele>138</ele>
        <time>2024-11-06T17:23:58Z</time>
      </trkpt>
      <trkpt lat="43.64514" lon="1.38935">
        <ele>138</ele>
        <time>2024-11-06T17:23:59Z</time>
      </trkpt>
      <trkpt lat="43.64516" lon="1.3893">
        <ele>138</ele>
        <time>2024-11-06T17:24:00Z</time>
      </trkpt>
      <trkpt lat="43.64517" lon="1.38929">
        <ele>138</ele>
        <time>2024-11-06T17:24:01Z</time>
      </trkpt>
      <trkpt lat="43.64517" lon="1.38925">
        <ele>138</ele>
        <time>2024-11-06T17:24:02Z</time>
      </trkpt>
      <trkpt lat="43.64517" lon="1.38919">
        <ele>138</ele>
        <time>2024-11-06T17:24:03Z</time>
      </trkpt>
      <trkpt lat="43.64517" lon="1.38917">
        <ele>138</ele>
        <time>2024-11-06T17:24:04Z</time>
      </trkpt>
      <trkpt lat="43.64516" lon="1.38913">
        <ele>138</ele>
        <time>2024-11-06T17:24:05Z</time>
      </trkpt>
      <trkpt lat="43.64515" lon="1.38909">
        <ele>138</ele>
        <time>2024-11-06T17:24:06Z</time>
      </trkpt>
      <trkpt lat="43.64515" lon="1.38905">
        <ele>138</ele>
        <time>2024-11-06T17:24:07Z</time>
      </trkpt>
      <trkpt lat="43.64514" lon="1.38902">
        <ele>138</ele>
        <time>2024-11-06T17:24:08Z</time>
      </trkpt>
      <trkpt lat="43.64513" lon="1.38898">
        <ele>139</ele>
        <time>2024-11-06T17:24:09Z</time>
      </trkpt>
      <trkpt lat="43.64512" lon="1.38895">
        <ele>139</ele>
        <time>2024-11-06T17:24:10Z</time>
      </trkpt>
      <trkpt lat="43.64512" lon="1.38891">
        <ele>139</ele>
        <time>2024-11-06T17:24:11Z</time>
      </trkpt>
      <trkpt lat="43.64511" lon="1.38888">
        <ele>139</ele>
        <time>2024-11-06T17:24:12Z</time>
      </trkpt>
      <trkpt lat="43.64511" lon="1.38884">
        <ele>139</ele>
        <time>2024-11-06T17:24:13Z</time>
      </trkpt>
      <trkpt lat="43.6451" lon="1.38881">
        <ele>139</ele>
        <time>2024-11-06T17:24:14Z</time>
      </trkpt>
      <trkpt lat="43.64509" lon="1.38878">
        <ele>139</ele>
        <time>2024-11-06T17:24:15Z</time>
      </trkpt>
      <trkpt lat="43.64508" lon="1.38874">
        <ele>138</ele>
        <time>2024-11-06T17:24:16Z</time>
      </trkpt>
      <trkpt lat="43.64508" lon="1.3887">
        <ele>138</ele>
        <time>2024-11-06T17:24:17Z</time>
      </trkpt>
      <trkpt lat="43.64509" lon="1.38867">
        <ele>138</ele>
        <time>2024-11-06T17:24:18Z</time>
      </trkpt>
      <trkpt lat="43.64512" lon="1.38864">
        <ele>138</ele>
        <time>2024-11-06T17:24:19Z</time>
      </trkpt>
      <trkpt lat="43.64513" lon="1.38863">
        <ele>138</ele>
        <time>2024-11-06T17:24:20Z</time>
      </trkpt>
      <trkpt lat="43.64515" lon="1.38861">
        <ele>138</ele>
        <time>2024-11-06T17:24:21Z</time>
      </trkpt>
      <trkpt lat="43.64519" lon="1.3886">
        <ele>138</ele>
        <time>2024-11-06T17:24:22Z</time>
      </trkpt>
      <trkpt lat="43.6452" lon="1.38859">
        <ele>138</ele>
        <time>2024-11-06T17:24:23Z</time>
      </trkpt>
      <trkpt lat="43.64523" lon="1.38858">
        <ele>138</ele>
        <time>2024-11-06T17:24:24Z</time>
      </trkpt>
      <trkpt lat="43.64525" lon="1.38857">
        <ele>138</ele>
        <time>2024-11-06T17:24:25Z</time>
      </trkpt>
      <trkpt lat="43.64529" lon="1.38856">
        <ele>138</ele>
        <time>2024-11-06T17:24:26Z</time>
      </trkpt>
      <trkpt lat="43.64531" lon="1.38855">
        <ele>138</ele>
        <time>2024-11-06T17:24:27Z</time>
      </trkpt>
      <trkpt lat="43.64533" lon="1.38854">
        <ele>138</ele>
        <time>2024-11-06T17:24:28Z</time>
      </trkpt>
      <trkpt lat="43.64536" lon="1.38853">
        <ele>138</ele>
        <time>2024-11-06T17:24:29Z</time>
      </trkpt>
      <trkpt lat="43.64538" lon="1.38852">
        <ele>138</ele>
        <time>2024-11-06T17:24:30Z</time>
      </trkpt>
      <trkpt lat="43.64541" lon="1.38851">
        <ele>138</ele>
        <time>2024-11-06T17:24:31Z</time>
      </trkpt>
      <trkpt lat="43.64543" lon="1.38849">
        <ele>138</ele>
        <time>2024-11-06T17:24:32Z</time>
      </trkpt>
      <trkpt lat="43.64546" lon="1.38848">
        <ele>138</ele>
        <time>2024-11-06T17:24:33Z</time>
      </trkpt>
      <trkpt lat="43.64549" lon="1.38848">
        <ele>138</ele>
        <time>2024-11-06T17:24:34Z</time>
      </trkpt>
      <trkpt lat="43.64552" lon="1.38848">
        <ele>138</ele>
        <time>2024-11-06T17:24:35Z</time>
      </trkpt>
      <trkpt lat="43.64555" lon="1.38848">
        <ele>138</ele>
        <time>2024-11-06T17:24:36Z</time>
      </trkpt>
      <trkpt lat="43.64559" lon="1.38847">
        <ele>138</ele>
        <time>2024-11-06T17:24:37Z</time>
      </trkpt>
      <trkpt lat="43.64561" lon="1.38847">
        <ele>138</ele>
        <time>2024-11-06T17:24:38Z</time>
      </trkpt>
      <trkpt lat="43.64563" lon="1.38846">
        <ele>138</ele>
        <time>2024-11-06T17:24:39Z</time>
      </trkpt>
      <trkpt lat="43.64566" lon="1.38845">
        <ele>138</ele>
        <time>2024-11-06T17:24:40Z</time>
      </trkpt>
      <trkpt lat="43.64569" lon="1.38844">
        <ele>138</ele>
        <time>2024-11-06T17:24:41Z</time>
      </trkpt>
      <trkpt lat="43.64571" lon="1.38844">
        <ele>138</ele>
        <time>2024-11-06T17:24:42Z</time>
      </trkpt>
      <trkpt lat="43.64573" lon="1.38843">
        <ele>138</ele>
        <time>2024-11-06T17:24:43Z</time>
      </trkpt>
      <trkpt lat="43.64576" lon="1.38843">
        <ele>138</ele>
        <time>2024-11-06T17:24:44Z</time>
      </trkpt>
      <trkpt lat="43.64579" lon="1.38843">
        <ele>138</ele>
        <time>2024-11-06T17:24:45Z</time>
      </trkpt>
      <trkpt lat="43.64582" lon="1.38843">
        <ele>138</ele>
        <time>2024-11-06T17:24:46Z</time>
      </trkpt>
      <trkpt lat="43.64585" lon="1.38842">
        <ele>138</ele>
        <time>2024-11-06T17:24:47Z</time>
      </trkpt>
      <trkpt lat="43.64588" lon="1.38842">
        <ele>138</ele>
        <time>2024-11-06T17:24:48Z</time>
      </trkpt>
      <trkpt lat="43.6459" lon="1.38841">
        <ele>138</ele>
        <time>2024-11-06T17:24:49Z</time>
      </trkpt>
      <trkpt lat="43.64593" lon="1.3884">
        <ele>138</ele>
        <time>2024-11-06T17:24:50Z</time>
      </trkpt>
      <trkpt lat="43.64596" lon="1.38839">
        <ele>138</ele>
        <time>2024-11-06T17:24:51Z</time>
      </trkpt>
      <trkpt lat="43.64599" lon="1.38838">
        <ele>138</ele>
        <time>2024-11-06T17:24:52Z</time>
      </trkpt>
      <trkpt lat="43.64602" lon="1.38837">
        <ele>138</ele>
        <time>2024-11-06T17:24:53Z</time>
      </trkpt>
      <trkpt lat="43.64605" lon="1.38837">
        <ele>138</ele>
        <time>2024-11-06T17:24:54Z</time>
      </trkpt>
      <trkpt lat="43.64609" lon="1.38836">
        <ele>138</ele>
        <time>2024-11-06T17:24:55Z</time>
      </trkpt>
      <trkpt lat="43.64611" lon="1.38836">
        <ele>138</ele>
        <time>2024-11-06T17:24:56Z</time>
      </trkpt>
      <trkpt lat="43.64614" lon="1.38836">
        <ele>138</ele>
        <time>2024-11-06T17:24:57Z</time>
      </trkpt>
      <trkpt lat="43.64617" lon="1.38836">
        <ele>138</ele>
        <time>2024-11-06T17:24:58Z</time>
      </trkpt>
      <trkpt lat="43.64619" lon="1.38835">
        <ele>139</ele>
        <time>2024-11-06T17:24:59Z</time>
      </trkpt>
      <trkpt lat="43.64622" lon="1.38833">
        <ele>139</ele>
        <time>2024-11-06T17:25:00Z</time>
      </trkpt>
      <trkpt lat="43.64625" lon="1.38833">
        <ele>139</ele>
        <time>2024-11-06T17:25:01Z</time>
      </trkpt>
      <trkpt lat="43.64627" lon="1.38831">
        <ele>139</ele>
        <time>2024-11-06T17:25:02Z</time>
      </trkpt>
      <trkpt lat="43.6463" lon="1.3883">
        <ele>139</ele>
        <time>2024-11-06T17:25:03Z</time>
      </trkpt>
      <trkpt lat="43.64632" lon="1.38828">
        <ele>139</ele>
        <time>2024-11-06T17:25:04Z</time>
      </trkpt>
      <trkpt lat="43.64635" lon="1.38827">
        <ele>139</ele>
        <time>2024-11-06T17:25:05Z</time>
      </trkpt>
      <trkpt lat="43.64638" lon="1.38825">
        <ele>139</ele>
        <time>2024-11-06T17:25:06Z</time>
      </trkpt>
      <trkpt lat="43.6464" lon="1.38824">
        <ele>139</ele>
        <time>2024-11-06T17:25:07Z</time>
      </trkpt>
      <trkpt lat="43.64643" lon="1.38822">
        <ele>139</ele>
        <time>2024-11-06T17:25:08Z</time>
      </trkpt>
      <trkpt lat="43.64645" lon="1.38821">
        <ele>139</ele>
        <time>2024-11-06T17:25:09Z</time>
      </trkpt>
      <trkpt lat="43.64648" lon="1.3882">
        <ele>139</ele>
        <time>2024-11-06T17:25:10Z</time>
      </trkpt>
      <trkpt lat="43.64651" lon="1.38819">
        <ele>138</ele>
        <time>2024-11-06T17:25:11Z</time>
      </trkpt>
      <trkpt lat="43.64654" lon="1.38818">
        <ele>138</ele>
        <time>2024-11-06T17:25:12Z</time>
      </trkpt>
      <trkpt lat="43.64658" lon="1.38817">
        <ele>138</ele>
        <time>2024-11-06T17:25:13Z</time>
      </trkpt>
      <trkpt lat="43.64659" lon="1.38816">
        <ele>138</ele>
        <time>2024-11-06T17:25:14Z</time>
      </trkpt>
      <trkpt lat="43.64662" lon="1.38815">
        <ele>138</ele>
        <time>2024-11-06T17:25:15Z</time>
      </trkpt>
      <trkpt lat="43.64664" lon="1.38814">
        <ele>138</ele>
        <time>2024-11-06T17:25:16Z</time>
      </trkpt>
      <trkpt lat="43.64666" lon="1.38812">
        <ele>139</ele>
        <time>2024-11-06T17:25:17Z</time>
      </trkpt>
      <trkpt lat="43.64668" lon="1.38811">
        <ele>139</ele>
        <time>2024-11-06T17:25:18Z</time>
      </trkpt>
      <trkpt lat="43.64671" lon="1.38807">
        <ele>139</ele>
        <time>2024-11-06T17:25:19Z</time>
      </trkpt>
      <trkpt lat="43.64672" lon="1.38805">
        <ele>138</ele>
        <time>2024-11-06T17:25:20Z</time>
      </trkpt>
      <trkpt lat="43.64674" lon="1.38803">
        <ele>138</ele>
        <time>2024-11-06T17:25:21Z</time>
      </trkpt>
      <trkpt lat="43.64676" lon="1.38801">
        <ele>138</ele>
        <time>2024-11-06T17:25:22Z</time>
      </trkpt>
      <trkpt lat="43.64679" lon="1.388">
        <ele>138</ele>
        <time>2024-11-06T17:25:23Z</time>
      </trkpt>
      <trkpt lat="43.64682" lon="1.388">
        <ele>139</ele>
        <time>2024-11-06T17:25:24Z</time>
      </trkpt>
      <trkpt lat="43.64684" lon="1.38799">
        <ele>139</ele>
        <time>2024-11-06T17:25:25Z</time>
      </trkpt>
      <trkpt lat="43.64686" lon="1.38799">
        <ele>139</ele>
        <time>2024-11-06T17:25:26Z</time>
      </trkpt>
      <trkpt lat="43.64688" lon="1.38798">
        <ele>138</ele>
        <time>2024-11-06T17:25:27Z</time>
      </trkpt>
      <trkpt lat="43.64691" lon="1.38797">
        <ele>138</ele>
        <time>2024-11-06T17:25:28Z</time>
      </trkpt>
      <trkpt lat="43.64693" lon="1.38795">
        <ele>138</ele>
        <time>2024-11-06T17:25:29Z</time>
      </trkpt>
      <trkpt lat="43.64696" lon="1.38794">
        <ele>138</ele>
        <time>2024-11-06T17:25:30Z</time>
      </trkpt>
      <trkpt lat="43.64699" lon="1.38793">
        <ele>138</ele>
        <time>2024-11-06T17:25:31Z</time>
      </trkpt>
      <trkpt lat="43.64703" lon="1.38792">
        <ele>138</ele>
        <time>2024-11-06T17:25:32Z</time>
      </trkpt>
      <trkpt lat="43.64704" lon="1.38791">
        <ele>138</ele>
        <time>2024-11-06T17:25:33Z</time>
      </trkpt>
      <trkpt lat="43.64707" lon="1.38791">
        <ele>138</ele>
        <time>2024-11-06T17:25:34Z</time>
      </trkpt>
      <trkpt lat="43.6471" lon="1.3879">
        <ele>138</ele>
        <time>2024-11-06T17:25:35Z</time>
      </trkpt>
      <trkpt lat="43.64712" lon="1.38788">
        <ele>138</ele>
        <time>2024-11-06T17:25:36Z</time>
      </trkpt>
      <trkpt lat="43.64715" lon="1.38787">
        <ele>138</ele>
        <time>2024-11-06T17:25:37Z</time>
      </trkpt>
      <trkpt lat="43.64719" lon="1.38785">
        <ele>138</ele>
        <time>2024-11-06T17:25:38Z</time>
      </trkpt>
      <trkpt lat="43.6472" lon="1.38784">
        <ele>138</ele>
        <time>2024-11-06T17:25:39Z</time>
      </trkpt>
      <trkpt lat="43.64723" lon="1.38782">
        <ele>138</ele>
        <time>2024-11-06T17:25:40Z</time>
      </trkpt>
      <trkpt lat="43.64726" lon="1.3878">
        <ele>139</ele>
        <time>2024-11-06T17:25:41Z</time>
      </trkpt>
      <trkpt lat="43.64728" lon="1.38778">
        <ele>139</ele>
        <time>2024-11-06T17:25:42Z</time>
      </trkpt>
      <trkpt lat="43.6473" lon="1.38777">
        <ele>138</ele>
        <time>2024-11-06T17:25:43Z</time>
      </trkpt>
      <trkpt lat="43.64733" lon="1.38775">
        <ele>138</ele>
        <time>2024-11-06T17:25:44Z</time>
      </trkpt>
      <trkpt lat="43.64735" lon="1.38773">
        <ele>138</ele>
        <time>2024-11-06T17:25:45Z</time>
      </trkpt>
      <trkpt lat="43.64738" lon="1.38771">
        <ele>138</ele>
        <time>2024-11-06T17:25:46Z</time>
      </trkpt>
      <trkpt lat="43.6474" lon="1.38769">
        <ele>138</ele>
        <time>2024-11-06T17:25:47Z</time>
      </trkpt>
      <trkpt lat="43.64743" lon="1.38767">
        <ele>138</ele>
        <time>2024-11-06T17:25:48Z</time>
      </trkpt>
      <trkpt lat="43.64747" lon="1.38764">
        <ele>138</ele>
        <time>2024-11-06T17:25:49Z</time>
      </trkpt>
      <trkpt lat="43.64748" lon="1.38763">
        <ele>138</ele>
        <time>2024-11-06T17:25:50Z</time>
      </trkpt>
      <trkpt lat="43.6475" lon="1.38761">
        <ele>138</ele>
        <time>2024-11-06T17:25:51Z</time>
      </trkpt>
      <trkpt lat="43.64753" lon="1.38759">
        <ele>138</ele>
        <time>2024-11-06T17:25:52Z</time>
      </trkpt>
      <trkpt lat="43.64755" lon="1.38757">
        <ele>138</ele>
        <time>2024-11-06T17:25:53Z</time>
      </trkpt>
      <trkpt lat="43.64758" lon="1.38755">
        <ele>138</ele>
        <time>2024-11-06T17:25:54Z</time>
      </trkpt>
      <trkpt lat="43.64761" lon="1.38754">
        <ele>138</ele>
        <time>2024-11-06T17:25:55Z</time>
      </trkpt>
      <trkpt lat="43.64763" lon="1.38752">
        <ele>138</ele>
        <time>2024-11-06T17:25:56Z</time>
      </trkpt>
      <trkpt lat="43.64767" lon="1.3875">
        <ele>138</ele>
        <time>2024-11-06T17:25:57Z</time>
      </trkpt>
      <trkpt lat="43.64768" lon="1.38749">
        <ele>139</ele>
        <time>2024-11-06T17:25:58Z</time>
      </trkpt>
      <trkpt lat="43.64771" lon="1.38747">
        <ele>139</ele>
        <time>2024-11-06T17:25:59Z</time>
      </trkpt>
      <trkpt lat="43.64774" lon="1.38745">
        <ele>139</ele>
        <time>2024-11-06T17:26:00Z</time>
      </trkpt>
      <trkpt lat="43.64776" lon="1.38743">
        <ele>138</ele>
        <time>2024-11-06T17:26:01Z</time>
      </trkpt>
      <trkpt lat="43.64778" lon="1.38742">
        <ele>137</ele>
        <time>2024-11-06T17:26:02Z</time>
      </trkpt>
      <trkpt lat="43.64781" lon="1.3874">
        <ele>137</ele>
        <time>2024-11-06T17:26:03Z</time>
      </trkpt>
      <trkpt lat="43.64784" lon="1.38738">
        <ele>137</ele>
        <time>2024-11-06T17:26:04Z</time>
      </trkpt>
      <trkpt lat="43.64786" lon="1.38737">
        <ele>137</ele>
        <time>2024-11-06T17:26:05Z</time>
      </trkpt>
      <trkpt lat="43.64789" lon="1.38735">
        <ele>137</ele>
        <time>2024-11-06T17:26:06Z</time>
      </trkpt>
      <trkpt lat="43.64793" lon="1.38732">
        <ele>137</ele>
        <time>2024-11-06T17:26:07Z</time>
      </trkpt>
      <trkpt lat="43.64794" lon="1.3873">
        <ele>137</ele>
        <time>2024-11-06T17:26:08Z</time>
      </trkpt>
      <trkpt lat="43.64796" lon="1.38728">
        <ele>138</ele>
        <time>2024-11-06T17:26:09Z</time>
      </trkpt>
      <trkpt lat="43.64799" lon="1.38727">
        <ele>138</ele>
        <time>2024-11-06T17:26:10Z</time>
      </trkpt>
      <trkpt lat="43.64802" lon="1.38725">
        <ele>138</ele>
        <time>2024-11-06T17:26:11Z</time>
      </trkpt>
      <trkpt lat="43.64804" lon="1.38723">
        <ele>138</ele>
        <time>2024-11-06T17:26:12Z</time>
      </trkpt>
      <trkpt lat="43.64807" lon="1.38722">
        <ele>138</ele>
        <time>2024-11-06T17:26:13Z</time>
      </trkpt>
      <trkpt lat="43.64809" lon="1.3872">
        <ele>138</ele>
        <time>2024-11-06T17:26:14Z</time>
      </trkpt>
      <trkpt lat="43.64812" lon="1.38717">
        <ele>138</ele>
        <time>2024-11-06T17:26:15Z</time>
      </trkpt>
      <trkpt lat="43.64815" lon="1.38715">
        <ele>138</ele>
        <time>2024-11-06T17:26:16Z</time>
      </trkpt>
      <trkpt lat="43.64817" lon="1.38714">
        <ele>138</ele>
        <time>2024-11-06T17:26:17Z</time>
      </trkpt>
      <trkpt lat="43.64819" lon="1.38712">
        <ele>138</ele>
        <time>2024-11-06T17:26:18Z</time>
      </trkpt>
      <trkpt lat="43.64822" lon="1.3871">
        <ele>138</ele>
        <time>2024-11-06T17:26:19Z</time>
      </trkpt>
      <trkpt lat="43.64824" lon="1.38708">
        <ele>138</ele>
        <time>2024-11-06T17:26:20Z</time>
      </trkpt>
      <trkpt lat="43.64826" lon="1.38706">
        <ele>138</ele>
        <time>2024-11-06T17:26:21Z</time>
      </trkpt>
      <trkpt lat="43.64828" lon="1.38704">
        <ele>138</ele>
        <time>2024-11-06T17:26:22Z</time>
      </trkpt>
      <trkpt lat="43.6483" lon="1.38703">
        <ele>138</ele>
        <time>2024-11-06T17:26:23Z</time>
      </trkpt>
      <trkpt lat="43.64833" lon="1.38702">
        <ele>138</ele>
        <time>2024-11-06T17:26:24Z</time>
      </trkpt>
      <trkpt lat="43.64836" lon="1.387">
        <ele>138</ele>
        <time>2024-11-06T17:26:25Z</time>
      </trkpt>
      <trkpt lat="43.64838" lon="1.38699">
        <ele>138</ele>
        <time>2024-11-06T17:26:26Z</time>
      </trkpt>
      <trkpt lat="43.6484" lon="1.38697">
        <ele>138</ele>
        <time>2024-11-06T17:26:27Z</time>
      </trkpt>
      <trkpt lat="43.64843" lon="1.38696">
        <ele>138</ele>
        <time>2024-11-06T17:26:28Z</time>
      </trkpt>
      <trkpt lat="43.64845" lon="1.38693">
        <ele>138</ele>
        <time>2024-11-06T17:26:29Z</time>
      </trkpt>
      <trkpt lat="43.64847" lon="1.38691">
        <ele>138</ele>
        <time>2024-11-06T17:26:30Z</time>
      </trkpt>
      <trkpt lat="43.6485" lon="1.38689">
        <ele>138</ele>
        <time>2024-11-06T17:26:31Z</time>
      </trkpt>
      <trkpt lat="43.64853" lon="1.38687">
        <ele>138</ele>
        <time>2024-11-06T17:26:32Z</time>
      </trkpt>
      <trkpt lat="43.64855" lon="1.38686">
        <ele>138</ele>
        <time>2024-11-06T17:26:33Z</time>
      </trkpt>
      <trkpt lat="43.64858" lon="1.38684">
        <ele>138</ele>
        <time>2024-11-06T17:26:34Z</time>
      </trkpt>
      <trkpt lat="43.64861" lon="1.38682">
        <ele>138</ele>
        <time>2024-11-06T17:26:35Z</time>
      </trkpt>
      <trkpt lat="43.64862" lon="1.38681">
        <ele>138</ele>
        <time>2024-11-06T17:26:36Z</time>
      </trkpt>
      <trkpt lat="43.64865" lon="1.3868">
        <ele>138</ele>
        <time>2024-11-06T17:26:37Z</time>
      </trkpt>
      <trkpt lat="43.64868" lon="1.38678">
        <ele>138</ele>
        <time>2024-11-06T17:26:38Z</time>
      </trkpt>
      <trkpt lat="43.6487" lon="1.38676">
        <ele>138</ele>
        <time>2024-11-06T17:26:39Z</time>
      </trkpt>
      <trkpt lat="43.64873" lon="1.38674">
        <ele>138</ele>
        <time>2024-11-06T17:26:40Z</time>
      </trkpt>
      <trkpt lat="43.64876" lon="1.38672">
        <ele>138</ele>
        <time>2024-11-06T17:26:41Z</time>
      </trkpt>
      <trkpt lat="43.6488" lon="1.3867">
        <ele>138</ele>
        <time>2024-11-06T17:26:42Z</time>
      </trkpt>
      <trkpt lat="43.64881" lon="1.38669">
        <ele>138</ele>
        <time>2024-11-06T17:26:43Z</time>
      </trkpt>
      <trkpt lat="43.64884" lon="1.38667">
        <ele>138</ele>
        <time>2024-11-06T17:26:44Z</time>
      </trkpt>
      <trkpt lat="43.64887" lon="1.38666">
        <ele>138</ele>
        <time>2024-11-06T17:26:45Z</time>
      </trkpt>
      <trkpt lat="43.64891" lon="1.38663">
        <ele>138</ele>
        <time>2024-11-06T17:26:46Z</time>
      </trkpt>
      <trkpt lat="43.64892" lon="1.38662">
        <ele>138</ele>
        <time>2024-11-06T17:26:47Z</time>
      </trkpt>
      <trkpt lat="43.64894" lon="1.3866">
        <ele>138</ele>
        <time>2024-11-06T17:26:48Z</time>
      </trkpt>
      <trkpt lat="43.64897" lon="1.38659">
        <ele>138</ele>
        <time>2024-11-06T17:26:49Z</time>
      </trkpt>
      <trkpt lat="43.649" lon="1.38657">
        <ele>138</ele>
        <time>2024-11-06T17:26:50Z</time>
      </trkpt>
      <trkpt lat="43.64902" lon="1.38656">
        <ele>138</ele>
        <time>2024-11-06T17:26:51Z</time>
      </trkpt>
      <trkpt lat="43.64905" lon="1.38654">
        <ele>138</ele>
        <time>2024-11-06T17:26:52Z</time>
      </trkpt>
      <trkpt lat="43.64908" lon="1.38653">
        <ele>138</ele>
        <time>2024-11-06T17:26:53Z</time>
      </trkpt>
      <trkpt lat="43.64913" lon="1.38649">
        <ele>138</ele>
        <time>2024-11-06T17:26:54Z</time>
      </trkpt>
      <trkpt lat="43.64914" lon="1.38648">
        <ele>138</ele>
        <time>2024-11-06T17:26:55Z</time>
      </trkpt>
      <trkpt lat="43.64917" lon="1.38646">
        <ele>138</ele>
        <time>2024-11-06T17:26:56Z</time>
      </trkpt>
      <trkpt lat="43.6492" lon="1.38645">
        <ele>138</ele>
        <time>2024-11-06T17:26:57Z</time>
      </trkpt>
      <trkpt lat="43.64922" lon="1.38644">
        <ele>138</ele>
        <time>2024-11-06T17:26:58Z</time>
      </trkpt>
      <trkpt lat="43.64926" lon="1.38641">
        <ele>138</ele>
        <time>2024-11-06T17:26:59Z</time>
      </trkpt>
      <trkpt lat="43.64927" lon="1.3864">
        <ele>138</ele>
        <time>2024-11-06T17:27:00Z</time>
      </trkpt>
      <trkpt lat="43.6493" lon="1.38639">
        <ele>138</ele>
        <time>2024-11-06T17:27:01Z</time>
      </trkpt>
      <trkpt lat="43.64932" lon="1.38637">
        <ele>138</ele>
        <time>2024-11-06T17:27:02Z</time>
      </trkpt>
      <trkpt lat="43.64935" lon="1.38636">
        <ele>138</ele>
        <time>2024-11-06T17:27:03Z</time>
      </trkpt>
      <trkpt lat="43.64938" lon="1.38634">
        <ele>138</ele>
        <time>2024-11-06T17:27:04Z</time>
      </trkpt>
      <trkpt lat="43.6494" lon="1.38632">
        <ele>138</ele>
        <time>2024-11-06T17:27:05Z</time>
      </trkpt>
      <trkpt lat="43.64942" lon="1.3863">
        <ele>138</ele>
        <time>2024-11-06T17:27:06Z</time>
      </trkpt>
      <trkpt lat="43.64945" lon="1.38629">
        <ele>138</ele>
        <time>2024-11-06T17:27:07Z</time>
      </trkpt>
      <trkpt lat="43.64948" lon="1.38627">
        <ele>138</ele>
        <time>2024-11-06T17:27:08Z</time>
      </trkpt>
      <trkpt lat="43.64951" lon="1.38625">
        <ele>138</ele>
        <time>2024-11-06T17:27:09Z</time>
      </trkpt>
      <trkpt lat="43.64953" lon="1.38623">
        <ele>138</ele>
        <time>2024-11-06T17:27:10Z</time>
      </trkpt>
      <trkpt lat="43.64956" lon="1.38622">
        <ele>137</ele>
        <time>2024-11-06T17:27:11Z</time>
      </trkpt>
      <trkpt lat="43.64959" lon="1.3862">
        <ele>137</ele>
        <time>2024-11-06T17:27:12Z</time>
      </trkpt>
      <trkpt lat="43.64964" lon="1.38618">
        <ele>137</ele>
        <time>2024-11-06T17:27:13Z</time>
      </trkpt>
      <trkpt lat="43.64965" lon="1.38617">
        <ele>137</ele>
        <time>2024-11-06T17:27:14Z</time>
      </trkpt>
      <trkpt lat="43.64968" lon="1.38616">
        <ele>137</ele>
        <time>2024-11-06T17:27:15Z</time>
      </trkpt>
      <trkpt lat="43.64972" lon="1.38613">
        <ele>137</ele>
        <time>2024-11-06T17:27:16Z</time>
      </trkpt>
      <trkpt lat="43.64973" lon="1.38612">
        <ele>137</ele>
        <time>2024-11-06T17:27:17Z</time>
      </trkpt>
      <trkpt lat="43.64976" lon="1.38611">
        <ele>137</ele>
        <time>2024-11-06T17:27:18Z</time>
      </trkpt>
      <trkpt lat="43.64979" lon="1.3861">
        <ele>137</ele>
        <time>2024-11-06T17:27:19Z</time>
      </trkpt>
      <trkpt lat="43.64982" lon="1.38608">
        <ele>137</ele>
        <time>2024-11-06T17:27:20Z</time>
      </trkpt>
      <trkpt lat="43.64985" lon="1.38606">
        <ele>137</ele>
        <time>2024-11-06T17:27:21Z</time>
      </trkpt>
      <trkpt lat="43.64988" lon="1.38605">
        <ele>138</ele>
        <time>2024-11-06T17:27:22Z</time>
      </trkpt>
      <trkpt lat="43.64991" lon="1.38603">
        <ele>138</ele>
        <time>2024-11-06T17:27:23Z</time>
      </trkpt>
      <trkpt lat="43.64993" lon="1.38601">
        <ele>137</ele>
        <time>2024-11-06T17:27:24Z</time>
      </trkpt>
      <trkpt lat="43.64996" lon="1.38598">
        <ele>137</ele>
        <time>2024-11-06T17:27:25Z</time>
      </trkpt>
      <trkpt lat="43.64999" lon="1.38596">
        <ele>138</ele>
        <time>2024-11-06T17:27:26Z</time>
      </trkpt>
      <trkpt lat="43.65001" lon="1.38594">
        <ele>138</ele>
        <time>2024-11-06T17:27:27Z</time>
      </trkpt>
      <trkpt lat="43.65004" lon="1.38592">
        <ele>138</ele>
        <time>2024-11-06T17:27:28Z</time>
      </trkpt>
      <trkpt lat="43.65007" lon="1.38591">
        <ele>138</ele>
        <time>2024-11-06T17:27:29Z</time>
      </trkpt>
      <trkpt lat="43.6501" lon="1.3859">
        <ele>138</ele>
        <time>2024-11-06T17:27:30Z</time>
      </trkpt>
      <trkpt lat="43.65012" lon="1.38588">
        <ele>138</ele>
        <time>2024-11-06T17:27:31Z</time>
      </trkpt>
      <trkpt lat="43.65017" lon="1.38586">
        <ele>138</ele>
        <time>2024-11-06T17:27:32Z</time>
      </trkpt>
      <trkpt lat="43.65018" lon="1.38585">
        <ele>138</ele>
        <time>2024-11-06T17:27:33Z</time>
      </trkpt>
      <trkpt lat="43.65021" lon="1.38583">
        <ele>138</ele>
        <time>2024-11-06T17:27:34Z</time>
      </trkpt>
      <trkpt lat="43.65023" lon="1.38582">
        <ele>138</ele>
        <time>2024-11-06T17:27:35Z</time>
      </trkpt>
      <trkpt lat="43.65026" lon="1.3858">
        <ele>138</ele>
        <time>2024-11-06T17:27:36Z</time>
      </trkpt>
      <trkpt lat="43.65028" lon="1.38578">
        <ele>138</ele>
        <time>2024-11-06T17:27:37Z</time>
      </trkpt>
      <trkpt lat="43.65031" lon="1.38576">
        <ele>138</ele>
        <time>2024-11-06T17:27:38Z</time>
      </trkpt>
      <trkpt lat="43.65033" lon="1.38575">
        <ele>137</ele>
        <time>2024-11-06T17:27:39Z</time>
      </trkpt>
      <trkpt lat="43.65036" lon="1.38573">
        <ele>137</ele>
        <time>2024-11-06T17:27:40Z</time>
      </trkpt>
      <trkpt lat="43.65039" lon="1.38572">
        <ele>137</ele>
        <time>2024-11-06T17:27:41Z</time>
      </trkpt>
      <trkpt lat="43.65041" lon="1.3857">
        <ele>137</ele>
        <time>2024-11-06T17:27:42Z</time>
      </trkpt>
      <trkpt lat="43.65044" lon="1.38569">
        <ele>137</ele>
        <time>2024-11-06T17:27:43Z</time>
      </trkpt>
      <trkpt lat="43.65047" lon="1.38567">
        <ele>137</ele>
        <time>2024-11-06T17:27:44Z</time>
      </trkpt>
      <trkpt lat="43.6505" lon="1.38565">
        <ele>137</ele>
        <time>2024-11-06T17:27:45Z</time>
      </trkpt>
      <trkpt lat="43.65052" lon="1.38563">
        <ele>137</ele>
        <time>2024-11-06T17:27:46Z</time>
      </trkpt>
      <trkpt lat="43.65055" lon="1.38561">
        <ele>137</ele>
        <time>2024-11-06T17:27:47Z</time>
      </trkpt>
      <trkpt lat="43.65058" lon="1.3856">
        <ele>137</ele>
        <time>2024-11-06T17:27:48Z</time>
      </trkpt>
      <trkpt lat="43.65062" lon="1.38558">
        <ele>137</ele>
        <time>2024-11-06T17:27:49Z</time>
      </trkpt>
      <trkpt lat="43.65063" lon="1.38557">
        <ele>137</ele>
        <time>2024-11-06T17:27:50Z</time>
      </trkpt>
      <trkpt lat="43.65067" lon="1.38554">
        <ele>137</ele>
        <time>2024-11-06T17:27:51Z</time>
      </trkpt>
      <trkpt lat="43.65068" lon="1.38554">
        <ele>137</ele>
        <time>2024-11-06T17:27:52Z</time>
      </trkpt>
      <trkpt lat="43.65071" lon="1.38552">
        <ele>137</ele>
        <time>2024-11-06T17:27:53Z</time>
      </trkpt>
      <trkpt lat="43.65074" lon="1.3855">
        <ele>137</ele>
        <time>2024-11-06T17:27:54Z</time>
      </trkpt>
      <trkpt lat="43.65077" lon="1.38549">
        <ele>137</ele>
        <time>2024-11-06T17:27:55Z</time>
      </trkpt>
      <trkpt lat="43.65079" lon="1.38547">
        <ele>137</ele>
        <time>2024-11-06T17:27:56Z</time>
      </trkpt>
      <trkpt lat="43.65082" lon="1.38545">
        <ele>137</ele>
        <time>2024-11-06T17:27:57Z</time>
      </trkpt>
      <trkpt lat="43.65085" lon="1.38544">
        <ele>137</ele>
        <time>2024-11-06T17:27:58Z</time>
      </trkpt>
      <trkpt lat="43.65087" lon="1.38542">
        <ele>137</ele>
        <time>2024-11-06T17:27:59Z</time>
      </trkpt>
      <trkpt lat="43.6509" lon="1.3854">
        <ele>137</ele>
        <time>2024-11-06T17:28:00Z</time>
      </trkpt>
      <trkpt lat="43.65092" lon="1.38537">
        <ele>137</ele>
        <time>2024-11-06T17:28:01Z</time>
      </trkpt>
      <trkpt lat="43.65094" lon="1.38534">
        <ele>137</ele>
        <time>2024-11-06T17:28:02Z</time>
      </trkpt>
      <trkpt lat="43.65096" lon="1.38531">
        <ele>137</ele>
        <time>2024-11-06T17:28:03Z</time>
      </trkpt>
      <trkpt lat="43.65097" lon="1.38527">
        <ele>137</ele>
        <time>2024-11-06T17:28:04Z</time>
      </trkpt>
      <trkpt lat="43.65098" lon="1.38523">
        <ele>137</ele>
        <time>2024-11-06T17:28:05Z</time>
      </trkpt>
      <trkpt lat="43.651" lon="1.38518">
        <ele>137</ele>
        <time>2024-11-06T17:28:06Z</time>
      </trkpt>
      <trkpt lat="43.651" lon="1.38516">
        <ele>137</ele>
        <time>2024-11-06T17:28:07Z</time>
      </trkpt>
      <trkpt lat="43.65102" lon="1.38512">
        <ele>137</ele>
        <time>2024-11-06T17:28:08Z</time>
      </trkpt>
      <trkpt lat="43.65103" lon="1.38509">
        <ele>137</ele>
        <time>2024-11-06T17:28:09Z</time>
      </trkpt>
      <trkpt lat="43.65102" lon="1.38503">
        <ele>137</ele>
        <time>2024-11-06T17:28:10Z</time>
      </trkpt>
      <trkpt lat="43.65102" lon="1.38501">
        <ele>137</ele>
        <time>2024-11-06T17:28:11Z</time>
      </trkpt>
      <trkpt lat="43.65101" lon="1.38498">
        <ele>137</ele>
        <time>2024-11-06T17:28:12Z</time>
      </trkpt>
      <trkpt lat="43.65099" lon="1.38494">
        <ele>137</ele>
        <time>2024-11-06T17:28:13Z</time>
      </trkpt>
      <trkpt lat="43.65098" lon="1.38491">
        <ele>137</ele>
        <time>2024-11-06T17:28:14Z</time>
      </trkpt>
      <trkpt lat="43.65097" lon="1.38488">
        <ele>137</ele>
        <time>2024-11-06T17:28:15Z</time>
      </trkpt>
      <trkpt lat="43.65096" lon="1.38485">
        <ele>137</ele>
        <time>2024-11-06T17:28:16Z</time>
      </trkpt>
      <trkpt lat="43.65095" lon="1.38482">
        <ele>137</ele>
        <time>2024-11-06T17:28:17Z</time>
      </trkpt>
      <trkpt lat="43.65094" lon="1.38479">
        <ele>137</ele>
        <time>2024-11-06T17:28:18Z</time>
      </trkpt>
      <trkpt lat="43.65093" lon="1.38475">
        <ele>137</ele>
        <time>2024-11-06T17:28:19Z</time>
      </trkpt>
      <trkpt lat="43.65092" lon="1.38472">
        <ele>137</ele>
        <time>2024-11-06T17:28:20Z</time>
      </trkpt>
      <trkpt lat="43.65091" lon="1.38469">
        <ele>137</ele>
        <time>2024-11-06T17:28:21Z</time>
      </trkpt>
      <trkpt lat="43.6509" lon="1.38465">
        <ele>137</ele>
        <time>2024-11-06T17:28:22Z</time>
      </trkpt>
      <trkpt lat="43.65089" lon="1.38462">
        <ele>137</ele>
        <time>2024-11-06T17:28:23Z</time>
      </trkpt>
      <trkpt lat="43.65087" lon="1.38459">
        <ele>137</ele>
        <time>2024-11-06T17:28:24Z</time>
      </trkpt>
      <trkpt lat="43.65085" lon="1.38454">
        <ele>137</ele>
        <time>2024-11-06T17:28:25Z</time>
      </trkpt>
      <trkpt lat="43.65084" lon="1.38453">
        <ele>138</ele>
        <time>2024-11-06T17:28:26Z</time>
      </trkpt>
      <trkpt lat="43.65083" lon="1.38449">
        <ele>138</ele>
        <time>2024-11-06T17:28:27Z</time>
      </trkpt>
      <trkpt lat="43.65082" lon="1.38445">
        <ele>138</ele>
        <time>2024-11-06T17:28:28Z</time>
      </trkpt>
      <trkpt lat="43.6508" lon="1.38439">
        <ele>138</ele>
        <time>2024-11-06T17:28:29Z</time>
      </trkpt>
      <trkpt lat="43.65079" lon="1.38437">
        <ele>138</ele>
        <time>2024-11-06T17:28:30Z</time>
      </trkpt>
      <trkpt lat="43.65078" lon="1.38433">
        <ele>138</ele>
        <time>2024-11-06T17:28:31Z</time>
      </trkpt>
      <trkpt lat="43.65076" lon="1.38429">
        <ele>138</ele>
        <time>2024-11-06T17:28:32Z</time>
      </trkpt>
      <trkpt lat="43.65075" lon="1.38425">
        <ele>138</ele>
        <time>2024-11-06T17:28:33Z</time>
      </trkpt>
      <trkpt lat="43.65074" lon="1.38421">
        <ele>138</ele>
        <time>2024-11-06T17:28:34Z</time>
      </trkpt>
      <trkpt lat="43.65073" lon="1.38417">
        <ele>138</ele>
        <time>2024-11-06T17:28:35Z</time>
      </trkpt>
      <trkpt lat="43.65072" lon="1.38412">
        <ele>137</ele>
        <time>2024-11-06T17:28:36Z</time>
      </trkpt>
      <trkpt lat="43.65071" lon="1.38408">
        <ele>137</ele>
        <time>2024-11-06T17:28:37Z</time>
      </trkpt>
      <trkpt lat="43.6507" lon="1.38404">
        <ele>137</ele>
        <time>2024-11-06T17:28:38Z</time>
      </trkpt>
      <trkpt lat="43.65068" lon="1.384">
        <ele>137</ele>
        <time>2024-11-06T17:28:39Z</time>
      </trkpt>
      <trkpt lat="43.65067" lon="1.38396">
        <ele>137</ele>
        <time>2024-11-06T17:28:40Z</time>
      </trkpt>
      <trkpt lat="43.65066" lon="1.38391">
        <ele>137</ele>
        <time>2024-11-06T17:28:41Z</time>
      </trkpt>
      <trkpt lat="43.65065" lon="1.38389">
        <ele>138</ele>
        <time>2024-11-06T17:28:42Z</time>
      </trkpt>
      <trkpt lat="43.65064" lon="1.38385">
        <ele>138</ele>
        <time>2024-11-06T17:28:43Z</time>
      </trkpt>
      <trkpt lat="43.65062" lon="1.38382">
        <ele>138</ele>
        <time>2024-11-06T17:28:44Z</time>
      </trkpt>
      <trkpt lat="43.65061" lon="1.38378">
        <ele>138</ele>
        <time>2024-11-06T17:28:45Z</time>
      </trkpt>
      <trkpt lat="43.6506" lon="1.38374">
        <ele>138</ele>
        <time>2024-11-06T17:28:46Z</time>
      </trkpt>
      <trkpt lat="43.65059" lon="1.3837">
        <ele>138</ele>
        <time>2024-11-06T17:28:47Z</time>
      </trkpt>
      <trkpt lat="43.65057" lon="1.38363">
        <ele>138</ele>
        <time>2024-11-06T17:28:48Z</time>
      </trkpt>
      <trkpt lat="43.65057" lon="1.38362">
        <ele>138</ele>
        <time>2024-11-06T17:28:49Z</time>
      </trkpt>
      <trkpt lat="43.65056" lon="1.38358">
        <ele>138</ele>
        <time>2024-11-06T17:28:50Z</time>
      </trkpt>
      <trkpt lat="43.65055" lon="1.38355">
        <ele>138</ele>
        <time>2024-11-06T17:28:51Z</time>
      </trkpt>
      <trkpt lat="43.65054" lon="1.38351">
        <ele>138</ele>
        <time>2024-11-06T17:28:52Z</time>
      </trkpt>
      <trkpt lat="43.65053" lon="1.38348">
        <ele>138</ele>
        <time>2024-11-06T17:28:53Z</time>
      </trkpt>
      <trkpt lat="43.65052" lon="1.38344">
        <ele>138</ele>
        <time>2024-11-06T17:28:54Z</time>
      </trkpt>
      <trkpt lat="43.6505" lon="1.3834">
        <ele>138</ele>
        <time>2024-11-06T17:28:55Z</time>
      </trkpt>
      <trkpt lat="43.65049" lon="1.38337">
        <ele>138</ele>
        <time>2024-11-06T17:28:56Z</time>
      </trkpt>
      <trkpt lat="43.65048" lon="1.38333">
        <ele>138</ele>
        <time>2024-11-06T17:28:57Z</time>
      </trkpt>
      <trkpt lat="43.65046" lon="1.38327">
        <ele>138</ele>
        <time>2024-11-06T17:28:58Z</time>
      </trkpt>
      <trkpt lat="43.65045" lon="1.38325">
        <ele>138</ele>
        <time>2024-11-06T17:28:59Z</time>
      </trkpt>
      <trkpt lat="43.65044" lon="1.38321">
        <ele>138</ele>
        <time>2024-11-06T17:29:00Z</time>
      </trkpt>
      <trkpt lat="43.65043" lon="1.38318">
        <ele>138</ele>
        <time>2024-11-06T17:29:01Z</time>
      </trkpt>
      <trkpt lat="43.65042" lon="1.38313">
        <ele>138</ele>
        <time>2024-11-06T17:29:02Z</time>
      </trkpt>
      <trkpt lat="43.65041" lon="1.38309">
        <ele>138</ele>
        <time>2024-11-06T17:29:03Z</time>
      </trkpt>
      <trkpt lat="43.65039" lon="1.38306">
        <ele>138</ele>
        <time>2024-11-06T17:29:04Z</time>
      </trkpt>
      <trkpt lat="43.65038" lon="1.38302">
        <ele>138</ele>
        <time>2024-11-06T17:29:05Z</time>
      </trkpt>
      <trkpt lat="43.65037" lon="1.38298">
        <ele>138</ele>
        <time>2024-11-06T17:29:06Z</time>
      </trkpt>
      <trkpt lat="43.65036" lon="1.38292">
        <ele>138</ele>
        <time>2024-11-06T17:29:07Z</time>
      </trkpt>
      <trkpt lat="43.65035" lon="1.3829">
        <ele>138</ele>
        <time>2024-11-06T17:29:08Z</time>
      </trkpt>
      <trkpt lat="43.65034" lon="1.38287">
        <ele>138</ele>
        <time>2024-11-06T17:29:09Z</time>
      </trkpt>
      <trkpt lat="43.65033" lon="1.38283">
        <ele>138</ele>
        <time>2024-11-06T17:29:10Z</time>
      </trkpt>
      <trkpt lat="43.65032" lon="1.3828">
        <ele>138</ele>
        <time>2024-11-06T17:29:11Z</time>
      </trkpt>
      <trkpt lat="43.65031" lon="1.38276">
        <ele>138</ele>
        <time>2024-11-06T17:29:12Z</time>
      </trkpt>
      <trkpt lat="43.6503" lon="1.38272">
        <ele>138</ele>
        <time>2024-11-06T17:29:13Z</time>
      </trkpt>
      <trkpt lat="43.65029" lon="1.38268">
        <ele>138</ele>
        <time>2024-11-06T17:29:14Z</time>
      </trkpt>
      <trkpt lat="43.65027" lon="1.38263">
        <ele>138</ele>
        <time>2024-11-06T17:29:15Z</time>
      </trkpt>
      <trkpt lat="43.65026" lon="1.38261">
        <ele>138</ele>
        <time>2024-11-06T17:29:16Z</time>
      </trkpt>
      <trkpt lat="43.65025" lon="1.38258">
        <ele>139</ele>
        <time>2024-11-06T17:29:17Z</time>
      </trkpt>
      <trkpt lat="43.65024" lon="1.38254">
        <ele>139</ele>
        <time>2024-11-06T17:29:18Z</time>
      </trkpt>
      <trkpt lat="43.65023" lon="1.38251">
        <ele>139</ele>
        <time>2024-11-06T17:29:19Z</time>
      </trkpt>
      <trkpt lat="43.65022" lon="1.38247">
        <ele>139</ele>
        <time>2024-11-06T17:29:20Z</time>
      </trkpt>
      <trkpt lat="43.6502" lon="1.38243">
        <ele>139</ele>
        <time>2024-11-06T17:29:21Z</time>
      </trkpt>
      <trkpt lat="43.65019" lon="1.3824">
        <ele>139</ele>
        <time>2024-11-06T17:29:22Z</time>
      </trkpt>
      <trkpt lat="43.65018" lon="1.38236">
        <ele>138</ele>
        <time>2024-11-06T17:29:23Z</time>
      </trkpt>
      <trkpt lat="43.65017" lon="1.38232">
        <ele>138</ele>
        <time>2024-11-06T17:29:24Z</time>
      </trkpt>
      <trkpt lat="43.65016" lon="1.38229">
        <ele>139</ele>
        <time>2024-11-06T17:29:25Z</time>
      </trkpt>
      <trkpt lat="43.65014" lon="1.38225">
        <ele>139</ele>
        <time>2024-11-06T17:29:26Z</time>
      </trkpt>
      <trkpt lat="43.65013" lon="1.38221">
        <ele>139</ele>
        <time>2024-11-06T17:29:27Z</time>
      </trkpt>
      <trkpt lat="43.65012" lon="1.38218">
        <ele>138</ele>
        <time>2024-11-06T17:29:28Z</time>
      </trkpt>
      <trkpt lat="43.65011" lon="1.38214">
        <ele>138</ele>
        <time>2024-11-06T17:29:29Z</time>
      </trkpt>
      <trkpt lat="43.6501" lon="1.38209">
        <ele>138</ele>
        <time>2024-11-06T17:29:30Z</time>
      </trkpt>
      <trkpt lat="43.65009" lon="1.38205">
        <ele>138</ele>
        <time>2024-11-06T17:29:31Z</time>
      </trkpt>
      <trkpt lat="43.65007" lon="1.382">
        <ele>138</ele>
        <time>2024-11-06T17:29:32Z</time>
      </trkpt>
      <trkpt lat="43.65006" lon="1.38198">
        <ele>138</ele>
        <time>2024-11-06T17:29:33Z</time>
      </trkpt>
      <trkpt lat="43.65005" lon="1.38195">
        <ele>138</ele>
        <time>2024-11-06T17:29:34Z</time>
      </trkpt>
      <trkpt lat="43.65003" lon="1.38192">
        <ele>138</ele>
        <time>2024-11-06T17:29:35Z</time>
      </trkpt>
      <trkpt lat="43.65001" lon="1.3819">
        <ele>138</ele>
        <time>2024-11-06T17:29:36Z</time>
      </trkpt>
      <trkpt lat="43.65" lon="1.38187">
        <ele>138</ele>
        <time>2024-11-06T17:29:37Z</time>
      </trkpt>
      <trkpt lat="43.64998" lon="1.38184">
        <ele>138</ele>
        <time>2024-11-06T17:29:38Z</time>
      </trkpt>
      <trkpt lat="43.64996" lon="1.38181">
        <ele>138</ele>
        <time>2024-11-06T17:29:39Z</time>
      </trkpt>
      <trkpt lat="43.64993" lon="1.38179">
        <ele>138</ele>
        <time>2024-11-06T17:29:40Z</time>
      </trkpt>
      <trkpt lat="43.64991" lon="1.38175">
        <ele>138</ele>
        <time>2024-11-06T17:29:41Z</time>
      </trkpt>
      <trkpt lat="43.6499" lon="1.38171">
        <ele>138</ele>
        <time>2024-11-06T17:29:42Z</time>
      </trkpt>
      <trkpt lat="43.64991" lon="1.38167">
        <ele>139</ele>
        <time>2024-11-06T17:29:43Z</time>
      </trkpt>
      <trkpt lat="43.64991" lon="1.38163">
        <ele>139</ele>
        <time>2024-11-06T17:29:44Z</time>
      </trkpt>
      <trkpt lat="43.64992" lon="1.3816">
        <ele>139</ele>
        <time>2024-11-06T17:29:45Z</time>
      </trkpt>
      <trkpt lat="43.64994" lon="1.38156">
        <ele>138</ele>
        <time>2024-11-06T17:29:46Z</time>
      </trkpt>
      <trkpt lat="43.64994" lon="1.38156">
        <ele>138</ele>
        <time>2024-11-06T17:29:47Z</time>
      </trkpt>
      <trkpt lat="43.64995" lon="1.38152">
        <ele>138</ele>
        <time>2024-11-06T17:29:48Z</time>
      </trkpt>
      <trkpt lat="43.64997" lon="1.38148">
        <ele>138</ele>
        <time>2024-11-06T17:29:49Z</time>
      </trkpt>
      <trkpt lat="43.64998" lon="1.38144">
        <ele>138</ele>
        <time>2024-11-06T17:29:50Z</time>
      </trkpt>
      <trkpt lat="43.64999" lon="1.38137">
        <ele>138</ele>
        <time>2024-11-06T17:29:51Z</time>
      </trkpt>
      <trkpt lat="43.64999" lon="1.38131">
        <ele>138</ele>
        <time>2024-11-06T17:29:52Z</time>
      </trkpt>
      <trkpt lat="43.64998" lon="1.38127">
        <ele>138</ele>
        <time>2024-11-06T17:29:53Z</time>
      </trkpt>
      <trkpt lat="43.64997" lon="1.38123">
        <ele>138</ele>
        <time>2024-11-06T17:29:54Z</time>
      </trkpt>
      <trkpt lat="43.64996" lon="1.38119">
        <ele>138</ele>
        <time>2024-11-06T17:29:55Z</time>
      </trkpt>
      <trkpt lat="43.64996" lon="1.38117">
        <ele>137</ele>
        <time>2024-11-06T17:29:56Z</time>
      </trkpt>
      <trkpt lat="43.64995" lon="1.38115">
        <ele>137</ele>
        <time>2024-11-06T17:29:57Z</time>
      </trkpt>
      <trkpt lat="43.64994" lon="1.38113">
        <ele>137</ele>
        <time>2024-11-06T17:29:58Z</time>
      </trkpt>
      <trkpt lat="43.64994" lon="1.38111">
        <ele>137</ele>
        <time>2024-11-06T17:29:59Z</time>
      </trkpt>
      <trkpt lat="43.64991" lon="1.38103">
        <ele>137</ele>
        <time>2024-11-06T17:30:00Z</time>
      </trkpt>
      <trkpt lat="43.64991" lon="1.38101">
        <ele>137</ele>
        <time>2024-11-06T17:30:01Z</time>
      </trkpt>
      <trkpt lat="43.6499" lon="1.381">
        <ele>137</ele>
        <time>2024-11-06T17:30:02Z</time>
      </trkpt>
      <trkpt lat="43.6499" lon="1.38099">
        <ele>137</ele>
        <time>2024-11-06T17:30:03Z</time>
      </trkpt>
      <trkpt lat="43.64986" lon="1.38085">
        <ele>138</ele>
        <time>2024-11-06T17:30:05Z</time>
      </trkpt>
      <trkpt lat="43.64985" lon="1.38081">
        <ele>138</ele>
        <time>2024-11-06T17:30:06Z</time>
      </trkpt>
      <trkpt lat="43.64984" lon="1.38078">
        <ele>138</ele>
        <time>2024-11-06T17:30:07Z</time>
      </trkpt>
      <trkpt lat="43.64982" lon="1.38074">
        <ele>138</ele>
        <time>2024-11-06T17:30:08Z</time>
      </trkpt>
      <trkpt lat="43.64981" lon="1.38068">
        <ele>138</ele>
        <time>2024-11-06T17:30:09Z</time>
      </trkpt>
      <trkpt lat="43.64979" lon="1.38062">
        <ele>138</ele>
        <time>2024-11-06T17:30:10Z</time>
      </trkpt>
      <trkpt lat="43.64979" lon="1.3806">
        <ele>137</ele>
        <time>2024-11-06T17:30:11Z</time>
      </trkpt>
      <trkpt lat="43.64978" lon="1.38059">
        <ele>137</ele>
        <time>2024-11-06T17:30:12Z</time>
      </trkpt>
      <trkpt lat="43.64977" lon="1.38057">
        <ele>137</ele>
        <time>2024-11-06T17:30:13Z</time>
      </trkpt>
      <trkpt lat="43.64977" lon="1.38055">
        <ele>137</ele>
        <time>2024-11-06T17:30:14Z</time>
      </trkpt>
      <trkpt lat="43.64974" lon="1.38046">
        <ele>137</ele>
        <time>2024-11-06T17:30:15Z</time>
      </trkpt>
      <trkpt lat="43.64973" lon="1.38044">
        <ele>137</ele>
        <time>2024-11-06T17:30:16Z</time>
      </trkpt>
      <trkpt lat="43.64973" lon="1.38042">
        <ele>137</ele>
        <time>2024-11-06T17:30:17Z</time>
      </trkpt>
      <trkpt lat="43.64972" lon="1.38041">
        <ele>137</ele>
        <time>2024-11-06T17:30:18Z</time>
      </trkpt>
      <trkpt lat="43.64968" lon="1.3803">
        <ele>137</ele>
        <time>2024-11-06T17:30:19Z</time>
      </trkpt>
      <trkpt lat="43.64967" lon="1.38027">
        <ele>137</ele>
        <time>2024-11-06T17:30:20Z</time>
      </trkpt>
      <trkpt lat="43.64967" lon="1.38024">
        <ele>137</ele>
        <time>2024-11-06T17:30:21Z</time>
      </trkpt>
      <trkpt lat="43.64966" lon="1.38021">
        <ele>137</ele>
        <time>2024-11-06T17:30:22Z</time>
      </trkpt>
      <trkpt lat="43.64965" lon="1.38018">
        <ele>137</ele>
        <time>2024-11-06T17:30:23Z</time>
      </trkpt>
      <trkpt lat="43.64964" lon="1.38015">
        <ele>137</ele>
        <time>2024-11-06T17:30:24Z</time>
      </trkpt>
      <trkpt lat="43.64963" lon="1.38013">
        <ele>137</ele>
        <time>2024-11-06T17:30:25Z</time>
      </trkpt>
      <trkpt lat="43.64962" lon="1.38011">
        <ele>137</ele>
        <time>2024-11-06T17:30:26Z</time>
      </trkpt>
      <trkpt lat="43.64957" lon="1.38">
        <ele>136</ele>
        <time>2024-11-06T17:30:27Z</time>
      </trkpt>
      <trkpt lat="43.64955" lon="1.37997">
        <ele>136</ele>
        <time>2024-11-06T17:30:28Z</time>
      </trkpt>
      <trkpt lat="43.64953" lon="1.37993">
        <ele>136</ele>
        <time>2024-11-06T17:30:29Z</time>
      </trkpt>
      <trkpt lat="43.64951" lon="1.37989">
        <ele>136</ele>
        <time>2024-11-06T17:30:30Z</time>
      </trkpt>
      <trkpt lat="43.6495" lon="1.37984">
        <ele>136</ele>
        <time>2024-11-06T17:30:31Z</time>
      </trkpt>
      <trkpt lat="43.64949" lon="1.3798">
        <ele>136</ele>
        <time>2024-11-06T17:30:32Z</time>
      </trkpt>
      <trkpt lat="43.64948" lon="1.37976">
        <ele>136</ele>
        <time>2024-11-06T17:30:33Z</time>
      </trkpt>
      <trkpt lat="43.64947" lon="1.37972">
        <ele>136</ele>
        <time>2024-11-06T17:30:34Z</time>
      </trkpt>
      <trkpt lat="43.64947" lon="1.37968">
        <ele>136</ele>
        <time>2024-11-06T17:30:35Z</time>
      </trkpt>
      <trkpt lat="43.64947" lon="1.37964">
        <ele>137</ele>
        <time>2024-11-06T17:30:36Z</time>
      </trkpt>
      <trkpt lat="43.64947" lon="1.37959">
        <ele>137</ele>
        <time>2024-11-06T17:30:37Z</time>
      </trkpt>
      <trkpt lat="43.64946" lon="1.37953">
        <ele>137</ele>
        <time>2024-11-06T17:30:38Z</time>
      </trkpt>
      <trkpt lat="43.64946" lon="1.37952">
        <ele>137</ele>
        <time>2024-11-06T17:30:39Z</time>
      </trkpt>
      <trkpt lat="43.64945" lon="1.37948">
        <ele>137</ele>
        <time>2024-11-06T17:30:40Z</time>
      </trkpt>
      <trkpt lat="43.64944" lon="1.37944">
        <ele>137</ele>
        <time>2024-11-06T17:30:41Z</time>
      </trkpt>
      <trkpt lat="43.64943" lon="1.3794">
        <ele>137</ele>
        <time>2024-11-06T17:30:42Z</time>
      </trkpt>
      <trkpt lat="43.64942" lon="1.37936">
        <ele>137</ele>
        <time>2024-11-06T17:30:43Z</time>
      </trkpt>
      <trkpt lat="43.64941" lon="1.37932">
        <ele>137</ele>
        <time>2024-11-06T17:30:44Z</time>
      </trkpt>
      <trkpt lat="43.6494" lon="1.37928">
        <ele>137</ele>
        <time>2024-11-06T17:30:45Z</time>
      </trkpt>
      <trkpt lat="43.64939" lon="1.37923">
        <ele>138</ele>
        <time>2024-11-06T17:30:46Z</time>
      </trkpt>
      <trkpt lat="43.64938" lon="1.37919">
        <ele>138</ele>
        <time>2024-11-06T17:30:47Z</time>
      </trkpt>
      <trkpt lat="43.64937" lon="1.37916">
        <ele>138</ele>
        <time>2024-11-06T17:30:48Z</time>
      </trkpt>
      <trkpt lat="43.64936" lon="1.37912">
        <ele>138</ele>
        <time>2024-11-06T17:30:49Z</time>
      </trkpt>
      <trkpt lat="43.64935" lon="1.37908">
        <ele>138</ele>
        <time>2024-11-06T17:30:50Z</time>
      </trkpt>
      <trkpt lat="43.64934" lon="1.37904">
        <ele>138</ele>
        <time>2024-11-06T17:30:51Z</time>
      </trkpt>
      <trkpt lat="43.64933" lon="1.379">
        <ele>138</ele>
        <time>2024-11-06T17:30:52Z</time>
      </trkpt>
      <trkpt lat="43.64932" lon="1.37896">
        <ele>138</ele>
        <time>2024-11-06T17:30:53Z</time>
      </trkpt>
      <trkpt lat="43.64931" lon="1.37892">
        <ele>138</ele>
        <time>2024-11-06T17:30:54Z</time>
      </trkpt>
      <trkpt lat="43.6493" lon="1.37888">
        <ele>138</ele>
        <time>2024-11-06T17:30:55Z</time>
      </trkpt>
      <trkpt lat="43.6493" lon="1.37888">
        <ele>137</ele>
        <time>2024-11-06T17:30:56Z</time>
      </trkpt>
      <trkpt lat="43.64928" lon="1.3788">
        <ele>137</ele>
        <time>2024-11-06T17:30:57Z</time>
      </trkpt>
      <trkpt lat="43.64927" lon="1.37876">
        <ele>137</ele>
        <time>2024-11-06T17:30:58Z</time>
      </trkpt>
      <trkpt lat="43.64926" lon="1.37873">
        <ele>137</ele>
        <time>2024-11-06T17:30:59Z</time>
      </trkpt>
      <trkpt lat="43.64925" lon="1.37869">
        <ele>138</ele>
        <time>2024-11-06T17:31:00Z</time>
      </trkpt>
      <trkpt lat="43.64924" lon="1.37863">
        <ele>138</ele>
        <time>2024-11-06T17:31:01Z</time>
      </trkpt>
      <trkpt lat="43.64924" lon="1.37861">
        <ele>138</ele>
        <time>2024-11-06T17:31:02Z</time>
      </trkpt>
      <trkpt lat="43.64923" lon="1.37858">
        <ele>138</ele>
        <time>2024-11-06T17:31:03Z</time>
      </trkpt>
      <trkpt lat="43.64922" lon="1.37854">
        <ele>138</ele>
        <time>2024-11-06T17:31:04Z</time>
      </trkpt>
      <trkpt lat="43.64922" lon="1.3785">
        <ele>138</ele>
        <time>2024-11-06T17:31:05Z</time>
      </trkpt>
      <trkpt lat="43.6492" lon="1.37845">
        <ele>138</ele>
        <time>2024-11-06T17:31:06Z</time>
      </trkpt>
      <trkpt lat="43.64919" lon="1.37841">
        <ele>138</ele>
        <time>2024-11-06T17:31:07Z</time>
      </trkpt>
      <trkpt lat="43.64918" lon="1.37837">
        <ele>138</ele>
        <time>2024-11-06T17:31:08Z</time>
      </trkpt>
      <trkpt lat="43.64917" lon="1.37833">
        <ele>138</ele>
        <time>2024-11-06T17:31:09Z</time>
      </trkpt>
      <trkpt lat="43.64916" lon="1.37829">
        <ele>138</ele>
        <time>2024-11-06T17:31:10Z</time>
      </trkpt>
      <trkpt lat="43.64914" lon="1.37823">
        <ele>138</ele>
        <time>2024-11-06T17:31:11Z</time>
      </trkpt>
      <trkpt lat="43.64914" lon="1.37821">
        <ele>138</ele>
        <time>2024-11-06T17:31:12Z</time>
      </trkpt>
      <trkpt lat="43.64913" lon="1.37817">
        <ele>137</ele>
        <time>2024-11-06T17:31:13Z</time>
      </trkpt>
      <trkpt lat="43.64911" lon="1.37814">
        <ele>138</ele>
        <time>2024-11-06T17:31:14Z</time>
      </trkpt>
      <trkpt lat="43.64911" lon="1.3781">
        <ele>138</ele>
        <time>2024-11-06T17:31:15Z</time>
      </trkpt>
      <trkpt lat="43.6491" lon="1.37808">
        <ele>138</ele>
        <time>2024-11-06T17:31:16Z</time>
      </trkpt>
      <trkpt lat="43.64909" lon="1.37805">
        <ele>138</ele>
        <time>2024-11-06T17:31:17Z</time>
      </trkpt>
      <trkpt lat="43.64909" lon="1.37803">
        <ele>138</ele>
        <time>2024-11-06T17:31:18Z</time>
      </trkpt>
      <trkpt lat="43.64908" lon="1.37801">
        <ele>138</ele>
        <time>2024-11-06T17:31:19Z</time>
      </trkpt>
      <trkpt lat="43.64906" lon="1.3779">
        <ele>138</ele>
        <time>2024-11-06T17:31:20Z</time>
      </trkpt>
      <trkpt lat="43.64905" lon="1.37788">
        <ele>138</ele>
        <time>2024-11-06T17:31:21Z</time>
      </trkpt>
      <trkpt lat="43.64905" lon="1.37785">
        <ele>138</ele>
        <time>2024-11-06T17:31:22Z</time>
      </trkpt>
      <trkpt lat="43.64904" lon="1.37781">
        <ele>138</ele>
        <time>2024-11-06T17:31:23Z</time>
      </trkpt>
      <trkpt lat="43.64904" lon="1.37777">
        <ele>138</ele>
        <time>2024-11-06T17:31:24Z</time>
      </trkpt>
      <trkpt lat="43.64903" lon="1.37774">
        <ele>138</ele>
        <time>2024-11-06T17:31:25Z</time>
      </trkpt>
      <trkpt lat="43.64902" lon="1.3777">
        <ele>138</ele>
        <time>2024-11-06T17:31:26Z</time>
      </trkpt>
      <trkpt lat="43.64901" lon="1.37766">
        <ele>138</ele>
        <time>2024-11-06T17:31:27Z</time>
      </trkpt>
      <trkpt lat="43.64899" lon="1.37762">
        <ele>138</ele>
        <time>2024-11-06T17:31:28Z</time>
      </trkpt>
      <trkpt lat="43.64898" lon="1.37756">
        <ele>138</ele>
        <time>2024-11-06T17:31:29Z</time>
      </trkpt>
      <trkpt lat="43.64898" lon="1.37754">
        <ele>138</ele>
        <time>2024-11-06T17:31:30Z</time>
      </trkpt>
      <trkpt lat="43.64896" lon="1.3775">
        <ele>138</ele>
        <time>2024-11-06T17:31:31Z</time>
      </trkpt>
      <trkpt lat="43.64895" lon="1.37745">
        <ele>138</ele>
        <time>2024-11-06T17:31:32Z</time>
      </trkpt>
      <trkpt lat="43.64895" lon="1.37741">
        <ele>138</ele>
        <time>2024-11-06T17:31:33Z</time>
      </trkpt>
      <trkpt lat="43.64893" lon="1.37737">
        <ele>139</ele>
        <time>2024-11-06T17:31:34Z</time>
      </trkpt>
      <trkpt lat="43.64893" lon="1.37733">
        <ele>139</ele>
        <time>2024-11-06T17:31:35Z</time>
      </trkpt>
      <trkpt lat="43.64892" lon="1.37729">
        <ele>139</ele>
        <time>2024-11-06T17:31:36Z</time>
      </trkpt>
      <trkpt lat="43.64891" lon="1.37726">
        <ele>139</ele>
        <time>2024-11-06T17:31:37Z</time>
      </trkpt>
      <trkpt lat="43.6489" lon="1.37722">
        <ele>139</ele>
        <time>2024-11-06T17:31:38Z</time>
      </trkpt>
      <trkpt lat="43.64889" lon="1.37716">
        <ele>139</ele>
        <time>2024-11-06T17:31:39Z</time>
      </trkpt>
      <trkpt lat="43.64889" lon="1.37714">
        <ele>139</ele>
        <time>2024-11-06T17:31:40Z</time>
      </trkpt>
      <trkpt lat="43.64888" lon="1.3771">
        <ele>139</ele>
        <time>2024-11-06T17:31:41Z</time>
      </trkpt>
      <trkpt lat="43.64887" lon="1.37706">
        <ele>139</ele>
        <time>2024-11-06T17:31:42Z</time>
      </trkpt>
      <trkpt lat="43.64886" lon="1.37702">
        <ele>139</ele>
        <time>2024-11-06T17:31:43Z</time>
      </trkpt>
      <trkpt lat="43.64884" lon="1.37698">
        <ele>139</ele>
        <time>2024-11-06T17:31:44Z</time>
      </trkpt>
      <trkpt lat="43.64883" lon="1.37692">
        <ele>139</ele>
        <time>2024-11-06T17:31:45Z</time>
      </trkpt>
      <trkpt lat="43.64883" lon="1.3769">
        <ele>139</ele>
        <time>2024-11-06T17:31:46Z</time>
      </trkpt>
      <trkpt lat="43.64881" lon="1.37686">
        <ele>139</ele>
        <time>2024-11-06T17:31:47Z</time>
      </trkpt>
      <trkpt lat="43.6488" lon="1.37681">
        <ele>139</ele>
        <time>2024-11-06T17:31:48Z</time>
      </trkpt>
      <trkpt lat="43.6488" lon="1.37678">
        <ele>139</ele>
        <time>2024-11-06T17:31:49Z</time>
      </trkpt>
      <trkpt lat="43.64879" lon="1.37673">
        <ele>139</ele>
        <time>2024-11-06T17:31:50Z</time>
      </trkpt>
      <trkpt lat="43.64878" lon="1.3767">
        <ele>139</ele>
        <time>2024-11-06T17:31:51Z</time>
      </trkpt>
      <trkpt lat="43.64877" lon="1.37666">
        <ele>139</ele>
        <time>2024-11-06T17:31:52Z</time>
      </trkpt>
      <trkpt lat="43.64876" lon="1.37662">
        <ele>139</ele>
        <time>2024-11-06T17:31:53Z</time>
      </trkpt>
      <trkpt lat="43.64875" lon="1.37658">
        <ele>139</ele>
        <time>2024-11-06T17:31:54Z</time>
      </trkpt>
      <trkpt lat="43.64875" lon="1.37658">
        <ele>139</ele>
        <time>2024-11-06T17:31:55Z</time>
      </trkpt>
    </trkseg>
  </trk>
</gpx>